<?xml version="1.0" encoding="UTF-8" standalone="no" ?>
<gpx xmlns="http://www.topografix.com/GPX/1/1" xmlns:xsi="http://www.w3.org/2001/XMLSchema-instance" xsi:schemaLocation="http://www.topografix.com/GPX/1/1 http://www.topografix.com/GPX/1/1/gpx.xsd" version="1.1" creator="VisuGPX - https://www.visugpx.com">
  <metadata>
    <name>Randonnée du 13/10/2018 à 17:28</name>
  </metadata>
  <trk>
    <name><![CDATA[Randonnée du 13/10/2018 à 17:28]]></name>
    <trkseg>
      <trkpt lat="44.3613" lon="4.85841">
        <ele>148</ele>
        <time>2018-10-12T08:58:44 02:00</time>
      </trkpt>
      <trkpt lat="44.3613" lon="4.85842">
        <ele>148</ele>
        <time>2018-10-12T08:58:45 02:00</time>
      </trkpt>
      <trkpt lat="44.3613" lon="4.85842">
        <ele>148</ele>
        <time>2018-10-12T08:58:46 02:00</time>
      </trkpt>
      <trkpt lat="44.3613" lon="4.85842">
        <ele>148</ele>
        <time>2018-10-12T08:58:47 02:00</time>
      </trkpt>
      <trkpt lat="44.3613" lon="4.85841">
        <ele>148</ele>
        <time>2018-10-12T08:58:48 02:00</time>
      </trkpt>
      <trkpt lat="44.36131" lon="4.8584">
        <ele>148</ele>
        <time>2018-10-12T08:58:49 02:00</time>
      </trkpt>
      <trkpt lat="44.36131" lon="4.85839">
        <ele>148</ele>
        <time>2018-10-12T08:58:50 02:00</time>
      </trkpt>
      <trkpt lat="44.36132" lon="4.85837">
        <ele>147</ele>
        <time>2018-10-12T08:58:51 02:00</time>
      </trkpt>
      <trkpt lat="44.36133" lon="4.85835">
        <ele>147</ele>
        <time>2018-10-12T08:58:52 02:00</time>
      </trkpt>
      <trkpt lat="44.36133" lon="4.85832">
        <ele>147</ele>
        <time>2018-10-12T08:58:53 02:00</time>
      </trkpt>
      <trkpt lat="44.36134" lon="4.85829">
        <ele>147</ele>
        <time>2018-10-12T08:58:54 02:00</time>
      </trkpt>
      <trkpt lat="44.36135" lon="4.85826">
        <ele>147</ele>
        <time>2018-10-12T08:58:55 02:00</time>
      </trkpt>
      <trkpt lat="44.36136" lon="4.85823">
        <ele>147</ele>
        <time>2018-10-12T08:58:56 02:00</time>
      </trkpt>
      <trkpt lat="44.36138" lon="4.85819">
        <ele>147</ele>
        <time>2018-10-12T08:58:57 02:00</time>
      </trkpt>
      <trkpt lat="44.36139" lon="4.85815">
        <ele>147</ele>
        <time>2018-10-12T08:58:58 02:00</time>
      </trkpt>
      <trkpt lat="44.3614" lon="4.85811">
        <ele>147</ele>
        <time>2018-10-12T08:58:59 02:00</time>
      </trkpt>
      <trkpt lat="44.36141" lon="4.85807">
        <ele>147</ele>
        <time>2018-10-12T08:59:00 02:00</time>
      </trkpt>
      <trkpt lat="44.36143" lon="4.85803">
        <ele>147</ele>
        <time>2018-10-12T08:59:01 02:00</time>
      </trkpt>
      <trkpt lat="44.36145" lon="4.85799">
        <ele>146</ele>
        <time>2018-10-12T08:59:02 02:00</time>
      </trkpt>
      <trkpt lat="44.36147" lon="4.85795">
        <ele>146</ele>
        <time>2018-10-12T08:59:03 02:00</time>
      </trkpt>
      <trkpt lat="44.36149" lon="4.85792">
        <ele>146</ele>
        <time>2018-10-12T08:59:04 02:00</time>
      </trkpt>
      <trkpt lat="44.36151" lon="4.85791">
        <ele>146</ele>
        <time>2018-10-12T08:59:05 02:00</time>
      </trkpt>
      <trkpt lat="44.36154" lon="4.8579">
        <ele>146</ele>
        <time>2018-10-12T08:59:06 02:00</time>
      </trkpt>
      <trkpt lat="44.36156" lon="4.85791">
        <ele>146</ele>
        <time>2018-10-12T08:59:07 02:00</time>
      </trkpt>
      <trkpt lat="44.36159" lon="4.85793">
        <ele>146</ele>
        <time>2018-10-12T08:59:08 02:00</time>
      </trkpt>
      <trkpt lat="44.36162" lon="4.85795">
        <ele>146</ele>
        <time>2018-10-12T08:59:09 02:00</time>
      </trkpt>
      <trkpt lat="44.36164" lon="4.85796">
        <ele>146</ele>
        <time>2018-10-12T08:59:10 02:00</time>
      </trkpt>
      <trkpt lat="44.36167" lon="4.85798">
        <ele>146</ele>
        <time>2018-10-12T08:59:11 02:00</time>
      </trkpt>
      <trkpt lat="44.36169" lon="4.858">
        <ele>146</ele>
        <time>2018-10-12T08:59:12 02:00</time>
      </trkpt>
      <trkpt lat="44.36172" lon="4.85802">
        <ele>146</ele>
        <time>2018-10-12T08:59:13 02:00</time>
      </trkpt>
      <trkpt lat="44.36175" lon="4.85804">
        <ele>146</ele>
        <time>2018-10-12T08:59:14 02:00</time>
      </trkpt>
      <trkpt lat="44.36177" lon="4.85806">
        <ele>146</ele>
        <time>2018-10-12T08:59:15 02:00</time>
      </trkpt>
      <trkpt lat="44.3618" lon="4.85807">
        <ele>146</ele>
        <time>2018-10-12T08:59:16 02:00</time>
      </trkpt>
      <trkpt lat="44.36183" lon="4.85809">
        <ele>147</ele>
        <time>2018-10-12T08:59:17 02:00</time>
      </trkpt>
      <trkpt lat="44.36186" lon="4.85811">
        <ele>147</ele>
        <time>2018-10-12T08:59:18 02:00</time>
      </trkpt>
      <trkpt lat="44.36188" lon="4.85813">
        <ele>147</ele>
        <time>2018-10-12T08:59:19 02:00</time>
      </trkpt>
      <trkpt lat="44.36191" lon="4.85815">
        <ele>147</ele>
        <time>2018-10-12T08:59:20 02:00</time>
      </trkpt>
      <trkpt lat="44.36194" lon="4.85817">
        <ele>147</ele>
        <time>2018-10-12T08:59:21 02:00</time>
      </trkpt>
      <trkpt lat="44.36196" lon="4.85819">
        <ele>147</ele>
        <time>2018-10-12T08:59:22 02:00</time>
      </trkpt>
      <trkpt lat="44.36199" lon="4.85822">
        <ele>147</ele>
        <time>2018-10-12T08:59:23 02:00</time>
      </trkpt>
      <trkpt lat="44.36202" lon="4.85824">
        <ele>147</ele>
        <time>2018-10-12T08:59:24 02:00</time>
      </trkpt>
      <trkpt lat="44.36204" lon="4.85826">
        <ele>147</ele>
        <time>2018-10-12T08:59:25 02:00</time>
      </trkpt>
      <trkpt lat="44.36207" lon="4.85828">
        <ele>147</ele>
        <time>2018-10-12T08:59:26 02:00</time>
      </trkpt>
      <trkpt lat="44.36209" lon="4.8583">
        <ele>147</ele>
        <time>2018-10-12T08:59:27 02:00</time>
      </trkpt>
      <trkpt lat="44.36212" lon="4.85832">
        <ele>147</ele>
        <time>2018-10-12T08:59:28 02:00</time>
      </trkpt>
      <trkpt lat="44.36214" lon="4.85835">
        <ele>147</ele>
        <time>2018-10-12T08:59:29 02:00</time>
      </trkpt>
      <trkpt lat="44.36217" lon="4.85837">
        <ele>147</ele>
        <time>2018-10-12T08:59:30 02:00</time>
      </trkpt>
      <trkpt lat="44.36219" lon="4.85839">
        <ele>147</ele>
        <time>2018-10-12T08:59:31 02:00</time>
      </trkpt>
      <trkpt lat="44.36222" lon="4.85841">
        <ele>147</ele>
        <time>2018-10-12T08:59:32 02:00</time>
      </trkpt>
      <trkpt lat="44.36224" lon="4.85844">
        <ele>147</ele>
        <time>2018-10-12T08:59:33 02:00</time>
      </trkpt>
      <trkpt lat="44.36227" lon="4.85846">
        <ele>147</ele>
        <time>2018-10-12T08:59:34 02:00</time>
      </trkpt>
      <trkpt lat="44.3623" lon="4.85849">
        <ele>147</ele>
        <time>2018-10-12T08:59:35 02:00</time>
      </trkpt>
      <trkpt lat="44.36232" lon="4.85851">
        <ele>147</ele>
        <time>2018-10-12T08:59:36 02:00</time>
      </trkpt>
      <trkpt lat="44.36235" lon="4.85853">
        <ele>147</ele>
        <time>2018-10-12T08:59:37 02:00</time>
      </trkpt>
      <trkpt lat="44.36238" lon="4.85856">
        <ele>147</ele>
        <time>2018-10-12T08:59:38 02:00</time>
      </trkpt>
      <trkpt lat="44.3624" lon="4.85858">
        <ele>147</ele>
        <time>2018-10-12T08:59:39 02:00</time>
      </trkpt>
      <trkpt lat="44.36243" lon="4.85861">
        <ele>147</ele>
        <time>2018-10-12T08:59:40 02:00</time>
      </trkpt>
      <trkpt lat="44.36246" lon="4.85863">
        <ele>147</ele>
        <time>2018-10-12T08:59:41 02:00</time>
      </trkpt>
      <trkpt lat="44.36248" lon="4.85866">
        <ele>147</ele>
        <time>2018-10-12T08:59:42 02:00</time>
      </trkpt>
      <trkpt lat="44.36251" lon="4.85868">
        <ele>147</ele>
        <time>2018-10-12T08:59:43 02:00</time>
      </trkpt>
      <trkpt lat="44.36254" lon="4.85871">
        <ele>147</ele>
        <time>2018-10-12T08:59:44 02:00</time>
      </trkpt>
      <trkpt lat="44.36256" lon="4.85874">
        <ele>147</ele>
        <time>2018-10-12T08:59:45 02:00</time>
      </trkpt>
      <trkpt lat="44.36259" lon="4.85876">
        <ele>147</ele>
        <time>2018-10-12T08:59:46 02:00</time>
      </trkpt>
      <trkpt lat="44.36262" lon="4.85879">
        <ele>147</ele>
        <time>2018-10-12T08:59:47 02:00</time>
      </trkpt>
      <trkpt lat="44.36265" lon="4.85881">
        <ele>147</ele>
        <time>2018-10-12T08:59:48 02:00</time>
      </trkpt>
      <trkpt lat="44.36267" lon="4.85883">
        <ele>147</ele>
        <time>2018-10-12T08:59:49 02:00</time>
      </trkpt>
      <trkpt lat="44.3627" lon="4.85885">
        <ele>147</ele>
        <time>2018-10-12T08:59:50 02:00</time>
      </trkpt>
      <trkpt lat="44.36273" lon="4.85886">
        <ele>147</ele>
        <time>2018-10-12T08:59:51 02:00</time>
      </trkpt>
      <trkpt lat="44.36276" lon="4.85887">
        <ele>148</ele>
        <time>2018-10-12T08:59:52 02:00</time>
      </trkpt>
      <trkpt lat="44.3628" lon="4.85888">
        <ele>148</ele>
        <time>2018-10-12T08:59:53 02:00</time>
      </trkpt>
      <trkpt lat="44.36283" lon="4.85889">
        <ele>148</ele>
        <time>2018-10-12T08:59:54 02:00</time>
      </trkpt>
      <trkpt lat="44.36286" lon="4.8589">
        <ele>148</ele>
        <time>2018-10-12T08:59:55 02:00</time>
      </trkpt>
      <trkpt lat="44.36289" lon="4.85891">
        <ele>148</ele>
        <time>2018-10-12T08:59:56 02:00</time>
      </trkpt>
      <trkpt lat="44.36292" lon="4.85892">
        <ele>148</ele>
        <time>2018-10-12T08:59:57 02:00</time>
      </trkpt>
      <trkpt lat="44.36295" lon="4.85893">
        <ele>148</ele>
        <time>2018-10-12T08:59:58 02:00</time>
      </trkpt>
      <trkpt lat="44.36298" lon="4.85894">
        <ele>148</ele>
        <time>2018-10-12T08:59:59 02:00</time>
      </trkpt>
      <trkpt lat="44.36301" lon="4.85894">
        <ele>148</ele>
        <time>2018-10-12T09:00:00 02:00</time>
      </trkpt>
      <trkpt lat="44.36304" lon="4.85895">
        <ele>148</ele>
        <time>2018-10-12T09:00:01 02:00</time>
      </trkpt>
      <trkpt lat="44.36307" lon="4.85896">
        <ele>148</ele>
        <time>2018-10-12T09:00:02 02:00</time>
      </trkpt>
      <trkpt lat="44.3631" lon="4.85896">
        <ele>148</ele>
        <time>2018-10-12T09:00:03 02:00</time>
      </trkpt>
      <trkpt lat="44.36313" lon="4.85897">
        <ele>148</ele>
        <time>2018-10-12T09:00:04 02:00</time>
      </trkpt>
      <trkpt lat="44.36316" lon="4.85897">
        <ele>148</ele>
        <time>2018-10-12T09:00:05 02:00</time>
      </trkpt>
      <trkpt lat="44.36319" lon="4.85898">
        <ele>148</ele>
        <time>2018-10-12T09:00:06 02:00</time>
      </trkpt>
      <trkpt lat="44.36322" lon="4.85898">
        <ele>149</ele>
        <time>2018-10-12T09:00:07 02:00</time>
      </trkpt>
      <trkpt lat="44.36324" lon="4.85899">
        <ele>149</ele>
        <time>2018-10-12T09:00:08 02:00</time>
      </trkpt>
      <trkpt lat="44.36327" lon="4.859">
        <ele>149</ele>
        <time>2018-10-12T09:00:09 02:00</time>
      </trkpt>
      <trkpt lat="44.3633" lon="4.85901">
        <ele>149</ele>
        <time>2018-10-12T09:00:10 02:00</time>
      </trkpt>
      <trkpt lat="44.36333" lon="4.85901">
        <ele>149</ele>
        <time>2018-10-12T09:00:11 02:00</time>
      </trkpt>
      <trkpt lat="44.36335" lon="4.85902">
        <ele>149</ele>
        <time>2018-10-12T09:00:12 02:00</time>
      </trkpt>
      <trkpt lat="44.36337" lon="4.85903">
        <ele>149</ele>
        <time>2018-10-12T09:00:13 02:00</time>
      </trkpt>
      <trkpt lat="44.3634" lon="4.85903">
        <ele>149</ele>
        <time>2018-10-12T09:00:14 02:00</time>
      </trkpt>
      <trkpt lat="44.36342" lon="4.85904">
        <ele>149</ele>
        <time>2018-10-12T09:00:15 02:00</time>
      </trkpt>
      <trkpt lat="44.36343" lon="4.85904">
        <ele>149</ele>
        <time>2018-10-12T09:00:16 02:00</time>
      </trkpt>
      <trkpt lat="44.36345" lon="4.85904">
        <ele>149</ele>
        <time>2018-10-12T09:00:17 02:00</time>
      </trkpt>
      <trkpt lat="44.36346" lon="4.85904">
        <ele>149</ele>
        <time>2018-10-12T09:00:18 02:00</time>
      </trkpt>
      <trkpt lat="44.36347" lon="4.85904">
        <ele>149</ele>
        <time>2018-10-12T09:00:19 02:00</time>
      </trkpt>
      <trkpt lat="44.36348" lon="4.85904">
        <ele>149</ele>
        <time>2018-10-12T09:00:20 02:00</time>
      </trkpt>
      <trkpt lat="44.36349" lon="4.85904">
        <ele>149</ele>
        <time>2018-10-12T09:00:21 02:00</time>
      </trkpt>
      <trkpt lat="44.36349" lon="4.85904">
        <ele>149</ele>
        <time>2018-10-12T09:00:22 02:00</time>
      </trkpt>
      <trkpt lat="44.3635" lon="4.85904">
        <ele>149</ele>
        <time>2018-10-12T09:00:23 02:00</time>
      </trkpt>
      <trkpt lat="44.3635" lon="4.85904">
        <ele>149</ele>
        <time>2018-10-12T09:00:24 02:00</time>
      </trkpt>
      <trkpt lat="44.3635" lon="4.85904">
        <ele>149</ele>
        <time>2018-10-12T09:00:25 02:00</time>
      </trkpt>
      <trkpt lat="44.3635" lon="4.85904">
        <ele>149</ele>
        <time>2018-10-12T09:00:26 02:00</time>
      </trkpt>
      <trkpt lat="44.3635" lon="4.85904">
        <ele>149</ele>
        <time>2018-10-12T09:00:27 02:00</time>
      </trkpt>
      <trkpt lat="44.3635" lon="4.85904">
        <ele>149</ele>
        <time>2018-10-12T09:00:28 02:00</time>
      </trkpt>
      <trkpt lat="44.3635" lon="4.85904">
        <ele>149</ele>
        <time>2018-10-12T09:00:29 02:00</time>
      </trkpt>
      <trkpt lat="44.3635" lon="4.85904">
        <ele>149</ele>
        <time>2018-10-12T09:00:30 02:00</time>
      </trkpt>
      <trkpt lat="44.3635" lon="4.85904">
        <ele>149</ele>
        <time>2018-10-12T09:00:31 02:00</time>
      </trkpt>
      <trkpt lat="44.3635" lon="4.85904">
        <ele>149</ele>
        <time>2018-10-12T09:00:32 02:00</time>
      </trkpt>
      <trkpt lat="44.36349" lon="4.85904">
        <ele>149</ele>
        <time>2018-10-12T09:00:33 02:00</time>
      </trkpt>
      <trkpt lat="44.36349" lon="4.85904">
        <ele>149</ele>
        <time>2018-10-12T09:00:34 02:00</time>
      </trkpt>
      <trkpt lat="44.36349" lon="4.85904">
        <ele>149</ele>
        <time>2018-10-12T09:00:35 02:00</time>
      </trkpt>
      <trkpt lat="44.36349" lon="4.85904">
        <ele>149</ele>
        <time>2018-10-12T09:00:36 02:00</time>
      </trkpt>
      <trkpt lat="44.36349" lon="4.85904">
        <ele>149</ele>
        <time>2018-10-12T09:00:37 02:00</time>
      </trkpt>
      <trkpt lat="44.36349" lon="4.85904">
        <ele>149</ele>
        <time>2018-10-12T09:00:38 02:00</time>
      </trkpt>
      <trkpt lat="44.36349" lon="4.85904">
        <ele>149</ele>
        <time>2018-10-12T09:00:39 02:00</time>
      </trkpt>
      <trkpt lat="44.36349" lon="4.85904">
        <ele>149</ele>
        <time>2018-10-12T09:00:40 02:00</time>
      </trkpt>
      <trkpt lat="44.36349" lon="4.85904">
        <ele>149</ele>
        <time>2018-10-12T09:00:41 02:00</time>
      </trkpt>
      <trkpt lat="44.36349" lon="4.85904">
        <ele>149</ele>
        <time>2018-10-12T09:00:42 02:00</time>
      </trkpt>
      <trkpt lat="44.36349" lon="4.85904">
        <ele>149</ele>
        <time>2018-10-12T09:00:43 02:00</time>
      </trkpt>
      <trkpt lat="44.36349" lon="4.85904">
        <ele>149</ele>
        <time>2018-10-12T09:00:44 02:00</time>
      </trkpt>
      <trkpt lat="44.36349" lon="4.85904">
        <ele>149</ele>
        <time>2018-10-12T09:00:45 02:00</time>
      </trkpt>
      <trkpt lat="44.36349" lon="4.85904">
        <ele>149</ele>
        <time>2018-10-12T09:00:46 02:00</time>
      </trkpt>
      <trkpt lat="44.36349" lon="4.85904">
        <ele>149</ele>
        <time>2018-10-12T09:00:47 02:00</time>
      </trkpt>
      <trkpt lat="44.36349" lon="4.85904">
        <ele>149</ele>
        <time>2018-10-12T09:00:48 02:00</time>
      </trkpt>
      <trkpt lat="44.36349" lon="4.85904">
        <ele>149</ele>
        <time>2018-10-12T09:00:49 02:00</time>
      </trkpt>
      <trkpt lat="44.36349" lon="4.85904">
        <ele>149</ele>
        <time>2018-10-12T09:00:50 02:00</time>
      </trkpt>
      <trkpt lat="44.36349" lon="4.85904">
        <ele>149</ele>
        <time>2018-10-12T09:00:51 02:00</time>
      </trkpt>
      <trkpt lat="44.36349" lon="4.85904">
        <ele>149</ele>
        <time>2018-10-12T09:00:52 02:00</time>
      </trkpt>
      <trkpt lat="44.36349" lon="4.85904">
        <ele>149</ele>
        <time>2018-10-12T09:00:53 02:00</time>
      </trkpt>
      <trkpt lat="44.36349" lon="4.85904">
        <ele>149</ele>
        <time>2018-10-12T09:00:54 02:00</time>
      </trkpt>
      <trkpt lat="44.36349" lon="4.85904">
        <ele>149</ele>
        <time>2018-10-12T09:00:55 02:00</time>
      </trkpt>
      <trkpt lat="44.36349" lon="4.85904">
        <ele>149</ele>
        <time>2018-10-12T09:00:56 02:00</time>
      </trkpt>
      <trkpt lat="44.36349" lon="4.85904">
        <ele>149</ele>
        <time>2018-10-12T09:00:57 02:00</time>
      </trkpt>
      <trkpt lat="44.36349" lon="4.85904">
        <ele>149</ele>
        <time>2018-10-12T09:00:58 02:00</time>
      </trkpt>
      <trkpt lat="44.36349" lon="4.85904">
        <ele>149</ele>
        <time>2018-10-12T09:00:59 02:00</time>
      </trkpt>
      <trkpt lat="44.36349" lon="4.85904">
        <ele>149</ele>
        <time>2018-10-12T09:01:00 02:00</time>
      </trkpt>
      <trkpt lat="44.36349" lon="4.85904">
        <ele>149</ele>
        <time>2018-10-12T09:01:01 02:00</time>
      </trkpt>
      <trkpt lat="44.36349" lon="4.85904">
        <ele>149</ele>
        <time>2018-10-12T09:01:02 02:00</time>
      </trkpt>
      <trkpt lat="44.36349" lon="4.85904">
        <ele>149</ele>
        <time>2018-10-12T09:01:03 02:00</time>
      </trkpt>
      <trkpt lat="44.36349" lon="4.85904">
        <ele>149</ele>
        <time>2018-10-12T09:01:04 02:00</time>
      </trkpt>
      <trkpt lat="44.36349" lon="4.85904">
        <ele>149</ele>
        <time>2018-10-12T09:01:05 02:00</time>
      </trkpt>
      <trkpt lat="44.36349" lon="4.85904">
        <ele>149</ele>
        <time>2018-10-12T09:01:06 02:00</time>
      </trkpt>
      <trkpt lat="44.36349" lon="4.85904">
        <ele>149</ele>
        <time>2018-10-12T09:01:07 02:00</time>
      </trkpt>
      <trkpt lat="44.36349" lon="4.85904">
        <ele>149</ele>
        <time>2018-10-12T09:01:08 02:00</time>
      </trkpt>
      <trkpt lat="44.36349" lon="4.85904">
        <ele>149</ele>
        <time>2018-10-12T09:01:09 02:00</time>
      </trkpt>
      <trkpt lat="44.36349" lon="4.85904">
        <ele>149</ele>
        <time>2018-10-12T09:01:10 02:00</time>
      </trkpt>
      <trkpt lat="44.36349" lon="4.85904">
        <ele>149</ele>
        <time>2018-10-12T09:01:11 02:00</time>
      </trkpt>
      <trkpt lat="44.36349" lon="4.85904">
        <ele>149</ele>
        <time>2018-10-12T09:01:12 02:00</time>
      </trkpt>
      <trkpt lat="44.36349" lon="4.85904">
        <ele>149</ele>
        <time>2018-10-12T09:01:13 02:00</time>
      </trkpt>
      <trkpt lat="44.36349" lon="4.85904">
        <ele>149</ele>
        <time>2018-10-12T09:01:14 02:00</time>
      </trkpt>
      <trkpt lat="44.36349" lon="4.85904">
        <ele>149</ele>
        <time>2018-10-12T09:01:15 02:00</time>
      </trkpt>
      <trkpt lat="44.36349" lon="4.85904">
        <ele>149</ele>
        <time>2018-10-12T09:01:16 02:00</time>
      </trkpt>
      <trkpt lat="44.36349" lon="4.85904">
        <ele>149</ele>
        <time>2018-10-12T09:01:17 02:00</time>
      </trkpt>
      <trkpt lat="44.36349" lon="4.85904">
        <ele>149</ele>
        <time>2018-10-12T09:01:18 02:00</time>
      </trkpt>
      <trkpt lat="44.36349" lon="4.85904">
        <ele>149</ele>
        <time>2018-10-12T09:01:19 02:00</time>
      </trkpt>
      <trkpt lat="44.3635" lon="4.85904">
        <ele>149</ele>
        <time>2018-10-12T09:01:20 02:00</time>
      </trkpt>
      <trkpt lat="44.3635" lon="4.85904">
        <ele>149</ele>
        <time>2018-10-12T09:01:21 02:00</time>
      </trkpt>
      <trkpt lat="44.3635" lon="4.85904">
        <ele>149</ele>
        <time>2018-10-12T09:01:22 02:00</time>
      </trkpt>
      <trkpt lat="44.36351" lon="4.85904">
        <ele>149</ele>
        <time>2018-10-12T09:01:23 02:00</time>
      </trkpt>
      <trkpt lat="44.36352" lon="4.85904">
        <ele>149</ele>
        <time>2018-10-12T09:01:24 02:00</time>
      </trkpt>
      <trkpt lat="44.36353" lon="4.85904">
        <ele>149</ele>
        <time>2018-10-12T09:01:25 02:00</time>
      </trkpt>
      <trkpt lat="44.36354" lon="4.85904">
        <ele>149</ele>
        <time>2018-10-12T09:01:26 02:00</time>
      </trkpt>
      <trkpt lat="44.36356" lon="4.85904">
        <ele>149</ele>
        <time>2018-10-12T09:01:27 02:00</time>
      </trkpt>
      <trkpt lat="44.36357" lon="4.85905">
        <ele>149</ele>
        <time>2018-10-12T09:01:28 02:00</time>
      </trkpt>
      <trkpt lat="44.36359" lon="4.85905">
        <ele>149</ele>
        <time>2018-10-12T09:01:29 02:00</time>
      </trkpt>
      <trkpt lat="44.3636" lon="4.85905">
        <ele>149</ele>
        <time>2018-10-12T09:01:30 02:00</time>
      </trkpt>
      <trkpt lat="44.36362" lon="4.85905">
        <ele>149</ele>
        <time>2018-10-12T09:01:31 02:00</time>
      </trkpt>
      <trkpt lat="44.36364" lon="4.85905">
        <ele>149</ele>
        <time>2018-10-12T09:01:32 02:00</time>
      </trkpt>
      <trkpt lat="44.36366" lon="4.85906">
        <ele>149</ele>
        <time>2018-10-12T09:01:33 02:00</time>
      </trkpt>
      <trkpt lat="44.36368" lon="4.85906">
        <ele>149</ele>
        <time>2018-10-12T09:01:34 02:00</time>
      </trkpt>
      <trkpt lat="44.3637" lon="4.85906">
        <ele>149</ele>
        <time>2018-10-12T09:01:35 02:00</time>
      </trkpt>
      <trkpt lat="44.36372" lon="4.85907">
        <ele>149</ele>
        <time>2018-10-12T09:01:36 02:00</time>
      </trkpt>
      <trkpt lat="44.36374" lon="4.85907">
        <ele>149</ele>
        <time>2018-10-12T09:01:37 02:00</time>
      </trkpt>
      <trkpt lat="44.36376" lon="4.85907">
        <ele>149</ele>
        <time>2018-10-12T09:01:38 02:00</time>
      </trkpt>
      <trkpt lat="44.36379" lon="4.85907">
        <ele>149</ele>
        <time>2018-10-12T09:01:39 02:00</time>
      </trkpt>
      <trkpt lat="44.36381" lon="4.85908">
        <ele>149</ele>
        <time>2018-10-12T09:01:40 02:00</time>
      </trkpt>
      <trkpt lat="44.36384" lon="4.85908">
        <ele>150</ele>
        <time>2018-10-12T09:01:41 02:00</time>
      </trkpt>
      <trkpt lat="44.36387" lon="4.85908">
        <ele>150</ele>
        <time>2018-10-12T09:01:42 02:00</time>
      </trkpt>
      <trkpt lat="44.36389" lon="4.85909">
        <ele>150</ele>
        <time>2018-10-12T09:01:43 02:00</time>
      </trkpt>
      <trkpt lat="44.36392" lon="4.85909">
        <ele>150</ele>
        <time>2018-10-12T09:01:44 02:00</time>
      </trkpt>
      <trkpt lat="44.36395" lon="4.85911">
        <ele>150</ele>
        <time>2018-10-12T09:01:45 02:00</time>
      </trkpt>
      <trkpt lat="44.36397" lon="4.85912">
        <ele>150</ele>
        <time>2018-10-12T09:01:46 02:00</time>
      </trkpt>
      <trkpt lat="44.36399" lon="4.85914">
        <ele>150</ele>
        <time>2018-10-12T09:01:47 02:00</time>
      </trkpt>
      <trkpt lat="44.36402" lon="4.85916">
        <ele>150</ele>
        <time>2018-10-12T09:01:48 02:00</time>
      </trkpt>
      <trkpt lat="44.36403" lon="4.85919">
        <ele>150</ele>
        <time>2018-10-12T09:01:49 02:00</time>
      </trkpt>
      <trkpt lat="44.36405" lon="4.85922">
        <ele>150</ele>
        <time>2018-10-12T09:01:50 02:00</time>
      </trkpt>
      <trkpt lat="44.36406" lon="4.85926">
        <ele>150</ele>
        <time>2018-10-12T09:01:51 02:00</time>
      </trkpt>
      <trkpt lat="44.36407" lon="4.85929">
        <ele>150</ele>
        <time>2018-10-12T09:01:52 02:00</time>
      </trkpt>
      <trkpt lat="44.36407" lon="4.85933">
        <ele>150</ele>
        <time>2018-10-12T09:01:53 02:00</time>
      </trkpt>
      <trkpt lat="44.36407" lon="4.85936">
        <ele>150</ele>
        <time>2018-10-12T09:01:54 02:00</time>
      </trkpt>
      <trkpt lat="44.36406" lon="4.8594">
        <ele>150</ele>
        <time>2018-10-12T09:01:55 02:00</time>
      </trkpt>
      <trkpt lat="44.36406" lon="4.85944">
        <ele>150</ele>
        <time>2018-10-12T09:01:56 02:00</time>
      </trkpt>
      <trkpt lat="44.36406" lon="4.85948">
        <ele>150</ele>
        <time>2018-10-12T09:01:57 02:00</time>
      </trkpt>
      <trkpt lat="44.36405" lon="4.85952">
        <ele>149</ele>
        <time>2018-10-12T09:01:58 02:00</time>
      </trkpt>
      <trkpt lat="44.36405" lon="4.85956">
        <ele>149</ele>
        <time>2018-10-12T09:01:59 02:00</time>
      </trkpt>
      <trkpt lat="44.36405" lon="4.8596">
        <ele>149</ele>
        <time>2018-10-12T09:02:00 02:00</time>
      </trkpt>
      <trkpt lat="44.36405" lon="4.85964">
        <ele>149</ele>
        <time>2018-10-12T09:02:01 02:00</time>
      </trkpt>
      <trkpt lat="44.36405" lon="4.85968">
        <ele>149</ele>
        <time>2018-10-12T09:02:02 02:00</time>
      </trkpt>
      <trkpt lat="44.36405" lon="4.85972">
        <ele>149</ele>
        <time>2018-10-12T09:02:03 02:00</time>
      </trkpt>
      <trkpt lat="44.36404" lon="4.85976">
        <ele>149</ele>
        <time>2018-10-12T09:02:04 02:00</time>
      </trkpt>
      <trkpt lat="44.36404" lon="4.8598">
        <ele>149</ele>
        <time>2018-10-12T09:02:05 02:00</time>
      </trkpt>
      <trkpt lat="44.36404" lon="4.85983">
        <ele>149</ele>
        <time>2018-10-12T09:02:06 02:00</time>
      </trkpt>
      <trkpt lat="44.36404" lon="4.85987">
        <ele>149</ele>
        <time>2018-10-12T09:02:07 02:00</time>
      </trkpt>
      <trkpt lat="44.36404" lon="4.85991">
        <ele>149</ele>
        <time>2018-10-12T09:02:08 02:00</time>
      </trkpt>
      <trkpt lat="44.36404" lon="4.85994">
        <ele>149</ele>
        <time>2018-10-12T09:02:09 02:00</time>
      </trkpt>
      <trkpt lat="44.36404" lon="4.85998">
        <ele>149</ele>
        <time>2018-10-12T09:02:10 02:00</time>
      </trkpt>
      <trkpt lat="44.36404" lon="4.86001">
        <ele>149</ele>
        <time>2018-10-12T09:02:11 02:00</time>
      </trkpt>
      <trkpt lat="44.36404" lon="4.86004">
        <ele>149</ele>
        <time>2018-10-12T09:02:12 02:00</time>
      </trkpt>
      <trkpt lat="44.36404" lon="4.86008">
        <ele>149</ele>
        <time>2018-10-12T09:02:13 02:00</time>
      </trkpt>
      <trkpt lat="44.36404" lon="4.86011">
        <ele>149</ele>
        <time>2018-10-12T09:02:14 02:00</time>
      </trkpt>
      <trkpt lat="44.36404" lon="4.86014">
        <ele>149</ele>
        <time>2018-10-12T09:02:15 02:00</time>
      </trkpt>
      <trkpt lat="44.36404" lon="4.86018">
        <ele>149</ele>
        <time>2018-10-12T09:02:16 02:00</time>
      </trkpt>
      <trkpt lat="44.36404" lon="4.86021">
        <ele>149</ele>
        <time>2018-10-12T09:02:17 02:00</time>
      </trkpt>
      <trkpt lat="44.36404" lon="4.86024">
        <ele>149</ele>
        <time>2018-10-12T09:02:18 02:00</time>
      </trkpt>
      <trkpt lat="44.36403" lon="4.86028">
        <ele>148</ele>
        <time>2018-10-12T09:02:19 02:00</time>
      </trkpt>
      <trkpt lat="44.36403" lon="4.86031">
        <ele>148</ele>
        <time>2018-10-12T09:02:20 02:00</time>
      </trkpt>
      <trkpt lat="44.36403" lon="4.86035">
        <ele>148</ele>
        <time>2018-10-12T09:02:21 02:00</time>
      </trkpt>
      <trkpt lat="44.36403" lon="4.86039">
        <ele>148</ele>
        <time>2018-10-12T09:02:22 02:00</time>
      </trkpt>
      <trkpt lat="44.36402" lon="4.86042">
        <ele>148</ele>
        <time>2018-10-12T09:02:23 02:00</time>
      </trkpt>
      <trkpt lat="44.36401" lon="4.86045">
        <ele>148</ele>
        <time>2018-10-12T09:02:24 02:00</time>
      </trkpt>
      <trkpt lat="44.36399" lon="4.86048">
        <ele>148</ele>
        <time>2018-10-12T09:02:25 02:00</time>
      </trkpt>
      <trkpt lat="44.36397" lon="4.86051">
        <ele>148</ele>
        <time>2018-10-12T09:02:26 02:00</time>
      </trkpt>
      <trkpt lat="44.36395" lon="4.86053">
        <ele>148</ele>
        <time>2018-10-12T09:02:27 02:00</time>
      </trkpt>
      <trkpt lat="44.36393" lon="4.86056">
        <ele>148</ele>
        <time>2018-10-12T09:02:28 02:00</time>
      </trkpt>
      <trkpt lat="44.36392" lon="4.86058">
        <ele>148</ele>
        <time>2018-10-12T09:02:29 02:00</time>
      </trkpt>
      <trkpt lat="44.36391" lon="4.8606">
        <ele>148</ele>
        <time>2018-10-12T09:02:30 02:00</time>
      </trkpt>
      <trkpt lat="44.36391" lon="4.86062">
        <ele>148</ele>
        <time>2018-10-12T09:02:31 02:00</time>
      </trkpt>
      <trkpt lat="44.3639" lon="4.86065">
        <ele>148</ele>
        <time>2018-10-12T09:02:32 02:00</time>
      </trkpt>
      <trkpt lat="44.3639" lon="4.86067">
        <ele>148</ele>
        <time>2018-10-12T09:02:33 02:00</time>
      </trkpt>
      <trkpt lat="44.36389" lon="4.86069">
        <ele>148</ele>
        <time>2018-10-12T09:02:34 02:00</time>
      </trkpt>
      <trkpt lat="44.36388" lon="4.86071">
        <ele>148</ele>
        <time>2018-10-12T09:02:35 02:00</time>
      </trkpt>
      <trkpt lat="44.36387" lon="4.86073">
        <ele>148</ele>
        <time>2018-10-12T09:02:36 02:00</time>
      </trkpt>
      <trkpt lat="44.36387" lon="4.86075">
        <ele>148</ele>
        <time>2018-10-12T09:02:37 02:00</time>
      </trkpt>
      <trkpt lat="44.36386" lon="4.86078">
        <ele>148</ele>
        <time>2018-10-12T09:02:38 02:00</time>
      </trkpt>
      <trkpt lat="44.36385" lon="4.8608">
        <ele>148</ele>
        <time>2018-10-12T09:02:39 02:00</time>
      </trkpt>
      <trkpt lat="44.36385" lon="4.86082">
        <ele>148</ele>
        <time>2018-10-12T09:02:40 02:00</time>
      </trkpt>
      <trkpt lat="44.36384" lon="4.86084">
        <ele>148</ele>
        <time>2018-10-12T09:02:41 02:00</time>
      </trkpt>
      <trkpt lat="44.36384" lon="4.86086">
        <ele>148</ele>
        <time>2018-10-12T09:02:42 02:00</time>
      </trkpt>
      <trkpt lat="44.36383" lon="4.86089">
        <ele>148</ele>
        <time>2018-10-12T09:02:43 02:00</time>
      </trkpt>
      <trkpt lat="44.36383" lon="4.86091">
        <ele>148</ele>
        <time>2018-10-12T09:02:44 02:00</time>
      </trkpt>
      <trkpt lat="44.36382" lon="4.86093">
        <ele>148</ele>
        <time>2018-10-12T09:02:45 02:00</time>
      </trkpt>
      <trkpt lat="44.36381" lon="4.86096">
        <ele>148</ele>
        <time>2018-10-12T09:02:46 02:00</time>
      </trkpt>
      <trkpt lat="44.3638" lon="4.86098">
        <ele>148</ele>
        <time>2018-10-12T09:02:47 02:00</time>
      </trkpt>
      <trkpt lat="44.36379" lon="4.86101">
        <ele>148</ele>
        <time>2018-10-12T09:02:48 02:00</time>
      </trkpt>
      <trkpt lat="44.36378" lon="4.86103">
        <ele>148</ele>
        <time>2018-10-12T09:02:49 02:00</time>
      </trkpt>
      <trkpt lat="44.36377" lon="4.86106">
        <ele>148</ele>
        <time>2018-10-12T09:02:50 02:00</time>
      </trkpt>
      <trkpt lat="44.36376" lon="4.86109">
        <ele>148</ele>
        <time>2018-10-12T09:02:51 02:00</time>
      </trkpt>
      <trkpt lat="44.36375" lon="4.86112">
        <ele>148</ele>
        <time>2018-10-12T09:02:52 02:00</time>
      </trkpt>
      <trkpt lat="44.36374" lon="4.86115">
        <ele>148</ele>
        <time>2018-10-12T09:02:53 02:00</time>
      </trkpt>
      <trkpt lat="44.36373" lon="4.86119">
        <ele>148</ele>
        <time>2018-10-12T09:02:54 02:00</time>
      </trkpt>
      <trkpt lat="44.36372" lon="4.86122">
        <ele>148</ele>
        <time>2018-10-12T09:02:55 02:00</time>
      </trkpt>
      <trkpt lat="44.36371" lon="4.86125">
        <ele>148</ele>
        <time>2018-10-12T09:02:56 02:00</time>
      </trkpt>
      <trkpt lat="44.3637" lon="4.86129">
        <ele>148</ele>
        <time>2018-10-12T09:02:57 02:00</time>
      </trkpt>
      <trkpt lat="44.36369" lon="4.86132">
        <ele>148</ele>
        <time>2018-10-12T09:02:58 02:00</time>
      </trkpt>
      <trkpt lat="44.36368" lon="4.86136">
        <ele>148</ele>
        <time>2018-10-12T09:02:59 02:00</time>
      </trkpt>
      <trkpt lat="44.36368" lon="4.86139">
        <ele>148</ele>
        <time>2018-10-12T09:03:00 02:00</time>
      </trkpt>
      <trkpt lat="44.36367" lon="4.86142">
        <ele>148</ele>
        <time>2018-10-12T09:03:01 02:00</time>
      </trkpt>
      <trkpt lat="44.36366" lon="4.86146">
        <ele>148</ele>
        <time>2018-10-12T09:03:02 02:00</time>
      </trkpt>
      <trkpt lat="44.36364" lon="4.86149">
        <ele>148</ele>
        <time>2018-10-12T09:03:03 02:00</time>
      </trkpt>
      <trkpt lat="44.36363" lon="4.86152">
        <ele>148</ele>
        <time>2018-10-12T09:03:04 02:00</time>
      </trkpt>
      <trkpt lat="44.36362" lon="4.86156">
        <ele>148</ele>
        <time>2018-10-12T09:03:05 02:00</time>
      </trkpt>
      <trkpt lat="44.36361" lon="4.86159">
        <ele>148</ele>
        <time>2018-10-12T09:03:06 02:00</time>
      </trkpt>
      <trkpt lat="44.3636" lon="4.86162">
        <ele>148</ele>
        <time>2018-10-12T09:03:07 02:00</time>
      </trkpt>
      <trkpt lat="44.36359" lon="4.86166">
        <ele>148</ele>
        <time>2018-10-12T09:03:08 02:00</time>
      </trkpt>
      <trkpt lat="44.36358" lon="4.86169">
        <ele>148</ele>
        <time>2018-10-12T09:03:09 02:00</time>
      </trkpt>
      <trkpt lat="44.36357" lon="4.86173">
        <ele>148</ele>
        <time>2018-10-12T09:03:10 02:00</time>
      </trkpt>
      <trkpt lat="44.36355" lon="4.86176">
        <ele>148</ele>
        <time>2018-10-12T09:03:11 02:00</time>
      </trkpt>
      <trkpt lat="44.36354" lon="4.8618">
        <ele>148</ele>
        <time>2018-10-12T09:03:12 02:00</time>
      </trkpt>
      <trkpt lat="44.36352" lon="4.86184">
        <ele>148</ele>
        <time>2018-10-12T09:03:13 02:00</time>
      </trkpt>
      <trkpt lat="44.36351" lon="4.86188">
        <ele>148</ele>
        <time>2018-10-12T09:03:14 02:00</time>
      </trkpt>
      <trkpt lat="44.3635" lon="4.86192">
        <ele>148</ele>
        <time>2018-10-12T09:03:15 02:00</time>
      </trkpt>
      <trkpt lat="44.36348" lon="4.86197">
        <ele>148</ele>
        <time>2018-10-12T09:03:16 02:00</time>
      </trkpt>
      <trkpt lat="44.36347" lon="4.86201">
        <ele>148</ele>
        <time>2018-10-12T09:03:17 02:00</time>
      </trkpt>
      <trkpt lat="44.36345" lon="4.86205">
        <ele>148</ele>
        <time>2018-10-12T09:03:18 02:00</time>
      </trkpt>
      <trkpt lat="44.36343" lon="4.8621">
        <ele>148</ele>
        <time>2018-10-12T09:03:19 02:00</time>
      </trkpt>
      <trkpt lat="44.36342" lon="4.86214">
        <ele>148</ele>
        <time>2018-10-12T09:03:20 02:00</time>
      </trkpt>
      <trkpt lat="44.3634" lon="4.86219">
        <ele>148</ele>
        <time>2018-10-12T09:03:21 02:00</time>
      </trkpt>
      <trkpt lat="44.36338" lon="4.86224">
        <ele>148</ele>
        <time>2018-10-12T09:03:22 02:00</time>
      </trkpt>
      <trkpt lat="44.36337" lon="4.86228">
        <ele>147</ele>
        <time>2018-10-12T09:03:23 02:00</time>
      </trkpt>
      <trkpt lat="44.36335" lon="4.86233">
        <ele>147</ele>
        <time>2018-10-12T09:03:24 02:00</time>
      </trkpt>
      <trkpt lat="44.36334" lon="4.86237">
        <ele>147</ele>
        <time>2018-10-12T09:03:25 02:00</time>
      </trkpt>
      <trkpt lat="44.36332" lon="4.86241">
        <ele>147</ele>
        <time>2018-10-12T09:03:26 02:00</time>
      </trkpt>
      <trkpt lat="44.3633" lon="4.86246">
        <ele>147</ele>
        <time>2018-10-12T09:03:27 02:00</time>
      </trkpt>
      <trkpt lat="44.36329" lon="4.8625">
        <ele>147</ele>
        <time>2018-10-12T09:03:28 02:00</time>
      </trkpt>
      <trkpt lat="44.36327" lon="4.86254">
        <ele>147</ele>
        <time>2018-10-12T09:03:29 02:00</time>
      </trkpt>
      <trkpt lat="44.36325" lon="4.86258">
        <ele>147</ele>
        <time>2018-10-12T09:03:30 02:00</time>
      </trkpt>
      <trkpt lat="44.36322" lon="4.86261">
        <ele>147</ele>
        <time>2018-10-12T09:03:31 02:00</time>
      </trkpt>
      <trkpt lat="44.3632" lon="4.86265">
        <ele>146</ele>
        <time>2018-10-12T09:03:32 02:00</time>
      </trkpt>
      <trkpt lat="44.36317" lon="4.86268">
        <ele>146</ele>
        <time>2018-10-12T09:03:33 02:00</time>
      </trkpt>
      <trkpt lat="44.36315" lon="4.86271">
        <ele>146</ele>
        <time>2018-10-12T09:03:34 02:00</time>
      </trkpt>
      <trkpt lat="44.36312" lon="4.86274">
        <ele>146</ele>
        <time>2018-10-12T09:03:35 02:00</time>
      </trkpt>
      <trkpt lat="44.3631" lon="4.86276">
        <ele>146</ele>
        <time>2018-10-12T09:03:36 02:00</time>
      </trkpt>
      <trkpt lat="44.36308" lon="4.86278">
        <ele>146</ele>
        <time>2018-10-12T09:03:37 02:00</time>
      </trkpt>
      <trkpt lat="44.36306" lon="4.8628">
        <ele>146</ele>
        <time>2018-10-12T09:03:38 02:00</time>
      </trkpt>
      <trkpt lat="44.36304" lon="4.86282">
        <ele>146</ele>
        <time>2018-10-12T09:03:39 02:00</time>
      </trkpt>
      <trkpt lat="44.36302" lon="4.86285">
        <ele>145</ele>
        <time>2018-10-12T09:03:40 02:00</time>
      </trkpt>
      <trkpt lat="44.36299" lon="4.86288">
        <ele>145</ele>
        <time>2018-10-12T09:03:41 02:00</time>
      </trkpt>
      <trkpt lat="44.36296" lon="4.86291">
        <ele>145</ele>
        <time>2018-10-12T09:03:42 02:00</time>
      </trkpt>
      <trkpt lat="44.36294" lon="4.86295">
        <ele>145</ele>
        <time>2018-10-12T09:03:43 02:00</time>
      </trkpt>
      <trkpt lat="44.3629" lon="4.86299">
        <ele>145</ele>
        <time>2018-10-12T09:03:44 02:00</time>
      </trkpt>
      <trkpt lat="44.36287" lon="4.86304">
        <ele>144</ele>
        <time>2018-10-12T09:03:45 02:00</time>
      </trkpt>
      <trkpt lat="44.36284" lon="4.86308">
        <ele>144</ele>
        <time>2018-10-12T09:03:46 02:00</time>
      </trkpt>
      <trkpt lat="44.3628" lon="4.86312">
        <ele>144</ele>
        <time>2018-10-12T09:03:47 02:00</time>
      </trkpt>
      <trkpt lat="44.36277" lon="4.86317">
        <ele>143</ele>
        <time>2018-10-12T09:03:48 02:00</time>
      </trkpt>
      <trkpt lat="44.36273" lon="4.86322">
        <ele>143</ele>
        <time>2018-10-12T09:03:49 02:00</time>
      </trkpt>
      <trkpt lat="44.36269" lon="4.86326">
        <ele>143</ele>
        <time>2018-10-12T09:03:50 02:00</time>
      </trkpt>
      <trkpt lat="44.36265" lon="4.86331">
        <ele>142</ele>
        <time>2018-10-12T09:03:51 02:00</time>
      </trkpt>
      <trkpt lat="44.36261" lon="4.86336">
        <ele>142</ele>
        <time>2018-10-12T09:03:52 02:00</time>
      </trkpt>
      <trkpt lat="44.36257" lon="4.86341">
        <ele>141</ele>
        <time>2018-10-12T09:03:53 02:00</time>
      </trkpt>
      <trkpt lat="44.36253" lon="4.86346">
        <ele>141</ele>
        <time>2018-10-12T09:03:54 02:00</time>
      </trkpt>
      <trkpt lat="44.3625" lon="4.86351">
        <ele>140</ele>
        <time>2018-10-12T09:03:55 02:00</time>
      </trkpt>
      <trkpt lat="44.36246" lon="4.86356">
        <ele>140</ele>
        <time>2018-10-12T09:03:56 02:00</time>
      </trkpt>
      <trkpt lat="44.36242" lon="4.86361">
        <ele>139</ele>
        <time>2018-10-12T09:03:57 02:00</time>
      </trkpt>
      <trkpt lat="44.36239" lon="4.86365">
        <ele>139</ele>
        <time>2018-10-12T09:03:58 02:00</time>
      </trkpt>
      <trkpt lat="44.36235" lon="4.8637">
        <ele>138</ele>
        <time>2018-10-12T09:03:59 02:00</time>
      </trkpt>
      <trkpt lat="44.36231" lon="4.86375">
        <ele>137</ele>
        <time>2018-10-12T09:04:00 02:00</time>
      </trkpt>
      <trkpt lat="44.36228" lon="4.8638">
        <ele>137</ele>
        <time>2018-10-12T09:04:01 02:00</time>
      </trkpt>
      <trkpt lat="44.36224" lon="4.86384">
        <ele>136</ele>
        <time>2018-10-12T09:04:02 02:00</time>
      </trkpt>
      <trkpt lat="44.36221" lon="4.86389">
        <ele>136</ele>
        <time>2018-10-12T09:04:03 02:00</time>
      </trkpt>
      <trkpt lat="44.36218" lon="4.86393">
        <ele>135</ele>
        <time>2018-10-12T09:04:04 02:00</time>
      </trkpt>
      <trkpt lat="44.36215" lon="4.86398">
        <ele>135</ele>
        <time>2018-10-12T09:04:05 02:00</time>
      </trkpt>
      <trkpt lat="44.36212" lon="4.86402">
        <ele>135</ele>
        <time>2018-10-12T09:04:06 02:00</time>
      </trkpt>
      <trkpt lat="44.3621" lon="4.86405">
        <ele>134</ele>
        <time>2018-10-12T09:04:07 02:00</time>
      </trkpt>
      <trkpt lat="44.36208" lon="4.86409">
        <ele>134</ele>
        <time>2018-10-12T09:04:08 02:00</time>
      </trkpt>
      <trkpt lat="44.36206" lon="4.86412">
        <ele>134</ele>
        <time>2018-10-12T09:04:09 02:00</time>
      </trkpt>
      <trkpt lat="44.36204" lon="4.86414">
        <ele>133</ele>
        <time>2018-10-12T09:04:10 02:00</time>
      </trkpt>
      <trkpt lat="44.36203" lon="4.86416">
        <ele>133</ele>
        <time>2018-10-12T09:04:11 02:00</time>
      </trkpt>
      <trkpt lat="44.36202" lon="4.86418">
        <ele>133</ele>
        <time>2018-10-12T09:04:12 02:00</time>
      </trkpt>
      <trkpt lat="44.36201" lon="4.86419">
        <ele>133</ele>
        <time>2018-10-12T09:04:13 02:00</time>
      </trkpt>
      <trkpt lat="44.36201" lon="4.86419">
        <ele>133</ele>
        <time>2018-10-12T09:04:14 02:00</time>
      </trkpt>
      <trkpt lat="44.36201" lon="4.86419">
        <ele>133</ele>
        <time>2018-10-12T09:04:15 02:00</time>
      </trkpt>
      <trkpt lat="44.36201" lon="4.8642">
        <ele>133</ele>
        <time>2018-10-12T09:04:16 02:00</time>
      </trkpt>
      <trkpt lat="44.36201" lon="4.8642">
        <ele>133</ele>
        <time>2018-10-12T09:04:17 02:00</time>
      </trkpt>
      <trkpt lat="44.36201" lon="4.8642">
        <ele>133</ele>
        <time>2018-10-12T09:04:18 02:00</time>
      </trkpt>
      <trkpt lat="44.36201" lon="4.8642">
        <ele>133</ele>
        <time>2018-10-12T09:04:19 02:00</time>
      </trkpt>
      <trkpt lat="44.36201" lon="4.8642">
        <ele>133</ele>
        <time>2018-10-12T09:04:20 02:00</time>
      </trkpt>
      <trkpt lat="44.36201" lon="4.8642">
        <ele>133</ele>
        <time>2018-10-12T09:04:21 02:00</time>
      </trkpt>
      <trkpt lat="44.36201" lon="4.8642">
        <ele>133</ele>
        <time>2018-10-12T09:04:22 02:00</time>
      </trkpt>
      <trkpt lat="44.36201" lon="4.8642">
        <ele>133</ele>
        <time>2018-10-12T09:04:23 02:00</time>
      </trkpt>
      <trkpt lat="44.36201" lon="4.8642">
        <ele>133</ele>
        <time>2018-10-12T09:04:24 02:00</time>
      </trkpt>
      <trkpt lat="44.36201" lon="4.8642">
        <ele>133</ele>
        <time>2018-10-12T09:04:25 02:00</time>
      </trkpt>
      <trkpt lat="44.36201" lon="4.8642">
        <ele>133</ele>
        <time>2018-10-12T09:04:26 02:00</time>
      </trkpt>
      <trkpt lat="44.36201" lon="4.8642">
        <ele>133</ele>
        <time>2018-10-12T09:04:27 02:00</time>
      </trkpt>
      <trkpt lat="44.36201" lon="4.8642">
        <ele>133</ele>
        <time>2018-10-12T09:04:28 02:00</time>
      </trkpt>
      <trkpt lat="44.36201" lon="4.8642">
        <ele>133</ele>
        <time>2018-10-12T09:04:29 02:00</time>
      </trkpt>
      <trkpt lat="44.36201" lon="4.8642">
        <ele>133</ele>
        <time>2018-10-12T09:04:30 02:00</time>
      </trkpt>
      <trkpt lat="44.36201" lon="4.8642">
        <ele>133</ele>
        <time>2018-10-12T09:04:31 02:00</time>
      </trkpt>
      <trkpt lat="44.36201" lon="4.8642">
        <ele>133</ele>
        <time>2018-10-12T09:04:32 02:00</time>
      </trkpt>
      <trkpt lat="44.36201" lon="4.8642">
        <ele>133</ele>
        <time>2018-10-12T09:04:33 02:00</time>
      </trkpt>
      <trkpt lat="44.36201" lon="4.8642">
        <ele>133</ele>
        <time>2018-10-12T09:04:34 02:00</time>
      </trkpt>
      <trkpt lat="44.36201" lon="4.8642">
        <ele>133</ele>
        <time>2018-10-12T09:04:35 02:00</time>
      </trkpt>
      <trkpt lat="44.36201" lon="4.8642">
        <ele>133</ele>
        <time>2018-10-12T09:04:36 02:00</time>
      </trkpt>
      <trkpt lat="44.36201" lon="4.8642">
        <ele>133</ele>
        <time>2018-10-12T09:04:37 02:00</time>
      </trkpt>
      <trkpt lat="44.36201" lon="4.8642">
        <ele>133</ele>
        <time>2018-10-12T09:04:38 02:00</time>
      </trkpt>
      <trkpt lat="44.36201" lon="4.8642">
        <ele>133</ele>
        <time>2018-10-12T09:04:39 02:00</time>
      </trkpt>
      <trkpt lat="44.36201" lon="4.8642">
        <ele>133</ele>
        <time>2018-10-12T09:04:40 02:00</time>
      </trkpt>
      <trkpt lat="44.36201" lon="4.8642">
        <ele>133</ele>
        <time>2018-10-12T09:04:41 02:00</time>
      </trkpt>
      <trkpt lat="44.36201" lon="4.8642">
        <ele>133</ele>
        <time>2018-10-12T09:04:42 02:00</time>
      </trkpt>
      <trkpt lat="44.36201" lon="4.8642">
        <ele>133</ele>
        <time>2018-10-12T09:04:43 02:00</time>
      </trkpt>
      <trkpt lat="44.36201" lon="4.8642">
        <ele>133</ele>
        <time>2018-10-12T09:04:44 02:00</time>
      </trkpt>
      <trkpt lat="44.36201" lon="4.8642">
        <ele>133</ele>
        <time>2018-10-12T09:04:45 02:00</time>
      </trkpt>
      <trkpt lat="44.36201" lon="4.8642">
        <ele>133</ele>
        <time>2018-10-12T09:04:46 02:00</time>
      </trkpt>
      <trkpt lat="44.36201" lon="4.8642">
        <ele>133</ele>
        <time>2018-10-12T09:04:47 02:00</time>
      </trkpt>
      <trkpt lat="44.36201" lon="4.8642">
        <ele>133</ele>
        <time>2018-10-12T09:04:48 02:00</time>
      </trkpt>
      <trkpt lat="44.36201" lon="4.8642">
        <ele>133</ele>
        <time>2018-10-12T09:04:49 02:00</time>
      </trkpt>
      <trkpt lat="44.36201" lon="4.8642">
        <ele>133</ele>
        <time>2018-10-12T09:04:50 02:00</time>
      </trkpt>
      <trkpt lat="44.36201" lon="4.8642">
        <ele>133</ele>
        <time>2018-10-12T09:04:51 02:00</time>
      </trkpt>
      <trkpt lat="44.36201" lon="4.8642">
        <ele>133</ele>
        <time>2018-10-12T09:04:52 02:00</time>
      </trkpt>
      <trkpt lat="44.36201" lon="4.8642">
        <ele>133</ele>
        <time>2018-10-12T09:04:53 02:00</time>
      </trkpt>
      <trkpt lat="44.36201" lon="4.8642">
        <ele>133</ele>
        <time>2018-10-12T09:04:54 02:00</time>
      </trkpt>
      <trkpt lat="44.36201" lon="4.8642">
        <ele>133</ele>
        <time>2018-10-12T09:04:55 02:00</time>
      </trkpt>
      <trkpt lat="44.36201" lon="4.8642">
        <ele>133</ele>
        <time>2018-10-12T09:04:56 02:00</time>
      </trkpt>
      <trkpt lat="44.36201" lon="4.8642">
        <ele>133</ele>
        <time>2018-10-12T09:04:57 02:00</time>
      </trkpt>
      <trkpt lat="44.36201" lon="4.8642">
        <ele>133</ele>
        <time>2018-10-12T09:04:58 02:00</time>
      </trkpt>
      <trkpt lat="44.36201" lon="4.8642">
        <ele>133</ele>
        <time>2018-10-12T09:04:59 02:00</time>
      </trkpt>
      <trkpt lat="44.36201" lon="4.8642">
        <ele>133</ele>
        <time>2018-10-12T09:05:00 02:00</time>
      </trkpt>
      <trkpt lat="44.362" lon="4.8642">
        <ele>133</ele>
        <time>2018-10-12T09:05:01 02:00</time>
      </trkpt>
      <trkpt lat="44.362" lon="4.86421">
        <ele>133</ele>
        <time>2018-10-12T09:05:02 02:00</time>
      </trkpt>
      <trkpt lat="44.36199" lon="4.86422">
        <ele>132</ele>
        <time>2018-10-12T09:05:03 02:00</time>
      </trkpt>
      <trkpt lat="44.36199" lon="4.86424">
        <ele>132</ele>
        <time>2018-10-12T09:05:04 02:00</time>
      </trkpt>
      <trkpt lat="44.36198" lon="4.86426">
        <ele>132</ele>
        <time>2018-10-12T09:05:05 02:00</time>
      </trkpt>
      <trkpt lat="44.36196" lon="4.86428">
        <ele>132</ele>
        <time>2018-10-12T09:05:06 02:00</time>
      </trkpt>
      <trkpt lat="44.36195" lon="4.86431">
        <ele>132</ele>
        <time>2018-10-12T09:05:07 02:00</time>
      </trkpt>
      <trkpt lat="44.36193" lon="4.86434">
        <ele>131</ele>
        <time>2018-10-12T09:05:08 02:00</time>
      </trkpt>
      <trkpt lat="44.36191" lon="4.86435">
        <ele>131</ele>
        <time>2018-10-12T09:05:09 02:00</time>
      </trkpt>
      <trkpt lat="44.36191" lon="4.86435">
        <ele>131</ele>
        <time>2018-10-12T09:05:10 02:00</time>
      </trkpt>
      <trkpt lat="44.36191" lon="4.86435">
        <ele>131</ele>
        <time>2018-10-12T09:05:11 02:00</time>
      </trkpt>
      <trkpt lat="44.36191" lon="4.86435">
        <ele>131</ele>
        <time>2018-10-12T09:05:12 02:00</time>
      </trkpt>
      <trkpt lat="44.36191" lon="4.86435">
        <ele>131</ele>
        <time>2018-10-12T09:05:13 02:00</time>
      </trkpt>
      <trkpt lat="44.36191" lon="4.86435">
        <ele>131</ele>
        <time>2018-10-12T09:05:14 02:00</time>
      </trkpt>
      <trkpt lat="44.36191" lon="4.86435">
        <ele>131</ele>
        <time>2018-10-12T09:05:15 02:00</time>
      </trkpt>
      <trkpt lat="44.36191" lon="4.86435">
        <ele>131</ele>
        <time>2018-10-12T09:05:16 02:00</time>
      </trkpt>
      <trkpt lat="44.36191" lon="4.86435">
        <ele>131</ele>
        <time>2018-10-12T09:05:17 02:00</time>
      </trkpt>
      <trkpt lat="44.36191" lon="4.86435">
        <ele>131</ele>
        <time>2018-10-12T09:05:18 02:00</time>
      </trkpt>
      <trkpt lat="44.36191" lon="4.86435">
        <ele>131</ele>
        <time>2018-10-12T09:05:19 02:00</time>
      </trkpt>
      <trkpt lat="44.36191" lon="4.86435">
        <ele>131</ele>
        <time>2018-10-12T09:05:20 02:00</time>
      </trkpt>
      <trkpt lat="44.36191" lon="4.86435">
        <ele>131</ele>
        <time>2018-10-12T09:05:21 02:00</time>
      </trkpt>
      <trkpt lat="44.36191" lon="4.86435">
        <ele>131</ele>
        <time>2018-10-12T09:05:22 02:00</time>
      </trkpt>
      <trkpt lat="44.36191" lon="4.86435">
        <ele>131</ele>
        <time>2018-10-12T09:05:23 02:00</time>
      </trkpt>
      <trkpt lat="44.36191" lon="4.86435">
        <ele>131</ele>
        <time>2018-10-12T09:05:24 02:00</time>
      </trkpt>
      <trkpt lat="44.36191" lon="4.86435">
        <ele>131</ele>
        <time>2018-10-12T09:05:25 02:00</time>
      </trkpt>
      <trkpt lat="44.36191" lon="4.86435">
        <ele>131</ele>
        <time>2018-10-12T09:05:26 02:00</time>
      </trkpt>
      <trkpt lat="44.36191" lon="4.86435">
        <ele>131</ele>
        <time>2018-10-12T09:05:27 02:00</time>
      </trkpt>
      <trkpt lat="44.36191" lon="4.86435">
        <ele>131</ele>
        <time>2018-10-12T09:05:28 02:00</time>
      </trkpt>
      <trkpt lat="44.36191" lon="4.86435">
        <ele>131</ele>
        <time>2018-10-12T09:05:29 02:00</time>
      </trkpt>
      <trkpt lat="44.36191" lon="4.86435">
        <ele>131</ele>
        <time>2018-10-12T09:05:30 02:00</time>
      </trkpt>
      <trkpt lat="44.36191" lon="4.86435">
        <ele>131</ele>
        <time>2018-10-12T09:05:31 02:00</time>
      </trkpt>
      <trkpt lat="44.36191" lon="4.86435">
        <ele>131</ele>
        <time>2018-10-12T09:05:32 02:00</time>
      </trkpt>
      <trkpt lat="44.36191" lon="4.86435">
        <ele>131</ele>
        <time>2018-10-12T09:05:33 02:00</time>
      </trkpt>
      <trkpt lat="44.36191" lon="4.86435">
        <ele>131</ele>
        <time>2018-10-12T09:05:34 02:00</time>
      </trkpt>
      <trkpt lat="44.36191" lon="4.86435">
        <ele>131</ele>
        <time>2018-10-12T09:05:35 02:00</time>
      </trkpt>
      <trkpt lat="44.36191" lon="4.86435">
        <ele>131</ele>
        <time>2018-10-12T09:05:36 02:00</time>
      </trkpt>
      <trkpt lat="44.36191" lon="4.86435">
        <ele>131</ele>
        <time>2018-10-12T09:05:37 02:00</time>
      </trkpt>
      <trkpt lat="44.36191" lon="4.86435">
        <ele>131</ele>
        <time>2018-10-12T09:05:38 02:00</time>
      </trkpt>
      <trkpt lat="44.36191" lon="4.86435">
        <ele>131</ele>
        <time>2018-10-12T09:05:39 02:00</time>
      </trkpt>
      <trkpt lat="44.36191" lon="4.86435">
        <ele>131</ele>
        <time>2018-10-12T09:05:40 02:00</time>
      </trkpt>
      <trkpt lat="44.36191" lon="4.86435">
        <ele>131</ele>
        <time>2018-10-12T09:05:41 02:00</time>
      </trkpt>
      <trkpt lat="44.36191" lon="4.86435">
        <ele>131</ele>
        <time>2018-10-12T09:05:42 02:00</time>
      </trkpt>
      <trkpt lat="44.3619" lon="4.86436">
        <ele>131</ele>
        <time>2018-10-12T09:05:43 02:00</time>
      </trkpt>
      <trkpt lat="44.36189" lon="4.86436">
        <ele>131</ele>
        <time>2018-10-12T09:05:44 02:00</time>
      </trkpt>
      <trkpt lat="44.36188" lon="4.86438">
        <ele>131</ele>
        <time>2018-10-12T09:05:45 02:00</time>
      </trkpt>
      <trkpt lat="44.36186" lon="4.86439">
        <ele>131</ele>
        <time>2018-10-12T09:05:46 02:00</time>
      </trkpt>
      <trkpt lat="44.36184" lon="4.86441">
        <ele>130</ele>
        <time>2018-10-12T09:05:47 02:00</time>
      </trkpt>
      <trkpt lat="44.36181" lon="4.86443">
        <ele>130</ele>
        <time>2018-10-12T09:05:48 02:00</time>
      </trkpt>
      <trkpt lat="44.36178" lon="4.86446">
        <ele>130</ele>
        <time>2018-10-12T09:05:49 02:00</time>
      </trkpt>
      <trkpt lat="44.36175" lon="4.86448">
        <ele>129</ele>
        <time>2018-10-12T09:05:50 02:00</time>
      </trkpt>
      <trkpt lat="44.36171" lon="4.86451">
        <ele>129</ele>
        <time>2018-10-12T09:05:51 02:00</time>
      </trkpt>
      <trkpt lat="44.36167" lon="4.86454">
        <ele>129</ele>
        <time>2018-10-12T09:05:52 02:00</time>
      </trkpt>
      <trkpt lat="44.36163" lon="4.86457">
        <ele>128</ele>
        <time>2018-10-12T09:05:53 02:00</time>
      </trkpt>
      <trkpt lat="44.36159" lon="4.8646">
        <ele>128</ele>
        <time>2018-10-12T09:05:54 02:00</time>
      </trkpt>
      <trkpt lat="44.36155" lon="4.86463">
        <ele>128</ele>
        <time>2018-10-12T09:05:55 02:00</time>
      </trkpt>
      <trkpt lat="44.36151" lon="4.86466">
        <ele>127</ele>
        <time>2018-10-12T09:05:56 02:00</time>
      </trkpt>
      <trkpt lat="44.36147" lon="4.86469">
        <ele>127</ele>
        <time>2018-10-12T09:05:57 02:00</time>
      </trkpt>
      <trkpt lat="44.36142" lon="4.86473">
        <ele>127</ele>
        <time>2018-10-12T09:05:58 02:00</time>
      </trkpt>
      <trkpt lat="44.36137" lon="4.86476">
        <ele>126</ele>
        <time>2018-10-12T09:05:59 02:00</time>
      </trkpt>
      <trkpt lat="44.36133" lon="4.8648">
        <ele>126</ele>
        <time>2018-10-12T09:06:00 02:00</time>
      </trkpt>
      <trkpt lat="44.36128" lon="4.86483">
        <ele>126</ele>
        <time>2018-10-12T09:06:01 02:00</time>
      </trkpt>
      <trkpt lat="44.36124" lon="4.86487">
        <ele>125</ele>
        <time>2018-10-12T09:06:02 02:00</time>
      </trkpt>
      <trkpt lat="44.36119" lon="4.8649">
        <ele>125</ele>
        <time>2018-10-12T09:06:03 02:00</time>
      </trkpt>
      <trkpt lat="44.36115" lon="4.86494">
        <ele>125</ele>
        <time>2018-10-12T09:06:04 02:00</time>
      </trkpt>
      <trkpt lat="44.36111" lon="4.86497">
        <ele>124</ele>
        <time>2018-10-12T09:06:05 02:00</time>
      </trkpt>
      <trkpt lat="44.36107" lon="4.86501">
        <ele>124</ele>
        <time>2018-10-12T09:06:06 02:00</time>
      </trkpt>
      <trkpt lat="44.36104" lon="4.86505">
        <ele>124</ele>
        <time>2018-10-12T09:06:07 02:00</time>
      </trkpt>
      <trkpt lat="44.36102" lon="4.8651">
        <ele>124</ele>
        <time>2018-10-12T09:06:08 02:00</time>
      </trkpt>
      <trkpt lat="44.36099" lon="4.86515">
        <ele>124</ele>
        <time>2018-10-12T09:06:09 02:00</time>
      </trkpt>
      <trkpt lat="44.36097" lon="4.8652">
        <ele>124</ele>
        <time>2018-10-12T09:06:10 02:00</time>
      </trkpt>
      <trkpt lat="44.36095" lon="4.86525">
        <ele>124</ele>
        <time>2018-10-12T09:06:11 02:00</time>
      </trkpt>
      <trkpt lat="44.36093" lon="4.8653">
        <ele>123</ele>
        <time>2018-10-12T09:06:12 02:00</time>
      </trkpt>
      <trkpt lat="44.36091" lon="4.86536">
        <ele>123</ele>
        <time>2018-10-12T09:06:13 02:00</time>
      </trkpt>
      <trkpt lat="44.3609" lon="4.86541">
        <ele>123</ele>
        <time>2018-10-12T09:06:14 02:00</time>
      </trkpt>
      <trkpt lat="44.36088" lon="4.86547">
        <ele>123</ele>
        <time>2018-10-12T09:06:15 02:00</time>
      </trkpt>
      <trkpt lat="44.36086" lon="4.86552">
        <ele>123</ele>
        <time>2018-10-12T09:06:16 02:00</time>
      </trkpt>
      <trkpt lat="44.36084" lon="4.86557">
        <ele>123</ele>
        <time>2018-10-12T09:06:17 02:00</time>
      </trkpt>
      <trkpt lat="44.36082" lon="4.86562">
        <ele>123</ele>
        <time>2018-10-12T09:06:18 02:00</time>
      </trkpt>
      <trkpt lat="44.36081" lon="4.86567">
        <ele>123</ele>
        <time>2018-10-12T09:06:19 02:00</time>
      </trkpt>
      <trkpt lat="44.36079" lon="4.86572">
        <ele>123</ele>
        <time>2018-10-12T09:06:20 02:00</time>
      </trkpt>
      <trkpt lat="44.36078" lon="4.86577">
        <ele>123</ele>
        <time>2018-10-12T09:06:21 02:00</time>
      </trkpt>
      <trkpt lat="44.36076" lon="4.86582">
        <ele>123</ele>
        <time>2018-10-12T09:06:22 02:00</time>
      </trkpt>
      <trkpt lat="44.36074" lon="4.86586">
        <ele>123</ele>
        <time>2018-10-12T09:06:23 02:00</time>
      </trkpt>
      <trkpt lat="44.36072" lon="4.8659">
        <ele>123</ele>
        <time>2018-10-12T09:06:24 02:00</time>
      </trkpt>
      <trkpt lat="44.36069" lon="4.86592">
        <ele>123</ele>
        <time>2018-10-12T09:06:25 02:00</time>
      </trkpt>
      <trkpt lat="44.36065" lon="4.86591">
        <ele>123</ele>
        <time>2018-10-12T09:06:26 02:00</time>
      </trkpt>
      <trkpt lat="44.36061" lon="4.86591">
        <ele>123</ele>
        <time>2018-10-12T09:06:27 02:00</time>
      </trkpt>
      <trkpt lat="44.36057" lon="4.8659">
        <ele>123</ele>
        <time>2018-10-12T09:06:28 02:00</time>
      </trkpt>
      <trkpt lat="44.36054" lon="4.86589">
        <ele>123</ele>
        <time>2018-10-12T09:06:29 02:00</time>
      </trkpt>
      <trkpt lat="44.3605" lon="4.86588">
        <ele>123</ele>
        <time>2018-10-12T09:06:30 02:00</time>
      </trkpt>
      <trkpt lat="44.36046" lon="4.86588">
        <ele>123</ele>
        <time>2018-10-12T09:06:31 02:00</time>
      </trkpt>
      <trkpt lat="44.36043" lon="4.86587">
        <ele>123</ele>
        <time>2018-10-12T09:06:32 02:00</time>
      </trkpt>
      <trkpt lat="44.36039" lon="4.86586">
        <ele>123</ele>
        <time>2018-10-12T09:06:33 02:00</time>
      </trkpt>
      <trkpt lat="44.36036" lon="4.86586">
        <ele>122</ele>
        <time>2018-10-12T09:06:34 02:00</time>
      </trkpt>
      <trkpt lat="44.36032" lon="4.86585">
        <ele>122</ele>
        <time>2018-10-12T09:06:35 02:00</time>
      </trkpt>
      <trkpt lat="44.36029" lon="4.86584">
        <ele>122</ele>
        <time>2018-10-12T09:06:36 02:00</time>
      </trkpt>
      <trkpt lat="44.36025" lon="4.86583">
        <ele>122</ele>
        <time>2018-10-12T09:06:37 02:00</time>
      </trkpt>
      <trkpt lat="44.36022" lon="4.86582">
        <ele>122</ele>
        <time>2018-10-12T09:06:38 02:00</time>
      </trkpt>
      <trkpt lat="44.36018" lon="4.86582">
        <ele>122</ele>
        <time>2018-10-12T09:06:39 02:00</time>
      </trkpt>
      <trkpt lat="44.36015" lon="4.86581">
        <ele>122</ele>
        <time>2018-10-12T09:06:40 02:00</time>
      </trkpt>
      <trkpt lat="44.36012" lon="4.8658">
        <ele>122</ele>
        <time>2018-10-12T09:06:41 02:00</time>
      </trkpt>
      <trkpt lat="44.36008" lon="4.86579">
        <ele>122</ele>
        <time>2018-10-12T09:06:42 02:00</time>
      </trkpt>
      <trkpt lat="44.36005" lon="4.86578">
        <ele>122</ele>
        <time>2018-10-12T09:06:43 02:00</time>
      </trkpt>
      <trkpt lat="44.36001" lon="4.86578">
        <ele>122</ele>
        <time>2018-10-12T09:06:44 02:00</time>
      </trkpt>
      <trkpt lat="44.35998" lon="4.86577">
        <ele>122</ele>
        <time>2018-10-12T09:06:45 02:00</time>
      </trkpt>
      <trkpt lat="44.35994" lon="4.86576">
        <ele>122</ele>
        <time>2018-10-12T09:06:46 02:00</time>
      </trkpt>
      <trkpt lat="44.35991" lon="4.86575">
        <ele>122</ele>
        <time>2018-10-12T09:06:47 02:00</time>
      </trkpt>
      <trkpt lat="44.35987" lon="4.86575">
        <ele>122</ele>
        <time>2018-10-12T09:06:48 02:00</time>
      </trkpt>
      <trkpt lat="44.35984" lon="4.86574">
        <ele>122</ele>
        <time>2018-10-12T09:06:49 02:00</time>
      </trkpt>
      <trkpt lat="44.3598" lon="4.86573">
        <ele>122</ele>
        <time>2018-10-12T09:06:50 02:00</time>
      </trkpt>
      <trkpt lat="44.35977" lon="4.86572">
        <ele>122</ele>
        <time>2018-10-12T09:06:51 02:00</time>
      </trkpt>
      <trkpt lat="44.35973" lon="4.86572">
        <ele>122</ele>
        <time>2018-10-12T09:06:52 02:00</time>
      </trkpt>
      <trkpt lat="44.3597" lon="4.86571">
        <ele>122</ele>
        <time>2018-10-12T09:06:53 02:00</time>
      </trkpt>
      <trkpt lat="44.35967" lon="4.8657">
        <ele>122</ele>
        <time>2018-10-12T09:06:54 02:00</time>
      </trkpt>
      <trkpt lat="44.35964" lon="4.8657">
        <ele>122</ele>
        <time>2018-10-12T09:06:55 02:00</time>
      </trkpt>
      <trkpt lat="44.3596" lon="4.86569">
        <ele>122</ele>
        <time>2018-10-12T09:06:56 02:00</time>
      </trkpt>
      <trkpt lat="44.35957" lon="4.86568">
        <ele>122</ele>
        <time>2018-10-12T09:06:57 02:00</time>
      </trkpt>
      <trkpt lat="44.35954" lon="4.86568">
        <ele>122</ele>
        <time>2018-10-12T09:06:58 02:00</time>
      </trkpt>
      <trkpt lat="44.35951" lon="4.86567">
        <ele>122</ele>
        <time>2018-10-12T09:06:59 02:00</time>
      </trkpt>
      <trkpt lat="44.35948" lon="4.86566">
        <ele>122</ele>
        <time>2018-10-12T09:07:00 02:00</time>
      </trkpt>
      <trkpt lat="44.35945" lon="4.86566">
        <ele>122</ele>
        <time>2018-10-12T09:07:01 02:00</time>
      </trkpt>
      <trkpt lat="44.35941" lon="4.86565">
        <ele>122</ele>
        <time>2018-10-12T09:07:02 02:00</time>
      </trkpt>
      <trkpt lat="44.35938" lon="4.86565">
        <ele>122</ele>
        <time>2018-10-12T09:07:03 02:00</time>
      </trkpt>
      <trkpt lat="44.35935" lon="4.86564">
        <ele>122</ele>
        <time>2018-10-12T09:07:04 02:00</time>
      </trkpt>
      <trkpt lat="44.35932" lon="4.86563">
        <ele>122</ele>
        <time>2018-10-12T09:07:05 02:00</time>
      </trkpt>
      <trkpt lat="44.35929" lon="4.86562">
        <ele>122</ele>
        <time>2018-10-12T09:07:06 02:00</time>
      </trkpt>
      <trkpt lat="44.35926" lon="4.86562">
        <ele>122</ele>
        <time>2018-10-12T09:07:07 02:00</time>
      </trkpt>
      <trkpt lat="44.35923" lon="4.86561">
        <ele>122</ele>
        <time>2018-10-12T09:07:08 02:00</time>
      </trkpt>
      <trkpt lat="44.3592" lon="4.8656">
        <ele>122</ele>
        <time>2018-10-12T09:07:09 02:00</time>
      </trkpt>
      <trkpt lat="44.35917" lon="4.8656">
        <ele>122</ele>
        <time>2018-10-12T09:07:10 02:00</time>
      </trkpt>
      <trkpt lat="44.35914" lon="4.86559">
        <ele>122</ele>
        <time>2018-10-12T09:07:11 02:00</time>
      </trkpt>
      <trkpt lat="44.35911" lon="4.86559">
        <ele>122</ele>
        <time>2018-10-12T09:07:12 02:00</time>
      </trkpt>
      <trkpt lat="44.35909" lon="4.86558">
        <ele>122</ele>
        <time>2018-10-12T09:07:13 02:00</time>
      </trkpt>
      <trkpt lat="44.35906" lon="4.86558">
        <ele>122</ele>
        <time>2018-10-12T09:07:14 02:00</time>
      </trkpt>
      <trkpt lat="44.35904" lon="4.86558">
        <ele>122</ele>
        <time>2018-10-12T09:07:15 02:00</time>
      </trkpt>
      <trkpt lat="44.35901" lon="4.86557">
        <ele>122</ele>
        <time>2018-10-12T09:07:16 02:00</time>
      </trkpt>
      <trkpt lat="44.35899" lon="4.86557">
        <ele>122</ele>
        <time>2018-10-12T09:07:17 02:00</time>
      </trkpt>
      <trkpt lat="44.35897" lon="4.86557">
        <ele>122</ele>
        <time>2018-10-12T09:07:18 02:00</time>
      </trkpt>
      <trkpt lat="44.35894" lon="4.86556">
        <ele>122</ele>
        <time>2018-10-12T09:07:19 02:00</time>
      </trkpt>
      <trkpt lat="44.35892" lon="4.86556">
        <ele>122</ele>
        <time>2018-10-12T09:07:20 02:00</time>
      </trkpt>
      <trkpt lat="44.3589" lon="4.86556">
        <ele>122</ele>
        <time>2018-10-12T09:07:21 02:00</time>
      </trkpt>
      <trkpt lat="44.35889" lon="4.86557">
        <ele>122</ele>
        <time>2018-10-12T09:07:22 02:00</time>
      </trkpt>
      <trkpt lat="44.35887" lon="4.86559">
        <ele>122</ele>
        <time>2018-10-12T09:07:23 02:00</time>
      </trkpt>
      <trkpt lat="44.35886" lon="4.86561">
        <ele>122</ele>
        <time>2018-10-12T09:07:24 02:00</time>
      </trkpt>
      <trkpt lat="44.35886" lon="4.86564">
        <ele>122</ele>
        <time>2018-10-12T09:07:25 02:00</time>
      </trkpt>
      <trkpt lat="44.35885" lon="4.86566">
        <ele>122</ele>
        <time>2018-10-12T09:07:26 02:00</time>
      </trkpt>
      <trkpt lat="44.35885" lon="4.86569">
        <ele>122</ele>
        <time>2018-10-12T09:07:27 02:00</time>
      </trkpt>
      <trkpt lat="44.35884" lon="4.86572">
        <ele>122</ele>
        <time>2018-10-12T09:07:28 02:00</time>
      </trkpt>
      <trkpt lat="44.35884" lon="4.86575">
        <ele>122</ele>
        <time>2018-10-12T09:07:29 02:00</time>
      </trkpt>
      <trkpt lat="44.35883" lon="4.86578">
        <ele>122</ele>
        <time>2018-10-12T09:07:30 02:00</time>
      </trkpt>
      <trkpt lat="44.35883" lon="4.86581">
        <ele>122</ele>
        <time>2018-10-12T09:07:31 02:00</time>
      </trkpt>
      <trkpt lat="44.35882" lon="4.86584">
        <ele>122</ele>
        <time>2018-10-12T09:07:32 02:00</time>
      </trkpt>
      <trkpt lat="44.35881" lon="4.86586">
        <ele>122</ele>
        <time>2018-10-12T09:07:33 02:00</time>
      </trkpt>
      <trkpt lat="44.3588" lon="4.86589">
        <ele>122</ele>
        <time>2018-10-12T09:07:34 02:00</time>
      </trkpt>
      <trkpt lat="44.35878" lon="4.86592">
        <ele>121</ele>
        <time>2018-10-12T09:07:35 02:00</time>
      </trkpt>
      <trkpt lat="44.35877" lon="4.86595">
        <ele>121</ele>
        <time>2018-10-12T09:07:36 02:00</time>
      </trkpt>
      <trkpt lat="44.35875" lon="4.86598">
        <ele>121</ele>
        <time>2018-10-12T09:07:37 02:00</time>
      </trkpt>
      <trkpt lat="44.35873" lon="4.86601">
        <ele>121</ele>
        <time>2018-10-12T09:07:38 02:00</time>
      </trkpt>
      <trkpt lat="44.35871" lon="4.86604">
        <ele>121</ele>
        <time>2018-10-12T09:07:39 02:00</time>
      </trkpt>
      <trkpt lat="44.35868" lon="4.86607">
        <ele>121</ele>
        <time>2018-10-12T09:07:40 02:00</time>
      </trkpt>
      <trkpt lat="44.35866" lon="4.8661">
        <ele>121</ele>
        <time>2018-10-12T09:07:41 02:00</time>
      </trkpt>
      <trkpt lat="44.35864" lon="4.86612">
        <ele>121</ele>
        <time>2018-10-12T09:07:42 02:00</time>
      </trkpt>
      <trkpt lat="44.35861" lon="4.86615">
        <ele>121</ele>
        <time>2018-10-12T09:07:43 02:00</time>
      </trkpt>
      <trkpt lat="44.35859" lon="4.86618">
        <ele>121</ele>
        <time>2018-10-12T09:07:44 02:00</time>
      </trkpt>
      <trkpt lat="44.35857" lon="4.8662">
        <ele>121</ele>
        <time>2018-10-12T09:07:45 02:00</time>
      </trkpt>
      <trkpt lat="44.35854" lon="4.86622">
        <ele>121</ele>
        <time>2018-10-12T09:07:46 02:00</time>
      </trkpt>
      <trkpt lat="44.35852" lon="4.86625">
        <ele>121</ele>
        <time>2018-10-12T09:07:47 02:00</time>
      </trkpt>
      <trkpt lat="44.3585" lon="4.86627">
        <ele>121</ele>
        <time>2018-10-12T09:07:48 02:00</time>
      </trkpt>
      <trkpt lat="44.35848" lon="4.8663">
        <ele>121</ele>
        <time>2018-10-12T09:07:49 02:00</time>
      </trkpt>
      <trkpt lat="44.35845" lon="4.86632">
        <ele>121</ele>
        <time>2018-10-12T09:07:50 02:00</time>
      </trkpt>
      <trkpt lat="44.35843" lon="4.86634">
        <ele>121</ele>
        <time>2018-10-12T09:07:51 02:00</time>
      </trkpt>
      <trkpt lat="44.35841" lon="4.86637">
        <ele>121</ele>
        <time>2018-10-12T09:07:52 02:00</time>
      </trkpt>
      <trkpt lat="44.35838" lon="4.86639">
        <ele>121</ele>
        <time>2018-10-12T09:07:53 02:00</time>
      </trkpt>
      <trkpt lat="44.35836" lon="4.86641">
        <ele>121</ele>
        <time>2018-10-12T09:07:54 02:00</time>
      </trkpt>
      <trkpt lat="44.35833" lon="4.86644">
        <ele>121</ele>
        <time>2018-10-12T09:07:55 02:00</time>
      </trkpt>
      <trkpt lat="44.35831" lon="4.86646">
        <ele>121</ele>
        <time>2018-10-12T09:07:56 02:00</time>
      </trkpt>
      <trkpt lat="44.35829" lon="4.86649">
        <ele>121</ele>
        <time>2018-10-12T09:07:57 02:00</time>
      </trkpt>
      <trkpt lat="44.35826" lon="4.86651">
        <ele>121</ele>
        <time>2018-10-12T09:07:58 02:00</time>
      </trkpt>
      <trkpt lat="44.35824" lon="4.86653">
        <ele>121</ele>
        <time>2018-10-12T09:07:59 02:00</time>
      </trkpt>
      <trkpt lat="44.35822" lon="4.86655">
        <ele>121</ele>
        <time>2018-10-12T09:08:00 02:00</time>
      </trkpt>
      <trkpt lat="44.35819" lon="4.86658">
        <ele>121</ele>
        <time>2018-10-12T09:08:01 02:00</time>
      </trkpt>
      <trkpt lat="44.35817" lon="4.8666">
        <ele>121</ele>
        <time>2018-10-12T09:08:02 02:00</time>
      </trkpt>
      <trkpt lat="44.35815" lon="4.86662">
        <ele>121</ele>
        <time>2018-10-12T09:08:03 02:00</time>
      </trkpt>
      <trkpt lat="44.35812" lon="4.86664">
        <ele>121</ele>
        <time>2018-10-12T09:08:04 02:00</time>
      </trkpt>
      <trkpt lat="44.3581" lon="4.86666">
        <ele>121</ele>
        <time>2018-10-12T09:08:05 02:00</time>
      </trkpt>
      <trkpt lat="44.35808" lon="4.86668">
        <ele>121</ele>
        <time>2018-10-12T09:08:06 02:00</time>
      </trkpt>
      <trkpt lat="44.35806" lon="4.86671">
        <ele>121</ele>
        <time>2018-10-12T09:08:07 02:00</time>
      </trkpt>
      <trkpt lat="44.35804" lon="4.86673">
        <ele>121</ele>
        <time>2018-10-12T09:08:08 02:00</time>
      </trkpt>
      <trkpt lat="44.35803" lon="4.86676">
        <ele>121</ele>
        <time>2018-10-12T09:08:09 02:00</time>
      </trkpt>
      <trkpt lat="44.35802" lon="4.8668">
        <ele>121</ele>
        <time>2018-10-12T09:08:10 02:00</time>
      </trkpt>
      <trkpt lat="44.35801" lon="4.86683">
        <ele>122</ele>
        <time>2018-10-12T09:08:11 02:00</time>
      </trkpt>
      <trkpt lat="44.35801" lon="4.86687">
        <ele>122</ele>
        <time>2018-10-12T09:08:12 02:00</time>
      </trkpt>
      <trkpt lat="44.35801" lon="4.86691">
        <ele>122</ele>
        <time>2018-10-12T09:08:13 02:00</time>
      </trkpt>
      <trkpt lat="44.35801" lon="4.86695">
        <ele>122</ele>
        <time>2018-10-12T09:08:14 02:00</time>
      </trkpt>
      <trkpt lat="44.35801" lon="4.86699">
        <ele>122</ele>
        <time>2018-10-12T09:08:15 02:00</time>
      </trkpt>
      <trkpt lat="44.358" lon="4.86703">
        <ele>122</ele>
        <time>2018-10-12T09:08:16 02:00</time>
      </trkpt>
      <trkpt lat="44.358" lon="4.86707">
        <ele>122</ele>
        <time>2018-10-12T09:08:17 02:00</time>
      </trkpt>
      <trkpt lat="44.358" lon="4.86711">
        <ele>122</ele>
        <time>2018-10-12T09:08:18 02:00</time>
      </trkpt>
      <trkpt lat="44.35799" lon="4.86714">
        <ele>123</ele>
        <time>2018-10-12T09:08:19 02:00</time>
      </trkpt>
      <trkpt lat="44.35799" lon="4.86718">
        <ele>123</ele>
        <time>2018-10-12T09:08:20 02:00</time>
      </trkpt>
      <trkpt lat="44.35799" lon="4.86722">
        <ele>123</ele>
        <time>2018-10-12T09:08:21 02:00</time>
      </trkpt>
      <trkpt lat="44.35799" lon="4.86726">
        <ele>123</ele>
        <time>2018-10-12T09:08:22 02:00</time>
      </trkpt>
      <trkpt lat="44.35798" lon="4.8673">
        <ele>123</ele>
        <time>2018-10-12T09:08:23 02:00</time>
      </trkpt>
      <trkpt lat="44.35798" lon="4.86733">
        <ele>123</ele>
        <time>2018-10-12T09:08:24 02:00</time>
      </trkpt>
      <trkpt lat="44.35798" lon="4.86737">
        <ele>123</ele>
        <time>2018-10-12T09:08:25 02:00</time>
      </trkpt>
      <trkpt lat="44.35797" lon="4.86741">
        <ele>124</ele>
        <time>2018-10-12T09:08:26 02:00</time>
      </trkpt>
      <trkpt lat="44.35797" lon="4.86744">
        <ele>124</ele>
        <time>2018-10-12T09:08:27 02:00</time>
      </trkpt>
      <trkpt lat="44.35797" lon="4.86748">
        <ele>124</ele>
        <time>2018-10-12T09:08:28 02:00</time>
      </trkpt>
      <trkpt lat="44.35797" lon="4.86752">
        <ele>124</ele>
        <time>2018-10-12T09:08:29 02:00</time>
      </trkpt>
      <trkpt lat="44.35797" lon="4.86755">
        <ele>124</ele>
        <time>2018-10-12T09:08:30 02:00</time>
      </trkpt>
      <trkpt lat="44.35796" lon="4.86758">
        <ele>124</ele>
        <time>2018-10-12T09:08:31 02:00</time>
      </trkpt>
      <trkpt lat="44.35796" lon="4.86762">
        <ele>125</ele>
        <time>2018-10-12T09:08:32 02:00</time>
      </trkpt>
      <trkpt lat="44.35796" lon="4.86765">
        <ele>125</ele>
        <time>2018-10-12T09:08:33 02:00</time>
      </trkpt>
      <trkpt lat="44.35796" lon="4.86769">
        <ele>125</ele>
        <time>2018-10-12T09:08:34 02:00</time>
      </trkpt>
      <trkpt lat="44.35796" lon="4.86772">
        <ele>125</ele>
        <time>2018-10-12T09:08:35 02:00</time>
      </trkpt>
      <trkpt lat="44.35796" lon="4.86775">
        <ele>126</ele>
        <time>2018-10-12T09:08:36 02:00</time>
      </trkpt>
      <trkpt lat="44.35795" lon="4.86778">
        <ele>126</ele>
        <time>2018-10-12T09:08:37 02:00</time>
      </trkpt>
      <trkpt lat="44.35795" lon="4.86781">
        <ele>126</ele>
        <time>2018-10-12T09:08:38 02:00</time>
      </trkpt>
      <trkpt lat="44.35795" lon="4.86784">
        <ele>126</ele>
        <time>2018-10-12T09:08:39 02:00</time>
      </trkpt>
      <trkpt lat="44.35795" lon="4.86787">
        <ele>126</ele>
        <time>2018-10-12T09:08:40 02:00</time>
      </trkpt>
      <trkpt lat="44.35794" lon="4.8679">
        <ele>127</ele>
        <time>2018-10-12T09:08:41 02:00</time>
      </trkpt>
      <trkpt lat="44.35794" lon="4.86793">
        <ele>127</ele>
        <time>2018-10-12T09:08:42 02:00</time>
      </trkpt>
      <trkpt lat="44.35794" lon="4.86796">
        <ele>127</ele>
        <time>2018-10-12T09:08:43 02:00</time>
      </trkpt>
      <trkpt lat="44.35794" lon="4.86799">
        <ele>127</ele>
        <time>2018-10-12T09:08:44 02:00</time>
      </trkpt>
      <trkpt lat="44.35793" lon="4.86802">
        <ele>127</ele>
        <time>2018-10-12T09:08:45 02:00</time>
      </trkpt>
      <trkpt lat="44.35793" lon="4.86805">
        <ele>128</ele>
        <time>2018-10-12T09:08:46 02:00</time>
      </trkpt>
      <trkpt lat="44.35793" lon="4.86808">
        <ele>128</ele>
        <time>2018-10-12T09:08:47 02:00</time>
      </trkpt>
      <trkpt lat="44.35793" lon="4.86811">
        <ele>128</ele>
        <time>2018-10-12T09:08:48 02:00</time>
      </trkpt>
      <trkpt lat="44.35792" lon="4.86814">
        <ele>128</ele>
        <time>2018-10-12T09:08:49 02:00</time>
      </trkpt>
      <trkpt lat="44.35792" lon="4.86816">
        <ele>128</ele>
        <time>2018-10-12T09:08:50 02:00</time>
      </trkpt>
      <trkpt lat="44.35792" lon="4.86819">
        <ele>129</ele>
        <time>2018-10-12T09:08:51 02:00</time>
      </trkpt>
      <trkpt lat="44.35792" lon="4.86822">
        <ele>129</ele>
        <time>2018-10-12T09:08:52 02:00</time>
      </trkpt>
      <trkpt lat="44.35792" lon="4.86825">
        <ele>129</ele>
        <time>2018-10-12T09:08:53 02:00</time>
      </trkpt>
      <trkpt lat="44.35792" lon="4.86828">
        <ele>129</ele>
        <time>2018-10-12T09:08:54 02:00</time>
      </trkpt>
      <trkpt lat="44.35792" lon="4.86831">
        <ele>129</ele>
        <time>2018-10-12T09:08:55 02:00</time>
      </trkpt>
      <trkpt lat="44.35792" lon="4.86834">
        <ele>130</ele>
        <time>2018-10-12T09:08:56 02:00</time>
      </trkpt>
      <trkpt lat="44.35791" lon="4.86837">
        <ele>130</ele>
        <time>2018-10-12T09:08:57 02:00</time>
      </trkpt>
      <trkpt lat="44.35791" lon="4.8684">
        <ele>130</ele>
        <time>2018-10-12T09:08:58 02:00</time>
      </trkpt>
      <trkpt lat="44.35791" lon="4.86843">
        <ele>130</ele>
        <time>2018-10-12T09:08:59 02:00</time>
      </trkpt>
      <trkpt lat="44.35791" lon="4.86846">
        <ele>130</ele>
        <time>2018-10-12T09:09:00 02:00</time>
      </trkpt>
      <trkpt lat="44.35791" lon="4.86849">
        <ele>130</ele>
        <time>2018-10-12T09:09:01 02:00</time>
      </trkpt>
      <trkpt lat="44.3579" lon="4.86851">
        <ele>130</ele>
        <time>2018-10-12T09:09:02 02:00</time>
      </trkpt>
      <trkpt lat="44.3579" lon="4.86854">
        <ele>130</ele>
        <time>2018-10-12T09:09:03 02:00</time>
      </trkpt>
      <trkpt lat="44.3579" lon="4.86857">
        <ele>130</ele>
        <time>2018-10-12T09:09:04 02:00</time>
      </trkpt>
      <trkpt lat="44.3579" lon="4.8686">
        <ele>131</ele>
        <time>2018-10-12T09:09:05 02:00</time>
      </trkpt>
      <trkpt lat="44.3579" lon="4.86862">
        <ele>131</ele>
        <time>2018-10-12T09:09:06 02:00</time>
      </trkpt>
      <trkpt lat="44.35789" lon="4.86865">
        <ele>131</ele>
        <time>2018-10-12T09:09:07 02:00</time>
      </trkpt>
      <trkpt lat="44.35789" lon="4.86867">
        <ele>131</ele>
        <time>2018-10-12T09:09:08 02:00</time>
      </trkpt>
      <trkpt lat="44.35789" lon="4.8687">
        <ele>131</ele>
        <time>2018-10-12T09:09:09 02:00</time>
      </trkpt>
      <trkpt lat="44.35789" lon="4.86872">
        <ele>131</ele>
        <time>2018-10-12T09:09:10 02:00</time>
      </trkpt>
      <trkpt lat="44.35789" lon="4.86874">
        <ele>131</ele>
        <time>2018-10-12T09:09:11 02:00</time>
      </trkpt>
      <trkpt lat="44.35789" lon="4.86877">
        <ele>131</ele>
        <time>2018-10-12T09:09:12 02:00</time>
      </trkpt>
      <trkpt lat="44.35789" lon="4.86879">
        <ele>131</ele>
        <time>2018-10-12T09:09:13 02:00</time>
      </trkpt>
      <trkpt lat="44.35789" lon="4.86882">
        <ele>131</ele>
        <time>2018-10-12T09:09:14 02:00</time>
      </trkpt>
      <trkpt lat="44.35789" lon="4.86884">
        <ele>131</ele>
        <time>2018-10-12T09:09:15 02:00</time>
      </trkpt>
      <trkpt lat="44.35788" lon="4.86887">
        <ele>132</ele>
        <time>2018-10-12T09:09:16 02:00</time>
      </trkpt>
      <trkpt lat="44.35788" lon="4.86889">
        <ele>132</ele>
        <time>2018-10-12T09:09:17 02:00</time>
      </trkpt>
      <trkpt lat="44.35788" lon="4.86891">
        <ele>132</ele>
        <time>2018-10-12T09:09:18 02:00</time>
      </trkpt>
      <trkpt lat="44.35788" lon="4.86894">
        <ele>132</ele>
        <time>2018-10-12T09:09:19 02:00</time>
      </trkpt>
      <trkpt lat="44.35788" lon="4.86896">
        <ele>132</ele>
        <time>2018-10-12T09:09:20 02:00</time>
      </trkpt>
      <trkpt lat="44.35788" lon="4.86899">
        <ele>132</ele>
        <time>2018-10-12T09:09:21 02:00</time>
      </trkpt>
      <trkpt lat="44.35788" lon="4.86902">
        <ele>132</ele>
        <time>2018-10-12T09:09:22 02:00</time>
      </trkpt>
      <trkpt lat="44.35788" lon="4.86904">
        <ele>132</ele>
        <time>2018-10-12T09:09:23 02:00</time>
      </trkpt>
      <trkpt lat="44.35788" lon="4.86907">
        <ele>132</ele>
        <time>2018-10-12T09:09:24 02:00</time>
      </trkpt>
      <trkpt lat="44.35788" lon="4.8691">
        <ele>132</ele>
        <time>2018-10-12T09:09:25 02:00</time>
      </trkpt>
      <trkpt lat="44.35788" lon="4.86913">
        <ele>133</ele>
        <time>2018-10-12T09:09:26 02:00</time>
      </trkpt>
      <trkpt lat="44.35787" lon="4.86915">
        <ele>133</ele>
        <time>2018-10-12T09:09:27 02:00</time>
      </trkpt>
      <trkpt lat="44.35787" lon="4.86918">
        <ele>133</ele>
        <time>2018-10-12T09:09:28 02:00</time>
      </trkpt>
      <trkpt lat="44.35787" lon="4.86921">
        <ele>133</ele>
        <time>2018-10-12T09:09:29 02:00</time>
      </trkpt>
      <trkpt lat="44.35786" lon="4.86923">
        <ele>133</ele>
        <time>2018-10-12T09:09:30 02:00</time>
      </trkpt>
      <trkpt lat="44.35786" lon="4.86926">
        <ele>133</ele>
        <time>2018-10-12T09:09:31 02:00</time>
      </trkpt>
      <trkpt lat="44.35785" lon="4.86928">
        <ele>133</ele>
        <time>2018-10-12T09:09:32 02:00</time>
      </trkpt>
      <trkpt lat="44.35784" lon="4.8693">
        <ele>133</ele>
        <time>2018-10-12T09:09:33 02:00</time>
      </trkpt>
      <trkpt lat="44.35782" lon="4.86932">
        <ele>133</ele>
        <time>2018-10-12T09:09:34 02:00</time>
      </trkpt>
      <trkpt lat="44.3578" lon="4.86933">
        <ele>133</ele>
        <time>2018-10-12T09:09:35 02:00</time>
      </trkpt>
      <trkpt lat="44.35779" lon="4.86935">
        <ele>133</ele>
        <time>2018-10-12T09:09:36 02:00</time>
      </trkpt>
      <trkpt lat="44.35777" lon="4.86936">
        <ele>133</ele>
        <time>2018-10-12T09:09:37 02:00</time>
      </trkpt>
      <trkpt lat="44.35775" lon="4.86938">
        <ele>133</ele>
        <time>2018-10-12T09:09:38 02:00</time>
      </trkpt>
      <trkpt lat="44.35772" lon="4.86939">
        <ele>133</ele>
        <time>2018-10-12T09:09:39 02:00</time>
      </trkpt>
      <trkpt lat="44.3577" lon="4.8694">
        <ele>133</ele>
        <time>2018-10-12T09:09:40 02:00</time>
      </trkpt>
      <trkpt lat="44.35768" lon="4.86942">
        <ele>133</ele>
        <time>2018-10-12T09:09:41 02:00</time>
      </trkpt>
      <trkpt lat="44.35766" lon="4.86943">
        <ele>133</ele>
        <time>2018-10-12T09:09:42 02:00</time>
      </trkpt>
      <trkpt lat="44.35764" lon="4.86945">
        <ele>134</ele>
        <time>2018-10-12T09:09:43 02:00</time>
      </trkpt>
      <trkpt lat="44.35762" lon="4.86946">
        <ele>134</ele>
        <time>2018-10-12T09:09:44 02:00</time>
      </trkpt>
      <trkpt lat="44.3576" lon="4.86948">
        <ele>134</ele>
        <time>2018-10-12T09:09:45 02:00</time>
      </trkpt>
      <trkpt lat="44.35757" lon="4.86949">
        <ele>134</ele>
        <time>2018-10-12T09:09:46 02:00</time>
      </trkpt>
      <trkpt lat="44.35755" lon="4.86951">
        <ele>134</ele>
        <time>2018-10-12T09:09:47 02:00</time>
      </trkpt>
      <trkpt lat="44.35753" lon="4.86952">
        <ele>134</ele>
        <time>2018-10-12T09:09:48 02:00</time>
      </trkpt>
      <trkpt lat="44.35751" lon="4.86954">
        <ele>134</ele>
        <time>2018-10-12T09:09:49 02:00</time>
      </trkpt>
      <trkpt lat="44.35749" lon="4.86955">
        <ele>134</ele>
        <time>2018-10-12T09:09:50 02:00</time>
      </trkpt>
      <trkpt lat="44.35747" lon="4.86957">
        <ele>134</ele>
        <time>2018-10-12T09:09:51 02:00</time>
      </trkpt>
      <trkpt lat="44.35745" lon="4.86958">
        <ele>134</ele>
        <time>2018-10-12T09:09:52 02:00</time>
      </trkpt>
      <trkpt lat="44.35744" lon="4.8696">
        <ele>134</ele>
        <time>2018-10-12T09:09:53 02:00</time>
      </trkpt>
      <trkpt lat="44.35742" lon="4.86963">
        <ele>134</ele>
        <time>2018-10-12T09:09:54 02:00</time>
      </trkpt>
      <trkpt lat="44.35741" lon="4.86966">
        <ele>134</ele>
        <time>2018-10-12T09:09:55 02:00</time>
      </trkpt>
      <trkpt lat="44.3574" lon="4.86969">
        <ele>134</ele>
        <time>2018-10-12T09:09:56 02:00</time>
      </trkpt>
      <trkpt lat="44.35739" lon="4.86973">
        <ele>134</ele>
        <time>2018-10-12T09:09:57 02:00</time>
      </trkpt>
      <trkpt lat="44.35739" lon="4.86978">
        <ele>134</ele>
        <time>2018-10-12T09:09:58 02:00</time>
      </trkpt>
      <trkpt lat="44.35739" lon="4.86982">
        <ele>134</ele>
        <time>2018-10-12T09:09:59 02:00</time>
      </trkpt>
      <trkpt lat="44.35738" lon="4.86987">
        <ele>134</ele>
        <time>2018-10-12T09:10:00 02:00</time>
      </trkpt>
      <trkpt lat="44.35738" lon="4.86992">
        <ele>134</ele>
        <time>2018-10-12T09:10:01 02:00</time>
      </trkpt>
      <trkpt lat="44.35738" lon="4.86997">
        <ele>134</ele>
        <time>2018-10-12T09:10:02 02:00</time>
      </trkpt>
      <trkpt lat="44.35738" lon="4.87001">
        <ele>134</ele>
        <time>2018-10-12T09:10:03 02:00</time>
      </trkpt>
      <trkpt lat="44.35737" lon="4.87006">
        <ele>134</ele>
        <time>2018-10-12T09:10:04 02:00</time>
      </trkpt>
      <trkpt lat="44.35737" lon="4.8701">
        <ele>134</ele>
        <time>2018-10-12T09:10:05 02:00</time>
      </trkpt>
      <trkpt lat="44.35737" lon="4.87014">
        <ele>134</ele>
        <time>2018-10-12T09:10:06 02:00</time>
      </trkpt>
      <trkpt lat="44.35737" lon="4.87019">
        <ele>134</ele>
        <time>2018-10-12T09:10:07 02:00</time>
      </trkpt>
      <trkpt lat="44.35736" lon="4.87023">
        <ele>134</ele>
        <time>2018-10-12T09:10:08 02:00</time>
      </trkpt>
      <trkpt lat="44.35736" lon="4.87027">
        <ele>134</ele>
        <time>2018-10-12T09:10:09 02:00</time>
      </trkpt>
      <trkpt lat="44.35736" lon="4.87031">
        <ele>134</ele>
        <time>2018-10-12T09:10:10 02:00</time>
      </trkpt>
      <trkpt lat="44.35736" lon="4.87035">
        <ele>134</ele>
        <time>2018-10-12T09:10:11 02:00</time>
      </trkpt>
      <trkpt lat="44.35735" lon="4.87039">
        <ele>134</ele>
        <time>2018-10-12T09:10:12 02:00</time>
      </trkpt>
      <trkpt lat="44.35735" lon="4.87044">
        <ele>134</ele>
        <time>2018-10-12T09:10:13 02:00</time>
      </trkpt>
      <trkpt lat="44.35735" lon="4.87048">
        <ele>134</ele>
        <time>2018-10-12T09:10:14 02:00</time>
      </trkpt>
      <trkpt lat="44.35735" lon="4.87052">
        <ele>134</ele>
        <time>2018-10-12T09:10:15 02:00</time>
      </trkpt>
      <trkpt lat="44.35735" lon="4.87057">
        <ele>134</ele>
        <time>2018-10-12T09:10:16 02:00</time>
      </trkpt>
      <trkpt lat="44.35735" lon="4.87061">
        <ele>134</ele>
        <time>2018-10-12T09:10:17 02:00</time>
      </trkpt>
      <trkpt lat="44.35735" lon="4.87065">
        <ele>134</ele>
        <time>2018-10-12T09:10:18 02:00</time>
      </trkpt>
      <trkpt lat="44.35735" lon="4.8707">
        <ele>134</ele>
        <time>2018-10-12T09:10:19 02:00</time>
      </trkpt>
      <trkpt lat="44.35735" lon="4.87074">
        <ele>134</ele>
        <time>2018-10-12T09:10:20 02:00</time>
      </trkpt>
      <trkpt lat="44.35735" lon="4.87078">
        <ele>133</ele>
        <time>2018-10-12T09:10:21 02:00</time>
      </trkpt>
      <trkpt lat="44.35734" lon="4.87082">
        <ele>133</ele>
        <time>2018-10-12T09:10:22 02:00</time>
      </trkpt>
      <trkpt lat="44.35734" lon="4.87087">
        <ele>133</ele>
        <time>2018-10-12T09:10:23 02:00</time>
      </trkpt>
      <trkpt lat="44.35734" lon="4.87091">
        <ele>133</ele>
        <time>2018-10-12T09:10:24 02:00</time>
      </trkpt>
      <trkpt lat="44.35734" lon="4.87095">
        <ele>134</ele>
        <time>2018-10-12T09:10:25 02:00</time>
      </trkpt>
      <trkpt lat="44.35734" lon="4.87099">
        <ele>134</ele>
        <time>2018-10-12T09:10:26 02:00</time>
      </trkpt>
      <trkpt lat="44.35733" lon="4.87104">
        <ele>134</ele>
        <time>2018-10-12T09:10:27 02:00</time>
      </trkpt>
      <trkpt lat="44.35733" lon="4.87108">
        <ele>134</ele>
        <time>2018-10-12T09:10:28 02:00</time>
      </trkpt>
      <trkpt lat="44.35733" lon="4.87112">
        <ele>134</ele>
        <time>2018-10-12T09:10:29 02:00</time>
      </trkpt>
      <trkpt lat="44.35733" lon="4.87116">
        <ele>134</ele>
        <time>2018-10-12T09:10:30 02:00</time>
      </trkpt>
      <trkpt lat="44.35733" lon="4.87121">
        <ele>134</ele>
        <time>2018-10-12T09:10:31 02:00</time>
      </trkpt>
      <trkpt lat="44.35732" lon="4.87125">
        <ele>134</ele>
        <time>2018-10-12T09:10:32 02:00</time>
      </trkpt>
      <trkpt lat="44.35732" lon="4.87129">
        <ele>134</ele>
        <time>2018-10-12T09:10:33 02:00</time>
      </trkpt>
      <trkpt lat="44.35732" lon="4.87133">
        <ele>134</ele>
        <time>2018-10-12T09:10:34 02:00</time>
      </trkpt>
      <trkpt lat="44.35732" lon="4.87137">
        <ele>134</ele>
        <time>2018-10-12T09:10:35 02:00</time>
      </trkpt>
      <trkpt lat="44.35732" lon="4.87142">
        <ele>134</ele>
        <time>2018-10-12T09:10:36 02:00</time>
      </trkpt>
      <trkpt lat="44.35731" lon="4.87146">
        <ele>134</ele>
        <time>2018-10-12T09:10:37 02:00</time>
      </trkpt>
      <trkpt lat="44.35731" lon="4.8715">
        <ele>134</ele>
        <time>2018-10-12T09:10:38 02:00</time>
      </trkpt>
      <trkpt lat="44.35731" lon="4.87154">
        <ele>134</ele>
        <time>2018-10-12T09:10:39 02:00</time>
      </trkpt>
      <trkpt lat="44.35731" lon="4.87158">
        <ele>134</ele>
        <time>2018-10-12T09:10:40 02:00</time>
      </trkpt>
      <trkpt lat="44.3573" lon="4.87162">
        <ele>134</ele>
        <time>2018-10-12T09:10:41 02:00</time>
      </trkpt>
      <trkpt lat="44.3573" lon="4.87166">
        <ele>134</ele>
        <time>2018-10-12T09:10:42 02:00</time>
      </trkpt>
      <trkpt lat="44.35729" lon="4.8717">
        <ele>134</ele>
        <time>2018-10-12T09:10:43 02:00</time>
      </trkpt>
      <trkpt lat="44.35728" lon="4.87174">
        <ele>134</ele>
        <time>2018-10-12T09:10:44 02:00</time>
      </trkpt>
      <trkpt lat="44.35728" lon="4.87178">
        <ele>134</ele>
        <time>2018-10-12T09:10:45 02:00</time>
      </trkpt>
      <trkpt lat="44.35727" lon="4.87183">
        <ele>134</ele>
        <time>2018-10-12T09:10:46 02:00</time>
      </trkpt>
      <trkpt lat="44.35726" lon="4.87187">
        <ele>133</ele>
        <time>2018-10-12T09:10:47 02:00</time>
      </trkpt>
      <trkpt lat="44.35725" lon="4.87191">
        <ele>133</ele>
        <time>2018-10-12T09:10:48 02:00</time>
      </trkpt>
      <trkpt lat="44.35724" lon="4.87194">
        <ele>133</ele>
        <time>2018-10-12T09:10:49 02:00</time>
      </trkpt>
      <trkpt lat="44.35723" lon="4.87197">
        <ele>133</ele>
        <time>2018-10-12T09:10:50 02:00</time>
      </trkpt>
      <trkpt lat="44.35722" lon="4.872">
        <ele>133</ele>
        <time>2018-10-12T09:10:51 02:00</time>
      </trkpt>
      <trkpt lat="44.35721" lon="4.87201">
        <ele>133</ele>
        <time>2018-10-12T09:10:52 02:00</time>
      </trkpt>
      <trkpt lat="44.35721" lon="4.87202">
        <ele>133</ele>
        <time>2018-10-12T09:10:53 02:00</time>
      </trkpt>
      <trkpt lat="44.3572" lon="4.87203">
        <ele>133</ele>
        <time>2018-10-12T09:10:54 02:00</time>
      </trkpt>
      <trkpt lat="44.3572" lon="4.87203">
        <ele>133</ele>
        <time>2018-10-12T09:10:55 02:00</time>
      </trkpt>
      <trkpt lat="44.3572" lon="4.87203">
        <ele>133</ele>
        <time>2018-10-12T09:10:56 02:00</time>
      </trkpt>
      <trkpt lat="44.3572" lon="4.87203">
        <ele>133</ele>
        <time>2018-10-12T09:10:57 02:00</time>
      </trkpt>
      <trkpt lat="44.3572" lon="4.87203">
        <ele>133</ele>
        <time>2018-10-12T09:10:58 02:00</time>
      </trkpt>
      <trkpt lat="44.3572" lon="4.87203">
        <ele>133</ele>
        <time>2018-10-12T09:10:59 02:00</time>
      </trkpt>
      <trkpt lat="44.3572" lon="4.87204">
        <ele>133</ele>
        <time>2018-10-12T09:11:00 02:00</time>
      </trkpt>
      <trkpt lat="44.3572" lon="4.87205">
        <ele>133</ele>
        <time>2018-10-12T09:11:01 02:00</time>
      </trkpt>
      <trkpt lat="44.35719" lon="4.87206">
        <ele>133</ele>
        <time>2018-10-12T09:11:02 02:00</time>
      </trkpt>
      <trkpt lat="44.35718" lon="4.87208">
        <ele>133</ele>
        <time>2018-10-12T09:11:03 02:00</time>
      </trkpt>
      <trkpt lat="44.35717" lon="4.8721">
        <ele>133</ele>
        <time>2018-10-12T09:11:04 02:00</time>
      </trkpt>
      <trkpt lat="44.35716" lon="4.87212">
        <ele>133</ele>
        <time>2018-10-12T09:11:05 02:00</time>
      </trkpt>
      <trkpt lat="44.35715" lon="4.87215">
        <ele>132</ele>
        <time>2018-10-12T09:11:06 02:00</time>
      </trkpt>
      <trkpt lat="44.35714" lon="4.87218">
        <ele>132</ele>
        <time>2018-10-12T09:11:07 02:00</time>
      </trkpt>
      <trkpt lat="44.35712" lon="4.87221">
        <ele>132</ele>
        <time>2018-10-12T09:11:08 02:00</time>
      </trkpt>
      <trkpt lat="44.35711" lon="4.87224">
        <ele>132</ele>
        <time>2018-10-12T09:11:09 02:00</time>
      </trkpt>
      <trkpt lat="44.3571" lon="4.87228">
        <ele>132</ele>
        <time>2018-10-12T09:11:10 02:00</time>
      </trkpt>
      <trkpt lat="44.35709" lon="4.87232">
        <ele>132</ele>
        <time>2018-10-12T09:11:11 02:00</time>
      </trkpt>
      <trkpt lat="44.35708" lon="4.87235">
        <ele>132</ele>
        <time>2018-10-12T09:11:12 02:00</time>
      </trkpt>
      <trkpt lat="44.35708" lon="4.87239">
        <ele>132</ele>
        <time>2018-10-12T09:11:13 02:00</time>
      </trkpt>
      <trkpt lat="44.35707" lon="4.87244">
        <ele>132</ele>
        <time>2018-10-12T09:11:14 02:00</time>
      </trkpt>
      <trkpt lat="44.35707" lon="4.87248">
        <ele>131</ele>
        <time>2018-10-12T09:11:15 02:00</time>
      </trkpt>
      <trkpt lat="44.35707" lon="4.87252">
        <ele>131</ele>
        <time>2018-10-12T09:11:16 02:00</time>
      </trkpt>
      <trkpt lat="44.35706" lon="4.87256">
        <ele>131</ele>
        <time>2018-10-12T09:11:17 02:00</time>
      </trkpt>
      <trkpt lat="44.35706" lon="4.8726">
        <ele>131</ele>
        <time>2018-10-12T09:11:18 02:00</time>
      </trkpt>
      <trkpt lat="44.35706" lon="4.87264">
        <ele>131</ele>
        <time>2018-10-12T09:11:19 02:00</time>
      </trkpt>
      <trkpt lat="44.35706" lon="4.87268">
        <ele>131</ele>
        <time>2018-10-12T09:11:20 02:00</time>
      </trkpt>
      <trkpt lat="44.35705" lon="4.87272">
        <ele>131</ele>
        <time>2018-10-12T09:11:21 02:00</time>
      </trkpt>
      <trkpt lat="44.35705" lon="4.87276">
        <ele>131</ele>
        <time>2018-10-12T09:11:22 02:00</time>
      </trkpt>
      <trkpt lat="44.35705" lon="4.87281">
        <ele>131</ele>
        <time>2018-10-12T09:11:23 02:00</time>
      </trkpt>
      <trkpt lat="44.35705" lon="4.87285">
        <ele>130</ele>
        <time>2018-10-12T09:11:24 02:00</time>
      </trkpt>
      <trkpt lat="44.35705" lon="4.87289">
        <ele>130</ele>
        <time>2018-10-12T09:11:25 02:00</time>
      </trkpt>
      <trkpt lat="44.35705" lon="4.87294">
        <ele>130</ele>
        <time>2018-10-12T09:11:26 02:00</time>
      </trkpt>
      <trkpt lat="44.35704" lon="4.87298">
        <ele>130</ele>
        <time>2018-10-12T09:11:27 02:00</time>
      </trkpt>
      <trkpt lat="44.35704" lon="4.87303">
        <ele>130</ele>
        <time>2018-10-12T09:11:28 02:00</time>
      </trkpt>
      <trkpt lat="44.35704" lon="4.87307">
        <ele>130</ele>
        <time>2018-10-12T09:11:29 02:00</time>
      </trkpt>
      <trkpt lat="44.35704" lon="4.87312">
        <ele>130</ele>
        <time>2018-10-12T09:11:30 02:00</time>
      </trkpt>
      <trkpt lat="44.35704" lon="4.87316">
        <ele>129</ele>
        <time>2018-10-12T09:11:31 02:00</time>
      </trkpt>
      <trkpt lat="44.35704" lon="4.87321">
        <ele>129</ele>
        <time>2018-10-12T09:11:32 02:00</time>
      </trkpt>
      <trkpt lat="44.35704" lon="4.87326">
        <ele>129</ele>
        <time>2018-10-12T09:11:33 02:00</time>
      </trkpt>
      <trkpt lat="44.35704" lon="4.8733">
        <ele>129</ele>
        <time>2018-10-12T09:11:34 02:00</time>
      </trkpt>
      <trkpt lat="44.35703" lon="4.87335">
        <ele>129</ele>
        <time>2018-10-12T09:11:35 02:00</time>
      </trkpt>
      <trkpt lat="44.35703" lon="4.8734">
        <ele>129</ele>
        <time>2018-10-12T09:11:36 02:00</time>
      </trkpt>
      <trkpt lat="44.35703" lon="4.87344">
        <ele>129</ele>
        <time>2018-10-12T09:11:37 02:00</time>
      </trkpt>
      <trkpt lat="44.35703" lon="4.87349">
        <ele>129</ele>
        <time>2018-10-12T09:11:38 02:00</time>
      </trkpt>
      <trkpt lat="44.35703" lon="4.87353">
        <ele>129</ele>
        <time>2018-10-12T09:11:39 02:00</time>
      </trkpt>
      <trkpt lat="44.35702" lon="4.87358">
        <ele>129</ele>
        <time>2018-10-12T09:11:40 02:00</time>
      </trkpt>
      <trkpt lat="44.35702" lon="4.87362">
        <ele>129</ele>
        <time>2018-10-12T09:11:41 02:00</time>
      </trkpt>
      <trkpt lat="44.35702" lon="4.87367">
        <ele>130</ele>
        <time>2018-10-12T09:11:42 02:00</time>
      </trkpt>
      <trkpt lat="44.35702" lon="4.87371">
        <ele>130</ele>
        <time>2018-10-12T09:11:43 02:00</time>
      </trkpt>
      <trkpt lat="44.35701" lon="4.87375">
        <ele>130</ele>
        <time>2018-10-12T09:11:44 02:00</time>
      </trkpt>
      <trkpt lat="44.35701" lon="4.8738">
        <ele>130</ele>
        <time>2018-10-12T09:11:45 02:00</time>
      </trkpt>
      <trkpt lat="44.35701" lon="4.87384">
        <ele>130</ele>
        <time>2018-10-12T09:11:46 02:00</time>
      </trkpt>
      <trkpt lat="44.35701" lon="4.87388">
        <ele>130</ele>
        <time>2018-10-12T09:11:47 02:00</time>
      </trkpt>
      <trkpt lat="44.357" lon="4.87392">
        <ele>130</ele>
        <time>2018-10-12T09:11:48 02:00</time>
      </trkpt>
      <trkpt lat="44.357" lon="4.87397">
        <ele>130</ele>
        <time>2018-10-12T09:11:49 02:00</time>
      </trkpt>
      <trkpt lat="44.357" lon="4.87401">
        <ele>130</ele>
        <time>2018-10-12T09:11:50 02:00</time>
      </trkpt>
      <trkpt lat="44.357" lon="4.87405">
        <ele>130</ele>
        <time>2018-10-12T09:11:51 02:00</time>
      </trkpt>
      <trkpt lat="44.357" lon="4.87409">
        <ele>130</ele>
        <time>2018-10-12T09:11:52 02:00</time>
      </trkpt>
      <trkpt lat="44.35699" lon="4.87413">
        <ele>130</ele>
        <time>2018-10-12T09:11:53 02:00</time>
      </trkpt>
      <trkpt lat="44.35699" lon="4.87418">
        <ele>130</ele>
        <time>2018-10-12T09:11:54 02:00</time>
      </trkpt>
      <trkpt lat="44.35699" lon="4.87422">
        <ele>130</ele>
        <time>2018-10-12T09:11:55 02:00</time>
      </trkpt>
      <trkpt lat="44.35699" lon="4.87426">
        <ele>130</ele>
        <time>2018-10-12T09:11:56 02:00</time>
      </trkpt>
      <trkpt lat="44.35699" lon="4.8743">
        <ele>130</ele>
        <time>2018-10-12T09:11:57 02:00</time>
      </trkpt>
      <trkpt lat="44.35698" lon="4.87433">
        <ele>130</ele>
        <time>2018-10-12T09:11:58 02:00</time>
      </trkpt>
      <trkpt lat="44.35698" lon="4.87437">
        <ele>130</ele>
        <time>2018-10-12T09:11:59 02:00</time>
      </trkpt>
      <trkpt lat="44.35697" lon="4.8744">
        <ele>130</ele>
        <time>2018-10-12T09:12:00 02:00</time>
      </trkpt>
      <trkpt lat="44.35696" lon="4.87443">
        <ele>130</ele>
        <time>2018-10-12T09:12:01 02:00</time>
      </trkpt>
      <trkpt lat="44.35695" lon="4.87446">
        <ele>130</ele>
        <time>2018-10-12T09:12:02 02:00</time>
      </trkpt>
      <trkpt lat="44.35694" lon="4.87448">
        <ele>130</ele>
        <time>2018-10-12T09:12:03 02:00</time>
      </trkpt>
      <trkpt lat="44.35693" lon="4.87451">
        <ele>130</ele>
        <time>2018-10-12T09:12:04 02:00</time>
      </trkpt>
      <trkpt lat="44.35691" lon="4.87453">
        <ele>130</ele>
        <time>2018-10-12T09:12:05 02:00</time>
      </trkpt>
      <trkpt lat="44.35689" lon="4.87455">
        <ele>130</ele>
        <time>2018-10-12T09:12:06 02:00</time>
      </trkpt>
      <trkpt lat="44.35687" lon="4.87458">
        <ele>130</ele>
        <time>2018-10-12T09:12:07 02:00</time>
      </trkpt>
      <trkpt lat="44.35685" lon="4.8746">
        <ele>130</ele>
        <time>2018-10-12T09:12:08 02:00</time>
      </trkpt>
      <trkpt lat="44.35683" lon="4.87463">
        <ele>130</ele>
        <time>2018-10-12T09:12:09 02:00</time>
      </trkpt>
      <trkpt lat="44.35681" lon="4.87466">
        <ele>130</ele>
        <time>2018-10-12T09:12:10 02:00</time>
      </trkpt>
      <trkpt lat="44.35678" lon="4.87469">
        <ele>130</ele>
        <time>2018-10-12T09:12:11 02:00</time>
      </trkpt>
      <trkpt lat="44.35676" lon="4.87473">
        <ele>130</ele>
        <time>2018-10-12T09:12:12 02:00</time>
      </trkpt>
      <trkpt lat="44.35674" lon="4.87477">
        <ele>130</ele>
        <time>2018-10-12T09:12:13 02:00</time>
      </trkpt>
      <trkpt lat="44.35671" lon="4.87481">
        <ele>129</ele>
        <time>2018-10-12T09:12:14 02:00</time>
      </trkpt>
      <trkpt lat="44.35668" lon="4.87485">
        <ele>129</ele>
        <time>2018-10-12T09:12:15 02:00</time>
      </trkpt>
      <trkpt lat="44.35666" lon="4.87489">
        <ele>129</ele>
        <time>2018-10-12T09:12:16 02:00</time>
      </trkpt>
      <trkpt lat="44.35663" lon="4.87494">
        <ele>129</ele>
        <time>2018-10-12T09:12:17 02:00</time>
      </trkpt>
      <trkpt lat="44.3566" lon="4.87498">
        <ele>129</ele>
        <time>2018-10-12T09:12:18 02:00</time>
      </trkpt>
      <trkpt lat="44.35657" lon="4.87503">
        <ele>129</ele>
        <time>2018-10-12T09:12:19 02:00</time>
      </trkpt>
      <trkpt lat="44.35654" lon="4.87508">
        <ele>128</ele>
        <time>2018-10-12T09:12:20 02:00</time>
      </trkpt>
      <trkpt lat="44.35651" lon="4.87512">
        <ele>128</ele>
        <time>2018-10-12T09:12:21 02:00</time>
      </trkpt>
      <trkpt lat="44.35647" lon="4.87517">
        <ele>128</ele>
        <time>2018-10-12T09:12:22 02:00</time>
      </trkpt>
      <trkpt lat="44.35643" lon="4.87521">
        <ele>128</ele>
        <time>2018-10-12T09:12:23 02:00</time>
      </trkpt>
      <trkpt lat="44.35639" lon="4.87523">
        <ele>128</ele>
        <time>2018-10-12T09:12:24 02:00</time>
      </trkpt>
      <trkpt lat="44.35634" lon="4.87523">
        <ele>128</ele>
        <time>2018-10-12T09:12:25 02:00</time>
      </trkpt>
      <trkpt lat="44.35629" lon="4.87522">
        <ele>128</ele>
        <time>2018-10-12T09:12:26 02:00</time>
      </trkpt>
      <trkpt lat="44.35624" lon="4.8752">
        <ele>128</ele>
        <time>2018-10-12T09:12:27 02:00</time>
      </trkpt>
      <trkpt lat="44.35619" lon="4.87517">
        <ele>127</ele>
        <time>2018-10-12T09:12:28 02:00</time>
      </trkpt>
      <trkpt lat="44.35614" lon="4.87514">
        <ele>127</ele>
        <time>2018-10-12T09:12:29 02:00</time>
      </trkpt>
      <trkpt lat="44.35609" lon="4.87511">
        <ele>127</ele>
        <time>2018-10-12T09:12:30 02:00</time>
      </trkpt>
      <trkpt lat="44.35604" lon="4.87508">
        <ele>127</ele>
        <time>2018-10-12T09:12:31 02:00</time>
      </trkpt>
      <trkpt lat="44.35599" lon="4.87505">
        <ele>127</ele>
        <time>2018-10-12T09:12:32 02:00</time>
      </trkpt>
      <trkpt lat="44.35594" lon="4.87502">
        <ele>127</ele>
        <time>2018-10-12T09:12:33 02:00</time>
      </trkpt>
      <trkpt lat="44.35589" lon="4.87498">
        <ele>127</ele>
        <time>2018-10-12T09:12:34 02:00</time>
      </trkpt>
      <trkpt lat="44.35584" lon="4.87495">
        <ele>127</ele>
        <time>2018-10-12T09:12:35 02:00</time>
      </trkpt>
      <trkpt lat="44.35579" lon="4.87492">
        <ele>127</ele>
        <time>2018-10-12T09:12:36 02:00</time>
      </trkpt>
      <trkpt lat="44.35574" lon="4.87489">
        <ele>127</ele>
        <time>2018-10-12T09:12:37 02:00</time>
      </trkpt>
      <trkpt lat="44.35569" lon="4.87486">
        <ele>126</ele>
        <time>2018-10-12T09:12:38 02:00</time>
      </trkpt>
      <trkpt lat="44.35563" lon="4.87482">
        <ele>126</ele>
        <time>2018-10-12T09:12:39 02:00</time>
      </trkpt>
      <trkpt lat="44.35558" lon="4.87479">
        <ele>126</ele>
        <time>2018-10-12T09:12:40 02:00</time>
      </trkpt>
      <trkpt lat="44.35553" lon="4.87476">
        <ele>126</ele>
        <time>2018-10-12T09:12:41 02:00</time>
      </trkpt>
      <trkpt lat="44.35548" lon="4.87473">
        <ele>126</ele>
        <time>2018-10-12T09:12:42 02:00</time>
      </trkpt>
      <trkpt lat="44.35543" lon="4.87469">
        <ele>126</ele>
        <time>2018-10-12T09:12:43 02:00</time>
      </trkpt>
      <trkpt lat="44.35538" lon="4.87466">
        <ele>126</ele>
        <time>2018-10-12T09:12:44 02:00</time>
      </trkpt>
      <trkpt lat="44.35533" lon="4.87463">
        <ele>126</ele>
        <time>2018-10-12T09:12:45 02:00</time>
      </trkpt>
      <trkpt lat="44.35528" lon="4.87459">
        <ele>125</ele>
        <time>2018-10-12T09:12:46 02:00</time>
      </trkpt>
      <trkpt lat="44.35523" lon="4.87456">
        <ele>125</ele>
        <time>2018-10-12T09:12:47 02:00</time>
      </trkpt>
      <trkpt lat="44.35518" lon="4.87453">
        <ele>125</ele>
        <time>2018-10-12T09:12:48 02:00</time>
      </trkpt>
      <trkpt lat="44.35513" lon="4.8745">
        <ele>125</ele>
        <time>2018-10-12T09:12:49 02:00</time>
      </trkpt>
      <trkpt lat="44.35508" lon="4.87447">
        <ele>125</ele>
        <time>2018-10-12T09:12:50 02:00</time>
      </trkpt>
      <trkpt lat="44.35504" lon="4.87444">
        <ele>125</ele>
        <time>2018-10-12T09:12:51 02:00</time>
      </trkpt>
      <trkpt lat="44.35499" lon="4.87441">
        <ele>125</ele>
        <time>2018-10-12T09:12:52 02:00</time>
      </trkpt>
      <trkpt lat="44.35495" lon="4.87438">
        <ele>125</ele>
        <time>2018-10-12T09:12:53 02:00</time>
      </trkpt>
      <trkpt lat="44.3549" lon="4.87435">
        <ele>125</ele>
        <time>2018-10-12T09:12:54 02:00</time>
      </trkpt>
      <trkpt lat="44.35486" lon="4.87432">
        <ele>125</ele>
        <time>2018-10-12T09:12:55 02:00</time>
      </trkpt>
      <trkpt lat="44.35482" lon="4.87429">
        <ele>125</ele>
        <time>2018-10-12T09:12:56 02:00</time>
      </trkpt>
      <trkpt lat="44.35477" lon="4.87426">
        <ele>125</ele>
        <time>2018-10-12T09:12:57 02:00</time>
      </trkpt>
      <trkpt lat="44.35474" lon="4.87422">
        <ele>125</ele>
        <time>2018-10-12T09:12:58 02:00</time>
      </trkpt>
      <trkpt lat="44.3547" lon="4.87419">
        <ele>125</ele>
        <time>2018-10-12T09:12:59 02:00</time>
      </trkpt>
      <trkpt lat="44.35466" lon="4.87415">
        <ele>125</ele>
        <time>2018-10-12T09:13:00 02:00</time>
      </trkpt>
      <trkpt lat="44.35463" lon="4.8741">
        <ele>125</ele>
        <time>2018-10-12T09:13:01 02:00</time>
      </trkpt>
      <trkpt lat="44.35461" lon="4.87406">
        <ele>125</ele>
        <time>2018-10-12T09:13:02 02:00</time>
      </trkpt>
      <trkpt lat="44.35458" lon="4.87401">
        <ele>125</ele>
        <time>2018-10-12T09:13:03 02:00</time>
      </trkpt>
      <trkpt lat="44.35457" lon="4.87396">
        <ele>125</ele>
        <time>2018-10-12T09:13:04 02:00</time>
      </trkpt>
      <trkpt lat="44.35455" lon="4.87391">
        <ele>126</ele>
        <time>2018-10-12T09:13:05 02:00</time>
      </trkpt>
      <trkpt lat="44.35454" lon="4.87386">
        <ele>126</ele>
        <time>2018-10-12T09:13:06 02:00</time>
      </trkpt>
      <trkpt lat="44.35454" lon="4.8738">
        <ele>126</ele>
        <time>2018-10-12T09:13:07 02:00</time>
      </trkpt>
      <trkpt lat="44.35454" lon="4.87375">
        <ele>126</ele>
        <time>2018-10-12T09:13:08 02:00</time>
      </trkpt>
      <trkpt lat="44.35455" lon="4.8737">
        <ele>126</ele>
        <time>2018-10-12T09:13:09 02:00</time>
      </trkpt>
      <trkpt lat="44.35455" lon="4.87366">
        <ele>126</ele>
        <time>2018-10-12T09:13:10 02:00</time>
      </trkpt>
      <trkpt lat="44.35456" lon="4.87361">
        <ele>126</ele>
        <time>2018-10-12T09:13:11 02:00</time>
      </trkpt>
      <trkpt lat="44.35456" lon="4.87357">
        <ele>126</ele>
        <time>2018-10-12T09:13:12 02:00</time>
      </trkpt>
      <trkpt lat="44.35456" lon="4.87352">
        <ele>126</ele>
        <time>2018-10-12T09:13:13 02:00</time>
      </trkpt>
      <trkpt lat="44.35456" lon="4.87348">
        <ele>127</ele>
        <time>2018-10-12T09:13:14 02:00</time>
      </trkpt>
      <trkpt lat="44.35457" lon="4.87344">
        <ele>127</ele>
        <time>2018-10-12T09:13:15 02:00</time>
      </trkpt>
      <trkpt lat="44.35457" lon="4.87341">
        <ele>127</ele>
        <time>2018-10-12T09:13:16 02:00</time>
      </trkpt>
      <trkpt lat="44.35458" lon="4.87337">
        <ele>127</ele>
        <time>2018-10-12T09:13:17 02:00</time>
      </trkpt>
      <trkpt lat="44.35459" lon="4.87334">
        <ele>127</ele>
        <time>2018-10-12T09:13:18 02:00</time>
      </trkpt>
      <trkpt lat="44.35461" lon="4.87331">
        <ele>127</ele>
        <time>2018-10-12T09:13:19 02:00</time>
      </trkpt>
      <trkpt lat="44.35462" lon="4.87328">
        <ele>127</ele>
        <time>2018-10-12T09:13:20 02:00</time>
      </trkpt>
      <trkpt lat="44.35463" lon="4.87324">
        <ele>127</ele>
        <time>2018-10-12T09:13:21 02:00</time>
      </trkpt>
      <trkpt lat="44.35465" lon="4.87321">
        <ele>127</ele>
        <time>2018-10-12T09:13:22 02:00</time>
      </trkpt>
      <trkpt lat="44.35466" lon="4.87318">
        <ele>128</ele>
        <time>2018-10-12T09:13:23 02:00</time>
      </trkpt>
      <trkpt lat="44.35468" lon="4.87314">
        <ele>128</ele>
        <time>2018-10-12T09:13:24 02:00</time>
      </trkpt>
      <trkpt lat="44.3547" lon="4.8731">
        <ele>128</ele>
        <time>2018-10-12T09:13:25 02:00</time>
      </trkpt>
      <trkpt lat="44.35471" lon="4.87307">
        <ele>128</ele>
        <time>2018-10-12T09:13:26 02:00</time>
      </trkpt>
      <trkpt lat="44.35473" lon="4.87303">
        <ele>128</ele>
        <time>2018-10-12T09:13:27 02:00</time>
      </trkpt>
      <trkpt lat="44.35475" lon="4.87299">
        <ele>128</ele>
        <time>2018-10-12T09:13:28 02:00</time>
      </trkpt>
      <trkpt lat="44.35477" lon="4.87296">
        <ele>128</ele>
        <time>2018-10-12T09:13:29 02:00</time>
      </trkpt>
      <trkpt lat="44.35479" lon="4.87292">
        <ele>128</ele>
        <time>2018-10-12T09:13:30 02:00</time>
      </trkpt>
      <trkpt lat="44.35481" lon="4.87288">
        <ele>128</ele>
        <time>2018-10-12T09:13:31 02:00</time>
      </trkpt>
      <trkpt lat="44.35482" lon="4.87284">
        <ele>128</ele>
        <time>2018-10-12T09:13:32 02:00</time>
      </trkpt>
      <trkpt lat="44.35484" lon="4.8728">
        <ele>128</ele>
        <time>2018-10-12T09:13:33 02:00</time>
      </trkpt>
      <trkpt lat="44.35486" lon="4.87277">
        <ele>129</ele>
        <time>2018-10-12T09:13:34 02:00</time>
      </trkpt>
      <trkpt lat="44.35488" lon="4.87273">
        <ele>129</ele>
        <time>2018-10-12T09:13:35 02:00</time>
      </trkpt>
      <trkpt lat="44.3549" lon="4.87269">
        <ele>129</ele>
        <time>2018-10-12T09:13:36 02:00</time>
      </trkpt>
      <trkpt lat="44.35492" lon="4.87265">
        <ele>129</ele>
        <time>2018-10-12T09:13:37 02:00</time>
      </trkpt>
      <trkpt lat="44.35494" lon="4.87261">
        <ele>129</ele>
        <time>2018-10-12T09:13:38 02:00</time>
      </trkpt>
      <trkpt lat="44.35496" lon="4.87257">
        <ele>129</ele>
        <time>2018-10-12T09:13:39 02:00</time>
      </trkpt>
      <trkpt lat="44.35497" lon="4.87254">
        <ele>129</ele>
        <time>2018-10-12T09:13:40 02:00</time>
      </trkpt>
      <trkpt lat="44.35499" lon="4.8725">
        <ele>129</ele>
        <time>2018-10-12T09:13:41 02:00</time>
      </trkpt>
      <trkpt lat="44.35501" lon="4.87246">
        <ele>129</ele>
        <time>2018-10-12T09:13:42 02:00</time>
      </trkpt>
      <trkpt lat="44.35503" lon="4.87242">
        <ele>129</ele>
        <time>2018-10-12T09:13:43 02:00</time>
      </trkpt>
      <trkpt lat="44.35505" lon="4.87239">
        <ele>129</ele>
        <time>2018-10-12T09:13:44 02:00</time>
      </trkpt>
      <trkpt lat="44.35506" lon="4.87235">
        <ele>129</ele>
        <time>2018-10-12T09:13:45 02:00</time>
      </trkpt>
      <trkpt lat="44.35508" lon="4.87231">
        <ele>129</ele>
        <time>2018-10-12T09:13:46 02:00</time>
      </trkpt>
      <trkpt lat="44.3551" lon="4.87228">
        <ele>130</ele>
        <time>2018-10-12T09:13:47 02:00</time>
      </trkpt>
      <trkpt lat="44.35512" lon="4.87224">
        <ele>130</ele>
        <time>2018-10-12T09:13:48 02:00</time>
      </trkpt>
      <trkpt lat="44.35514" lon="4.87221">
        <ele>130</ele>
        <time>2018-10-12T09:13:49 02:00</time>
      </trkpt>
      <trkpt lat="44.35516" lon="4.87217">
        <ele>130</ele>
        <time>2018-10-12T09:13:50 02:00</time>
      </trkpt>
      <trkpt lat="44.35517" lon="4.87214">
        <ele>130</ele>
        <time>2018-10-12T09:13:51 02:00</time>
      </trkpt>
      <trkpt lat="44.35519" lon="4.8721">
        <ele>130</ele>
        <time>2018-10-12T09:13:52 02:00</time>
      </trkpt>
      <trkpt lat="44.35521" lon="4.87207">
        <ele>130</ele>
        <time>2018-10-12T09:13:53 02:00</time>
      </trkpt>
      <trkpt lat="44.35523" lon="4.87204">
        <ele>130</ele>
        <time>2018-10-12T09:13:54 02:00</time>
      </trkpt>
      <trkpt lat="44.35526" lon="4.872">
        <ele>130</ele>
        <time>2018-10-12T09:13:55 02:00</time>
      </trkpt>
      <trkpt lat="44.35528" lon="4.87197">
        <ele>130</ele>
        <time>2018-10-12T09:13:56 02:00</time>
      </trkpt>
      <trkpt lat="44.3553" lon="4.87194">
        <ele>131</ele>
        <time>2018-10-12T09:13:57 02:00</time>
      </trkpt>
      <trkpt lat="44.35532" lon="4.87191">
        <ele>131</ele>
        <time>2018-10-12T09:13:58 02:00</time>
      </trkpt>
      <trkpt lat="44.35535" lon="4.87188">
        <ele>131</ele>
        <time>2018-10-12T09:13:59 02:00</time>
      </trkpt>
      <trkpt lat="44.35537" lon="4.87185">
        <ele>131</ele>
        <time>2018-10-12T09:14:00 02:00</time>
      </trkpt>
      <trkpt lat="44.35539" lon="4.87181">
        <ele>131</ele>
        <time>2018-10-12T09:14:01 02:00</time>
      </trkpt>
      <trkpt lat="44.35542" lon="4.87178">
        <ele>131</ele>
        <time>2018-10-12T09:14:02 02:00</time>
      </trkpt>
      <trkpt lat="44.35544" lon="4.87175">
        <ele>131</ele>
        <time>2018-10-12T09:14:03 02:00</time>
      </trkpt>
      <trkpt lat="44.35546" lon="4.87172">
        <ele>131</ele>
        <time>2018-10-12T09:14:04 02:00</time>
      </trkpt>
      <trkpt lat="44.35548" lon="4.87168">
        <ele>132</ele>
        <time>2018-10-12T09:14:05 02:00</time>
      </trkpt>
      <trkpt lat="44.35551" lon="4.87165">
        <ele>132</ele>
        <time>2018-10-12T09:14:06 02:00</time>
      </trkpt>
      <trkpt lat="44.35553" lon="4.87162">
        <ele>132</ele>
        <time>2018-10-12T09:14:07 02:00</time>
      </trkpt>
      <trkpt lat="44.35555" lon="4.87158">
        <ele>132</ele>
        <time>2018-10-12T09:14:08 02:00</time>
      </trkpt>
      <trkpt lat="44.35558" lon="4.87155">
        <ele>132</ele>
        <time>2018-10-12T09:14:09 02:00</time>
      </trkpt>
      <trkpt lat="44.3556" lon="4.87152">
        <ele>132</ele>
        <time>2018-10-12T09:14:10 02:00</time>
      </trkpt>
      <trkpt lat="44.35562" lon="4.87148">
        <ele>133</ele>
        <time>2018-10-12T09:14:11 02:00</time>
      </trkpt>
      <trkpt lat="44.35565" lon="4.87145">
        <ele>133</ele>
        <time>2018-10-12T09:14:12 02:00</time>
      </trkpt>
      <trkpt lat="44.35567" lon="4.87142">
        <ele>133</ele>
        <time>2018-10-12T09:14:13 02:00</time>
      </trkpt>
      <trkpt lat="44.35569" lon="4.87138">
        <ele>133</ele>
        <time>2018-10-12T09:14:14 02:00</time>
      </trkpt>
      <trkpt lat="44.35572" lon="4.87135">
        <ele>133</ele>
        <time>2018-10-12T09:14:15 02:00</time>
      </trkpt>
      <trkpt lat="44.35574" lon="4.87132">
        <ele>134</ele>
        <time>2018-10-12T09:14:16 02:00</time>
      </trkpt>
      <trkpt lat="44.35576" lon="4.87129">
        <ele>134</ele>
        <time>2018-10-12T09:14:17 02:00</time>
      </trkpt>
      <trkpt lat="44.35578" lon="4.87126">
        <ele>134</ele>
        <time>2018-10-12T09:14:18 02:00</time>
      </trkpt>
      <trkpt lat="44.3558" lon="4.87123">
        <ele>134</ele>
        <time>2018-10-12T09:14:19 02:00</time>
      </trkpt>
      <trkpt lat="44.35583" lon="4.8712">
        <ele>134</ele>
        <time>2018-10-12T09:14:20 02:00</time>
      </trkpt>
      <trkpt lat="44.35585" lon="4.87117">
        <ele>134</ele>
        <time>2018-10-12T09:14:21 02:00</time>
      </trkpt>
      <trkpt lat="44.35587" lon="4.87114">
        <ele>134</ele>
        <time>2018-10-12T09:14:22 02:00</time>
      </trkpt>
      <trkpt lat="44.35589" lon="4.87111">
        <ele>135</ele>
        <time>2018-10-12T09:14:23 02:00</time>
      </trkpt>
      <trkpt lat="44.35591" lon="4.87108">
        <ele>135</ele>
        <time>2018-10-12T09:14:24 02:00</time>
      </trkpt>
      <trkpt lat="44.35594" lon="4.87104">
        <ele>135</ele>
        <time>2018-10-12T09:14:25 02:00</time>
      </trkpt>
      <trkpt lat="44.35596" lon="4.87101">
        <ele>135</ele>
        <time>2018-10-12T09:14:26 02:00</time>
      </trkpt>
      <trkpt lat="44.35597" lon="4.87098">
        <ele>135</ele>
        <time>2018-10-12T09:14:27 02:00</time>
      </trkpt>
      <trkpt lat="44.35598" lon="4.87095">
        <ele>135</ele>
        <time>2018-10-12T09:14:28 02:00</time>
      </trkpt>
      <trkpt lat="44.35599" lon="4.87092">
        <ele>135</ele>
        <time>2018-10-12T09:14:29 02:00</time>
      </trkpt>
      <trkpt lat="44.35599" lon="4.87088">
        <ele>136</ele>
        <time>2018-10-12T09:14:30 02:00</time>
      </trkpt>
      <trkpt lat="44.35599" lon="4.87085">
        <ele>136</ele>
        <time>2018-10-12T09:14:31 02:00</time>
      </trkpt>
      <trkpt lat="44.35598" lon="4.87082">
        <ele>136</ele>
        <time>2018-10-12T09:14:32 02:00</time>
      </trkpt>
      <trkpt lat="44.35597" lon="4.87078">
        <ele>136</ele>
        <time>2018-10-12T09:14:33 02:00</time>
      </trkpt>
      <trkpt lat="44.35596" lon="4.87075">
        <ele>136</ele>
        <time>2018-10-12T09:14:34 02:00</time>
      </trkpt>
      <trkpt lat="44.35595" lon="4.87071">
        <ele>136</ele>
        <time>2018-10-12T09:14:35 02:00</time>
      </trkpt>
      <trkpt lat="44.35594" lon="4.87068">
        <ele>136</ele>
        <time>2018-10-12T09:14:36 02:00</time>
      </trkpt>
      <trkpt lat="44.35593" lon="4.87064">
        <ele>136</ele>
        <time>2018-10-12T09:14:37 02:00</time>
      </trkpt>
      <trkpt lat="44.35593" lon="4.87061">
        <ele>136</ele>
        <time>2018-10-12T09:14:38 02:00</time>
      </trkpt>
      <trkpt lat="44.35592" lon="4.87057">
        <ele>137</ele>
        <time>2018-10-12T09:14:39 02:00</time>
      </trkpt>
      <trkpt lat="44.35592" lon="4.87054">
        <ele>137</ele>
        <time>2018-10-12T09:14:40 02:00</time>
      </trkpt>
      <trkpt lat="44.35592" lon="4.8705">
        <ele>137</ele>
        <time>2018-10-12T09:14:41 02:00</time>
      </trkpt>
      <trkpt lat="44.35591" lon="4.87046">
        <ele>137</ele>
        <time>2018-10-12T09:14:42 02:00</time>
      </trkpt>
      <trkpt lat="44.35591" lon="4.87043">
        <ele>137</ele>
        <time>2018-10-12T09:14:43 02:00</time>
      </trkpt>
      <trkpt lat="44.35591" lon="4.87039">
        <ele>137</ele>
        <time>2018-10-12T09:14:44 02:00</time>
      </trkpt>
      <trkpt lat="44.35591" lon="4.87035">
        <ele>137</ele>
        <time>2018-10-12T09:14:45 02:00</time>
      </trkpt>
      <trkpt lat="44.35591" lon="4.87032">
        <ele>137</ele>
        <time>2018-10-12T09:14:46 02:00</time>
      </trkpt>
      <trkpt lat="44.35591" lon="4.87028">
        <ele>137</ele>
        <time>2018-10-12T09:14:47 02:00</time>
      </trkpt>
      <trkpt lat="44.35591" lon="4.87024">
        <ele>137</ele>
        <time>2018-10-12T09:14:48 02:00</time>
      </trkpt>
      <trkpt lat="44.35591" lon="4.8702">
        <ele>137</ele>
        <time>2018-10-12T09:14:49 02:00</time>
      </trkpt>
      <trkpt lat="44.3559" lon="4.87017">
        <ele>138</ele>
        <time>2018-10-12T09:14:50 02:00</time>
      </trkpt>
      <trkpt lat="44.3559" lon="4.87013">
        <ele>138</ele>
        <time>2018-10-12T09:14:51 02:00</time>
      </trkpt>
      <trkpt lat="44.3559" lon="4.87009">
        <ele>138</ele>
        <time>2018-10-12T09:14:52 02:00</time>
      </trkpt>
      <trkpt lat="44.35589" lon="4.87005">
        <ele>138</ele>
        <time>2018-10-12T09:14:53 02:00</time>
      </trkpt>
      <trkpt lat="44.35588" lon="4.87001">
        <ele>138</ele>
        <time>2018-10-12T09:14:54 02:00</time>
      </trkpt>
      <trkpt lat="44.35587" lon="4.86997">
        <ele>138</ele>
        <time>2018-10-12T09:14:55 02:00</time>
      </trkpt>
      <trkpt lat="44.35585" lon="4.86993">
        <ele>138</ele>
        <time>2018-10-12T09:14:56 02:00</time>
      </trkpt>
      <trkpt lat="44.35583" lon="4.8699">
        <ele>138</ele>
        <time>2018-10-12T09:14:57 02:00</time>
      </trkpt>
      <trkpt lat="44.35581" lon="4.86986">
        <ele>138</ele>
        <time>2018-10-12T09:14:58 02:00</time>
      </trkpt>
      <trkpt lat="44.35579" lon="4.86983">
        <ele>138</ele>
        <time>2018-10-12T09:14:59 02:00</time>
      </trkpt>
      <trkpt lat="44.35577" lon="4.86981">
        <ele>138</ele>
        <time>2018-10-12T09:15:00 02:00</time>
      </trkpt>
      <trkpt lat="44.35574" lon="4.86979">
        <ele>138</ele>
        <time>2018-10-12T09:15:01 02:00</time>
      </trkpt>
      <trkpt lat="44.35572" lon="4.86977">
        <ele>138</ele>
        <time>2018-10-12T09:15:02 02:00</time>
      </trkpt>
      <trkpt lat="44.35569" lon="4.86975">
        <ele>138</ele>
        <time>2018-10-12T09:15:03 02:00</time>
      </trkpt>
      <trkpt lat="44.35566" lon="4.86974">
        <ele>138</ele>
        <time>2018-10-12T09:15:04 02:00</time>
      </trkpt>
      <trkpt lat="44.35563" lon="4.86972">
        <ele>138</ele>
        <time>2018-10-12T09:15:05 02:00</time>
      </trkpt>
      <trkpt lat="44.35561" lon="4.8697">
        <ele>138</ele>
        <time>2018-10-12T09:15:06 02:00</time>
      </trkpt>
      <trkpt lat="44.35558" lon="4.86968">
        <ele>138</ele>
        <time>2018-10-12T09:15:07 02:00</time>
      </trkpt>
      <trkpt lat="44.35556" lon="4.86966">
        <ele>138</ele>
        <time>2018-10-12T09:15:08 02:00</time>
      </trkpt>
      <trkpt lat="44.35553" lon="4.86964">
        <ele>137</ele>
        <time>2018-10-12T09:15:09 02:00</time>
      </trkpt>
      <trkpt lat="44.3555" lon="4.86962">
        <ele>137</ele>
        <time>2018-10-12T09:15:10 02:00</time>
      </trkpt>
      <trkpt lat="44.35548" lon="4.8696">
        <ele>137</ele>
        <time>2018-10-12T09:15:11 02:00</time>
      </trkpt>
      <trkpt lat="44.35545" lon="4.86958">
        <ele>137</ele>
        <time>2018-10-12T09:15:12 02:00</time>
      </trkpt>
      <trkpt lat="44.35543" lon="4.86956">
        <ele>137</ele>
        <time>2018-10-12T09:15:13 02:00</time>
      </trkpt>
      <trkpt lat="44.3554" lon="4.86955">
        <ele>137</ele>
        <time>2018-10-12T09:15:14 02:00</time>
      </trkpt>
      <trkpt lat="44.35537" lon="4.86953">
        <ele>137</ele>
        <time>2018-10-12T09:15:15 02:00</time>
      </trkpt>
      <trkpt lat="44.35535" lon="4.86951">
        <ele>137</ele>
        <time>2018-10-12T09:15:16 02:00</time>
      </trkpt>
      <trkpt lat="44.35532" lon="4.86949">
        <ele>137</ele>
        <time>2018-10-12T09:15:17 02:00</time>
      </trkpt>
      <trkpt lat="44.3553" lon="4.86947">
        <ele>137</ele>
        <time>2018-10-12T09:15:18 02:00</time>
      </trkpt>
      <trkpt lat="44.35527" lon="4.86945">
        <ele>137</ele>
        <time>2018-10-12T09:15:19 02:00</time>
      </trkpt>
      <trkpt lat="44.35524" lon="4.86943">
        <ele>137</ele>
        <time>2018-10-12T09:15:20 02:00</time>
      </trkpt>
      <trkpt lat="44.35522" lon="4.8694">
        <ele>137</ele>
        <time>2018-10-12T09:15:21 02:00</time>
      </trkpt>
      <trkpt lat="44.35519" lon="4.86938">
        <ele>137</ele>
        <time>2018-10-12T09:15:22 02:00</time>
      </trkpt>
      <trkpt lat="44.35516" lon="4.86936">
        <ele>137</ele>
        <time>2018-10-12T09:15:23 02:00</time>
      </trkpt>
      <trkpt lat="44.35513" lon="4.86934">
        <ele>137</ele>
        <time>2018-10-12T09:15:24 02:00</time>
      </trkpt>
      <trkpt lat="44.35511" lon="4.86932">
        <ele>137</ele>
        <time>2018-10-12T09:15:25 02:00</time>
      </trkpt>
      <trkpt lat="44.35508" lon="4.8693">
        <ele>137</ele>
        <time>2018-10-12T09:15:26 02:00</time>
      </trkpt>
      <trkpt lat="44.35505" lon="4.86928">
        <ele>137</ele>
        <time>2018-10-12T09:15:27 02:00</time>
      </trkpt>
      <trkpt lat="44.35502" lon="4.86925">
        <ele>137</ele>
        <time>2018-10-12T09:15:28 02:00</time>
      </trkpt>
      <trkpt lat="44.355" lon="4.86923">
        <ele>137</ele>
        <time>2018-10-12T09:15:29 02:00</time>
      </trkpt>
      <trkpt lat="44.35497" lon="4.8692">
        <ele>137</ele>
        <time>2018-10-12T09:15:30 02:00</time>
      </trkpt>
      <trkpt lat="44.35495" lon="4.86918">
        <ele>137</ele>
        <time>2018-10-12T09:15:31 02:00</time>
      </trkpt>
      <trkpt lat="44.35493" lon="4.86915">
        <ele>137</ele>
        <time>2018-10-12T09:15:32 02:00</time>
      </trkpt>
      <trkpt lat="44.3549" lon="4.86912">
        <ele>137</ele>
        <time>2018-10-12T09:15:33 02:00</time>
      </trkpt>
      <trkpt lat="44.35488" lon="4.8691">
        <ele>137</ele>
        <time>2018-10-12T09:15:34 02:00</time>
      </trkpt>
      <trkpt lat="44.35485" lon="4.86907">
        <ele>137</ele>
        <time>2018-10-12T09:15:35 02:00</time>
      </trkpt>
      <trkpt lat="44.35483" lon="4.86904">
        <ele>137</ele>
        <time>2018-10-12T09:15:36 02:00</time>
      </trkpt>
      <trkpt lat="44.3548" lon="4.86901">
        <ele>137</ele>
        <time>2018-10-12T09:15:37 02:00</time>
      </trkpt>
      <trkpt lat="44.35478" lon="4.86899">
        <ele>137</ele>
        <time>2018-10-12T09:15:38 02:00</time>
      </trkpt>
      <trkpt lat="44.35475" lon="4.86896">
        <ele>137</ele>
        <time>2018-10-12T09:15:39 02:00</time>
      </trkpt>
      <trkpt lat="44.35472" lon="4.86893">
        <ele>137</ele>
        <time>2018-10-12T09:15:40 02:00</time>
      </trkpt>
      <trkpt lat="44.3547" lon="4.86891">
        <ele>137</ele>
        <time>2018-10-12T09:15:41 02:00</time>
      </trkpt>
      <trkpt lat="44.35467" lon="4.86888">
        <ele>137</ele>
        <time>2018-10-12T09:15:42 02:00</time>
      </trkpt>
      <trkpt lat="44.35465" lon="4.86886">
        <ele>137</ele>
        <time>2018-10-12T09:15:43 02:00</time>
      </trkpt>
      <trkpt lat="44.35462" lon="4.86883">
        <ele>136</ele>
        <time>2018-10-12T09:15:44 02:00</time>
      </trkpt>
      <trkpt lat="44.3546" lon="4.8688">
        <ele>136</ele>
        <time>2018-10-12T09:15:45 02:00</time>
      </trkpt>
      <trkpt lat="44.35457" lon="4.86878">
        <ele>136</ele>
        <time>2018-10-12T09:15:46 02:00</time>
      </trkpt>
      <trkpt lat="44.35455" lon="4.86875">
        <ele>136</ele>
        <time>2018-10-12T09:15:47 02:00</time>
      </trkpt>
      <trkpt lat="44.35453" lon="4.86873">
        <ele>136</ele>
        <time>2018-10-12T09:15:48 02:00</time>
      </trkpt>
      <trkpt lat="44.3545" lon="4.8687">
        <ele>136</ele>
        <time>2018-10-12T09:15:49 02:00</time>
      </trkpt>
      <trkpt lat="44.35448" lon="4.86868">
        <ele>136</ele>
        <time>2018-10-12T09:15:50 02:00</time>
      </trkpt>
      <trkpt lat="44.35445" lon="4.86865">
        <ele>136</ele>
        <time>2018-10-12T09:15:51 02:00</time>
      </trkpt>
      <trkpt lat="44.35443" lon="4.86863">
        <ele>136</ele>
        <time>2018-10-12T09:15:52 02:00</time>
      </trkpt>
      <trkpt lat="44.3544" lon="4.8686">
        <ele>136</ele>
        <time>2018-10-12T09:15:53 02:00</time>
      </trkpt>
      <trkpt lat="44.35438" lon="4.86858">
        <ele>136</ele>
        <time>2018-10-12T09:15:54 02:00</time>
      </trkpt>
      <trkpt lat="44.35435" lon="4.86856">
        <ele>136</ele>
        <time>2018-10-12T09:15:55 02:00</time>
      </trkpt>
      <trkpt lat="44.35433" lon="4.86853">
        <ele>136</ele>
        <time>2018-10-12T09:15:56 02:00</time>
      </trkpt>
      <trkpt lat="44.3543" lon="4.86851">
        <ele>136</ele>
        <time>2018-10-12T09:15:57 02:00</time>
      </trkpt>
      <trkpt lat="44.35428" lon="4.86849">
        <ele>136</ele>
        <time>2018-10-12T09:15:58 02:00</time>
      </trkpt>
      <trkpt lat="44.35425" lon="4.86846">
        <ele>136</ele>
        <time>2018-10-12T09:15:59 02:00</time>
      </trkpt>
      <trkpt lat="44.35422" lon="4.86844">
        <ele>136</ele>
        <time>2018-10-12T09:16:00 02:00</time>
      </trkpt>
      <trkpt lat="44.35419" lon="4.86842">
        <ele>136</ele>
        <time>2018-10-12T09:16:01 02:00</time>
      </trkpt>
      <trkpt lat="44.35417" lon="4.86839">
        <ele>136</ele>
        <time>2018-10-12T09:16:02 02:00</time>
      </trkpt>
      <trkpt lat="44.35414" lon="4.86837">
        <ele>136</ele>
        <time>2018-10-12T09:16:03 02:00</time>
      </trkpt>
      <trkpt lat="44.35411" lon="4.86835">
        <ele>136</ele>
        <time>2018-10-12T09:16:04 02:00</time>
      </trkpt>
      <trkpt lat="44.35408" lon="4.86833">
        <ele>136</ele>
        <time>2018-10-12T09:16:05 02:00</time>
      </trkpt>
      <trkpt lat="44.35405" lon="4.8683">
        <ele>136</ele>
        <time>2018-10-12T09:16:06 02:00</time>
      </trkpt>
      <trkpt lat="44.35402" lon="4.86828">
        <ele>135</ele>
        <time>2018-10-12T09:16:07 02:00</time>
      </trkpt>
      <trkpt lat="44.354" lon="4.86825">
        <ele>135</ele>
        <time>2018-10-12T09:16:08 02:00</time>
      </trkpt>
      <trkpt lat="44.35397" lon="4.86823">
        <ele>135</ele>
        <time>2018-10-12T09:16:09 02:00</time>
      </trkpt>
      <trkpt lat="44.35394" lon="4.8682">
        <ele>135</ele>
        <time>2018-10-12T09:16:10 02:00</time>
      </trkpt>
      <trkpt lat="44.35391" lon="4.86818">
        <ele>135</ele>
        <time>2018-10-12T09:16:11 02:00</time>
      </trkpt>
      <trkpt lat="44.35388" lon="4.86815">
        <ele>134</ele>
        <time>2018-10-12T09:16:12 02:00</time>
      </trkpt>
      <trkpt lat="44.35385" lon="4.86812">
        <ele>134</ele>
        <time>2018-10-12T09:16:13 02:00</time>
      </trkpt>
      <trkpt lat="44.35382" lon="4.86809">
        <ele>134</ele>
        <time>2018-10-12T09:16:14 02:00</time>
      </trkpt>
      <trkpt lat="44.3538" lon="4.86806">
        <ele>134</ele>
        <time>2018-10-12T09:16:15 02:00</time>
      </trkpt>
      <trkpt lat="44.35377" lon="4.86803">
        <ele>134</ele>
        <time>2018-10-12T09:16:16 02:00</time>
      </trkpt>
      <trkpt lat="44.35374" lon="4.868">
        <ele>133</ele>
        <time>2018-10-12T09:16:17 02:00</time>
      </trkpt>
      <trkpt lat="44.35371" lon="4.86797">
        <ele>133</ele>
        <time>2018-10-12T09:16:18 02:00</time>
      </trkpt>
      <trkpt lat="44.35368" lon="4.86794">
        <ele>133</ele>
        <time>2018-10-12T09:16:19 02:00</time>
      </trkpt>
      <trkpt lat="44.35364" lon="4.86791">
        <ele>133</ele>
        <time>2018-10-12T09:16:20 02:00</time>
      </trkpt>
      <trkpt lat="44.35361" lon="4.86788">
        <ele>133</ele>
        <time>2018-10-12T09:16:21 02:00</time>
      </trkpt>
      <trkpt lat="44.35358" lon="4.86785">
        <ele>132</ele>
        <time>2018-10-12T09:16:22 02:00</time>
      </trkpt>
      <trkpt lat="44.35355" lon="4.86781">
        <ele>132</ele>
        <time>2018-10-12T09:16:23 02:00</time>
      </trkpt>
      <trkpt lat="44.35352" lon="4.86776">
        <ele>132</ele>
        <time>2018-10-12T09:16:24 02:00</time>
      </trkpt>
      <trkpt lat="44.3535" lon="4.86771">
        <ele>132</ele>
        <time>2018-10-12T09:16:25 02:00</time>
      </trkpt>
      <trkpt lat="44.35349" lon="4.86765">
        <ele>132</ele>
        <time>2018-10-12T09:16:26 02:00</time>
      </trkpt>
      <trkpt lat="44.35348" lon="4.86759">
        <ele>131</ele>
        <time>2018-10-12T09:16:27 02:00</time>
      </trkpt>
      <trkpt lat="44.35348" lon="4.86754">
        <ele>131</ele>
        <time>2018-10-12T09:16:28 02:00</time>
      </trkpt>
      <trkpt lat="44.35348" lon="4.86749">
        <ele>131</ele>
        <time>2018-10-12T09:16:29 02:00</time>
      </trkpt>
      <trkpt lat="44.35348" lon="4.86743">
        <ele>131</ele>
        <time>2018-10-12T09:16:30 02:00</time>
      </trkpt>
      <trkpt lat="44.35347" lon="4.86739">
        <ele>131</ele>
        <time>2018-10-12T09:16:31 02:00</time>
      </trkpt>
      <trkpt lat="44.35346" lon="4.86735">
        <ele>131</ele>
        <time>2018-10-12T09:16:32 02:00</time>
      </trkpt>
      <trkpt lat="44.35343" lon="4.86732">
        <ele>131</ele>
        <time>2018-10-12T09:16:33 02:00</time>
      </trkpt>
      <trkpt lat="44.3534" lon="4.8673">
        <ele>131</ele>
        <time>2018-10-12T09:16:34 02:00</time>
      </trkpt>
      <trkpt lat="44.35337" lon="4.86729">
        <ele>131</ele>
        <time>2018-10-12T09:16:35 02:00</time>
      </trkpt>
      <trkpt lat="44.35334" lon="4.86728">
        <ele>131</ele>
        <time>2018-10-12T09:16:36 02:00</time>
      </trkpt>
      <trkpt lat="44.35331" lon="4.86728">
        <ele>131</ele>
        <time>2018-10-12T09:16:37 02:00</time>
      </trkpt>
      <trkpt lat="44.35329" lon="4.86727">
        <ele>131</ele>
        <time>2018-10-12T09:16:38 02:00</time>
      </trkpt>
      <trkpt lat="44.35326" lon="4.86727">
        <ele>131</ele>
        <time>2018-10-12T09:16:39 02:00</time>
      </trkpt>
      <trkpt lat="44.35324" lon="4.86726">
        <ele>131</ele>
        <time>2018-10-12T09:16:40 02:00</time>
      </trkpt>
      <trkpt lat="44.35321" lon="4.86726">
        <ele>131</ele>
        <time>2018-10-12T09:16:41 02:00</time>
      </trkpt>
      <trkpt lat="44.35319" lon="4.86726">
        <ele>131</ele>
        <time>2018-10-12T09:16:42 02:00</time>
      </trkpt>
      <trkpt lat="44.35316" lon="4.86725">
        <ele>131</ele>
        <time>2018-10-12T09:16:43 02:00</time>
      </trkpt>
      <trkpt lat="44.35314" lon="4.86725">
        <ele>131</ele>
        <time>2018-10-12T09:16:44 02:00</time>
      </trkpt>
      <trkpt lat="44.35311" lon="4.86724">
        <ele>131</ele>
        <time>2018-10-12T09:16:45 02:00</time>
      </trkpt>
      <trkpt lat="44.35308" lon="4.86724">
        <ele>131</ele>
        <time>2018-10-12T09:16:46 02:00</time>
      </trkpt>
      <trkpt lat="44.35305" lon="4.86723">
        <ele>130</ele>
        <time>2018-10-12T09:16:47 02:00</time>
      </trkpt>
      <trkpt lat="44.35303" lon="4.86723">
        <ele>130</ele>
        <time>2018-10-12T09:16:48 02:00</time>
      </trkpt>
      <trkpt lat="44.353" lon="4.86723">
        <ele>130</ele>
        <time>2018-10-12T09:16:49 02:00</time>
      </trkpt>
      <trkpt lat="44.35297" lon="4.86722">
        <ele>130</ele>
        <time>2018-10-12T09:16:50 02:00</time>
      </trkpt>
      <trkpt lat="44.35294" lon="4.86722">
        <ele>130</ele>
        <time>2018-10-12T09:16:51 02:00</time>
      </trkpt>
      <trkpt lat="44.35291" lon="4.86722">
        <ele>130</ele>
        <time>2018-10-12T09:16:52 02:00</time>
      </trkpt>
      <trkpt lat="44.35289" lon="4.86721">
        <ele>130</ele>
        <time>2018-10-12T09:16:53 02:00</time>
      </trkpt>
      <trkpt lat="44.35286" lon="4.86721">
        <ele>130</ele>
        <time>2018-10-12T09:16:54 02:00</time>
      </trkpt>
      <trkpt lat="44.35283" lon="4.86721">
        <ele>130</ele>
        <time>2018-10-12T09:16:55 02:00</time>
      </trkpt>
      <trkpt lat="44.3528" lon="4.8672">
        <ele>130</ele>
        <time>2018-10-12T09:16:56 02:00</time>
      </trkpt>
      <trkpt lat="44.35277" lon="4.8672">
        <ele>130</ele>
        <time>2018-10-12T09:16:57 02:00</time>
      </trkpt>
      <trkpt lat="44.35274" lon="4.8672">
        <ele>130</ele>
        <time>2018-10-12T09:16:58 02:00</time>
      </trkpt>
      <trkpt lat="44.35271" lon="4.86719">
        <ele>130</ele>
        <time>2018-10-12T09:16:59 02:00</time>
      </trkpt>
      <trkpt lat="44.35268" lon="4.86719">
        <ele>130</ele>
        <time>2018-10-12T09:17:00 02:00</time>
      </trkpt>
      <trkpt lat="44.35265" lon="4.86719">
        <ele>130</ele>
        <time>2018-10-12T09:17:01 02:00</time>
      </trkpt>
      <trkpt lat="44.35261" lon="4.86718">
        <ele>129</ele>
        <time>2018-10-12T09:17:02 02:00</time>
      </trkpt>
      <trkpt lat="44.35258" lon="4.86718">
        <ele>129</ele>
        <time>2018-10-12T09:17:03 02:00</time>
      </trkpt>
      <trkpt lat="44.35255" lon="4.86718">
        <ele>129</ele>
        <time>2018-10-12T09:17:04 02:00</time>
      </trkpt>
      <trkpt lat="44.35251" lon="4.86717">
        <ele>129</ele>
        <time>2018-10-12T09:17:05 02:00</time>
      </trkpt>
      <trkpt lat="44.35248" lon="4.86717">
        <ele>129</ele>
        <time>2018-10-12T09:17:06 02:00</time>
      </trkpt>
      <trkpt lat="44.35244" lon="4.86717">
        <ele>129</ele>
        <time>2018-10-12T09:17:07 02:00</time>
      </trkpt>
      <trkpt lat="44.35241" lon="4.86716">
        <ele>129</ele>
        <time>2018-10-12T09:17:08 02:00</time>
      </trkpt>
      <trkpt lat="44.35237" lon="4.86716">
        <ele>129</ele>
        <time>2018-10-12T09:17:09 02:00</time>
      </trkpt>
      <trkpt lat="44.35234" lon="4.86716">
        <ele>129</ele>
        <time>2018-10-12T09:17:10 02:00</time>
      </trkpt>
      <trkpt lat="44.3523" lon="4.86716">
        <ele>130</ele>
        <time>2018-10-12T09:17:11 02:00</time>
      </trkpt>
      <trkpt lat="44.35227" lon="4.86715">
        <ele>130</ele>
        <time>2018-10-12T09:17:12 02:00</time>
      </trkpt>
      <trkpt lat="44.35224" lon="4.86715">
        <ele>130</ele>
        <time>2018-10-12T09:17:13 02:00</time>
      </trkpt>
      <trkpt lat="44.3522" lon="4.86715">
        <ele>130</ele>
        <time>2018-10-12T09:17:14 02:00</time>
      </trkpt>
      <trkpt lat="44.35217" lon="4.86715">
        <ele>130</ele>
        <time>2018-10-12T09:17:15 02:00</time>
      </trkpt>
      <trkpt lat="44.35214" lon="4.86715">
        <ele>130</ele>
        <time>2018-10-12T09:17:16 02:00</time>
      </trkpt>
      <trkpt lat="44.3521" lon="4.86715">
        <ele>130</ele>
        <time>2018-10-12T09:17:17 02:00</time>
      </trkpt>
      <trkpt lat="44.35207" lon="4.86714">
        <ele>130</ele>
        <time>2018-10-12T09:17:18 02:00</time>
      </trkpt>
      <trkpt lat="44.35204" lon="4.86714">
        <ele>130</ele>
        <time>2018-10-12T09:17:19 02:00</time>
      </trkpt>
      <trkpt lat="44.352" lon="4.86714">
        <ele>130</ele>
        <time>2018-10-12T09:17:20 02:00</time>
      </trkpt>
      <trkpt lat="44.35197" lon="4.86714">
        <ele>130</ele>
        <time>2018-10-12T09:17:21 02:00</time>
      </trkpt>
      <trkpt lat="44.35194" lon="4.86714">
        <ele>130</ele>
        <time>2018-10-12T09:17:22 02:00</time>
      </trkpt>
      <trkpt lat="44.3519" lon="4.86714">
        <ele>130</ele>
        <time>2018-10-12T09:17:23 02:00</time>
      </trkpt>
      <trkpt lat="44.35187" lon="4.86713">
        <ele>130</ele>
        <time>2018-10-12T09:17:24 02:00</time>
      </trkpt>
      <trkpt lat="44.35183" lon="4.86713">
        <ele>130</ele>
        <time>2018-10-12T09:17:25 02:00</time>
      </trkpt>
      <trkpt lat="44.3518" lon="4.86712">
        <ele>130</ele>
        <time>2018-10-12T09:17:26 02:00</time>
      </trkpt>
      <trkpt lat="44.35176" lon="4.86711">
        <ele>130</ele>
        <time>2018-10-12T09:17:27 02:00</time>
      </trkpt>
      <trkpt lat="44.35172" lon="4.8671">
        <ele>130</ele>
        <time>2018-10-12T09:17:28 02:00</time>
      </trkpt>
      <trkpt lat="44.35169" lon="4.86709">
        <ele>130</ele>
        <time>2018-10-12T09:17:29 02:00</time>
      </trkpt>
      <trkpt lat="44.35165" lon="4.86708">
        <ele>131</ele>
        <time>2018-10-12T09:17:30 02:00</time>
      </trkpt>
      <trkpt lat="44.35162" lon="4.86707">
        <ele>131</ele>
        <time>2018-10-12T09:17:31 02:00</time>
      </trkpt>
      <trkpt lat="44.35159" lon="4.86705">
        <ele>131</ele>
        <time>2018-10-12T09:17:32 02:00</time>
      </trkpt>
      <trkpt lat="44.35156" lon="4.86704">
        <ele>131</ele>
        <time>2018-10-12T09:17:33 02:00</time>
      </trkpt>
      <trkpt lat="44.35153" lon="4.86703">
        <ele>131</ele>
        <time>2018-10-12T09:17:34 02:00</time>
      </trkpt>
      <trkpt lat="44.3515" lon="4.86702">
        <ele>131</ele>
        <time>2018-10-12T09:17:35 02:00</time>
      </trkpt>
      <trkpt lat="44.35147" lon="4.86701">
        <ele>131</ele>
        <time>2018-10-12T09:17:36 02:00</time>
      </trkpt>
      <trkpt lat="44.35145" lon="4.86699">
        <ele>131</ele>
        <time>2018-10-12T09:17:37 02:00</time>
      </trkpt>
      <trkpt lat="44.35142" lon="4.86698">
        <ele>131</ele>
        <time>2018-10-12T09:17:38 02:00</time>
      </trkpt>
      <trkpt lat="44.35139" lon="4.86697">
        <ele>131</ele>
        <time>2018-10-12T09:17:39 02:00</time>
      </trkpt>
      <trkpt lat="44.35136" lon="4.86696">
        <ele>131</ele>
        <time>2018-10-12T09:17:40 02:00</time>
      </trkpt>
      <trkpt lat="44.35133" lon="4.86695">
        <ele>131</ele>
        <time>2018-10-12T09:17:41 02:00</time>
      </trkpt>
      <trkpt lat="44.3513" lon="4.86694">
        <ele>131</ele>
        <time>2018-10-12T09:17:42 02:00</time>
      </trkpt>
      <trkpt lat="44.35127" lon="4.86692">
        <ele>131</ele>
        <time>2018-10-12T09:17:43 02:00</time>
      </trkpt>
      <trkpt lat="44.35124" lon="4.86691">
        <ele>132</ele>
        <time>2018-10-12T09:17:44 02:00</time>
      </trkpt>
      <trkpt lat="44.3512" lon="4.8669">
        <ele>132</ele>
        <time>2018-10-12T09:17:45 02:00</time>
      </trkpt>
      <trkpt lat="44.35117" lon="4.86689">
        <ele>132</ele>
        <time>2018-10-12T09:17:46 02:00</time>
      </trkpt>
      <trkpt lat="44.35114" lon="4.86687">
        <ele>132</ele>
        <time>2018-10-12T09:17:47 02:00</time>
      </trkpt>
      <trkpt lat="44.35111" lon="4.86686">
        <ele>132</ele>
        <time>2018-10-12T09:17:48 02:00</time>
      </trkpt>
      <trkpt lat="44.35107" lon="4.86685">
        <ele>132</ele>
        <time>2018-10-12T09:17:49 02:00</time>
      </trkpt>
      <trkpt lat="44.35104" lon="4.86684">
        <ele>132</ele>
        <time>2018-10-12T09:17:50 02:00</time>
      </trkpt>
      <trkpt lat="44.35101" lon="4.86683">
        <ele>132</ele>
        <time>2018-10-12T09:17:51 02:00</time>
      </trkpt>
      <trkpt lat="44.35099" lon="4.86682">
        <ele>132</ele>
        <time>2018-10-12T09:17:52 02:00</time>
      </trkpt>
      <trkpt lat="44.35096" lon="4.86681">
        <ele>132</ele>
        <time>2018-10-12T09:17:53 02:00</time>
      </trkpt>
      <trkpt lat="44.35093" lon="4.8668">
        <ele>133</ele>
        <time>2018-10-12T09:17:54 02:00</time>
      </trkpt>
      <trkpt lat="44.3509" lon="4.86679">
        <ele>133</ele>
        <time>2018-10-12T09:17:55 02:00</time>
      </trkpt>
      <trkpt lat="44.35088" lon="4.86679">
        <ele>133</ele>
        <time>2018-10-12T09:17:56 02:00</time>
      </trkpt>
      <trkpt lat="44.35085" lon="4.86678">
        <ele>133</ele>
        <time>2018-10-12T09:17:57 02:00</time>
      </trkpt>
      <trkpt lat="44.35082" lon="4.86678">
        <ele>133</ele>
        <time>2018-10-12T09:17:58 02:00</time>
      </trkpt>
      <trkpt lat="44.3508" lon="4.86677">
        <ele>133</ele>
        <time>2018-10-12T09:17:59 02:00</time>
      </trkpt>
      <trkpt lat="44.35077" lon="4.86677">
        <ele>133</ele>
        <time>2018-10-12T09:18:00 02:00</time>
      </trkpt>
      <trkpt lat="44.35074" lon="4.86676">
        <ele>133</ele>
        <time>2018-10-12T09:18:01 02:00</time>
      </trkpt>
      <trkpt lat="44.35071" lon="4.86676">
        <ele>133</ele>
        <time>2018-10-12T09:18:02 02:00</time>
      </trkpt>
      <trkpt lat="44.35067" lon="4.86676">
        <ele>132</ele>
        <time>2018-10-12T09:18:03 02:00</time>
      </trkpt>
      <trkpt lat="44.35064" lon="4.86675">
        <ele>132</ele>
        <time>2018-10-12T09:18:04 02:00</time>
      </trkpt>
      <trkpt lat="44.35061" lon="4.86675">
        <ele>132</ele>
        <time>2018-10-12T09:18:05 02:00</time>
      </trkpt>
      <trkpt lat="44.35058" lon="4.86674">
        <ele>132</ele>
        <time>2018-10-12T09:18:06 02:00</time>
      </trkpt>
      <trkpt lat="44.35054" lon="4.86674">
        <ele>132</ele>
        <time>2018-10-12T09:18:07 02:00</time>
      </trkpt>
      <trkpt lat="44.35051" lon="4.86673">
        <ele>132</ele>
        <time>2018-10-12T09:18:08 02:00</time>
      </trkpt>
      <trkpt lat="44.35048" lon="4.86672">
        <ele>132</ele>
        <time>2018-10-12T09:18:09 02:00</time>
      </trkpt>
      <trkpt lat="44.35045" lon="4.86671">
        <ele>132</ele>
        <time>2018-10-12T09:18:10 02:00</time>
      </trkpt>
      <trkpt lat="44.35042" lon="4.8667">
        <ele>132</ele>
        <time>2018-10-12T09:18:11 02:00</time>
      </trkpt>
      <trkpt lat="44.35039" lon="4.8667">
        <ele>131</ele>
        <time>2018-10-12T09:18:12 02:00</time>
      </trkpt>
      <trkpt lat="44.35035" lon="4.86668">
        <ele>131</ele>
        <time>2018-10-12T09:18:13 02:00</time>
      </trkpt>
      <trkpt lat="44.35032" lon="4.86667">
        <ele>131</ele>
        <time>2018-10-12T09:18:14 02:00</time>
      </trkpt>
      <trkpt lat="44.35029" lon="4.86666">
        <ele>131</ele>
        <time>2018-10-12T09:18:15 02:00</time>
      </trkpt>
      <trkpt lat="44.35025" lon="4.86665">
        <ele>131</ele>
        <time>2018-10-12T09:18:16 02:00</time>
      </trkpt>
      <trkpt lat="44.35021" lon="4.86663">
        <ele>131</ele>
        <time>2018-10-12T09:18:17 02:00</time>
      </trkpt>
      <trkpt lat="44.35017" lon="4.86662">
        <ele>130</ele>
        <time>2018-10-12T09:18:18 02:00</time>
      </trkpt>
      <trkpt lat="44.35013" lon="4.86661">
        <ele>130</ele>
        <time>2018-10-12T09:18:19 02:00</time>
      </trkpt>
      <trkpt lat="44.35009" lon="4.86659">
        <ele>130</ele>
        <time>2018-10-12T09:18:20 02:00</time>
      </trkpt>
      <trkpt lat="44.35005" lon="4.86658">
        <ele>130</ele>
        <time>2018-10-12T09:18:21 02:00</time>
      </trkpt>
      <trkpt lat="44.35001" lon="4.86657">
        <ele>129</ele>
        <time>2018-10-12T09:18:22 02:00</time>
      </trkpt>
      <trkpt lat="44.34997" lon="4.86655">
        <ele>129</ele>
        <time>2018-10-12T09:18:23 02:00</time>
      </trkpt>
      <trkpt lat="44.34992" lon="4.86654">
        <ele>129</ele>
        <time>2018-10-12T09:18:24 02:00</time>
      </trkpt>
      <trkpt lat="44.34988" lon="4.86653">
        <ele>129</ele>
        <time>2018-10-12T09:18:25 02:00</time>
      </trkpt>
      <trkpt lat="44.34984" lon="4.86652">
        <ele>129</ele>
        <time>2018-10-12T09:18:26 02:00</time>
      </trkpt>
      <trkpt lat="44.3498" lon="4.86651">
        <ele>129</ele>
        <time>2018-10-12T09:18:27 02:00</time>
      </trkpt>
      <trkpt lat="44.34976" lon="4.8665">
        <ele>129</ele>
        <time>2018-10-12T09:18:28 02:00</time>
      </trkpt>
      <trkpt lat="44.34972" lon="4.8665">
        <ele>129</ele>
        <time>2018-10-12T09:18:29 02:00</time>
      </trkpt>
      <trkpt lat="44.34968" lon="4.86649">
        <ele>129</ele>
        <time>2018-10-12T09:18:30 02:00</time>
      </trkpt>
      <trkpt lat="44.34964" lon="4.86649">
        <ele>129</ele>
        <time>2018-10-12T09:18:31 02:00</time>
      </trkpt>
      <trkpt lat="44.3496" lon="4.86649">
        <ele>129</ele>
        <time>2018-10-12T09:18:32 02:00</time>
      </trkpt>
      <trkpt lat="44.34956" lon="4.86648">
        <ele>129</ele>
        <time>2018-10-12T09:18:33 02:00</time>
      </trkpt>
      <trkpt lat="44.34952" lon="4.86648">
        <ele>129</ele>
        <time>2018-10-12T09:18:34 02:00</time>
      </trkpt>
      <trkpt lat="44.34948" lon="4.86648">
        <ele>129</ele>
        <time>2018-10-12T09:18:35 02:00</time>
      </trkpt>
      <trkpt lat="44.34944" lon="4.86648">
        <ele>129</ele>
        <time>2018-10-12T09:18:36 02:00</time>
      </trkpt>
      <trkpt lat="44.34941" lon="4.86648">
        <ele>129</ele>
        <time>2018-10-12T09:18:37 02:00</time>
      </trkpt>
      <trkpt lat="44.34937" lon="4.86648">
        <ele>129</ele>
        <time>2018-10-12T09:18:38 02:00</time>
      </trkpt>
      <trkpt lat="44.34934" lon="4.86648">
        <ele>129</ele>
        <time>2018-10-12T09:18:39 02:00</time>
      </trkpt>
      <trkpt lat="44.3493" lon="4.86648">
        <ele>129</ele>
        <time>2018-10-12T09:18:40 02:00</time>
      </trkpt>
      <trkpt lat="44.34926" lon="4.86648">
        <ele>129</ele>
        <time>2018-10-12T09:18:41 02:00</time>
      </trkpt>
      <trkpt lat="44.34923" lon="4.86648">
        <ele>129</ele>
        <time>2018-10-12T09:18:42 02:00</time>
      </trkpt>
      <trkpt lat="44.34919" lon="4.86648">
        <ele>129</ele>
        <time>2018-10-12T09:18:43 02:00</time>
      </trkpt>
      <trkpt lat="44.34916" lon="4.86648">
        <ele>129</ele>
        <time>2018-10-12T09:18:44 02:00</time>
      </trkpt>
      <trkpt lat="44.34912" lon="4.86648">
        <ele>129</ele>
        <time>2018-10-12T09:18:45 02:00</time>
      </trkpt>
      <trkpt lat="44.34909" lon="4.86648">
        <ele>129</ele>
        <time>2018-10-12T09:18:46 02:00</time>
      </trkpt>
      <trkpt lat="44.34905" lon="4.86648">
        <ele>128</ele>
        <time>2018-10-12T09:18:47 02:00</time>
      </trkpt>
      <trkpt lat="44.34901" lon="4.86649">
        <ele>128</ele>
        <time>2018-10-12T09:18:48 02:00</time>
      </trkpt>
      <trkpt lat="44.34897" lon="4.86649">
        <ele>128</ele>
        <time>2018-10-12T09:18:49 02:00</time>
      </trkpt>
      <trkpt lat="44.34894" lon="4.86649">
        <ele>128</ele>
        <time>2018-10-12T09:18:50 02:00</time>
      </trkpt>
      <trkpt lat="44.3489" lon="4.8665">
        <ele>128</ele>
        <time>2018-10-12T09:18:51 02:00</time>
      </trkpt>
      <trkpt lat="44.34886" lon="4.8665">
        <ele>128</ele>
        <time>2018-10-12T09:18:52 02:00</time>
      </trkpt>
      <trkpt lat="44.34882" lon="4.86651">
        <ele>127</ele>
        <time>2018-10-12T09:18:53 02:00</time>
      </trkpt>
      <trkpt lat="44.34878" lon="4.86651">
        <ele>127</ele>
        <time>2018-10-12T09:18:54 02:00</time>
      </trkpt>
      <trkpt lat="44.34874" lon="4.86652">
        <ele>127</ele>
        <time>2018-10-12T09:18:55 02:00</time>
      </trkpt>
      <trkpt lat="44.3487" lon="4.86653">
        <ele>127</ele>
        <time>2018-10-12T09:18:56 02:00</time>
      </trkpt>
      <trkpt lat="44.34865" lon="4.86653">
        <ele>127</ele>
        <time>2018-10-12T09:18:57 02:00</time>
      </trkpt>
      <trkpt lat="44.34861" lon="4.86654">
        <ele>127</ele>
        <time>2018-10-12T09:18:58 02:00</time>
      </trkpt>
      <trkpt lat="44.34857" lon="4.86655">
        <ele>127</ele>
        <time>2018-10-12T09:18:59 02:00</time>
      </trkpt>
      <trkpt lat="44.34852" lon="4.86656">
        <ele>126</ele>
        <time>2018-10-12T09:19:00 02:00</time>
      </trkpt>
      <trkpt lat="44.34848" lon="4.86657">
        <ele>126</ele>
        <time>2018-10-12T09:19:01 02:00</time>
      </trkpt>
      <trkpt lat="44.34843" lon="4.86659">
        <ele>126</ele>
        <time>2018-10-12T09:19:02 02:00</time>
      </trkpt>
      <trkpt lat="44.34839" lon="4.8666">
        <ele>126</ele>
        <time>2018-10-12T09:19:03 02:00</time>
      </trkpt>
      <trkpt lat="44.34834" lon="4.86662">
        <ele>126</ele>
        <time>2018-10-12T09:19:04 02:00</time>
      </trkpt>
      <trkpt lat="44.3483" lon="4.86664">
        <ele>126</ele>
        <time>2018-10-12T09:19:05 02:00</time>
      </trkpt>
      <trkpt lat="44.34825" lon="4.86666">
        <ele>125</ele>
        <time>2018-10-12T09:19:06 02:00</time>
      </trkpt>
      <trkpt lat="44.3482" lon="4.86668">
        <ele>125</ele>
        <time>2018-10-12T09:19:07 02:00</time>
      </trkpt>
      <trkpt lat="44.34815" lon="4.8667">
        <ele>125</ele>
        <time>2018-10-12T09:19:08 02:00</time>
      </trkpt>
      <trkpt lat="44.34811" lon="4.86672">
        <ele>125</ele>
        <time>2018-10-12T09:19:09 02:00</time>
      </trkpt>
      <trkpt lat="44.34806" lon="4.86673">
        <ele>124</ele>
        <time>2018-10-12T09:19:10 02:00</time>
      </trkpt>
      <trkpt lat="44.34802" lon="4.86675">
        <ele>124</ele>
        <time>2018-10-12T09:19:11 02:00</time>
      </trkpt>
      <trkpt lat="44.34797" lon="4.86675">
        <ele>124</ele>
        <time>2018-10-12T09:19:12 02:00</time>
      </trkpt>
      <trkpt lat="44.34793" lon="4.86675">
        <ele>124</ele>
        <time>2018-10-12T09:19:13 02:00</time>
      </trkpt>
      <trkpt lat="44.34788" lon="4.86675">
        <ele>123</ele>
        <time>2018-10-12T09:19:14 02:00</time>
      </trkpt>
      <trkpt lat="44.34784" lon="4.86675">
        <ele>123</ele>
        <time>2018-10-12T09:19:15 02:00</time>
      </trkpt>
      <trkpt lat="44.34779" lon="4.86674">
        <ele>123</ele>
        <time>2018-10-12T09:19:16 02:00</time>
      </trkpt>
      <trkpt lat="44.34775" lon="4.86674">
        <ele>122</ele>
        <time>2018-10-12T09:19:17 02:00</time>
      </trkpt>
      <trkpt lat="44.34771" lon="4.86673">
        <ele>122</ele>
        <time>2018-10-12T09:19:18 02:00</time>
      </trkpt>
      <trkpt lat="44.34767" lon="4.86672">
        <ele>122</ele>
        <time>2018-10-12T09:19:19 02:00</time>
      </trkpt>
      <trkpt lat="44.34763" lon="4.86672">
        <ele>122</ele>
        <time>2018-10-12T09:19:20 02:00</time>
      </trkpt>
      <trkpt lat="44.34759" lon="4.86671">
        <ele>122</ele>
        <time>2018-10-12T09:19:21 02:00</time>
      </trkpt>
      <trkpt lat="44.34755" lon="4.8667">
        <ele>121</ele>
        <time>2018-10-12T09:19:22 02:00</time>
      </trkpt>
      <trkpt lat="44.34751" lon="4.86669">
        <ele>121</ele>
        <time>2018-10-12T09:19:23 02:00</time>
      </trkpt>
      <trkpt lat="44.34747" lon="4.86668">
        <ele>121</ele>
        <time>2018-10-12T09:19:24 02:00</time>
      </trkpt>
      <trkpt lat="44.34743" lon="4.86667">
        <ele>121</ele>
        <time>2018-10-12T09:19:25 02:00</time>
      </trkpt>
      <trkpt lat="44.34739" lon="4.86666">
        <ele>121</ele>
        <time>2018-10-12T09:19:26 02:00</time>
      </trkpt>
      <trkpt lat="44.34736" lon="4.86666">
        <ele>121</ele>
        <time>2018-10-12T09:19:27 02:00</time>
      </trkpt>
      <trkpt lat="44.34732" lon="4.86665">
        <ele>121</ele>
        <time>2018-10-12T09:19:28 02:00</time>
      </trkpt>
      <trkpt lat="44.34729" lon="4.86664">
        <ele>121</ele>
        <time>2018-10-12T09:19:29 02:00</time>
      </trkpt>
      <trkpt lat="44.34725" lon="4.86664">
        <ele>121</ele>
        <time>2018-10-12T09:19:30 02:00</time>
      </trkpt>
      <trkpt lat="44.34722" lon="4.86663">
        <ele>121</ele>
        <time>2018-10-12T09:19:31 02:00</time>
      </trkpt>
      <trkpt lat="44.34718" lon="4.86662">
        <ele>121</ele>
        <time>2018-10-12T09:19:32 02:00</time>
      </trkpt>
      <trkpt lat="44.34715" lon="4.86661">
        <ele>121</ele>
        <time>2018-10-12T09:19:33 02:00</time>
      </trkpt>
      <trkpt lat="44.34712" lon="4.86659">
        <ele>122</ele>
        <time>2018-10-12T09:19:34 02:00</time>
      </trkpt>
      <trkpt lat="44.34708" lon="4.86658">
        <ele>122</ele>
        <time>2018-10-12T09:19:35 02:00</time>
      </trkpt>
      <trkpt lat="44.34705" lon="4.86655">
        <ele>122</ele>
        <time>2018-10-12T09:19:36 02:00</time>
      </trkpt>
      <trkpt lat="44.34703" lon="4.86653">
        <ele>122</ele>
        <time>2018-10-12T09:19:37 02:00</time>
      </trkpt>
      <trkpt lat="44.347" lon="4.8665">
        <ele>122</ele>
        <time>2018-10-12T09:19:38 02:00</time>
      </trkpt>
      <trkpt lat="44.34698" lon="4.86647">
        <ele>122</ele>
        <time>2018-10-12T09:19:39 02:00</time>
      </trkpt>
      <trkpt lat="44.34695" lon="4.86644">
        <ele>122</ele>
        <time>2018-10-12T09:19:40 02:00</time>
      </trkpt>
      <trkpt lat="44.34693" lon="4.86641">
        <ele>122</ele>
        <time>2018-10-12T09:19:41 02:00</time>
      </trkpt>
      <trkpt lat="44.34691" lon="4.86637">
        <ele>122</ele>
        <time>2018-10-12T09:19:42 02:00</time>
      </trkpt>
      <trkpt lat="44.34688" lon="4.86634">
        <ele>122</ele>
        <time>2018-10-12T09:19:43 02:00</time>
      </trkpt>
      <trkpt lat="44.34686" lon="4.86631">
        <ele>122</ele>
        <time>2018-10-12T09:19:44 02:00</time>
      </trkpt>
      <trkpt lat="44.34684" lon="4.86628">
        <ele>122</ele>
        <time>2018-10-12T09:19:45 02:00</time>
      </trkpt>
      <trkpt lat="44.34682" lon="4.86624">
        <ele>122</ele>
        <time>2018-10-12T09:19:46 02:00</time>
      </trkpt>
      <trkpt lat="44.3468" lon="4.86621">
        <ele>122</ele>
        <time>2018-10-12T09:19:47 02:00</time>
      </trkpt>
      <trkpt lat="44.34678" lon="4.86618">
        <ele>122</ele>
        <time>2018-10-12T09:19:48 02:00</time>
      </trkpt>
      <trkpt lat="44.34676" lon="4.86615">
        <ele>123</ele>
        <time>2018-10-12T09:19:49 02:00</time>
      </trkpt>
      <trkpt lat="44.34674" lon="4.86612">
        <ele>123</ele>
        <time>2018-10-12T09:19:50 02:00</time>
      </trkpt>
      <trkpt lat="44.34672" lon="4.86609">
        <ele>123</ele>
        <time>2018-10-12T09:19:51 02:00</time>
      </trkpt>
      <trkpt lat="44.3467" lon="4.86607">
        <ele>123</ele>
        <time>2018-10-12T09:19:52 02:00</time>
      </trkpt>
      <trkpt lat="44.34669" lon="4.86604">
        <ele>123</ele>
        <time>2018-10-12T09:19:53 02:00</time>
      </trkpt>
      <trkpt lat="44.34668" lon="4.86601">
        <ele>123</ele>
        <time>2018-10-12T09:19:54 02:00</time>
      </trkpt>
      <trkpt lat="44.34666" lon="4.86598">
        <ele>123</ele>
        <time>2018-10-12T09:19:55 02:00</time>
      </trkpt>
      <trkpt lat="44.34665" lon="4.86595">
        <ele>123</ele>
        <time>2018-10-12T09:19:56 02:00</time>
      </trkpt>
      <trkpt lat="44.34665" lon="4.86592">
        <ele>123</ele>
        <time>2018-10-12T09:19:57 02:00</time>
      </trkpt>
      <trkpt lat="44.34665" lon="4.86588">
        <ele>123</ele>
        <time>2018-10-12T09:19:58 02:00</time>
      </trkpt>
      <trkpt lat="44.34664" lon="4.86585">
        <ele>123</ele>
        <time>2018-10-12T09:19:59 02:00</time>
      </trkpt>
      <trkpt lat="44.34664" lon="4.86582">
        <ele>123</ele>
        <time>2018-10-12T09:20:00 02:00</time>
      </trkpt>
      <trkpt lat="44.34664" lon="4.86579">
        <ele>123</ele>
        <time>2018-10-12T09:20:01 02:00</time>
      </trkpt>
      <trkpt lat="44.34665" lon="4.86577">
        <ele>123</ele>
        <time>2018-10-12T09:20:02 02:00</time>
      </trkpt>
      <trkpt lat="44.34665" lon="4.86575">
        <ele>123</ele>
        <time>2018-10-12T09:20:03 02:00</time>
      </trkpt>
      <trkpt lat="44.34665" lon="4.86573">
        <ele>123</ele>
        <time>2018-10-12T09:20:04 02:00</time>
      </trkpt>
      <trkpt lat="44.34665" lon="4.86573">
        <ele>123</ele>
        <time>2018-10-12T09:20:05 02:00</time>
      </trkpt>
      <trkpt lat="44.34665" lon="4.86572">
        <ele>123</ele>
        <time>2018-10-12T09:20:06 02:00</time>
      </trkpt>
      <trkpt lat="44.34665" lon="4.86572">
        <ele>123</ele>
        <time>2018-10-12T09:20:07 02:00</time>
      </trkpt>
      <trkpt lat="44.34665" lon="4.86572">
        <ele>123</ele>
        <time>2018-10-12T09:20:08 02:00</time>
      </trkpt>
      <trkpt lat="44.34665" lon="4.86572">
        <ele>123</ele>
        <time>2018-10-12T09:20:09 02:00</time>
      </trkpt>
      <trkpt lat="44.34665" lon="4.86572">
        <ele>123</ele>
        <time>2018-10-12T09:20:10 02:00</time>
      </trkpt>
      <trkpt lat="44.34665" lon="4.86572">
        <ele>123</ele>
        <time>2018-10-12T09:20:11 02:00</time>
      </trkpt>
      <trkpt lat="44.34665" lon="4.86572">
        <ele>123</ele>
        <time>2018-10-12T09:20:12 02:00</time>
      </trkpt>
      <trkpt lat="44.34665" lon="4.86572">
        <ele>123</ele>
        <time>2018-10-12T09:20:13 02:00</time>
      </trkpt>
      <trkpt lat="44.34665" lon="4.86572">
        <ele>123</ele>
        <time>2018-10-12T09:20:14 02:00</time>
      </trkpt>
      <trkpt lat="44.34665" lon="4.86572">
        <ele>123</ele>
        <time>2018-10-12T09:20:15 02:00</time>
      </trkpt>
      <trkpt lat="44.34665" lon="4.86572">
        <ele>123</ele>
        <time>2018-10-12T09:20:16 02:00</time>
      </trkpt>
      <trkpt lat="44.34665" lon="4.86572">
        <ele>123</ele>
        <time>2018-10-12T09:20:17 02:00</time>
      </trkpt>
      <trkpt lat="44.34665" lon="4.86572">
        <ele>123</ele>
        <time>2018-10-12T09:20:18 02:00</time>
      </trkpt>
      <trkpt lat="44.34665" lon="4.86572">
        <ele>123</ele>
        <time>2018-10-12T09:20:19 02:00</time>
      </trkpt>
      <trkpt lat="44.34665" lon="4.86572">
        <ele>123</ele>
        <time>2018-10-12T09:20:20 02:00</time>
      </trkpt>
      <trkpt lat="44.34665" lon="4.86572">
        <ele>123</ele>
        <time>2018-10-12T09:20:21 02:00</time>
      </trkpt>
      <trkpt lat="44.34665" lon="4.86572">
        <ele>123</ele>
        <time>2018-10-12T09:20:22 02:00</time>
      </trkpt>
      <trkpt lat="44.34665" lon="4.86572">
        <ele>123</ele>
        <time>2018-10-12T09:20:23 02:00</time>
      </trkpt>
      <trkpt lat="44.34665" lon="4.86572">
        <ele>123</ele>
        <time>2018-10-12T09:20:24 02:00</time>
      </trkpt>
      <trkpt lat="44.34665" lon="4.86572">
        <ele>123</ele>
        <time>2018-10-12T09:20:25 02:00</time>
      </trkpt>
      <trkpt lat="44.34665" lon="4.86572">
        <ele>123</ele>
        <time>2018-10-12T09:20:26 02:00</time>
      </trkpt>
      <trkpt lat="44.34665" lon="4.86572">
        <ele>123</ele>
        <time>2018-10-12T09:20:27 02:00</time>
      </trkpt>
      <trkpt lat="44.34665" lon="4.86572">
        <ele>123</ele>
        <time>2018-10-12T09:20:28 02:00</time>
      </trkpt>
      <trkpt lat="44.34665" lon="4.86572">
        <ele>123</ele>
        <time>2018-10-12T09:20:29 02:00</time>
      </trkpt>
      <trkpt lat="44.34665" lon="4.86572">
        <ele>123</ele>
        <time>2018-10-12T09:20:30 02:00</time>
      </trkpt>
      <trkpt lat="44.34665" lon="4.86572">
        <ele>123</ele>
        <time>2018-10-12T09:20:31 02:00</time>
      </trkpt>
      <trkpt lat="44.34665" lon="4.86572">
        <ele>123</ele>
        <time>2018-10-12T09:20:32 02:00</time>
      </trkpt>
      <trkpt lat="44.34665" lon="4.86572">
        <ele>123</ele>
        <time>2018-10-12T09:20:33 02:00</time>
      </trkpt>
      <trkpt lat="44.34665" lon="4.86572">
        <ele>123</ele>
        <time>2018-10-12T09:20:34 02:00</time>
      </trkpt>
      <trkpt lat="44.34665" lon="4.86572">
        <ele>123</ele>
        <time>2018-10-12T09:20:35 02:00</time>
      </trkpt>
      <trkpt lat="44.34665" lon="4.86572">
        <ele>123</ele>
        <time>2018-10-12T09:20:36 02:00</time>
      </trkpt>
      <trkpt lat="44.34665" lon="4.86572">
        <ele>123</ele>
        <time>2018-10-12T09:20:37 02:00</time>
      </trkpt>
      <trkpt lat="44.34665" lon="4.86572">
        <ele>123</ele>
        <time>2018-10-12T09:20:38 02:00</time>
      </trkpt>
      <trkpt lat="44.34665" lon="4.86572">
        <ele>123</ele>
        <time>2018-10-12T09:20:39 02:00</time>
      </trkpt>
      <trkpt lat="44.34665" lon="4.86572">
        <ele>123</ele>
        <time>2018-10-12T09:20:40 02:00</time>
      </trkpt>
      <trkpt lat="44.34665" lon="4.86572">
        <ele>123</ele>
        <time>2018-10-12T09:20:41 02:00</time>
      </trkpt>
      <trkpt lat="44.34665" lon="4.86572">
        <ele>123</ele>
        <time>2018-10-12T09:20:42 02:00</time>
      </trkpt>
      <trkpt lat="44.34665" lon="4.86572">
        <ele>123</ele>
        <time>2018-10-12T09:20:43 02:00</time>
      </trkpt>
      <trkpt lat="44.34665" lon="4.86572">
        <ele>123</ele>
        <time>2018-10-12T09:20:44 02:00</time>
      </trkpt>
      <trkpt lat="44.34666" lon="4.86571">
        <ele>123</ele>
        <time>2018-10-12T09:20:45 02:00</time>
      </trkpt>
      <trkpt lat="44.34666" lon="4.86569">
        <ele>123</ele>
        <time>2018-10-12T09:20:46 02:00</time>
      </trkpt>
      <trkpt lat="44.34667" lon="4.86566">
        <ele>123</ele>
        <time>2018-10-12T09:20:47 02:00</time>
      </trkpt>
      <trkpt lat="44.34667" lon="4.86563">
        <ele>122</ele>
        <time>2018-10-12T09:20:48 02:00</time>
      </trkpt>
      <trkpt lat="44.34668" lon="4.86559">
        <ele>122</ele>
        <time>2018-10-12T09:20:49 02:00</time>
      </trkpt>
      <trkpt lat="44.34668" lon="4.86556">
        <ele>122</ele>
        <time>2018-10-12T09:20:50 02:00</time>
      </trkpt>
      <trkpt lat="44.34668" lon="4.86552">
        <ele>122</ele>
        <time>2018-10-12T09:20:51 02:00</time>
      </trkpt>
      <trkpt lat="44.34669" lon="4.86548">
        <ele>122</ele>
        <time>2018-10-12T09:20:52 02:00</time>
      </trkpt>
      <trkpt lat="44.34669" lon="4.86544">
        <ele>122</ele>
        <time>2018-10-12T09:20:53 02:00</time>
      </trkpt>
      <trkpt lat="44.34669" lon="4.8654">
        <ele>122</ele>
        <time>2018-10-12T09:20:54 02:00</time>
      </trkpt>
      <trkpt lat="44.34669" lon="4.86536">
        <ele>122</ele>
        <time>2018-10-12T09:20:55 02:00</time>
      </trkpt>
      <trkpt lat="44.34669" lon="4.86532">
        <ele>122</ele>
        <time>2018-10-12T09:20:56 02:00</time>
      </trkpt>
      <trkpt lat="44.34669" lon="4.86527">
        <ele>122</ele>
        <time>2018-10-12T09:20:57 02:00</time>
      </trkpt>
      <trkpt lat="44.34669" lon="4.86523">
        <ele>122</ele>
        <time>2018-10-12T09:20:58 02:00</time>
      </trkpt>
      <trkpt lat="44.34669" lon="4.86518">
        <ele>121</ele>
        <time>2018-10-12T09:20:59 02:00</time>
      </trkpt>
      <trkpt lat="44.3467" lon="4.86514">
        <ele>121</ele>
        <time>2018-10-12T09:21:00 02:00</time>
      </trkpt>
      <trkpt lat="44.3467" lon="4.86509">
        <ele>121</ele>
        <time>2018-10-12T09:21:01 02:00</time>
      </trkpt>
      <trkpt lat="44.3467" lon="4.86504">
        <ele>121</ele>
        <time>2018-10-12T09:21:02 02:00</time>
      </trkpt>
      <trkpt lat="44.3467" lon="4.865">
        <ele>121</ele>
        <time>2018-10-12T09:21:03 02:00</time>
      </trkpt>
      <trkpt lat="44.3467" lon="4.86495">
        <ele>121</ele>
        <time>2018-10-12T09:21:04 02:00</time>
      </trkpt>
      <trkpt lat="44.3467" lon="4.8649">
        <ele>121</ele>
        <time>2018-10-12T09:21:05 02:00</time>
      </trkpt>
      <trkpt lat="44.3467" lon="4.86486">
        <ele>121</ele>
        <time>2018-10-12T09:21:06 02:00</time>
      </trkpt>
      <trkpt lat="44.34671" lon="4.86481">
        <ele>121</ele>
        <time>2018-10-12T09:21:07 02:00</time>
      </trkpt>
      <trkpt lat="44.34671" lon="4.86476">
        <ele>121</ele>
        <time>2018-10-12T09:21:08 02:00</time>
      </trkpt>
      <trkpt lat="44.34671" lon="4.86472">
        <ele>121</ele>
        <time>2018-10-12T09:21:09 02:00</time>
      </trkpt>
      <trkpt lat="44.34671" lon="4.86467">
        <ele>121</ele>
        <time>2018-10-12T09:21:10 02:00</time>
      </trkpt>
      <trkpt lat="44.34671" lon="4.86462">
        <ele>121</ele>
        <time>2018-10-12T09:21:11 02:00</time>
      </trkpt>
      <trkpt lat="44.34671" lon="4.86458">
        <ele>121</ele>
        <time>2018-10-12T09:21:12 02:00</time>
      </trkpt>
      <trkpt lat="44.34671" lon="4.86453">
        <ele>121</ele>
        <time>2018-10-12T09:21:13 02:00</time>
      </trkpt>
      <trkpt lat="44.34672" lon="4.86449">
        <ele>122</ele>
        <time>2018-10-12T09:21:14 02:00</time>
      </trkpt>
      <trkpt lat="44.34672" lon="4.86444">
        <ele>122</ele>
        <time>2018-10-12T09:21:15 02:00</time>
      </trkpt>
      <trkpt lat="44.34672" lon="4.8644">
        <ele>122</ele>
        <time>2018-10-12T09:21:16 02:00</time>
      </trkpt>
      <trkpt lat="44.34672" lon="4.86435">
        <ele>122</ele>
        <time>2018-10-12T09:21:17 02:00</time>
      </trkpt>
      <trkpt lat="44.34672" lon="4.86431">
        <ele>122</ele>
        <time>2018-10-12T09:21:18 02:00</time>
      </trkpt>
      <trkpt lat="44.34672" lon="4.86426">
        <ele>122</ele>
        <time>2018-10-12T09:21:19 02:00</time>
      </trkpt>
      <trkpt lat="44.34672" lon="4.86422">
        <ele>122</ele>
        <time>2018-10-12T09:21:20 02:00</time>
      </trkpt>
      <trkpt lat="44.34672" lon="4.86418">
        <ele>122</ele>
        <time>2018-10-12T09:21:21 02:00</time>
      </trkpt>
      <trkpt lat="44.34673" lon="4.86413">
        <ele>122</ele>
        <time>2018-10-12T09:21:22 02:00</time>
      </trkpt>
      <trkpt lat="44.34673" lon="4.86409">
        <ele>122</ele>
        <time>2018-10-12T09:21:23 02:00</time>
      </trkpt>
      <trkpt lat="44.34673" lon="4.86404">
        <ele>122</ele>
        <time>2018-10-12T09:21:24 02:00</time>
      </trkpt>
      <trkpt lat="44.34673" lon="4.864">
        <ele>122</ele>
        <time>2018-10-12T09:21:25 02:00</time>
      </trkpt>
      <trkpt lat="44.34673" lon="4.86396">
        <ele>122</ele>
        <time>2018-10-12T09:21:26 02:00</time>
      </trkpt>
      <trkpt lat="44.34673" lon="4.86392">
        <ele>122</ele>
        <time>2018-10-12T09:21:27 02:00</time>
      </trkpt>
      <trkpt lat="44.34674" lon="4.86388">
        <ele>122</ele>
        <time>2018-10-12T09:21:28 02:00</time>
      </trkpt>
      <trkpt lat="44.34675" lon="4.86384">
        <ele>122</ele>
        <time>2018-10-12T09:21:29 02:00</time>
      </trkpt>
      <trkpt lat="44.34676" lon="4.86381">
        <ele>122</ele>
        <time>2018-10-12T09:21:30 02:00</time>
      </trkpt>
      <trkpt lat="44.34677" lon="4.86377">
        <ele>122</ele>
        <time>2018-10-12T09:21:31 02:00</time>
      </trkpt>
      <trkpt lat="44.34679" lon="4.86374">
        <ele>122</ele>
        <time>2018-10-12T09:21:32 02:00</time>
      </trkpt>
      <trkpt lat="44.34681" lon="4.86371">
        <ele>122</ele>
        <time>2018-10-12T09:21:33 02:00</time>
      </trkpt>
      <trkpt lat="44.34683" lon="4.86368">
        <ele>122</ele>
        <time>2018-10-12T09:21:34 02:00</time>
      </trkpt>
      <trkpt lat="44.34685" lon="4.86365">
        <ele>122</ele>
        <time>2018-10-12T09:21:35 02:00</time>
      </trkpt>
      <trkpt lat="44.34687" lon="4.86362">
        <ele>122</ele>
        <time>2018-10-12T09:21:36 02:00</time>
      </trkpt>
      <trkpt lat="44.34688" lon="4.86358">
        <ele>121</ele>
        <time>2018-10-12T09:21:37 02:00</time>
      </trkpt>
      <trkpt lat="44.3469" lon="4.86355">
        <ele>121</ele>
        <time>2018-10-12T09:21:38 02:00</time>
      </trkpt>
      <trkpt lat="44.34691" lon="4.86351">
        <ele>121</ele>
        <time>2018-10-12T09:21:39 02:00</time>
      </trkpt>
      <trkpt lat="44.34693" lon="4.86347">
        <ele>121</ele>
        <time>2018-10-12T09:21:40 02:00</time>
      </trkpt>
      <trkpt lat="44.34694" lon="4.86343">
        <ele>121</ele>
        <time>2018-10-12T09:21:41 02:00</time>
      </trkpt>
      <trkpt lat="44.34694" lon="4.86339">
        <ele>121</ele>
        <time>2018-10-12T09:21:42 02:00</time>
      </trkpt>
      <trkpt lat="44.34695" lon="4.86335">
        <ele>121</ele>
        <time>2018-10-12T09:21:43 02:00</time>
      </trkpt>
      <trkpt lat="44.34695" lon="4.86332">
        <ele>121</ele>
        <time>2018-10-12T09:21:44 02:00</time>
      </trkpt>
      <trkpt lat="44.34696" lon="4.86328">
        <ele>121</ele>
        <time>2018-10-12T09:21:45 02:00</time>
      </trkpt>
      <trkpt lat="44.34696" lon="4.86324">
        <ele>121</ele>
        <time>2018-10-12T09:21:46 02:00</time>
      </trkpt>
      <trkpt lat="44.34696" lon="4.8632">
        <ele>121</ele>
        <time>2018-10-12T09:21:47 02:00</time>
      </trkpt>
      <trkpt lat="44.34697" lon="4.86316">
        <ele>121</ele>
        <time>2018-10-12T09:21:48 02:00</time>
      </trkpt>
      <trkpt lat="44.34697" lon="4.86312">
        <ele>121</ele>
        <time>2018-10-12T09:21:49 02:00</time>
      </trkpt>
      <trkpt lat="44.34698" lon="4.86308">
        <ele>121</ele>
        <time>2018-10-12T09:21:50 02:00</time>
      </trkpt>
      <trkpt lat="44.34698" lon="4.86304">
        <ele>121</ele>
        <time>2018-10-12T09:21:51 02:00</time>
      </trkpt>
      <trkpt lat="44.34699" lon="4.863">
        <ele>121</ele>
        <time>2018-10-12T09:21:52 02:00</time>
      </trkpt>
      <trkpt lat="44.34699" lon="4.86296">
        <ele>121</ele>
        <time>2018-10-12T09:21:53 02:00</time>
      </trkpt>
      <trkpt lat="44.347" lon="4.86292">
        <ele>121</ele>
        <time>2018-10-12T09:21:54 02:00</time>
      </trkpt>
      <trkpt lat="44.347" lon="4.86287">
        <ele>121</ele>
        <time>2018-10-12T09:21:55 02:00</time>
      </trkpt>
      <trkpt lat="44.34701" lon="4.86283">
        <ele>121</ele>
        <time>2018-10-12T09:21:56 02:00</time>
      </trkpt>
      <trkpt lat="44.34701" lon="4.86279">
        <ele>121</ele>
        <time>2018-10-12T09:21:57 02:00</time>
      </trkpt>
      <trkpt lat="44.34702" lon="4.86274">
        <ele>120</ele>
        <time>2018-10-12T09:21:58 02:00</time>
      </trkpt>
      <trkpt lat="44.34702" lon="4.8627">
        <ele>120</ele>
        <time>2018-10-12T09:21:59 02:00</time>
      </trkpt>
      <trkpt lat="44.34703" lon="4.86266">
        <ele>120</ele>
        <time>2018-10-12T09:22:00 02:00</time>
      </trkpt>
      <trkpt lat="44.34703" lon="4.86261">
        <ele>120</ele>
        <time>2018-10-12T09:22:01 02:00</time>
      </trkpt>
      <trkpt lat="44.34703" lon="4.86257">
        <ele>120</ele>
        <time>2018-10-12T09:22:02 02:00</time>
      </trkpt>
      <trkpt lat="44.34704" lon="4.86252">
        <ele>120</ele>
        <time>2018-10-12T09:22:03 02:00</time>
      </trkpt>
      <trkpt lat="44.34704" lon="4.86248">
        <ele>120</ele>
        <time>2018-10-12T09:22:04 02:00</time>
      </trkpt>
      <trkpt lat="44.34705" lon="4.86244">
        <ele>120</ele>
        <time>2018-10-12T09:22:05 02:00</time>
      </trkpt>
      <trkpt lat="44.34705" lon="4.86239">
        <ele>120</ele>
        <time>2018-10-12T09:22:06 02:00</time>
      </trkpt>
      <trkpt lat="44.34705" lon="4.86235">
        <ele>120</ele>
        <time>2018-10-12T09:22:07 02:00</time>
      </trkpt>
      <trkpt lat="44.34706" lon="4.86231">
        <ele>120</ele>
        <time>2018-10-12T09:22:08 02:00</time>
      </trkpt>
      <trkpt lat="44.34706" lon="4.86227">
        <ele>120</ele>
        <time>2018-10-12T09:22:09 02:00</time>
      </trkpt>
      <trkpt lat="44.34706" lon="4.86222">
        <ele>120</ele>
        <time>2018-10-12T09:22:10 02:00</time>
      </trkpt>
      <trkpt lat="44.34707" lon="4.86218">
        <ele>120</ele>
        <time>2018-10-12T09:22:11 02:00</time>
      </trkpt>
      <trkpt lat="44.34707" lon="4.86214">
        <ele>120</ele>
        <time>2018-10-12T09:22:12 02:00</time>
      </trkpt>
      <trkpt lat="44.34707" lon="4.86209">
        <ele>120</ele>
        <time>2018-10-12T09:22:13 02:00</time>
      </trkpt>
      <trkpt lat="44.34708" lon="4.86205">
        <ele>120</ele>
        <time>2018-10-12T09:22:14 02:00</time>
      </trkpt>
      <trkpt lat="44.34708" lon="4.86201">
        <ele>120</ele>
        <time>2018-10-12T09:22:15 02:00</time>
      </trkpt>
      <trkpt lat="44.34708" lon="4.86197">
        <ele>120</ele>
        <time>2018-10-12T09:22:16 02:00</time>
      </trkpt>
      <trkpt lat="44.34708" lon="4.86192">
        <ele>120</ele>
        <time>2018-10-12T09:22:17 02:00</time>
      </trkpt>
      <trkpt lat="44.34709" lon="4.86188">
        <ele>120</ele>
        <time>2018-10-12T09:22:18 02:00</time>
      </trkpt>
      <trkpt lat="44.34709" lon="4.86184">
        <ele>120</ele>
        <time>2018-10-12T09:22:19 02:00</time>
      </trkpt>
      <trkpt lat="44.34709" lon="4.86179">
        <ele>120</ele>
        <time>2018-10-12T09:22:20 02:00</time>
      </trkpt>
      <trkpt lat="44.3471" lon="4.86175">
        <ele>120</ele>
        <time>2018-10-12T09:22:21 02:00</time>
      </trkpt>
      <trkpt lat="44.3471" lon="4.86171">
        <ele>120</ele>
        <time>2018-10-12T09:22:22 02:00</time>
      </trkpt>
      <trkpt lat="44.3471" lon="4.86167">
        <ele>120</ele>
        <time>2018-10-12T09:22:23 02:00</time>
      </trkpt>
      <trkpt lat="44.34711" lon="4.86162">
        <ele>120</ele>
        <time>2018-10-12T09:22:24 02:00</time>
      </trkpt>
      <trkpt lat="44.34711" lon="4.86158">
        <ele>120</ele>
        <time>2018-10-12T09:22:25 02:00</time>
      </trkpt>
      <trkpt lat="44.34711" lon="4.86154">
        <ele>120</ele>
        <time>2018-10-12T09:22:26 02:00</time>
      </trkpt>
      <trkpt lat="44.34711" lon="4.8615">
        <ele>120</ele>
        <time>2018-10-12T09:22:27 02:00</time>
      </trkpt>
      <trkpt lat="44.34712" lon="4.86145">
        <ele>120</ele>
        <time>2018-10-12T09:22:28 02:00</time>
      </trkpt>
      <trkpt lat="44.34712" lon="4.86141">
        <ele>120</ele>
        <time>2018-10-12T09:22:29 02:00</time>
      </trkpt>
      <trkpt lat="44.34712" lon="4.86137">
        <ele>120</ele>
        <time>2018-10-12T09:22:30 02:00</time>
      </trkpt>
      <trkpt lat="44.34712" lon="4.86133">
        <ele>120</ele>
        <time>2018-10-12T09:22:31 02:00</time>
      </trkpt>
      <trkpt lat="44.34713" lon="4.86129">
        <ele>120</ele>
        <time>2018-10-12T09:22:32 02:00</time>
      </trkpt>
      <trkpt lat="44.34713" lon="4.86124">
        <ele>120</ele>
        <time>2018-10-12T09:22:33 02:00</time>
      </trkpt>
      <trkpt lat="44.34713" lon="4.8612">
        <ele>120</ele>
        <time>2018-10-12T09:22:34 02:00</time>
      </trkpt>
      <trkpt lat="44.34713" lon="4.86116">
        <ele>120</ele>
        <time>2018-10-12T09:22:35 02:00</time>
      </trkpt>
      <trkpt lat="44.34714" lon="4.86112">
        <ele>120</ele>
        <time>2018-10-12T09:22:36 02:00</time>
      </trkpt>
      <trkpt lat="44.34714" lon="4.86108">
        <ele>119</ele>
        <time>2018-10-12T09:22:37 02:00</time>
      </trkpt>
      <trkpt lat="44.34714" lon="4.86104">
        <ele>119</ele>
        <time>2018-10-12T09:22:38 02:00</time>
      </trkpt>
      <trkpt lat="44.34714" lon="4.861">
        <ele>119</ele>
        <time>2018-10-12T09:22:39 02:00</time>
      </trkpt>
      <trkpt lat="44.34715" lon="4.86095">
        <ele>119</ele>
        <time>2018-10-12T09:22:40 02:00</time>
      </trkpt>
      <trkpt lat="44.34715" lon="4.86091">
        <ele>119</ele>
        <time>2018-10-12T09:22:41 02:00</time>
      </trkpt>
      <trkpt lat="44.34715" lon="4.86087">
        <ele>119</ele>
        <time>2018-10-12T09:22:42 02:00</time>
      </trkpt>
      <trkpt lat="44.34715" lon="4.86083">
        <ele>119</ele>
        <time>2018-10-12T09:22:43 02:00</time>
      </trkpt>
      <trkpt lat="44.34716" lon="4.86079">
        <ele>119</ele>
        <time>2018-10-12T09:22:44 02:00</time>
      </trkpt>
      <trkpt lat="44.34716" lon="4.86074">
        <ele>119</ele>
        <time>2018-10-12T09:22:45 02:00</time>
      </trkpt>
      <trkpt lat="44.34716" lon="4.8607">
        <ele>119</ele>
        <time>2018-10-12T09:22:46 02:00</time>
      </trkpt>
      <trkpt lat="44.34716" lon="4.86066">
        <ele>119</ele>
        <time>2018-10-12T09:22:47 02:00</time>
      </trkpt>
      <trkpt lat="44.34717" lon="4.86061">
        <ele>119</ele>
        <time>2018-10-12T09:22:48 02:00</time>
      </trkpt>
      <trkpt lat="44.34717" lon="4.86057">
        <ele>120</ele>
        <time>2018-10-12T09:22:49 02:00</time>
      </trkpt>
      <trkpt lat="44.34717" lon="4.86053">
        <ele>120</ele>
        <time>2018-10-12T09:22:50 02:00</time>
      </trkpt>
      <trkpt lat="44.34718" lon="4.86048">
        <ele>120</ele>
        <time>2018-10-12T09:22:51 02:00</time>
      </trkpt>
      <trkpt lat="44.34718" lon="4.86044">
        <ele>120</ele>
        <time>2018-10-12T09:22:52 02:00</time>
      </trkpt>
      <trkpt lat="44.34718" lon="4.86039">
        <ele>120</ele>
        <time>2018-10-12T09:22:53 02:00</time>
      </trkpt>
      <trkpt lat="44.34719" lon="4.86035">
        <ele>120</ele>
        <time>2018-10-12T09:22:54 02:00</time>
      </trkpt>
      <trkpt lat="44.34719" lon="4.86031">
        <ele>120</ele>
        <time>2018-10-12T09:22:55 02:00</time>
      </trkpt>
      <trkpt lat="44.34719" lon="4.86026">
        <ele>120</ele>
        <time>2018-10-12T09:22:56 02:00</time>
      </trkpt>
      <trkpt lat="44.34719" lon="4.86022">
        <ele>120</ele>
        <time>2018-10-12T09:22:57 02:00</time>
      </trkpt>
      <trkpt lat="44.3472" lon="4.86017">
        <ele>120</ele>
        <time>2018-10-12T09:22:58 02:00</time>
      </trkpt>
      <trkpt lat="44.3472" lon="4.86013">
        <ele>120</ele>
        <time>2018-10-12T09:22:59 02:00</time>
      </trkpt>
      <trkpt lat="44.3472" lon="4.86008">
        <ele>120</ele>
        <time>2018-10-12T09:23:00 02:00</time>
      </trkpt>
      <trkpt lat="44.3472" lon="4.86004">
        <ele>120</ele>
        <time>2018-10-12T09:23:01 02:00</time>
      </trkpt>
      <trkpt lat="44.3472" lon="4.85999">
        <ele>120</ele>
        <time>2018-10-12T09:23:02 02:00</time>
      </trkpt>
      <trkpt lat="44.3472" lon="4.85995">
        <ele>120</ele>
        <time>2018-10-12T09:23:03 02:00</time>
      </trkpt>
      <trkpt lat="44.3472" lon="4.85991">
        <ele>120</ele>
        <time>2018-10-12T09:23:04 02:00</time>
      </trkpt>
      <trkpt lat="44.34719" lon="4.85986">
        <ele>120</ele>
        <time>2018-10-12T09:23:05 02:00</time>
      </trkpt>
      <trkpt lat="44.34719" lon="4.85982">
        <ele>120</ele>
        <time>2018-10-12T09:23:06 02:00</time>
      </trkpt>
      <trkpt lat="44.3472" lon="4.85978">
        <ele>121</ele>
        <time>2018-10-12T09:23:07 02:00</time>
      </trkpt>
      <trkpt lat="44.3472" lon="4.85973">
        <ele>121</ele>
        <time>2018-10-12T09:23:08 02:00</time>
      </trkpt>
      <trkpt lat="44.34721" lon="4.85969">
        <ele>121</ele>
        <time>2018-10-12T09:23:09 02:00</time>
      </trkpt>
      <trkpt lat="44.34722" lon="4.85965">
        <ele>121</ele>
        <time>2018-10-12T09:23:10 02:00</time>
      </trkpt>
      <trkpt lat="44.34723" lon="4.85961">
        <ele>121</ele>
        <time>2018-10-12T09:23:11 02:00</time>
      </trkpt>
      <trkpt lat="44.34725" lon="4.85957">
        <ele>121</ele>
        <time>2018-10-12T09:23:12 02:00</time>
      </trkpt>
      <trkpt lat="44.34726" lon="4.85953">
        <ele>121</ele>
        <time>2018-10-12T09:23:13 02:00</time>
      </trkpt>
      <trkpt lat="44.34728" lon="4.85949">
        <ele>121</ele>
        <time>2018-10-12T09:23:14 02:00</time>
      </trkpt>
      <trkpt lat="44.3473" lon="4.85946">
        <ele>121</ele>
        <time>2018-10-12T09:23:15 02:00</time>
      </trkpt>
      <trkpt lat="44.34732" lon="4.85942">
        <ele>121</ele>
        <time>2018-10-12T09:23:16 02:00</time>
      </trkpt>
      <trkpt lat="44.34734" lon="4.85939">
        <ele>121</ele>
        <time>2018-10-12T09:23:17 02:00</time>
      </trkpt>
      <trkpt lat="44.34736" lon="4.85935">
        <ele>121</ele>
        <time>2018-10-12T09:23:18 02:00</time>
      </trkpt>
      <trkpt lat="44.34738" lon="4.85932">
        <ele>121</ele>
        <time>2018-10-12T09:23:19 02:00</time>
      </trkpt>
      <trkpt lat="44.3474" lon="4.85929">
        <ele>121</ele>
        <time>2018-10-12T09:23:20 02:00</time>
      </trkpt>
      <trkpt lat="44.34742" lon="4.85925">
        <ele>121</ele>
        <time>2018-10-12T09:23:21 02:00</time>
      </trkpt>
      <trkpt lat="44.34744" lon="4.85921">
        <ele>121</ele>
        <time>2018-10-12T09:23:22 02:00</time>
      </trkpt>
      <trkpt lat="44.34745" lon="4.85917">
        <ele>121</ele>
        <time>2018-10-12T09:23:23 02:00</time>
      </trkpt>
      <trkpt lat="44.34747" lon="4.85913">
        <ele>121</ele>
        <time>2018-10-12T09:23:24 02:00</time>
      </trkpt>
      <trkpt lat="44.34748" lon="4.85909">
        <ele>121</ele>
        <time>2018-10-12T09:23:25 02:00</time>
      </trkpt>
      <trkpt lat="44.3475" lon="4.85905">
        <ele>121</ele>
        <time>2018-10-12T09:23:26 02:00</time>
      </trkpt>
      <trkpt lat="44.34751" lon="4.85901">
        <ele>121</ele>
        <time>2018-10-12T09:23:27 02:00</time>
      </trkpt>
      <trkpt lat="44.34753" lon="4.85897">
        <ele>121</ele>
        <time>2018-10-12T09:23:28 02:00</time>
      </trkpt>
      <trkpt lat="44.34754" lon="4.85893">
        <ele>121</ele>
        <time>2018-10-12T09:23:29 02:00</time>
      </trkpt>
      <trkpt lat="44.34754" lon="4.85891">
        <ele>121</ele>
        <time>2018-10-12T09:23:30 02:00</time>
      </trkpt>
      <trkpt lat="44.34754" lon="4.85891">
        <ele>121</ele>
        <time>2018-10-12T09:23:31 02:00</time>
      </trkpt>
      <trkpt lat="44.34754" lon="4.85891">
        <ele>121</ele>
        <time>2018-10-12T09:23:32 02:00</time>
      </trkpt>
      <trkpt lat="44.34754" lon="4.85891">
        <ele>121</ele>
        <time>2018-10-12T09:23:33 02:00</time>
      </trkpt>
      <trkpt lat="44.34755" lon="4.8589">
        <ele>121</ele>
        <time>2018-10-12T09:23:34 02:00</time>
      </trkpt>
      <trkpt lat="44.34755" lon="4.85889">
        <ele>121</ele>
        <time>2018-10-12T09:23:35 02:00</time>
      </trkpt>
      <trkpt lat="44.34755" lon="4.85887">
        <ele>121</ele>
        <time>2018-10-12T09:23:36 02:00</time>
      </trkpt>
      <trkpt lat="44.34756" lon="4.85885">
        <ele>121</ele>
        <time>2018-10-12T09:23:37 02:00</time>
      </trkpt>
      <trkpt lat="44.34757" lon="4.85883">
        <ele>121</ele>
        <time>2018-10-12T09:23:38 02:00</time>
      </trkpt>
      <trkpt lat="44.34757" lon="4.8588">
        <ele>121</ele>
        <time>2018-10-12T09:23:39 02:00</time>
      </trkpt>
      <trkpt lat="44.34758" lon="4.85877">
        <ele>121</ele>
        <time>2018-10-12T09:23:40 02:00</time>
      </trkpt>
      <trkpt lat="44.34759" lon="4.85873">
        <ele>121</ele>
        <time>2018-10-12T09:23:41 02:00</time>
      </trkpt>
      <trkpt lat="44.3476" lon="4.8587">
        <ele>121</ele>
        <time>2018-10-12T09:23:42 02:00</time>
      </trkpt>
      <trkpt lat="44.34762" lon="4.85866">
        <ele>121</ele>
        <time>2018-10-12T09:23:43 02:00</time>
      </trkpt>
      <trkpt lat="44.34763" lon="4.85863">
        <ele>121</ele>
        <time>2018-10-12T09:23:44 02:00</time>
      </trkpt>
      <trkpt lat="44.34764" lon="4.85859">
        <ele>121</ele>
        <time>2018-10-12T09:23:45 02:00</time>
      </trkpt>
      <trkpt lat="44.34765" lon="4.85855">
        <ele>121</ele>
        <time>2018-10-12T09:23:46 02:00</time>
      </trkpt>
      <trkpt lat="44.34767" lon="4.85851">
        <ele>121</ele>
        <time>2018-10-12T09:23:47 02:00</time>
      </trkpt>
      <trkpt lat="44.34768" lon="4.85848">
        <ele>121</ele>
        <time>2018-10-12T09:23:48 02:00</time>
      </trkpt>
      <trkpt lat="44.3477" lon="4.85844">
        <ele>121</ele>
        <time>2018-10-12T09:23:49 02:00</time>
      </trkpt>
      <trkpt lat="44.34771" lon="4.8584">
        <ele>121</ele>
        <time>2018-10-12T09:23:50 02:00</time>
      </trkpt>
      <trkpt lat="44.34772" lon="4.85836">
        <ele>121</ele>
        <time>2018-10-12T09:23:51 02:00</time>
      </trkpt>
      <trkpt lat="44.34774" lon="4.85832">
        <ele>121</ele>
        <time>2018-10-12T09:23:52 02:00</time>
      </trkpt>
      <trkpt lat="44.34775" lon="4.85828">
        <ele>121</ele>
        <time>2018-10-12T09:23:53 02:00</time>
      </trkpt>
      <trkpt lat="44.34777" lon="4.85824">
        <ele>121</ele>
        <time>2018-10-12T09:23:54 02:00</time>
      </trkpt>
      <trkpt lat="44.34778" lon="4.8582">
        <ele>121</ele>
        <time>2018-10-12T09:23:55 02:00</time>
      </trkpt>
      <trkpt lat="44.34779" lon="4.85816">
        <ele>121</ele>
        <time>2018-10-12T09:23:56 02:00</time>
      </trkpt>
      <trkpt lat="44.34781" lon="4.85813">
        <ele>121</ele>
        <time>2018-10-12T09:23:57 02:00</time>
      </trkpt>
      <trkpt lat="44.34784" lon="4.85811">
        <ele>121</ele>
        <time>2018-10-12T09:23:58 02:00</time>
      </trkpt>
      <trkpt lat="44.34786" lon="4.8581">
        <ele>121</ele>
        <time>2018-10-12T09:23:59 02:00</time>
      </trkpt>
      <trkpt lat="44.34789" lon="4.85809">
        <ele>121</ele>
        <time>2018-10-12T09:24:00 02:00</time>
      </trkpt>
      <trkpt lat="44.34792" lon="4.85809">
        <ele>121</ele>
        <time>2018-10-12T09:24:01 02:00</time>
      </trkpt>
      <trkpt lat="44.34795" lon="4.8581">
        <ele>121</ele>
        <time>2018-10-12T09:24:02 02:00</time>
      </trkpt>
      <trkpt lat="44.34797" lon="4.85811">
        <ele>120</ele>
        <time>2018-10-12T09:24:03 02:00</time>
      </trkpt>
      <trkpt lat="44.348" lon="4.85812">
        <ele>120</ele>
        <time>2018-10-12T09:24:04 02:00</time>
      </trkpt>
      <trkpt lat="44.34803" lon="4.85813">
        <ele>120</ele>
        <time>2018-10-12T09:24:05 02:00</time>
      </trkpt>
      <trkpt lat="44.34806" lon="4.85815">
        <ele>120</ele>
        <time>2018-10-12T09:24:06 02:00</time>
      </trkpt>
      <trkpt lat="44.34809" lon="4.85816">
        <ele>120</ele>
        <time>2018-10-12T09:24:07 02:00</time>
      </trkpt>
      <trkpt lat="44.34812" lon="4.85817">
        <ele>120</ele>
        <time>2018-10-12T09:24:08 02:00</time>
      </trkpt>
      <trkpt lat="44.34815" lon="4.85818">
        <ele>119</ele>
        <time>2018-10-12T09:24:09 02:00</time>
      </trkpt>
      <trkpt lat="44.34817" lon="4.85819">
        <ele>119</ele>
        <time>2018-10-12T09:24:10 02:00</time>
      </trkpt>
      <trkpt lat="44.3482" lon="4.85821">
        <ele>119</ele>
        <time>2018-10-12T09:24:11 02:00</time>
      </trkpt>
      <trkpt lat="44.34823" lon="4.85822">
        <ele>119</ele>
        <time>2018-10-12T09:24:12 02:00</time>
      </trkpt>
      <trkpt lat="44.34826" lon="4.85823">
        <ele>119</ele>
        <time>2018-10-12T09:24:13 02:00</time>
      </trkpt>
      <trkpt lat="44.34829" lon="4.85824">
        <ele>119</ele>
        <time>2018-10-12T09:24:14 02:00</time>
      </trkpt>
      <trkpt lat="44.34832" lon="4.85825">
        <ele>118</ele>
        <time>2018-10-12T09:24:15 02:00</time>
      </trkpt>
      <trkpt lat="44.34835" lon="4.85827">
        <ele>118</ele>
        <time>2018-10-12T09:24:16 02:00</time>
      </trkpt>
      <trkpt lat="44.34838" lon="4.85828">
        <ele>118</ele>
        <time>2018-10-12T09:24:17 02:00</time>
      </trkpt>
      <trkpt lat="44.34841" lon="4.85829">
        <ele>118</ele>
        <time>2018-10-12T09:24:18 02:00</time>
      </trkpt>
      <trkpt lat="44.34844" lon="4.8583">
        <ele>118</ele>
        <time>2018-10-12T09:24:19 02:00</time>
      </trkpt>
      <trkpt lat="44.34846" lon="4.85831">
        <ele>118</ele>
        <time>2018-10-12T09:24:20 02:00</time>
      </trkpt>
      <trkpt lat="44.34849" lon="4.85832">
        <ele>118</ele>
        <time>2018-10-12T09:24:21 02:00</time>
      </trkpt>
      <trkpt lat="44.34852" lon="4.85833">
        <ele>118</ele>
        <time>2018-10-12T09:24:22 02:00</time>
      </trkpt>
      <trkpt lat="44.34855" lon="4.85835">
        <ele>118</ele>
        <time>2018-10-12T09:24:23 02:00</time>
      </trkpt>
      <trkpt lat="44.34858" lon="4.85836">
        <ele>118</ele>
        <time>2018-10-12T09:24:24 02:00</time>
      </trkpt>
      <trkpt lat="44.34861" lon="4.85837">
        <ele>118</ele>
        <time>2018-10-12T09:24:25 02:00</time>
      </trkpt>
      <trkpt lat="44.34864" lon="4.85838">
        <ele>118</ele>
        <time>2018-10-12T09:24:26 02:00</time>
      </trkpt>
      <trkpt lat="44.34867" lon="4.8584">
        <ele>118</ele>
        <time>2018-10-12T09:24:27 02:00</time>
      </trkpt>
      <trkpt lat="44.3487" lon="4.85841">
        <ele>118</ele>
        <time>2018-10-12T09:24:28 02:00</time>
      </trkpt>
      <trkpt lat="44.34873" lon="4.85842">
        <ele>118</ele>
        <time>2018-10-12T09:24:29 02:00</time>
      </trkpt>
      <trkpt lat="44.34876" lon="4.85843">
        <ele>117</ele>
        <time>2018-10-12T09:24:30 02:00</time>
      </trkpt>
      <trkpt lat="44.34879" lon="4.85845">
        <ele>117</ele>
        <time>2018-10-12T09:24:31 02:00</time>
      </trkpt>
      <trkpt lat="44.34883" lon="4.85846">
        <ele>117</ele>
        <time>2018-10-12T09:24:32 02:00</time>
      </trkpt>
      <trkpt lat="44.34886" lon="4.85848">
        <ele>117</ele>
        <time>2018-10-12T09:24:33 02:00</time>
      </trkpt>
      <trkpt lat="44.34889" lon="4.85849">
        <ele>117</ele>
        <time>2018-10-12T09:24:34 02:00</time>
      </trkpt>
      <trkpt lat="44.34892" lon="4.8585">
        <ele>117</ele>
        <time>2018-10-12T09:24:35 02:00</time>
      </trkpt>
      <trkpt lat="44.34895" lon="4.85852">
        <ele>117</ele>
        <time>2018-10-12T09:24:36 02:00</time>
      </trkpt>
      <trkpt lat="44.34899" lon="4.85853">
        <ele>117</ele>
        <time>2018-10-12T09:24:37 02:00</time>
      </trkpt>
      <trkpt lat="44.34902" lon="4.85854">
        <ele>117</ele>
        <time>2018-10-12T09:24:38 02:00</time>
      </trkpt>
      <trkpt lat="44.34905" lon="4.85856">
        <ele>117</ele>
        <time>2018-10-12T09:24:39 02:00</time>
      </trkpt>
      <trkpt lat="44.34908" lon="4.85857">
        <ele>117</ele>
        <time>2018-10-12T09:24:40 02:00</time>
      </trkpt>
      <trkpt lat="44.34911" lon="4.85858">
        <ele>117</ele>
        <time>2018-10-12T09:24:41 02:00</time>
      </trkpt>
      <trkpt lat="44.34914" lon="4.8586">
        <ele>117</ele>
        <time>2018-10-12T09:24:42 02:00</time>
      </trkpt>
      <trkpt lat="44.34918" lon="4.85861">
        <ele>117</ele>
        <time>2018-10-12T09:24:43 02:00</time>
      </trkpt>
      <trkpt lat="44.34921" lon="4.85862">
        <ele>117</ele>
        <time>2018-10-12T09:24:44 02:00</time>
      </trkpt>
      <trkpt lat="44.34924" lon="4.85863">
        <ele>117</ele>
        <time>2018-10-12T09:24:45 02:00</time>
      </trkpt>
      <trkpt lat="44.34927" lon="4.85865">
        <ele>117</ele>
        <time>2018-10-12T09:24:46 02:00</time>
      </trkpt>
      <trkpt lat="44.3493" lon="4.85866">
        <ele>117</ele>
        <time>2018-10-12T09:24:47 02:00</time>
      </trkpt>
      <trkpt lat="44.34934" lon="4.85867">
        <ele>117</ele>
        <time>2018-10-12T09:24:48 02:00</time>
      </trkpt>
      <trkpt lat="44.34937" lon="4.85869">
        <ele>117</ele>
        <time>2018-10-12T09:24:49 02:00</time>
      </trkpt>
      <trkpt lat="44.3494" lon="4.8587">
        <ele>117</ele>
        <time>2018-10-12T09:24:50 02:00</time>
      </trkpt>
      <trkpt lat="44.34943" lon="4.85871">
        <ele>117</ele>
        <time>2018-10-12T09:24:51 02:00</time>
      </trkpt>
      <trkpt lat="44.34947" lon="4.85872">
        <ele>118</ele>
        <time>2018-10-12T09:24:52 02:00</time>
      </trkpt>
      <trkpt lat="44.3495" lon="4.85874">
        <ele>118</ele>
        <time>2018-10-12T09:24:53 02:00</time>
      </trkpt>
      <trkpt lat="44.34953" lon="4.85875">
        <ele>118</ele>
        <time>2018-10-12T09:24:54 02:00</time>
      </trkpt>
      <trkpt lat="44.34957" lon="4.85876">
        <ele>118</ele>
        <time>2018-10-12T09:24:55 02:00</time>
      </trkpt>
      <trkpt lat="44.3496" lon="4.85878">
        <ele>118</ele>
        <time>2018-10-12T09:24:56 02:00</time>
      </trkpt>
      <trkpt lat="44.34963" lon="4.85879">
        <ele>118</ele>
        <time>2018-10-12T09:24:57 02:00</time>
      </trkpt>
      <trkpt lat="44.34966" lon="4.85881">
        <ele>118</ele>
        <time>2018-10-12T09:24:58 02:00</time>
      </trkpt>
      <trkpt lat="44.3497" lon="4.85882">
        <ele>118</ele>
        <time>2018-10-12T09:24:59 02:00</time>
      </trkpt>
      <trkpt lat="44.34973" lon="4.85884">
        <ele>118</ele>
        <time>2018-10-12T09:25:00 02:00</time>
      </trkpt>
      <trkpt lat="44.34976" lon="4.85885">
        <ele>118</ele>
        <time>2018-10-12T09:25:01 02:00</time>
      </trkpt>
      <trkpt lat="44.34979" lon="4.85887">
        <ele>118</ele>
        <time>2018-10-12T09:25:02 02:00</time>
      </trkpt>
      <trkpt lat="44.34982" lon="4.85888">
        <ele>118</ele>
        <time>2018-10-12T09:25:03 02:00</time>
      </trkpt>
      <trkpt lat="44.34986" lon="4.8589">
        <ele>118</ele>
        <time>2018-10-12T09:25:04 02:00</time>
      </trkpt>
      <trkpt lat="44.34989" lon="4.85891">
        <ele>118</ele>
        <time>2018-10-12T09:25:05 02:00</time>
      </trkpt>
      <trkpt lat="44.34992" lon="4.85893">
        <ele>118</ele>
        <time>2018-10-12T09:25:06 02:00</time>
      </trkpt>
      <trkpt lat="44.34995" lon="4.85894">
        <ele>118</ele>
        <time>2018-10-12T09:25:07 02:00</time>
      </trkpt>
      <trkpt lat="44.34997" lon="4.85895">
        <ele>118</ele>
        <time>2018-10-12T09:25:08 02:00</time>
      </trkpt>
      <trkpt lat="44.35" lon="4.85896">
        <ele>118</ele>
        <time>2018-10-12T09:25:09 02:00</time>
      </trkpt>
      <trkpt lat="44.35003" lon="4.85897">
        <ele>118</ele>
        <time>2018-10-12T09:25:10 02:00</time>
      </trkpt>
      <trkpt lat="44.35006" lon="4.85899">
        <ele>118</ele>
        <time>2018-10-12T09:25:11 02:00</time>
      </trkpt>
      <trkpt lat="44.35009" lon="4.859">
        <ele>118</ele>
        <time>2018-10-12T09:25:12 02:00</time>
      </trkpt>
      <trkpt lat="44.35012" lon="4.85901">
        <ele>118</ele>
        <time>2018-10-12T09:25:13 02:00</time>
      </trkpt>
      <trkpt lat="44.35015" lon="4.85902">
        <ele>118</ele>
        <time>2018-10-12T09:25:14 02:00</time>
      </trkpt>
      <trkpt lat="44.35018" lon="4.85903">
        <ele>118</ele>
        <time>2018-10-12T09:25:15 02:00</time>
      </trkpt>
      <trkpt lat="44.35021" lon="4.85904">
        <ele>118</ele>
        <time>2018-10-12T09:25:16 02:00</time>
      </trkpt>
      <trkpt lat="44.35024" lon="4.85906">
        <ele>118</ele>
        <time>2018-10-12T09:25:17 02:00</time>
      </trkpt>
      <trkpt lat="44.35027" lon="4.85907">
        <ele>118</ele>
        <time>2018-10-12T09:25:18 02:00</time>
      </trkpt>
      <trkpt lat="44.3503" lon="4.85908">
        <ele>118</ele>
        <time>2018-10-12T09:25:19 02:00</time>
      </trkpt>
      <trkpt lat="44.35033" lon="4.8591">
        <ele>118</ele>
        <time>2018-10-12T09:25:20 02:00</time>
      </trkpt>
      <trkpt lat="44.35036" lon="4.85911">
        <ele>118</ele>
        <time>2018-10-12T09:25:21 02:00</time>
      </trkpt>
      <trkpt lat="44.35039" lon="4.85912">
        <ele>119</ele>
        <time>2018-10-12T09:25:22 02:00</time>
      </trkpt>
      <trkpt lat="44.35042" lon="4.85913">
        <ele>119</ele>
        <time>2018-10-12T09:25:23 02:00</time>
      </trkpt>
      <trkpt lat="44.35045" lon="4.85914">
        <ele>119</ele>
        <time>2018-10-12T09:25:24 02:00</time>
      </trkpt>
      <trkpt lat="44.35047" lon="4.85915">
        <ele>119</ele>
        <time>2018-10-12T09:25:25 02:00</time>
      </trkpt>
      <trkpt lat="44.3505" lon="4.85917">
        <ele>119</ele>
        <time>2018-10-12T09:25:26 02:00</time>
      </trkpt>
      <trkpt lat="44.35053" lon="4.85918">
        <ele>119</ele>
        <time>2018-10-12T09:25:27 02:00</time>
      </trkpt>
      <trkpt lat="44.35055" lon="4.85919">
        <ele>119</ele>
        <time>2018-10-12T09:25:28 02:00</time>
      </trkpt>
      <trkpt lat="44.35058" lon="4.8592">
        <ele>119</ele>
        <time>2018-10-12T09:25:29 02:00</time>
      </trkpt>
      <trkpt lat="44.35061" lon="4.85921">
        <ele>119</ele>
        <time>2018-10-12T09:25:30 02:00</time>
      </trkpt>
      <trkpt lat="44.35064" lon="4.85922">
        <ele>119</ele>
        <time>2018-10-12T09:25:31 02:00</time>
      </trkpt>
      <trkpt lat="44.35066" lon="4.85923">
        <ele>119</ele>
        <time>2018-10-12T09:25:32 02:00</time>
      </trkpt>
      <trkpt lat="44.35069" lon="4.85924">
        <ele>119</ele>
        <time>2018-10-12T09:25:33 02:00</time>
      </trkpt>
      <trkpt lat="44.35071" lon="4.85925">
        <ele>119</ele>
        <time>2018-10-12T09:25:34 02:00</time>
      </trkpt>
      <trkpt lat="44.35074" lon="4.85926">
        <ele>119</ele>
        <time>2018-10-12T09:25:35 02:00</time>
      </trkpt>
      <trkpt lat="44.35076" lon="4.85927">
        <ele>119</ele>
        <time>2018-10-12T09:25:36 02:00</time>
      </trkpt>
      <trkpt lat="44.35078" lon="4.85928">
        <ele>119</ele>
        <time>2018-10-12T09:25:37 02:00</time>
      </trkpt>
      <trkpt lat="44.35081" lon="4.8593">
        <ele>119</ele>
        <time>2018-10-12T09:25:38 02:00</time>
      </trkpt>
      <trkpt lat="44.35083" lon="4.85931">
        <ele>119</ele>
        <time>2018-10-12T09:25:39 02:00</time>
      </trkpt>
      <trkpt lat="44.35084" lon="4.85932">
        <ele>119</ele>
        <time>2018-10-12T09:25:40 02:00</time>
      </trkpt>
      <trkpt lat="44.35085" lon="4.85933">
        <ele>119</ele>
        <time>2018-10-12T09:25:41 02:00</time>
      </trkpt>
      <trkpt lat="44.35085" lon="4.85933">
        <ele>119</ele>
        <time>2018-10-12T09:25:42 02:00</time>
      </trkpt>
      <trkpt lat="44.35085" lon="4.85933">
        <ele>119</ele>
        <time>2018-10-12T09:25:43 02:00</time>
      </trkpt>
      <trkpt lat="44.35085" lon="4.85933">
        <ele>119</ele>
        <time>2018-10-12T09:25:44 02:00</time>
      </trkpt>
      <trkpt lat="44.35085" lon="4.85933">
        <ele>119</ele>
        <time>2018-10-12T09:25:45 02:00</time>
      </trkpt>
      <trkpt lat="44.35085" lon="4.85933">
        <ele>119</ele>
        <time>2018-10-12T09:25:46 02:00</time>
      </trkpt>
      <trkpt lat="44.35085" lon="4.85933">
        <ele>119</ele>
        <time>2018-10-12T09:25:47 02:00</time>
      </trkpt>
      <trkpt lat="44.35085" lon="4.85933">
        <ele>119</ele>
        <time>2018-10-12T09:25:48 02:00</time>
      </trkpt>
      <trkpt lat="44.35085" lon="4.85933">
        <ele>119</ele>
        <time>2018-10-12T09:25:49 02:00</time>
      </trkpt>
      <trkpt lat="44.35085" lon="4.85933">
        <ele>119</ele>
        <time>2018-10-12T09:25:50 02:00</time>
      </trkpt>
      <trkpt lat="44.35085" lon="4.85933">
        <ele>119</ele>
        <time>2018-10-12T09:25:51 02:00</time>
      </trkpt>
      <trkpt lat="44.35085" lon="4.85933">
        <ele>119</ele>
        <time>2018-10-12T09:25:52 02:00</time>
      </trkpt>
      <trkpt lat="44.35085" lon="4.85933">
        <ele>119</ele>
        <time>2018-10-12T09:25:53 02:00</time>
      </trkpt>
      <trkpt lat="44.35085" lon="4.85933">
        <ele>119</ele>
        <time>2018-10-12T09:25:54 02:00</time>
      </trkpt>
      <trkpt lat="44.35085" lon="4.85933">
        <ele>119</ele>
        <time>2018-10-12T09:25:55 02:00</time>
      </trkpt>
      <trkpt lat="44.35085" lon="4.85933">
        <ele>119</ele>
        <time>2018-10-12T09:25:56 02:00</time>
      </trkpt>
      <trkpt lat="44.35085" lon="4.85933">
        <ele>119</ele>
        <time>2018-10-12T09:25:57 02:00</time>
      </trkpt>
      <trkpt lat="44.35085" lon="4.85933">
        <ele>119</ele>
        <time>2018-10-12T09:25:58 02:00</time>
      </trkpt>
      <trkpt lat="44.35085" lon="4.85933">
        <ele>119</ele>
        <time>2018-10-12T09:25:59 02:00</time>
      </trkpt>
      <trkpt lat="44.35085" lon="4.85933">
        <ele>119</ele>
        <time>2018-10-12T09:26:00 02:00</time>
      </trkpt>
      <trkpt lat="44.35085" lon="4.85933">
        <ele>119</ele>
        <time>2018-10-12T09:26:01 02:00</time>
      </trkpt>
      <trkpt lat="44.35085" lon="4.85933">
        <ele>119</ele>
        <time>2018-10-12T09:26:02 02:00</time>
      </trkpt>
      <trkpt lat="44.35085" lon="4.85933">
        <ele>119</ele>
        <time>2018-10-12T09:26:03 02:00</time>
      </trkpt>
      <trkpt lat="44.35085" lon="4.85933">
        <ele>119</ele>
        <time>2018-10-12T09:26:04 02:00</time>
      </trkpt>
      <trkpt lat="44.35085" lon="4.85933">
        <ele>119</ele>
        <time>2018-10-12T09:26:05 02:00</time>
      </trkpt>
      <trkpt lat="44.35085" lon="4.85933">
        <ele>119</ele>
        <time>2018-10-12T09:26:06 02:00</time>
      </trkpt>
      <trkpt lat="44.35085" lon="4.85933">
        <ele>119</ele>
        <time>2018-10-12T09:26:07 02:00</time>
      </trkpt>
      <trkpt lat="44.35085" lon="4.85933">
        <ele>119</ele>
        <time>2018-10-12T09:26:08 02:00</time>
      </trkpt>
      <trkpt lat="44.35085" lon="4.85933">
        <ele>119</ele>
        <time>2018-10-12T09:26:09 02:00</time>
      </trkpt>
      <trkpt lat="44.35085" lon="4.85933">
        <ele>119</ele>
        <time>2018-10-12T09:26:10 02:00</time>
      </trkpt>
      <trkpt lat="44.35085" lon="4.85933">
        <ele>119</ele>
        <time>2018-10-12T09:26:11 02:00</time>
      </trkpt>
      <trkpt lat="44.35085" lon="4.85933">
        <ele>119</ele>
        <time>2018-10-12T09:26:12 02:00</time>
      </trkpt>
      <trkpt lat="44.35085" lon="4.85933">
        <ele>119</ele>
        <time>2018-10-12T09:26:13 02:00</time>
      </trkpt>
      <trkpt lat="44.35085" lon="4.85933">
        <ele>119</ele>
        <time>2018-10-12T09:26:14 02:00</time>
      </trkpt>
      <trkpt lat="44.35085" lon="4.85933">
        <ele>119</ele>
        <time>2018-10-12T09:26:15 02:00</time>
      </trkpt>
      <trkpt lat="44.35085" lon="4.85933">
        <ele>119</ele>
        <time>2018-10-12T09:26:16 02:00</time>
      </trkpt>
      <trkpt lat="44.35085" lon="4.85933">
        <ele>119</ele>
        <time>2018-10-12T09:26:17 02:00</time>
      </trkpt>
      <trkpt lat="44.35085" lon="4.85933">
        <ele>119</ele>
        <time>2018-10-12T09:26:18 02:00</time>
      </trkpt>
      <trkpt lat="44.35085" lon="4.85933">
        <ele>119</ele>
        <time>2018-10-12T09:26:19 02:00</time>
      </trkpt>
      <trkpt lat="44.35085" lon="4.85933">
        <ele>119</ele>
        <time>2018-10-12T09:26:20 02:00</time>
      </trkpt>
      <trkpt lat="44.35085" lon="4.85933">
        <ele>119</ele>
        <time>2018-10-12T09:26:21 02:00</time>
      </trkpt>
      <trkpt lat="44.35085" lon="4.85933">
        <ele>119</ele>
        <time>2018-10-12T09:26:22 02:00</time>
      </trkpt>
      <trkpt lat="44.35085" lon="4.85933">
        <ele>119</ele>
        <time>2018-10-12T09:26:23 02:00</time>
      </trkpt>
      <trkpt lat="44.35085" lon="4.85933">
        <ele>119</ele>
        <time>2018-10-12T09:26:24 02:00</time>
      </trkpt>
      <trkpt lat="44.35085" lon="4.85933">
        <ele>119</ele>
        <time>2018-10-12T09:26:25 02:00</time>
      </trkpt>
      <trkpt lat="44.35085" lon="4.85933">
        <ele>119</ele>
        <time>2018-10-12T09:26:26 02:00</time>
      </trkpt>
      <trkpt lat="44.35085" lon="4.85933">
        <ele>119</ele>
        <time>2018-10-12T09:26:27 02:00</time>
      </trkpt>
      <trkpt lat="44.35085" lon="4.85933">
        <ele>119</ele>
        <time>2018-10-12T09:26:28 02:00</time>
      </trkpt>
      <trkpt lat="44.35085" lon="4.85933">
        <ele>119</ele>
        <time>2018-10-12T09:26:29 02:00</time>
      </trkpt>
      <trkpt lat="44.35085" lon="4.85933">
        <ele>119</ele>
        <time>2018-10-12T09:26:30 02:00</time>
      </trkpt>
      <trkpt lat="44.35085" lon="4.85933">
        <ele>119</ele>
        <time>2018-10-12T09:26:31 02:00</time>
      </trkpt>
      <trkpt lat="44.35085" lon="4.85933">
        <ele>119</ele>
        <time>2018-10-12T09:26:32 02:00</time>
      </trkpt>
      <trkpt lat="44.35085" lon="4.85933">
        <ele>119</ele>
        <time>2018-10-12T09:26:33 02:00</time>
      </trkpt>
      <trkpt lat="44.35085" lon="4.85933">
        <ele>119</ele>
        <time>2018-10-12T09:26:34 02:00</time>
      </trkpt>
      <trkpt lat="44.35085" lon="4.85933">
        <ele>119</ele>
        <time>2018-10-12T09:26:35 02:00</time>
      </trkpt>
      <trkpt lat="44.35085" lon="4.85933">
        <ele>119</ele>
        <time>2018-10-12T09:26:36 02:00</time>
      </trkpt>
      <trkpt lat="44.35085" lon="4.85933">
        <ele>119</ele>
        <time>2018-10-12T09:26:37 02:00</time>
      </trkpt>
      <trkpt lat="44.35085" lon="4.85933">
        <ele>119</ele>
        <time>2018-10-12T09:26:38 02:00</time>
      </trkpt>
      <trkpt lat="44.35085" lon="4.85933">
        <ele>119</ele>
        <time>2018-10-12T09:26:39 02:00</time>
      </trkpt>
      <trkpt lat="44.35085" lon="4.85933">
        <ele>119</ele>
        <time>2018-10-12T09:26:40 02:00</time>
      </trkpt>
      <trkpt lat="44.35085" lon="4.85933">
        <ele>119</ele>
        <time>2018-10-12T09:26:41 02:00</time>
      </trkpt>
      <trkpt lat="44.35085" lon="4.85933">
        <ele>119</ele>
        <time>2018-10-12T09:26:42 02:00</time>
      </trkpt>
      <trkpt lat="44.35085" lon="4.85933">
        <ele>119</ele>
        <time>2018-10-12T09:26:43 02:00</time>
      </trkpt>
      <trkpt lat="44.35085" lon="4.85933">
        <ele>119</ele>
        <time>2018-10-12T09:26:44 02:00</time>
      </trkpt>
      <trkpt lat="44.35085" lon="4.85933">
        <ele>119</ele>
        <time>2018-10-12T09:26:45 02:00</time>
      </trkpt>
      <trkpt lat="44.35085" lon="4.85933">
        <ele>119</ele>
        <time>2018-10-12T09:26:46 02:00</time>
      </trkpt>
      <trkpt lat="44.35085" lon="4.85933">
        <ele>119</ele>
        <time>2018-10-12T09:26:47 02:00</time>
      </trkpt>
      <trkpt lat="44.35085" lon="4.85933">
        <ele>119</ele>
        <time>2018-10-12T09:26:48 02:00</time>
      </trkpt>
      <trkpt lat="44.35085" lon="4.85933">
        <ele>119</ele>
        <time>2018-10-12T09:26:49 02:00</time>
      </trkpt>
      <trkpt lat="44.35085" lon="4.85933">
        <ele>119</ele>
        <time>2018-10-12T09:26:50 02:00</time>
      </trkpt>
      <trkpt lat="44.35085" lon="4.85933">
        <ele>119</ele>
        <time>2018-10-12T09:26:51 02:00</time>
      </trkpt>
      <trkpt lat="44.35085" lon="4.85933">
        <ele>119</ele>
        <time>2018-10-12T09:26:52 02:00</time>
      </trkpt>
      <trkpt lat="44.35085" lon="4.85933">
        <ele>119</ele>
        <time>2018-10-12T09:26:53 02:00</time>
      </trkpt>
      <trkpt lat="44.35085" lon="4.85933">
        <ele>119</ele>
        <time>2018-10-12T09:26:54 02:00</time>
      </trkpt>
      <trkpt lat="44.35085" lon="4.85933">
        <ele>119</ele>
        <time>2018-10-12T09:26:55 02:00</time>
      </trkpt>
      <trkpt lat="44.35085" lon="4.85933">
        <ele>119</ele>
        <time>2018-10-12T09:26:56 02:00</time>
      </trkpt>
      <trkpt lat="44.35085" lon="4.85933">
        <ele>119</ele>
        <time>2018-10-12T09:26:57 02:00</time>
      </trkpt>
      <trkpt lat="44.35085" lon="4.85933">
        <ele>119</ele>
        <time>2018-10-12T09:26:58 02:00</time>
      </trkpt>
      <trkpt lat="44.35085" lon="4.85933">
        <ele>119</ele>
        <time>2018-10-12T09:26:59 02:00</time>
      </trkpt>
      <trkpt lat="44.35085" lon="4.85933">
        <ele>119</ele>
        <time>2018-10-12T09:27:00 02:00</time>
      </trkpt>
      <trkpt lat="44.35085" lon="4.85933">
        <ele>119</ele>
        <time>2018-10-12T09:27:01 02:00</time>
      </trkpt>
      <trkpt lat="44.35085" lon="4.85933">
        <ele>119</ele>
        <time>2018-10-12T09:27:02 02:00</time>
      </trkpt>
      <trkpt lat="44.35085" lon="4.85933">
        <ele>119</ele>
        <time>2018-10-12T09:27:03 02:00</time>
      </trkpt>
      <trkpt lat="44.35085" lon="4.85933">
        <ele>119</ele>
        <time>2018-10-12T09:27:04 02:00</time>
      </trkpt>
      <trkpt lat="44.35085" lon="4.85933">
        <ele>119</ele>
        <time>2018-10-12T09:27:05 02:00</time>
      </trkpt>
      <trkpt lat="44.35085" lon="4.85933">
        <ele>119</ele>
        <time>2018-10-12T09:27:06 02:00</time>
      </trkpt>
      <trkpt lat="44.35085" lon="4.85933">
        <ele>119</ele>
        <time>2018-10-12T09:27:07 02:00</time>
      </trkpt>
      <trkpt lat="44.35085" lon="4.85933">
        <ele>119</ele>
        <time>2018-10-12T09:27:08 02:00</time>
      </trkpt>
      <trkpt lat="44.35085" lon="4.85933">
        <ele>119</ele>
        <time>2018-10-12T09:27:09 02:00</time>
      </trkpt>
      <trkpt lat="44.35085" lon="4.85933">
        <ele>119</ele>
        <time>2018-10-12T09:27:10 02:00</time>
      </trkpt>
      <trkpt lat="44.35085" lon="4.85933">
        <ele>119</ele>
        <time>2018-10-12T09:27:11 02:00</time>
      </trkpt>
      <trkpt lat="44.35085" lon="4.85933">
        <ele>119</ele>
        <time>2018-10-12T09:27:12 02:00</time>
      </trkpt>
      <trkpt lat="44.35085" lon="4.85933">
        <ele>119</ele>
        <time>2018-10-12T09:27:13 02:00</time>
      </trkpt>
      <trkpt lat="44.35085" lon="4.85933">
        <ele>119</ele>
        <time>2018-10-12T09:27:14 02:00</time>
      </trkpt>
      <trkpt lat="44.35085" lon="4.85933">
        <ele>119</ele>
        <time>2018-10-12T09:27:15 02:00</time>
      </trkpt>
      <trkpt lat="44.35085" lon="4.85933">
        <ele>119</ele>
        <time>2018-10-12T09:27:16 02:00</time>
      </trkpt>
      <trkpt lat="44.35085" lon="4.85933">
        <ele>119</ele>
        <time>2018-10-12T09:27:17 02:00</time>
      </trkpt>
      <trkpt lat="44.35085" lon="4.85933">
        <ele>119</ele>
        <time>2018-10-12T09:27:18 02:00</time>
      </trkpt>
      <trkpt lat="44.35085" lon="4.85933">
        <ele>119</ele>
        <time>2018-10-12T09:27:19 02:00</time>
      </trkpt>
      <trkpt lat="44.35085" lon="4.85933">
        <ele>119</ele>
        <time>2018-10-12T09:27:20 02:00</time>
      </trkpt>
      <trkpt lat="44.35085" lon="4.85933">
        <ele>119</ele>
        <time>2018-10-12T09:27:21 02:00</time>
      </trkpt>
      <trkpt lat="44.35085" lon="4.85933">
        <ele>119</ele>
        <time>2018-10-12T09:27:22 02:00</time>
      </trkpt>
      <trkpt lat="44.35085" lon="4.85934">
        <ele>119</ele>
        <time>2018-10-12T09:27:23 02:00</time>
      </trkpt>
      <trkpt lat="44.35086" lon="4.85935">
        <ele>119</ele>
        <time>2018-10-12T09:27:24 02:00</time>
      </trkpt>
      <trkpt lat="44.35086" lon="4.85936">
        <ele>119</ele>
        <time>2018-10-12T09:27:25 02:00</time>
      </trkpt>
      <trkpt lat="44.35087" lon="4.85937">
        <ele>119</ele>
        <time>2018-10-12T09:27:26 02:00</time>
      </trkpt>
      <trkpt lat="44.35087" lon="4.85939">
        <ele>119</ele>
        <time>2018-10-12T09:27:27 02:00</time>
      </trkpt>
      <trkpt lat="44.35089" lon="4.85942">
        <ele>119</ele>
        <time>2018-10-12T09:27:28 02:00</time>
      </trkpt>
      <trkpt lat="44.3509" lon="4.85944">
        <ele>119</ele>
        <time>2018-10-12T09:27:29 02:00</time>
      </trkpt>
      <trkpt lat="44.35091" lon="4.85947">
        <ele>119</ele>
        <time>2018-10-12T09:27:30 02:00</time>
      </trkpt>
      <trkpt lat="44.35092" lon="4.8595">
        <ele>119</ele>
        <time>2018-10-12T09:27:31 02:00</time>
      </trkpt>
      <trkpt lat="44.35094" lon="4.85953">
        <ele>119</ele>
        <time>2018-10-12T09:27:32 02:00</time>
      </trkpt>
      <trkpt lat="44.35095" lon="4.85956">
        <ele>119</ele>
        <time>2018-10-12T09:27:33 02:00</time>
      </trkpt>
      <trkpt lat="44.35096" lon="4.85959">
        <ele>119</ele>
        <time>2018-10-12T09:27:34 02:00</time>
      </trkpt>
      <trkpt lat="44.35098" lon="4.85963">
        <ele>119</ele>
        <time>2018-10-12T09:27:35 02:00</time>
      </trkpt>
      <trkpt lat="44.35099" lon="4.85966">
        <ele>119</ele>
        <time>2018-10-12T09:27:36 02:00</time>
      </trkpt>
      <trkpt lat="44.351" lon="4.8597">
        <ele>119</ele>
        <time>2018-10-12T09:27:37 02:00</time>
      </trkpt>
      <trkpt lat="44.35102" lon="4.85973">
        <ele>119</ele>
        <time>2018-10-12T09:27:38 02:00</time>
      </trkpt>
      <trkpt lat="44.35103" lon="4.85977">
        <ele>119</ele>
        <time>2018-10-12T09:27:39 02:00</time>
      </trkpt>
      <trkpt lat="44.35105" lon="4.85981">
        <ele>119</ele>
        <time>2018-10-12T09:27:40 02:00</time>
      </trkpt>
      <trkpt lat="44.35106" lon="4.85984">
        <ele>119</ele>
        <time>2018-10-12T09:27:41 02:00</time>
      </trkpt>
      <trkpt lat="44.35108" lon="4.85988">
        <ele>119</ele>
        <time>2018-10-12T09:27:42 02:00</time>
      </trkpt>
      <trkpt lat="44.35109" lon="4.85992">
        <ele>119</ele>
        <time>2018-10-12T09:27:43 02:00</time>
      </trkpt>
      <trkpt lat="44.3511" lon="4.85996">
        <ele>119</ele>
        <time>2018-10-12T09:27:44 02:00</time>
      </trkpt>
      <trkpt lat="44.35112" lon="4.85999">
        <ele>119</ele>
        <time>2018-10-12T09:27:45 02:00</time>
      </trkpt>
      <trkpt lat="44.35113" lon="4.86003">
        <ele>119</ele>
        <time>2018-10-12T09:27:46 02:00</time>
      </trkpt>
      <trkpt lat="44.35115" lon="4.86007">
        <ele>119</ele>
        <time>2018-10-12T09:27:47 02:00</time>
      </trkpt>
      <trkpt lat="44.35116" lon="4.86011">
        <ele>119</ele>
        <time>2018-10-12T09:27:48 02:00</time>
      </trkpt>
      <trkpt lat="44.35118" lon="4.86014">
        <ele>119</ele>
        <time>2018-10-12T09:27:49 02:00</time>
      </trkpt>
      <trkpt lat="44.35119" lon="4.86018">
        <ele>119</ele>
        <time>2018-10-12T09:27:50 02:00</time>
      </trkpt>
      <trkpt lat="44.35121" lon="4.86022">
        <ele>119</ele>
        <time>2018-10-12T09:27:51 02:00</time>
      </trkpt>
      <trkpt lat="44.35122" lon="4.86026">
        <ele>119</ele>
        <time>2018-10-12T09:27:52 02:00</time>
      </trkpt>
      <trkpt lat="44.35124" lon="4.86029">
        <ele>119</ele>
        <time>2018-10-12T09:27:53 02:00</time>
      </trkpt>
      <trkpt lat="44.35126" lon="4.86033">
        <ele>119</ele>
        <time>2018-10-12T09:27:54 02:00</time>
      </trkpt>
      <trkpt lat="44.35127" lon="4.86037">
        <ele>119</ele>
        <time>2018-10-12T09:27:55 02:00</time>
      </trkpt>
      <trkpt lat="44.35129" lon="4.86041">
        <ele>119</ele>
        <time>2018-10-12T09:27:56 02:00</time>
      </trkpt>
      <trkpt lat="44.35131" lon="4.86044">
        <ele>119</ele>
        <time>2018-10-12T09:27:57 02:00</time>
      </trkpt>
      <trkpt lat="44.35132" lon="4.86048">
        <ele>119</ele>
        <time>2018-10-12T09:27:58 02:00</time>
      </trkpt>
      <trkpt lat="44.35134" lon="4.86052">
        <ele>119</ele>
        <time>2018-10-12T09:27:59 02:00</time>
      </trkpt>
      <trkpt lat="44.35135" lon="4.86056">
        <ele>119</ele>
        <time>2018-10-12T09:28:00 02:00</time>
      </trkpt>
      <trkpt lat="44.35137" lon="4.8606">
        <ele>119</ele>
        <time>2018-10-12T09:28:01 02:00</time>
      </trkpt>
      <trkpt lat="44.35139" lon="4.86063">
        <ele>119</ele>
        <time>2018-10-12T09:28:02 02:00</time>
      </trkpt>
      <trkpt lat="44.3514" lon="4.86067">
        <ele>119</ele>
        <time>2018-10-12T09:28:03 02:00</time>
      </trkpt>
      <trkpt lat="44.35142" lon="4.86071">
        <ele>119</ele>
        <time>2018-10-12T09:28:04 02:00</time>
      </trkpt>
      <trkpt lat="44.35143" lon="4.86075">
        <ele>119</ele>
        <time>2018-10-12T09:28:05 02:00</time>
      </trkpt>
      <trkpt lat="44.35145" lon="4.86079">
        <ele>119</ele>
        <time>2018-10-12T09:28:06 02:00</time>
      </trkpt>
      <trkpt lat="44.35146" lon="4.86083">
        <ele>119</ele>
        <time>2018-10-12T09:28:07 02:00</time>
      </trkpt>
      <trkpt lat="44.35147" lon="4.86087">
        <ele>119</ele>
        <time>2018-10-12T09:28:08 02:00</time>
      </trkpt>
      <trkpt lat="44.35148" lon="4.86091">
        <ele>119</ele>
        <time>2018-10-12T09:28:09 02:00</time>
      </trkpt>
      <trkpt lat="44.3515" lon="4.86095">
        <ele>119</ele>
        <time>2018-10-12T09:28:10 02:00</time>
      </trkpt>
      <trkpt lat="44.35151" lon="4.861">
        <ele>119</ele>
        <time>2018-10-12T09:28:11 02:00</time>
      </trkpt>
      <trkpt lat="44.35152" lon="4.86104">
        <ele>119</ele>
        <time>2018-10-12T09:28:12 02:00</time>
      </trkpt>
      <trkpt lat="44.35153" lon="4.86108">
        <ele>119</ele>
        <time>2018-10-12T09:28:13 02:00</time>
      </trkpt>
      <trkpt lat="44.35154" lon="4.86112">
        <ele>118</ele>
        <time>2018-10-12T09:28:14 02:00</time>
      </trkpt>
      <trkpt lat="44.35155" lon="4.86117">
        <ele>118</ele>
        <time>2018-10-12T09:28:15 02:00</time>
      </trkpt>
      <trkpt lat="44.35156" lon="4.86121">
        <ele>118</ele>
        <time>2018-10-12T09:28:16 02:00</time>
      </trkpt>
      <trkpt lat="44.35157" lon="4.86126">
        <ele>118</ele>
        <time>2018-10-12T09:28:17 02:00</time>
      </trkpt>
      <trkpt lat="44.35158" lon="4.8613">
        <ele>118</ele>
        <time>2018-10-12T09:28:18 02:00</time>
      </trkpt>
      <trkpt lat="44.35158" lon="4.86135">
        <ele>118</ele>
        <time>2018-10-12T09:28:19 02:00</time>
      </trkpt>
      <trkpt lat="44.35159" lon="4.86139">
        <ele>118</ele>
        <time>2018-10-12T09:28:20 02:00</time>
      </trkpt>
      <trkpt lat="44.3516" lon="4.86144">
        <ele>118</ele>
        <time>2018-10-12T09:28:21 02:00</time>
      </trkpt>
      <trkpt lat="44.35161" lon="4.86148">
        <ele>118</ele>
        <time>2018-10-12T09:28:22 02:00</time>
      </trkpt>
      <trkpt lat="44.35162" lon="4.86153">
        <ele>118</ele>
        <time>2018-10-12T09:28:23 02:00</time>
      </trkpt>
      <trkpt lat="44.35162" lon="4.86158">
        <ele>118</ele>
        <time>2018-10-12T09:28:24 02:00</time>
      </trkpt>
      <trkpt lat="44.35163" lon="4.86162">
        <ele>118</ele>
        <time>2018-10-12T09:28:25 02:00</time>
      </trkpt>
      <trkpt lat="44.35164" lon="4.86167">
        <ele>118</ele>
        <time>2018-10-12T09:28:26 02:00</time>
      </trkpt>
      <trkpt lat="44.35164" lon="4.86171">
        <ele>118</ele>
        <time>2018-10-12T09:28:27 02:00</time>
      </trkpt>
      <trkpt lat="44.35165" lon="4.86176">
        <ele>118</ele>
        <time>2018-10-12T09:28:28 02:00</time>
      </trkpt>
      <trkpt lat="44.35165" lon="4.86181">
        <ele>118</ele>
        <time>2018-10-12T09:28:29 02:00</time>
      </trkpt>
      <trkpt lat="44.35166" lon="4.86185">
        <ele>118</ele>
        <time>2018-10-12T09:28:30 02:00</time>
      </trkpt>
      <trkpt lat="44.35166" lon="4.8619">
        <ele>118</ele>
        <time>2018-10-12T09:28:31 02:00</time>
      </trkpt>
      <trkpt lat="44.35166" lon="4.86195">
        <ele>118</ele>
        <time>2018-10-12T09:28:32 02:00</time>
      </trkpt>
      <trkpt lat="44.35167" lon="4.86199">
        <ele>118</ele>
        <time>2018-10-12T09:28:33 02:00</time>
      </trkpt>
      <trkpt lat="44.35167" lon="4.86204">
        <ele>118</ele>
        <time>2018-10-12T09:28:34 02:00</time>
      </trkpt>
      <trkpt lat="44.35167" lon="4.86208">
        <ele>118</ele>
        <time>2018-10-12T09:28:35 02:00</time>
      </trkpt>
      <trkpt lat="44.35168" lon="4.86213">
        <ele>117</ele>
        <time>2018-10-12T09:28:36 02:00</time>
      </trkpt>
      <trkpt lat="44.35168" lon="4.86217">
        <ele>117</ele>
        <time>2018-10-12T09:28:37 02:00</time>
      </trkpt>
      <trkpt lat="44.35168" lon="4.86222">
        <ele>117</ele>
        <time>2018-10-12T09:28:38 02:00</time>
      </trkpt>
      <trkpt lat="44.35169" lon="4.86226">
        <ele>117</ele>
        <time>2018-10-12T09:28:39 02:00</time>
      </trkpt>
      <trkpt lat="44.35169" lon="4.86231">
        <ele>117</ele>
        <time>2018-10-12T09:28:40 02:00</time>
      </trkpt>
      <trkpt lat="44.35169" lon="4.86235">
        <ele>117</ele>
        <time>2018-10-12T09:28:41 02:00</time>
      </trkpt>
      <trkpt lat="44.35169" lon="4.8624">
        <ele>117</ele>
        <time>2018-10-12T09:28:42 02:00</time>
      </trkpt>
      <trkpt lat="44.35169" lon="4.86244">
        <ele>117</ele>
        <time>2018-10-12T09:28:43 02:00</time>
      </trkpt>
      <trkpt lat="44.35169" lon="4.86248">
        <ele>117</ele>
        <time>2018-10-12T09:28:44 02:00</time>
      </trkpt>
      <trkpt lat="44.3517" lon="4.86251">
        <ele>117</ele>
        <time>2018-10-12T09:28:45 02:00</time>
      </trkpt>
      <trkpt lat="44.3517" lon="4.86255">
        <ele>117</ele>
        <time>2018-10-12T09:28:46 02:00</time>
      </trkpt>
      <trkpt lat="44.35171" lon="4.86257">
        <ele>117</ele>
        <time>2018-10-12T09:28:47 02:00</time>
      </trkpt>
      <trkpt lat="44.35173" lon="4.86259">
        <ele>117</ele>
        <time>2018-10-12T09:28:48 02:00</time>
      </trkpt>
      <trkpt lat="44.35175" lon="4.8626">
        <ele>117</ele>
        <time>2018-10-12T09:28:49 02:00</time>
      </trkpt>
      <trkpt lat="44.35178" lon="4.8626">
        <ele>117</ele>
        <time>2018-10-12T09:28:50 02:00</time>
      </trkpt>
      <trkpt lat="44.3518" lon="4.86259">
        <ele>117</ele>
        <time>2018-10-12T09:28:51 02:00</time>
      </trkpt>
      <trkpt lat="44.35183" lon="4.86258">
        <ele>117</ele>
        <time>2018-10-12T09:28:52 02:00</time>
      </trkpt>
      <trkpt lat="44.35185" lon="4.86257">
        <ele>117</ele>
        <time>2018-10-12T09:28:53 02:00</time>
      </trkpt>
      <trkpt lat="44.35188" lon="4.86256">
        <ele>117</ele>
        <time>2018-10-12T09:28:54 02:00</time>
      </trkpt>
      <trkpt lat="44.3519" lon="4.86255">
        <ele>117</ele>
        <time>2018-10-12T09:28:55 02:00</time>
      </trkpt>
      <trkpt lat="44.35193" lon="4.86254">
        <ele>117</ele>
        <time>2018-10-12T09:28:56 02:00</time>
      </trkpt>
      <trkpt lat="44.35196" lon="4.86254">
        <ele>117</ele>
        <time>2018-10-12T09:28:57 02:00</time>
      </trkpt>
      <trkpt lat="44.35199" lon="4.86254">
        <ele>117</ele>
        <time>2018-10-12T09:28:58 02:00</time>
      </trkpt>
      <trkpt lat="44.35201" lon="4.86253">
        <ele>117</ele>
        <time>2018-10-12T09:28:59 02:00</time>
      </trkpt>
      <trkpt lat="44.35204" lon="4.86253">
        <ele>118</ele>
        <time>2018-10-12T09:29:00 02:00</time>
      </trkpt>
      <trkpt lat="44.35207" lon="4.86252">
        <ele>118</ele>
        <time>2018-10-12T09:29:01 02:00</time>
      </trkpt>
      <trkpt lat="44.35209" lon="4.86251">
        <ele>118</ele>
        <time>2018-10-12T09:29:02 02:00</time>
      </trkpt>
      <trkpt lat="44.35212" lon="4.8625">
        <ele>118</ele>
        <time>2018-10-12T09:29:03 02:00</time>
      </trkpt>
      <trkpt lat="44.35215" lon="4.86249">
        <ele>118</ele>
        <time>2018-10-12T09:29:04 02:00</time>
      </trkpt>
      <trkpt lat="44.35217" lon="4.86248">
        <ele>118</ele>
        <time>2018-10-12T09:29:05 02:00</time>
      </trkpt>
      <trkpt lat="44.3522" lon="4.86248">
        <ele>118</ele>
        <time>2018-10-12T09:29:06 02:00</time>
      </trkpt>
      <trkpt lat="44.35222" lon="4.86247">
        <ele>118</ele>
        <time>2018-10-12T09:29:07 02:00</time>
      </trkpt>
      <trkpt lat="44.35225" lon="4.86246">
        <ele>118</ele>
        <time>2018-10-12T09:29:08 02:00</time>
      </trkpt>
      <trkpt lat="44.35228" lon="4.86246">
        <ele>118</ele>
        <time>2018-10-12T09:29:09 02:00</time>
      </trkpt>
      <trkpt lat="44.3523" lon="4.86246">
        <ele>118</ele>
        <time>2018-10-12T09:29:10 02:00</time>
      </trkpt>
      <trkpt lat="44.35233" lon="4.86246">
        <ele>118</ele>
        <time>2018-10-12T09:29:11 02:00</time>
      </trkpt>
      <trkpt lat="44.35235" lon="4.86246">
        <ele>118</ele>
        <time>2018-10-12T09:29:12 02:00</time>
      </trkpt>
      <trkpt lat="44.35237" lon="4.86246">
        <ele>118</ele>
        <time>2018-10-12T09:29:13 02:00</time>
      </trkpt>
      <trkpt lat="44.35239" lon="4.86246">
        <ele>118</ele>
        <time>2018-10-12T09:29:14 02:00</time>
      </trkpt>
      <trkpt lat="44.3524" lon="4.86246">
        <ele>118</ele>
        <time>2018-10-12T09:29:15 02:00</time>
      </trkpt>
      <trkpt lat="44.35241" lon="4.86245">
        <ele>118</ele>
        <time>2018-10-12T09:29:16 02:00</time>
      </trkpt>
      <trkpt lat="44.35241" lon="4.86245">
        <ele>118</ele>
        <time>2018-10-12T09:29:17 02:00</time>
      </trkpt>
      <trkpt lat="44.35241" lon="4.86245">
        <ele>118</ele>
        <time>2018-10-12T09:29:18 02:00</time>
      </trkpt>
      <trkpt lat="44.35241" lon="4.86245">
        <ele>118</ele>
        <time>2018-10-12T09:29:19 02:00</time>
      </trkpt>
      <trkpt lat="44.35241" lon="4.86245">
        <ele>118</ele>
        <time>2018-10-12T09:29:20 02:00</time>
      </trkpt>
      <trkpt lat="44.35241" lon="4.86245">
        <ele>118</ele>
        <time>2018-10-12T09:29:21 02:00</time>
      </trkpt>
      <trkpt lat="44.35241" lon="4.86245">
        <ele>118</ele>
        <time>2018-10-12T09:29:22 02:00</time>
      </trkpt>
      <trkpt lat="44.35241" lon="4.86245">
        <ele>118</ele>
        <time>2018-10-12T09:29:23 02:00</time>
      </trkpt>
      <trkpt lat="44.35241" lon="4.86245">
        <ele>118</ele>
        <time>2018-10-12T09:29:24 02:00</time>
      </trkpt>
      <trkpt lat="44.35242" lon="4.86245">
        <ele>118</ele>
        <time>2018-10-12T09:29:25 02:00</time>
      </trkpt>
      <trkpt lat="44.35242" lon="4.86245">
        <ele>118</ele>
        <time>2018-10-12T09:29:26 02:00</time>
      </trkpt>
      <trkpt lat="44.35243" lon="4.86244">
        <ele>118</ele>
        <time>2018-10-12T09:29:27 02:00</time>
      </trkpt>
      <trkpt lat="44.35244" lon="4.86242">
        <ele>118</ele>
        <time>2018-10-12T09:29:28 02:00</time>
      </trkpt>
      <trkpt lat="44.35244" lon="4.8624">
        <ele>118</ele>
        <time>2018-10-12T09:29:29 02:00</time>
      </trkpt>
      <trkpt lat="44.35245" lon="4.86237">
        <ele>118</ele>
        <time>2018-10-12T09:29:30 02:00</time>
      </trkpt>
      <trkpt lat="44.35246" lon="4.86234">
        <ele>118</ele>
        <time>2018-10-12T09:29:31 02:00</time>
      </trkpt>
      <trkpt lat="44.35246" lon="4.86231">
        <ele>118</ele>
        <time>2018-10-12T09:29:32 02:00</time>
      </trkpt>
      <trkpt lat="44.35247" lon="4.86228">
        <ele>118</ele>
        <time>2018-10-12T09:29:33 02:00</time>
      </trkpt>
      <trkpt lat="44.35248" lon="4.86225">
        <ele>118</ele>
        <time>2018-10-12T09:29:34 02:00</time>
      </trkpt>
      <trkpt lat="44.35248" lon="4.86222">
        <ele>118</ele>
        <time>2018-10-12T09:29:35 02:00</time>
      </trkpt>
      <trkpt lat="44.35249" lon="4.86219">
        <ele>118</ele>
        <time>2018-10-12T09:29:36 02:00</time>
      </trkpt>
      <trkpt lat="44.3525" lon="4.86216">
        <ele>118</ele>
        <time>2018-10-12T09:29:37 02:00</time>
      </trkpt>
      <trkpt lat="44.35251" lon="4.86213">
        <ele>118</ele>
        <time>2018-10-12T09:29:38 02:00</time>
      </trkpt>
      <trkpt lat="44.35251" lon="4.8621">
        <ele>118</ele>
        <time>2018-10-12T09:29:39 02:00</time>
      </trkpt>
      <trkpt lat="44.35252" lon="4.86206">
        <ele>118</ele>
        <time>2018-10-12T09:29:40 02:00</time>
      </trkpt>
      <trkpt lat="44.35253" lon="4.86203">
        <ele>118</ele>
        <time>2018-10-12T09:29:41 02:00</time>
      </trkpt>
      <trkpt lat="44.35254" lon="4.86199">
        <ele>118</ele>
        <time>2018-10-12T09:29:42 02:00</time>
      </trkpt>
      <trkpt lat="44.35255" lon="4.86196">
        <ele>118</ele>
        <time>2018-10-12T09:29:43 02:00</time>
      </trkpt>
      <trkpt lat="44.35256" lon="4.86192">
        <ele>118</ele>
        <time>2018-10-12T09:29:44 02:00</time>
      </trkpt>
      <trkpt lat="44.35257" lon="4.86189">
        <ele>118</ele>
        <time>2018-10-12T09:29:45 02:00</time>
      </trkpt>
      <trkpt lat="44.35258" lon="4.86185">
        <ele>118</ele>
        <time>2018-10-12T09:29:46 02:00</time>
      </trkpt>
      <trkpt lat="44.35259" lon="4.86181">
        <ele>118</ele>
        <time>2018-10-12T09:29:47 02:00</time>
      </trkpt>
      <trkpt lat="44.3526" lon="4.86178">
        <ele>118</ele>
        <time>2018-10-12T09:29:48 02:00</time>
      </trkpt>
      <trkpt lat="44.35261" lon="4.86174">
        <ele>118</ele>
        <time>2018-10-12T09:29:49 02:00</time>
      </trkpt>
      <trkpt lat="44.35262" lon="4.8617">
        <ele>118</ele>
        <time>2018-10-12T09:29:50 02:00</time>
      </trkpt>
      <trkpt lat="44.35263" lon="4.86166">
        <ele>118</ele>
        <time>2018-10-12T09:29:51 02:00</time>
      </trkpt>
      <trkpt lat="44.35264" lon="4.86163">
        <ele>118</ele>
        <time>2018-10-12T09:29:52 02:00</time>
      </trkpt>
      <trkpt lat="44.35265" lon="4.86159">
        <ele>118</ele>
        <time>2018-10-12T09:29:53 02:00</time>
      </trkpt>
      <trkpt lat="44.35266" lon="4.86155">
        <ele>118</ele>
        <time>2018-10-12T09:29:54 02:00</time>
      </trkpt>
      <trkpt lat="44.35267" lon="4.86151">
        <ele>118</ele>
        <time>2018-10-12T09:29:55 02:00</time>
      </trkpt>
      <trkpt lat="44.35268" lon="4.86146">
        <ele>118</ele>
        <time>2018-10-12T09:29:56 02:00</time>
      </trkpt>
      <trkpt lat="44.35269" lon="4.86142">
        <ele>118</ele>
        <time>2018-10-12T09:29:57 02:00</time>
      </trkpt>
      <trkpt lat="44.3527" lon="4.86138">
        <ele>118</ele>
        <time>2018-10-12T09:29:58 02:00</time>
      </trkpt>
      <trkpt lat="44.35271" lon="4.86134">
        <ele>118</ele>
        <time>2018-10-12T09:29:59 02:00</time>
      </trkpt>
      <trkpt lat="44.35272" lon="4.86129">
        <ele>119</ele>
        <time>2018-10-12T09:30:00 02:00</time>
      </trkpt>
      <trkpt lat="44.35273" lon="4.86125">
        <ele>119</ele>
        <time>2018-10-12T09:30:01 02:00</time>
      </trkpt>
      <trkpt lat="44.35274" lon="4.86121">
        <ele>119</ele>
        <time>2018-10-12T09:30:02 02:00</time>
      </trkpt>
      <trkpt lat="44.35275" lon="4.86116">
        <ele>119</ele>
        <time>2018-10-12T09:30:03 02:00</time>
      </trkpt>
      <trkpt lat="44.35277" lon="4.86112">
        <ele>119</ele>
        <time>2018-10-12T09:30:04 02:00</time>
      </trkpt>
      <trkpt lat="44.35278" lon="4.86107">
        <ele>119</ele>
        <time>2018-10-12T09:30:05 02:00</time>
      </trkpt>
      <trkpt lat="44.35279" lon="4.86103">
        <ele>119</ele>
        <time>2018-10-12T09:30:06 02:00</time>
      </trkpt>
      <trkpt lat="44.3528" lon="4.86099">
        <ele>119</ele>
        <time>2018-10-12T09:30:07 02:00</time>
      </trkpt>
      <trkpt lat="44.35281" lon="4.86094">
        <ele>119</ele>
        <time>2018-10-12T09:30:08 02:00</time>
      </trkpt>
      <trkpt lat="44.35283" lon="4.8609">
        <ele>119</ele>
        <time>2018-10-12T09:30:09 02:00</time>
      </trkpt>
      <trkpt lat="44.35284" lon="4.86085">
        <ele>119</ele>
        <time>2018-10-12T09:30:10 02:00</time>
      </trkpt>
      <trkpt lat="44.35285" lon="4.8608">
        <ele>119</ele>
        <time>2018-10-12T09:30:11 02:00</time>
      </trkpt>
      <trkpt lat="44.35286" lon="4.86076">
        <ele>120</ele>
        <time>2018-10-12T09:30:12 02:00</time>
      </trkpt>
      <trkpt lat="44.35288" lon="4.86071">
        <ele>120</ele>
        <time>2018-10-12T09:30:13 02:00</time>
      </trkpt>
      <trkpt lat="44.35289" lon="4.86067">
        <ele>120</ele>
        <time>2018-10-12T09:30:14 02:00</time>
      </trkpt>
      <trkpt lat="44.3529" lon="4.86062">
        <ele>120</ele>
        <time>2018-10-12T09:30:15 02:00</time>
      </trkpt>
      <trkpt lat="44.35291" lon="4.86058">
        <ele>120</ele>
        <time>2018-10-12T09:30:16 02:00</time>
      </trkpt>
      <trkpt lat="44.35292" lon="4.86053">
        <ele>120</ele>
        <time>2018-10-12T09:30:17 02:00</time>
      </trkpt>
      <trkpt lat="44.35293" lon="4.86049">
        <ele>120</ele>
        <time>2018-10-12T09:30:18 02:00</time>
      </trkpt>
      <trkpt lat="44.35295" lon="4.86044">
        <ele>120</ele>
        <time>2018-10-12T09:30:19 02:00</time>
      </trkpt>
      <trkpt lat="44.35296" lon="4.86039">
        <ele>120</ele>
        <time>2018-10-12T09:30:20 02:00</time>
      </trkpt>
      <trkpt lat="44.35297" lon="4.86035">
        <ele>120</ele>
        <time>2018-10-12T09:30:21 02:00</time>
      </trkpt>
      <trkpt lat="44.35298" lon="4.8603">
        <ele>120</ele>
        <time>2018-10-12T09:30:22 02:00</time>
      </trkpt>
      <trkpt lat="44.353" lon="4.86026">
        <ele>120</ele>
        <time>2018-10-12T09:30:23 02:00</time>
      </trkpt>
      <trkpt lat="44.35301" lon="4.86021">
        <ele>121</ele>
        <time>2018-10-12T09:30:24 02:00</time>
      </trkpt>
      <trkpt lat="44.35302" lon="4.86017">
        <ele>121</ele>
        <time>2018-10-12T09:30:25 02:00</time>
      </trkpt>
      <trkpt lat="44.35304" lon="4.86012">
        <ele>121</ele>
        <time>2018-10-12T09:30:26 02:00</time>
      </trkpt>
      <trkpt lat="44.35305" lon="4.86008">
        <ele>121</ele>
        <time>2018-10-12T09:30:27 02:00</time>
      </trkpt>
      <trkpt lat="44.35307" lon="4.86004">
        <ele>121</ele>
        <time>2018-10-12T09:30:28 02:00</time>
      </trkpt>
      <trkpt lat="44.35308" lon="4.85999">
        <ele>121</ele>
        <time>2018-10-12T09:30:29 02:00</time>
      </trkpt>
      <trkpt lat="44.3531" lon="4.85995">
        <ele>121</ele>
        <time>2018-10-12T09:30:30 02:00</time>
      </trkpt>
      <trkpt lat="44.35312" lon="4.85991">
        <ele>121</ele>
        <time>2018-10-12T09:30:31 02:00</time>
      </trkpt>
      <trkpt lat="44.35314" lon="4.85987">
        <ele>122</ele>
        <time>2018-10-12T09:30:32 02:00</time>
      </trkpt>
      <trkpt lat="44.35316" lon="4.85983">
        <ele>122</ele>
        <time>2018-10-12T09:30:33 02:00</time>
      </trkpt>
      <trkpt lat="44.35318" lon="4.85979">
        <ele>122</ele>
        <time>2018-10-12T09:30:34 02:00</time>
      </trkpt>
      <trkpt lat="44.3532" lon="4.85975">
        <ele>122</ele>
        <time>2018-10-12T09:30:35 02:00</time>
      </trkpt>
      <trkpt lat="44.35322" lon="4.85971">
        <ele>122</ele>
        <time>2018-10-12T09:30:36 02:00</time>
      </trkpt>
      <trkpt lat="44.35324" lon="4.85967">
        <ele>123</ele>
        <time>2018-10-12T09:30:37 02:00</time>
      </trkpt>
      <trkpt lat="44.35326" lon="4.85964">
        <ele>123</ele>
        <time>2018-10-12T09:30:38 02:00</time>
      </trkpt>
      <trkpt lat="44.35328" lon="4.8596">
        <ele>123</ele>
        <time>2018-10-12T09:30:39 02:00</time>
      </trkpt>
      <trkpt lat="44.3533" lon="4.85956">
        <ele>123</ele>
        <time>2018-10-12T09:30:40 02:00</time>
      </trkpt>
      <trkpt lat="44.35332" lon="4.85953">
        <ele>124</ele>
        <time>2018-10-12T09:30:41 02:00</time>
      </trkpt>
      <trkpt lat="44.35334" lon="4.85949">
        <ele>124</ele>
        <time>2018-10-12T09:30:42 02:00</time>
      </trkpt>
      <trkpt lat="44.35336" lon="4.85946">
        <ele>124</ele>
        <time>2018-10-12T09:30:43 02:00</time>
      </trkpt>
      <trkpt lat="44.35337" lon="4.85942">
        <ele>124</ele>
        <time>2018-10-12T09:30:44 02:00</time>
      </trkpt>
      <trkpt lat="44.35339" lon="4.85938">
        <ele>125</ele>
        <time>2018-10-12T09:30:45 02:00</time>
      </trkpt>
      <trkpt lat="44.3534" lon="4.85934">
        <ele>125</ele>
        <time>2018-10-12T09:30:46 02:00</time>
      </trkpt>
      <trkpt lat="44.3534" lon="4.8593">
        <ele>125</ele>
        <time>2018-10-12T09:30:47 02:00</time>
      </trkpt>
      <trkpt lat="44.3534" lon="4.85926">
        <ele>125</ele>
        <time>2018-10-12T09:30:48 02:00</time>
      </trkpt>
      <trkpt lat="44.3534" lon="4.85922">
        <ele>125</ele>
        <time>2018-10-12T09:30:49 02:00</time>
      </trkpt>
      <trkpt lat="44.35339" lon="4.85919">
        <ele>125</ele>
        <time>2018-10-12T09:30:50 02:00</time>
      </trkpt>
      <trkpt lat="44.35337" lon="4.85916">
        <ele>125</ele>
        <time>2018-10-12T09:30:51 02:00</time>
      </trkpt>
      <trkpt lat="44.35335" lon="4.85913">
        <ele>125</ele>
        <time>2018-10-12T09:30:52 02:00</time>
      </trkpt>
      <trkpt lat="44.35333" lon="4.8591">
        <ele>125</ele>
        <time>2018-10-12T09:30:53 02:00</time>
      </trkpt>
      <trkpt lat="44.35331" lon="4.85907">
        <ele>125</ele>
        <time>2018-10-12T09:30:54 02:00</time>
      </trkpt>
      <trkpt lat="44.35329" lon="4.85904">
        <ele>125</ele>
        <time>2018-10-12T09:30:55 02:00</time>
      </trkpt>
      <trkpt lat="44.35327" lon="4.85901">
        <ele>125</ele>
        <time>2018-10-12T09:30:56 02:00</time>
      </trkpt>
      <trkpt lat="44.35325" lon="4.85898">
        <ele>125</ele>
        <time>2018-10-12T09:30:57 02:00</time>
      </trkpt>
      <trkpt lat="44.35322" lon="4.85895">
        <ele>125</ele>
        <time>2018-10-12T09:30:58 02:00</time>
      </trkpt>
      <trkpt lat="44.3532" lon="4.85891">
        <ele>125</ele>
        <time>2018-10-12T09:30:59 02:00</time>
      </trkpt>
      <trkpt lat="44.35318" lon="4.85888">
        <ele>125</ele>
        <time>2018-10-12T09:31:00 02:00</time>
      </trkpt>
      <trkpt lat="44.35316" lon="4.85885">
        <ele>125</ele>
        <time>2018-10-12T09:31:01 02:00</time>
      </trkpt>
      <trkpt lat="44.35313" lon="4.85882">
        <ele>125</ele>
        <time>2018-10-12T09:31:02 02:00</time>
      </trkpt>
      <trkpt lat="44.35311" lon="4.85878">
        <ele>125</ele>
        <time>2018-10-12T09:31:03 02:00</time>
      </trkpt>
      <trkpt lat="44.35308" lon="4.85875">
        <ele>125</ele>
        <time>2018-10-12T09:31:04 02:00</time>
      </trkpt>
      <trkpt lat="44.35306" lon="4.85872">
        <ele>125</ele>
        <time>2018-10-12T09:31:05 02:00</time>
      </trkpt>
      <trkpt lat="44.35303" lon="4.85869">
        <ele>125</ele>
        <time>2018-10-12T09:31:06 02:00</time>
      </trkpt>
      <trkpt lat="44.35301" lon="4.85865">
        <ele>125</ele>
        <time>2018-10-12T09:31:07 02:00</time>
      </trkpt>
      <trkpt lat="44.35298" lon="4.85862">
        <ele>125</ele>
        <time>2018-10-12T09:31:08 02:00</time>
      </trkpt>
      <trkpt lat="44.35295" lon="4.85858">
        <ele>125</ele>
        <time>2018-10-12T09:31:09 02:00</time>
      </trkpt>
      <trkpt lat="44.35293" lon="4.85855">
        <ele>125</ele>
        <time>2018-10-12T09:31:10 02:00</time>
      </trkpt>
      <trkpt lat="44.3529" lon="4.85851">
        <ele>125</ele>
        <time>2018-10-12T09:31:11 02:00</time>
      </trkpt>
      <trkpt lat="44.35288" lon="4.85847">
        <ele>126</ele>
        <time>2018-10-12T09:31:12 02:00</time>
      </trkpt>
      <trkpt lat="44.35286" lon="4.85843">
        <ele>126</ele>
        <time>2018-10-12T09:31:13 02:00</time>
      </trkpt>
      <trkpt lat="44.35283" lon="4.85839">
        <ele>126</ele>
        <time>2018-10-12T09:31:14 02:00</time>
      </trkpt>
      <trkpt lat="44.35281" lon="4.85835">
        <ele>126</ele>
        <time>2018-10-12T09:31:15 02:00</time>
      </trkpt>
      <trkpt lat="44.35279" lon="4.85831">
        <ele>126</ele>
        <time>2018-10-12T09:31:16 02:00</time>
      </trkpt>
      <trkpt lat="44.35277" lon="4.85827">
        <ele>126</ele>
        <time>2018-10-12T09:31:17 02:00</time>
      </trkpt>
      <trkpt lat="44.35274" lon="4.85823">
        <ele>126</ele>
        <time>2018-10-12T09:31:18 02:00</time>
      </trkpt>
      <trkpt lat="44.35272" lon="4.85819">
        <ele>125</ele>
        <time>2018-10-12T09:31:19 02:00</time>
      </trkpt>
      <trkpt lat="44.3527" lon="4.85814">
        <ele>125</ele>
        <time>2018-10-12T09:31:20 02:00</time>
      </trkpt>
      <trkpt lat="44.35268" lon="4.8581">
        <ele>125</ele>
        <time>2018-10-12T09:31:21 02:00</time>
      </trkpt>
      <trkpt lat="44.35266" lon="4.85806">
        <ele>125</ele>
        <time>2018-10-12T09:31:22 02:00</time>
      </trkpt>
      <trkpt lat="44.35264" lon="4.85801">
        <ele>125</ele>
        <time>2018-10-12T09:31:23 02:00</time>
      </trkpt>
      <trkpt lat="44.35261" lon="4.85797">
        <ele>125</ele>
        <time>2018-10-12T09:31:24 02:00</time>
      </trkpt>
      <trkpt lat="44.35259" lon="4.85793">
        <ele>125</ele>
        <time>2018-10-12T09:31:25 02:00</time>
      </trkpt>
      <trkpt lat="44.35257" lon="4.85789">
        <ele>125</ele>
        <time>2018-10-12T09:31:26 02:00</time>
      </trkpt>
      <trkpt lat="44.35254" lon="4.85785">
        <ele>125</ele>
        <time>2018-10-12T09:31:27 02:00</time>
      </trkpt>
      <trkpt lat="44.35251" lon="4.85781">
        <ele>125</ele>
        <time>2018-10-12T09:31:28 02:00</time>
      </trkpt>
      <trkpt lat="44.35249" lon="4.85776">
        <ele>125</ele>
        <time>2018-10-12T09:31:29 02:00</time>
      </trkpt>
      <trkpt lat="44.35247" lon="4.85771">
        <ele>125</ele>
        <time>2018-10-12T09:31:30 02:00</time>
      </trkpt>
      <trkpt lat="44.35245" lon="4.85766">
        <ele>125</ele>
        <time>2018-10-12T09:31:31 02:00</time>
      </trkpt>
      <trkpt lat="44.35243" lon="4.85761">
        <ele>125</ele>
        <time>2018-10-12T09:31:32 02:00</time>
      </trkpt>
      <trkpt lat="44.35243" lon="4.85755">
        <ele>125</ele>
        <time>2018-10-12T09:31:33 02:00</time>
      </trkpt>
      <trkpt lat="44.35243" lon="4.85749">
        <ele>125</ele>
        <time>2018-10-12T09:31:34 02:00</time>
      </trkpt>
      <trkpt lat="44.35243" lon="4.85743">
        <ele>125</ele>
        <time>2018-10-12T09:31:35 02:00</time>
      </trkpt>
      <trkpt lat="44.35244" lon="4.85737">
        <ele>124</ele>
        <time>2018-10-12T09:31:36 02:00</time>
      </trkpt>
      <trkpt lat="44.35244" lon="4.85732">
        <ele>124</ele>
        <time>2018-10-12T09:31:37 02:00</time>
      </trkpt>
      <trkpt lat="44.35245" lon="4.85726">
        <ele>124</ele>
        <time>2018-10-12T09:31:38 02:00</time>
      </trkpt>
      <trkpt lat="44.35246" lon="4.85721">
        <ele>124</ele>
        <time>2018-10-12T09:31:39 02:00</time>
      </trkpt>
      <trkpt lat="44.35247" lon="4.85716">
        <ele>124</ele>
        <time>2018-10-12T09:31:40 02:00</time>
      </trkpt>
      <trkpt lat="44.35248" lon="4.8571">
        <ele>124</ele>
        <time>2018-10-12T09:31:41 02:00</time>
      </trkpt>
      <trkpt lat="44.35249" lon="4.85705">
        <ele>124</ele>
        <time>2018-10-12T09:31:42 02:00</time>
      </trkpt>
      <trkpt lat="44.35249" lon="4.85699">
        <ele>124</ele>
        <time>2018-10-12T09:31:43 02:00</time>
      </trkpt>
      <trkpt lat="44.3525" lon="4.85694">
        <ele>124</ele>
        <time>2018-10-12T09:31:44 02:00</time>
      </trkpt>
      <trkpt lat="44.35251" lon="4.85688">
        <ele>124</ele>
        <time>2018-10-12T09:31:45 02:00</time>
      </trkpt>
      <trkpt lat="44.35252" lon="4.85683">
        <ele>123</ele>
        <time>2018-10-12T09:31:46 02:00</time>
      </trkpt>
      <trkpt lat="44.35253" lon="4.85678">
        <ele>123</ele>
        <time>2018-10-12T09:31:47 02:00</time>
      </trkpt>
      <trkpt lat="44.35253" lon="4.85674">
        <ele>123</ele>
        <time>2018-10-12T09:31:48 02:00</time>
      </trkpt>
      <trkpt lat="44.35254" lon="4.8567">
        <ele>123</ele>
        <time>2018-10-12T09:31:49 02:00</time>
      </trkpt>
      <trkpt lat="44.35255" lon="4.85666">
        <ele>123</ele>
        <time>2018-10-12T09:31:50 02:00</time>
      </trkpt>
      <trkpt lat="44.35256" lon="4.85663">
        <ele>123</ele>
        <time>2018-10-12T09:31:51 02:00</time>
      </trkpt>
      <trkpt lat="44.35257" lon="4.8566">
        <ele>123</ele>
        <time>2018-10-12T09:31:52 02:00</time>
      </trkpt>
      <trkpt lat="44.35258" lon="4.85657">
        <ele>123</ele>
        <time>2018-10-12T09:31:53 02:00</time>
      </trkpt>
      <trkpt lat="44.35259" lon="4.85654">
        <ele>123</ele>
        <time>2018-10-12T09:31:54 02:00</time>
      </trkpt>
      <trkpt lat="44.3526" lon="4.85651">
        <ele>123</ele>
        <time>2018-10-12T09:31:55 02:00</time>
      </trkpt>
      <trkpt lat="44.3526" lon="4.85648">
        <ele>123</ele>
        <time>2018-10-12T09:31:56 02:00</time>
      </trkpt>
      <trkpt lat="44.35261" lon="4.85645">
        <ele>123</ele>
        <time>2018-10-12T09:31:57 02:00</time>
      </trkpt>
      <trkpt lat="44.35262" lon="4.85642">
        <ele>123</ele>
        <time>2018-10-12T09:31:58 02:00</time>
      </trkpt>
      <trkpt lat="44.35262" lon="4.85639">
        <ele>123</ele>
        <time>2018-10-12T09:31:59 02:00</time>
      </trkpt>
      <trkpt lat="44.35263" lon="4.85635">
        <ele>122</ele>
        <time>2018-10-12T09:32:00 02:00</time>
      </trkpt>
      <trkpt lat="44.35263" lon="4.85631">
        <ele>122</ele>
        <time>2018-10-12T09:32:01 02:00</time>
      </trkpt>
      <trkpt lat="44.35263" lon="4.85627">
        <ele>122</ele>
        <time>2018-10-12T09:32:02 02:00</time>
      </trkpt>
      <trkpt lat="44.35262" lon="4.85623">
        <ele>122</ele>
        <time>2018-10-12T09:32:03 02:00</time>
      </trkpt>
      <trkpt lat="44.35262" lon="4.85619">
        <ele>122</ele>
        <time>2018-10-12T09:32:04 02:00</time>
      </trkpt>
      <trkpt lat="44.35261" lon="4.85614">
        <ele>122</ele>
        <time>2018-10-12T09:32:05 02:00</time>
      </trkpt>
      <trkpt lat="44.3526" lon="4.8561">
        <ele>122</ele>
        <time>2018-10-12T09:32:06 02:00</time>
      </trkpt>
      <trkpt lat="44.3526" lon="4.85604">
        <ele>122</ele>
        <time>2018-10-12T09:32:07 02:00</time>
      </trkpt>
      <trkpt lat="44.35259" lon="4.85599">
        <ele>122</ele>
        <time>2018-10-12T09:32:08 02:00</time>
      </trkpt>
      <trkpt lat="44.35258" lon="4.85594">
        <ele>121</ele>
        <time>2018-10-12T09:32:09 02:00</time>
      </trkpt>
      <trkpt lat="44.35257" lon="4.85588">
        <ele>121</ele>
        <time>2018-10-12T09:32:10 02:00</time>
      </trkpt>
      <trkpt lat="44.35256" lon="4.85582">
        <ele>121</ele>
        <time>2018-10-12T09:32:11 02:00</time>
      </trkpt>
      <trkpt lat="44.35256" lon="4.85577">
        <ele>121</ele>
        <time>2018-10-12T09:32:12 02:00</time>
      </trkpt>
      <trkpt lat="44.35255" lon="4.85571">
        <ele>121</ele>
        <time>2018-10-12T09:32:13 02:00</time>
      </trkpt>
      <trkpt lat="44.35254" lon="4.85566">
        <ele>121</ele>
        <time>2018-10-12T09:32:14 02:00</time>
      </trkpt>
      <trkpt lat="44.35253" lon="4.8556">
        <ele>121</ele>
        <time>2018-10-12T09:32:15 02:00</time>
      </trkpt>
      <trkpt lat="44.35252" lon="4.85555">
        <ele>121</ele>
        <time>2018-10-12T09:32:16 02:00</time>
      </trkpt>
      <trkpt lat="44.35251" lon="4.85549">
        <ele>121</ele>
        <time>2018-10-12T09:32:17 02:00</time>
      </trkpt>
      <trkpt lat="44.3525" lon="4.85544">
        <ele>121</ele>
        <time>2018-10-12T09:32:18 02:00</time>
      </trkpt>
      <trkpt lat="44.35249" lon="4.85538">
        <ele>121</ele>
        <time>2018-10-12T09:32:19 02:00</time>
      </trkpt>
      <trkpt lat="44.35249" lon="4.85533">
        <ele>121</ele>
        <time>2018-10-12T09:32:20 02:00</time>
      </trkpt>
      <trkpt lat="44.35248" lon="4.85527">
        <ele>121</ele>
        <time>2018-10-12T09:32:21 02:00</time>
      </trkpt>
      <trkpt lat="44.35247" lon="4.85522">
        <ele>121</ele>
        <time>2018-10-12T09:32:22 02:00</time>
      </trkpt>
      <trkpt lat="44.35246" lon="4.85517">
        <ele>121</ele>
        <time>2018-10-12T09:32:23 02:00</time>
      </trkpt>
      <trkpt lat="44.35245" lon="4.85511">
        <ele>121</ele>
        <time>2018-10-12T09:32:24 02:00</time>
      </trkpt>
      <trkpt lat="44.35245" lon="4.85506">
        <ele>121</ele>
        <time>2018-10-12T09:32:25 02:00</time>
      </trkpt>
      <trkpt lat="44.35244" lon="4.85501">
        <ele>121</ele>
        <time>2018-10-12T09:32:26 02:00</time>
      </trkpt>
      <trkpt lat="44.35243" lon="4.85495">
        <ele>121</ele>
        <time>2018-10-12T09:32:27 02:00</time>
      </trkpt>
      <trkpt lat="44.35242" lon="4.8549">
        <ele>121</ele>
        <time>2018-10-12T09:32:28 02:00</time>
      </trkpt>
      <trkpt lat="44.35242" lon="4.85485">
        <ele>121</ele>
        <time>2018-10-12T09:32:29 02:00</time>
      </trkpt>
      <trkpt lat="44.35241" lon="4.8548">
        <ele>121</ele>
        <time>2018-10-12T09:32:30 02:00</time>
      </trkpt>
      <trkpt lat="44.3524" lon="4.85474">
        <ele>121</ele>
        <time>2018-10-12T09:32:31 02:00</time>
      </trkpt>
      <trkpt lat="44.3524" lon="4.85469">
        <ele>121</ele>
        <time>2018-10-12T09:32:32 02:00</time>
      </trkpt>
      <trkpt lat="44.35239" lon="4.85463">
        <ele>121</ele>
        <time>2018-10-12T09:32:33 02:00</time>
      </trkpt>
      <trkpt lat="44.35239" lon="4.85458">
        <ele>121</ele>
        <time>2018-10-12T09:32:34 02:00</time>
      </trkpt>
      <trkpt lat="44.35238" lon="4.85452">
        <ele>121</ele>
        <time>2018-10-12T09:32:35 02:00</time>
      </trkpt>
      <trkpt lat="44.35238" lon="4.85447">
        <ele>121</ele>
        <time>2018-10-12T09:32:36 02:00</time>
      </trkpt>
      <trkpt lat="44.35237" lon="4.85441">
        <ele>121</ele>
        <time>2018-10-12T09:32:37 02:00</time>
      </trkpt>
      <trkpt lat="44.35236" lon="4.85436">
        <ele>121</ele>
        <time>2018-10-12T09:32:38 02:00</time>
      </trkpt>
      <trkpt lat="44.35235" lon="4.8543">
        <ele>121</ele>
        <time>2018-10-12T09:32:39 02:00</time>
      </trkpt>
      <trkpt lat="44.35234" lon="4.85425">
        <ele>121</ele>
        <time>2018-10-12T09:32:40 02:00</time>
      </trkpt>
      <trkpt lat="44.35233" lon="4.8542">
        <ele>121</ele>
        <time>2018-10-12T09:32:41 02:00</time>
      </trkpt>
      <trkpt lat="44.35232" lon="4.85416">
        <ele>121</ele>
        <time>2018-10-12T09:32:42 02:00</time>
      </trkpt>
      <trkpt lat="44.3523" lon="4.85411">
        <ele>121</ele>
        <time>2018-10-12T09:32:43 02:00</time>
      </trkpt>
      <trkpt lat="44.35228" lon="4.85406">
        <ele>121</ele>
        <time>2018-10-12T09:32:44 02:00</time>
      </trkpt>
      <trkpt lat="44.35227" lon="4.85401">
        <ele>121</ele>
        <time>2018-10-12T09:32:45 02:00</time>
      </trkpt>
      <trkpt lat="44.35225" lon="4.85397">
        <ele>121</ele>
        <time>2018-10-12T09:32:46 02:00</time>
      </trkpt>
      <trkpt lat="44.35223" lon="4.85392">
        <ele>121</ele>
        <time>2018-10-12T09:32:47 02:00</time>
      </trkpt>
      <trkpt lat="44.35222" lon="4.85387">
        <ele>121</ele>
        <time>2018-10-12T09:32:48 02:00</time>
      </trkpt>
      <trkpt lat="44.3522" lon="4.85382">
        <ele>122</ele>
        <time>2018-10-12T09:32:49 02:00</time>
      </trkpt>
      <trkpt lat="44.35218" lon="4.85378">
        <ele>122</ele>
        <time>2018-10-12T09:32:50 02:00</time>
      </trkpt>
      <trkpt lat="44.35216" lon="4.85373">
        <ele>122</ele>
        <time>2018-10-12T09:32:51 02:00</time>
      </trkpt>
      <trkpt lat="44.35214" lon="4.85369">
        <ele>122</ele>
        <time>2018-10-12T09:32:52 02:00</time>
      </trkpt>
      <trkpt lat="44.35212" lon="4.85365">
        <ele>122</ele>
        <time>2018-10-12T09:32:53 02:00</time>
      </trkpt>
      <trkpt lat="44.3521" lon="4.85361">
        <ele>122</ele>
        <time>2018-10-12T09:32:54 02:00</time>
      </trkpt>
      <trkpt lat="44.35207" lon="4.85357">
        <ele>122</ele>
        <time>2018-10-12T09:32:55 02:00</time>
      </trkpt>
      <trkpt lat="44.35205" lon="4.85354">
        <ele>122</ele>
        <time>2018-10-12T09:32:56 02:00</time>
      </trkpt>
      <trkpt lat="44.35202" lon="4.8535">
        <ele>122</ele>
        <time>2018-10-12T09:32:57 02:00</time>
      </trkpt>
      <trkpt lat="44.35199" lon="4.85347">
        <ele>122</ele>
        <time>2018-10-12T09:32:58 02:00</time>
      </trkpt>
      <trkpt lat="44.35196" lon="4.85345">
        <ele>122</ele>
        <time>2018-10-12T09:32:59 02:00</time>
      </trkpt>
      <trkpt lat="44.35193" lon="4.85342">
        <ele>122</ele>
        <time>2018-10-12T09:33:00 02:00</time>
      </trkpt>
      <trkpt lat="44.3519" lon="4.85339">
        <ele>122</ele>
        <time>2018-10-12T09:33:01 02:00</time>
      </trkpt>
      <trkpt lat="44.35188" lon="4.85337">
        <ele>122</ele>
        <time>2018-10-12T09:33:02 02:00</time>
      </trkpt>
      <trkpt lat="44.35185" lon="4.85334">
        <ele>122</ele>
        <time>2018-10-12T09:33:03 02:00</time>
      </trkpt>
      <trkpt lat="44.35182" lon="4.85331">
        <ele>122</ele>
        <time>2018-10-12T09:33:04 02:00</time>
      </trkpt>
      <trkpt lat="44.3518" lon="4.85327">
        <ele>122</ele>
        <time>2018-10-12T09:33:05 02:00</time>
      </trkpt>
      <trkpt lat="44.35178" lon="4.85324">
        <ele>122</ele>
        <time>2018-10-12T09:33:06 02:00</time>
      </trkpt>
      <trkpt lat="44.35177" lon="4.8532">
        <ele>122</ele>
        <time>2018-10-12T09:33:07 02:00</time>
      </trkpt>
      <trkpt lat="44.35177" lon="4.85316">
        <ele>122</ele>
        <time>2018-10-12T09:33:08 02:00</time>
      </trkpt>
      <trkpt lat="44.35178" lon="4.85312">
        <ele>122</ele>
        <time>2018-10-12T09:33:09 02:00</time>
      </trkpt>
      <trkpt lat="44.3518" lon="4.85308">
        <ele>123</ele>
        <time>2018-10-12T09:33:10 02:00</time>
      </trkpt>
      <trkpt lat="44.35181" lon="4.85305">
        <ele>123</ele>
        <time>2018-10-12T09:33:11 02:00</time>
      </trkpt>
      <trkpt lat="44.35183" lon="4.85301">
        <ele>123</ele>
        <time>2018-10-12T09:33:12 02:00</time>
      </trkpt>
      <trkpt lat="44.35184" lon="4.85297">
        <ele>123</ele>
        <time>2018-10-12T09:33:13 02:00</time>
      </trkpt>
      <trkpt lat="44.35185" lon="4.85293">
        <ele>123</ele>
        <time>2018-10-12T09:33:14 02:00</time>
      </trkpt>
      <trkpt lat="44.35187" lon="4.85289">
        <ele>124</ele>
        <time>2018-10-12T09:33:15 02:00</time>
      </trkpt>
      <trkpt lat="44.35188" lon="4.85285">
        <ele>124</ele>
        <time>2018-10-12T09:33:16 02:00</time>
      </trkpt>
      <trkpt lat="44.35189" lon="4.85281">
        <ele>124</ele>
        <time>2018-10-12T09:33:17 02:00</time>
      </trkpt>
      <trkpt lat="44.35191" lon="4.85277">
        <ele>124</ele>
        <time>2018-10-12T09:33:18 02:00</time>
      </trkpt>
      <trkpt lat="44.35192" lon="4.85273">
        <ele>125</ele>
        <time>2018-10-12T09:33:19 02:00</time>
      </trkpt>
      <trkpt lat="44.35193" lon="4.85269">
        <ele>125</ele>
        <time>2018-10-12T09:33:20 02:00</time>
      </trkpt>
      <trkpt lat="44.35195" lon="4.85265">
        <ele>125</ele>
        <time>2018-10-12T09:33:21 02:00</time>
      </trkpt>
      <trkpt lat="44.35196" lon="4.85262">
        <ele>125</ele>
        <time>2018-10-12T09:33:22 02:00</time>
      </trkpt>
      <trkpt lat="44.35197" lon="4.85258">
        <ele>126</ele>
        <time>2018-10-12T09:33:23 02:00</time>
      </trkpt>
      <trkpt lat="44.35198" lon="4.85254">
        <ele>126</ele>
        <time>2018-10-12T09:33:24 02:00</time>
      </trkpt>
      <trkpt lat="44.352" lon="4.85251">
        <ele>126</ele>
        <time>2018-10-12T09:33:25 02:00</time>
      </trkpt>
      <trkpt lat="44.35201" lon="4.85247">
        <ele>126</ele>
        <time>2018-10-12T09:33:26 02:00</time>
      </trkpt>
      <trkpt lat="44.35202" lon="4.85244">
        <ele>127</ele>
        <time>2018-10-12T09:33:27 02:00</time>
      </trkpt>
      <trkpt lat="44.35203" lon="4.8524">
        <ele>127</ele>
        <time>2018-10-12T09:33:28 02:00</time>
      </trkpt>
      <trkpt lat="44.35204" lon="4.85237">
        <ele>127</ele>
        <time>2018-10-12T09:33:29 02:00</time>
      </trkpt>
      <trkpt lat="44.35206" lon="4.85233">
        <ele>127</ele>
        <time>2018-10-12T09:33:30 02:00</time>
      </trkpt>
      <trkpt lat="44.35207" lon="4.8523">
        <ele>128</ele>
        <time>2018-10-12T09:33:31 02:00</time>
      </trkpt>
      <trkpt lat="44.35208" lon="4.85227">
        <ele>128</ele>
        <time>2018-10-12T09:33:32 02:00</time>
      </trkpt>
      <trkpt lat="44.35209" lon="4.85223">
        <ele>128</ele>
        <time>2018-10-12T09:33:33 02:00</time>
      </trkpt>
      <trkpt lat="44.3521" lon="4.8522">
        <ele>128</ele>
        <time>2018-10-12T09:33:34 02:00</time>
      </trkpt>
      <trkpt lat="44.35211" lon="4.85217">
        <ele>129</ele>
        <time>2018-10-12T09:33:35 02:00</time>
      </trkpt>
      <trkpt lat="44.35212" lon="4.85214">
        <ele>129</ele>
        <time>2018-10-12T09:33:36 02:00</time>
      </trkpt>
      <trkpt lat="44.35213" lon="4.85211">
        <ele>129</ele>
        <time>2018-10-12T09:33:37 02:00</time>
      </trkpt>
      <trkpt lat="44.35214" lon="4.85207">
        <ele>129</ele>
        <time>2018-10-12T09:33:38 02:00</time>
      </trkpt>
      <trkpt lat="44.35215" lon="4.85204">
        <ele>130</ele>
        <time>2018-10-12T09:33:39 02:00</time>
      </trkpt>
      <trkpt lat="44.35216" lon="4.85201">
        <ele>130</ele>
        <time>2018-10-12T09:33:40 02:00</time>
      </trkpt>
      <trkpt lat="44.35217" lon="4.85198">
        <ele>130</ele>
        <time>2018-10-12T09:33:41 02:00</time>
      </trkpt>
      <trkpt lat="44.35219" lon="4.85195">
        <ele>130</ele>
        <time>2018-10-12T09:33:42 02:00</time>
      </trkpt>
      <trkpt lat="44.3522" lon="4.85193">
        <ele>130</ele>
        <time>2018-10-12T09:33:43 02:00</time>
      </trkpt>
      <trkpt lat="44.35221" lon="4.8519">
        <ele>131</ele>
        <time>2018-10-12T09:33:44 02:00</time>
      </trkpt>
      <trkpt lat="44.35222" lon="4.85187">
        <ele>131</ele>
        <time>2018-10-12T09:33:45 02:00</time>
      </trkpt>
      <trkpt lat="44.35223" lon="4.85184">
        <ele>131</ele>
        <time>2018-10-12T09:33:46 02:00</time>
      </trkpt>
      <trkpt lat="44.35224" lon="4.85182">
        <ele>131</ele>
        <time>2018-10-12T09:33:47 02:00</time>
      </trkpt>
      <trkpt lat="44.35224" lon="4.85179">
        <ele>131</ele>
        <time>2018-10-12T09:33:48 02:00</time>
      </trkpt>
      <trkpt lat="44.35225" lon="4.85177">
        <ele>132</ele>
        <time>2018-10-12T09:33:49 02:00</time>
      </trkpt>
      <trkpt lat="44.35226" lon="4.85175">
        <ele>132</ele>
        <time>2018-10-12T09:33:50 02:00</time>
      </trkpt>
      <trkpt lat="44.35227" lon="4.85172">
        <ele>132</ele>
        <time>2018-10-12T09:33:51 02:00</time>
      </trkpt>
      <trkpt lat="44.35227" lon="4.8517">
        <ele>132</ele>
        <time>2018-10-12T09:33:52 02:00</time>
      </trkpt>
      <trkpt lat="44.35228" lon="4.85168">
        <ele>132</ele>
        <time>2018-10-12T09:33:53 02:00</time>
      </trkpt>
      <trkpt lat="44.35228" lon="4.85166">
        <ele>132</ele>
        <time>2018-10-12T09:33:54 02:00</time>
      </trkpt>
      <trkpt lat="44.35228" lon="4.85164">
        <ele>132</ele>
        <time>2018-10-12T09:33:55 02:00</time>
      </trkpt>
      <trkpt lat="44.35228" lon="4.85163">
        <ele>132</ele>
        <time>2018-10-12T09:33:56 02:00</time>
      </trkpt>
      <trkpt lat="44.35228" lon="4.85161">
        <ele>132</ele>
        <time>2018-10-12T09:33:57 02:00</time>
      </trkpt>
      <trkpt lat="44.35228" lon="4.8516">
        <ele>132</ele>
        <time>2018-10-12T09:33:58 02:00</time>
      </trkpt>
      <trkpt lat="44.35228" lon="4.85159">
        <ele>132</ele>
        <time>2018-10-12T09:33:59 02:00</time>
      </trkpt>
      <trkpt lat="44.35228" lon="4.85158">
        <ele>132</ele>
        <time>2018-10-12T09:34:00 02:00</time>
      </trkpt>
      <trkpt lat="44.35228" lon="4.85157">
        <ele>132</ele>
        <time>2018-10-12T09:34:01 02:00</time>
      </trkpt>
      <trkpt lat="44.35228" lon="4.85157">
        <ele>132</ele>
        <time>2018-10-12T09:34:02 02:00</time>
      </trkpt>
      <trkpt lat="44.35228" lon="4.85157">
        <ele>132</ele>
        <time>2018-10-12T09:34:03 02:00</time>
      </trkpt>
      <trkpt lat="44.35228" lon="4.85157">
        <ele>132</ele>
        <time>2018-10-12T09:34:04 02:00</time>
      </trkpt>
      <trkpt lat="44.35228" lon="4.85157">
        <ele>132</ele>
        <time>2018-10-12T09:34:05 02:00</time>
      </trkpt>
      <trkpt lat="44.35228" lon="4.85157">
        <ele>132</ele>
        <time>2018-10-12T09:34:06 02:00</time>
      </trkpt>
      <trkpt lat="44.35228" lon="4.85157">
        <ele>132</ele>
        <time>2018-10-12T09:34:07 02:00</time>
      </trkpt>
      <trkpt lat="44.35228" lon="4.85157">
        <ele>132</ele>
        <time>2018-10-12T09:34:08 02:00</time>
      </trkpt>
      <trkpt lat="44.35228" lon="4.85157">
        <ele>132</ele>
        <time>2018-10-12T09:34:09 02:00</time>
      </trkpt>
      <trkpt lat="44.35228" lon="4.85157">
        <ele>132</ele>
        <time>2018-10-12T09:34:10 02:00</time>
      </trkpt>
      <trkpt lat="44.35228" lon="4.85157">
        <ele>132</ele>
        <time>2018-10-12T09:34:11 02:00</time>
      </trkpt>
      <trkpt lat="44.35228" lon="4.85157">
        <ele>132</ele>
        <time>2018-10-12T09:34:12 02:00</time>
      </trkpt>
      <trkpt lat="44.35228" lon="4.85157">
        <ele>132</ele>
        <time>2018-10-12T09:34:13 02:00</time>
      </trkpt>
      <trkpt lat="44.35228" lon="4.85157">
        <ele>132</ele>
        <time>2018-10-12T09:34:14 02:00</time>
      </trkpt>
      <trkpt lat="44.35228" lon="4.85157">
        <ele>132</ele>
        <time>2018-10-12T09:34:15 02:00</time>
      </trkpt>
      <trkpt lat="44.35228" lon="4.85157">
        <ele>132</ele>
        <time>2018-10-12T09:34:16 02:00</time>
      </trkpt>
      <trkpt lat="44.35228" lon="4.85157">
        <ele>132</ele>
        <time>2018-10-12T09:34:17 02:00</time>
      </trkpt>
      <trkpt lat="44.35228" lon="4.85157">
        <ele>132</ele>
        <time>2018-10-12T09:34:18 02:00</time>
      </trkpt>
      <trkpt lat="44.35228" lon="4.85156">
        <ele>132</ele>
        <time>2018-10-12T09:34:19 02:00</time>
      </trkpt>
      <trkpt lat="44.35228" lon="4.85155">
        <ele>132</ele>
        <time>2018-10-12T09:34:20 02:00</time>
      </trkpt>
      <trkpt lat="44.35228" lon="4.85154">
        <ele>132</ele>
        <time>2018-10-12T09:34:21 02:00</time>
      </trkpt>
      <trkpt lat="44.35228" lon="4.85152">
        <ele>133</ele>
        <time>2018-10-12T09:34:22 02:00</time>
      </trkpt>
      <trkpt lat="44.35228" lon="4.85149">
        <ele>133</ele>
        <time>2018-10-12T09:34:23 02:00</time>
      </trkpt>
      <trkpt lat="44.35229" lon="4.85146">
        <ele>133</ele>
        <time>2018-10-12T09:34:24 02:00</time>
      </trkpt>
      <trkpt lat="44.35229" lon="4.85143">
        <ele>133</ele>
        <time>2018-10-12T09:34:25 02:00</time>
      </trkpt>
      <trkpt lat="44.3523" lon="4.8514">
        <ele>133</ele>
        <time>2018-10-12T09:34:26 02:00</time>
      </trkpt>
      <trkpt lat="44.3523" lon="4.85138">
        <ele>133</ele>
        <time>2018-10-12T09:34:27 02:00</time>
      </trkpt>
      <trkpt lat="44.35231" lon="4.85135">
        <ele>133</ele>
        <time>2018-10-12T09:34:28 02:00</time>
      </trkpt>
      <trkpt lat="44.35231" lon="4.85132">
        <ele>133</ele>
        <time>2018-10-12T09:34:29 02:00</time>
      </trkpt>
      <trkpt lat="44.35232" lon="4.85129">
        <ele>133</ele>
        <time>2018-10-12T09:34:30 02:00</time>
      </trkpt>
      <trkpt lat="44.35232" lon="4.85126">
        <ele>133</ele>
        <time>2018-10-12T09:34:31 02:00</time>
      </trkpt>
      <trkpt lat="44.35233" lon="4.85123">
        <ele>133</ele>
        <time>2018-10-12T09:34:32 02:00</time>
      </trkpt>
      <trkpt lat="44.35234" lon="4.8512">
        <ele>133</ele>
        <time>2018-10-12T09:34:33 02:00</time>
      </trkpt>
      <trkpt lat="44.35234" lon="4.85117">
        <ele>133</ele>
        <time>2018-10-12T09:34:34 02:00</time>
      </trkpt>
      <trkpt lat="44.35235" lon="4.85114">
        <ele>133</ele>
        <time>2018-10-12T09:34:35 02:00</time>
      </trkpt>
      <trkpt lat="44.35235" lon="4.8511">
        <ele>134</ele>
        <time>2018-10-12T09:34:36 02:00</time>
      </trkpt>
      <trkpt lat="44.35236" lon="4.85107">
        <ele>134</ele>
        <time>2018-10-12T09:34:37 02:00</time>
      </trkpt>
      <trkpt lat="44.35236" lon="4.85104">
        <ele>134</ele>
        <time>2018-10-12T09:34:38 02:00</time>
      </trkpt>
      <trkpt lat="44.35237" lon="4.851">
        <ele>134</ele>
        <time>2018-10-12T09:34:39 02:00</time>
      </trkpt>
      <trkpt lat="44.35237" lon="4.85097">
        <ele>134</ele>
        <time>2018-10-12T09:34:40 02:00</time>
      </trkpt>
      <trkpt lat="44.35238" lon="4.85094">
        <ele>134</ele>
        <time>2018-10-12T09:34:41 02:00</time>
      </trkpt>
      <trkpt lat="44.35238" lon="4.8509">
        <ele>134</ele>
        <time>2018-10-12T09:34:42 02:00</time>
      </trkpt>
      <trkpt lat="44.35239" lon="4.85087">
        <ele>134</ele>
        <time>2018-10-12T09:34:43 02:00</time>
      </trkpt>
      <trkpt lat="44.35239" lon="4.85083">
        <ele>134</ele>
        <time>2018-10-12T09:34:44 02:00</time>
      </trkpt>
      <trkpt lat="44.3524" lon="4.8508">
        <ele>134</ele>
        <time>2018-10-12T09:34:45 02:00</time>
      </trkpt>
      <trkpt lat="44.3524" lon="4.85076">
        <ele>134</ele>
        <time>2018-10-12T09:34:46 02:00</time>
      </trkpt>
      <trkpt lat="44.35241" lon="4.85073">
        <ele>134</ele>
        <time>2018-10-12T09:34:47 02:00</time>
      </trkpt>
      <trkpt lat="44.35242" lon="4.85069">
        <ele>134</ele>
        <time>2018-10-12T09:34:48 02:00</time>
      </trkpt>
      <trkpt lat="44.35242" lon="4.85066">
        <ele>134</ele>
        <time>2018-10-12T09:34:49 02:00</time>
      </trkpt>
      <trkpt lat="44.35243" lon="4.85062">
        <ele>134</ele>
        <time>2018-10-12T09:34:50 02:00</time>
      </trkpt>
      <trkpt lat="44.35243" lon="4.85058">
        <ele>134</ele>
        <time>2018-10-12T09:34:51 02:00</time>
      </trkpt>
      <trkpt lat="44.35244" lon="4.85055">
        <ele>134</ele>
        <time>2018-10-12T09:34:52 02:00</time>
      </trkpt>
      <trkpt lat="44.35245" lon="4.85051">
        <ele>134</ele>
        <time>2018-10-12T09:34:53 02:00</time>
      </trkpt>
      <trkpt lat="44.35245" lon="4.85047">
        <ele>134</ele>
        <time>2018-10-12T09:34:54 02:00</time>
      </trkpt>
      <trkpt lat="44.35246" lon="4.85043">
        <ele>134</ele>
        <time>2018-10-12T09:34:55 02:00</time>
      </trkpt>
      <trkpt lat="44.35247" lon="4.8504">
        <ele>133</ele>
        <time>2018-10-12T09:34:56 02:00</time>
      </trkpt>
      <trkpt lat="44.35247" lon="4.85036">
        <ele>133</ele>
        <time>2018-10-12T09:34:57 02:00</time>
      </trkpt>
      <trkpt lat="44.35248" lon="4.85032">
        <ele>133</ele>
        <time>2018-10-12T09:34:58 02:00</time>
      </trkpt>
      <trkpt lat="44.35249" lon="4.85028">
        <ele>133</ele>
        <time>2018-10-12T09:34:59 02:00</time>
      </trkpt>
      <trkpt lat="44.35249" lon="4.85024">
        <ele>133</ele>
        <time>2018-10-12T09:35:00 02:00</time>
      </trkpt>
      <trkpt lat="44.3525" lon="4.8502">
        <ele>133</ele>
        <time>2018-10-12T09:35:01 02:00</time>
      </trkpt>
      <trkpt lat="44.3525" lon="4.85016">
        <ele>133</ele>
        <time>2018-10-12T09:35:02 02:00</time>
      </trkpt>
      <trkpt lat="44.35251" lon="4.85012">
        <ele>133</ele>
        <time>2018-10-12T09:35:03 02:00</time>
      </trkpt>
      <trkpt lat="44.35252" lon="4.85008">
        <ele>133</ele>
        <time>2018-10-12T09:35:04 02:00</time>
      </trkpt>
      <trkpt lat="44.35252" lon="4.85004">
        <ele>133</ele>
        <time>2018-10-12T09:35:05 02:00</time>
      </trkpt>
      <trkpt lat="44.35253" lon="4.85">
        <ele>133</ele>
        <time>2018-10-12T09:35:06 02:00</time>
      </trkpt>
      <trkpt lat="44.35253" lon="4.84996">
        <ele>133</ele>
        <time>2018-10-12T09:35:07 02:00</time>
      </trkpt>
      <trkpt lat="44.35253" lon="4.84992">
        <ele>133</ele>
        <time>2018-10-12T09:35:08 02:00</time>
      </trkpt>
      <trkpt lat="44.35254" lon="4.84988">
        <ele>133</ele>
        <time>2018-10-12T09:35:09 02:00</time>
      </trkpt>
      <trkpt lat="44.35254" lon="4.84984">
        <ele>133</ele>
        <time>2018-10-12T09:35:10 02:00</time>
      </trkpt>
      <trkpt lat="44.35254" lon="4.8498">
        <ele>133</ele>
        <time>2018-10-12T09:35:11 02:00</time>
      </trkpt>
      <trkpt lat="44.35255" lon="4.84976">
        <ele>133</ele>
        <time>2018-10-12T09:35:12 02:00</time>
      </trkpt>
      <trkpt lat="44.35255" lon="4.84972">
        <ele>133</ele>
        <time>2018-10-12T09:35:13 02:00</time>
      </trkpt>
      <trkpt lat="44.35255" lon="4.84968">
        <ele>133</ele>
        <time>2018-10-12T09:35:14 02:00</time>
      </trkpt>
      <trkpt lat="44.35255" lon="4.84964">
        <ele>133</ele>
        <time>2018-10-12T09:35:15 02:00</time>
      </trkpt>
      <trkpt lat="44.35256" lon="4.8496">
        <ele>133</ele>
        <time>2018-10-12T09:35:16 02:00</time>
      </trkpt>
      <trkpt lat="44.35256" lon="4.84956">
        <ele>133</ele>
        <time>2018-10-12T09:35:17 02:00</time>
      </trkpt>
      <trkpt lat="44.35257" lon="4.84952">
        <ele>133</ele>
        <time>2018-10-12T09:35:18 02:00</time>
      </trkpt>
      <trkpt lat="44.35257" lon="4.84948">
        <ele>133</ele>
        <time>2018-10-12T09:35:19 02:00</time>
      </trkpt>
      <trkpt lat="44.35258" lon="4.84944">
        <ele>133</ele>
        <time>2018-10-12T09:35:20 02:00</time>
      </trkpt>
      <trkpt lat="44.35258" lon="4.8494">
        <ele>133</ele>
        <time>2018-10-12T09:35:21 02:00</time>
      </trkpt>
      <trkpt lat="44.35259" lon="4.84936">
        <ele>133</ele>
        <time>2018-10-12T09:35:22 02:00</time>
      </trkpt>
      <trkpt lat="44.35259" lon="4.84932">
        <ele>133</ele>
        <time>2018-10-12T09:35:23 02:00</time>
      </trkpt>
      <trkpt lat="44.35259" lon="4.84928">
        <ele>133</ele>
        <time>2018-10-12T09:35:24 02:00</time>
      </trkpt>
      <trkpt lat="44.35259" lon="4.84924">
        <ele>133</ele>
        <time>2018-10-12T09:35:25 02:00</time>
      </trkpt>
      <trkpt lat="44.35259" lon="4.84921">
        <ele>133</ele>
        <time>2018-10-12T09:35:26 02:00</time>
      </trkpt>
      <trkpt lat="44.3526" lon="4.84917">
        <ele>133</ele>
        <time>2018-10-12T09:35:27 02:00</time>
      </trkpt>
      <trkpt lat="44.3526" lon="4.84913">
        <ele>133</ele>
        <time>2018-10-12T09:35:28 02:00</time>
      </trkpt>
      <trkpt lat="44.3526" lon="4.8491">
        <ele>133</ele>
        <time>2018-10-12T09:35:29 02:00</time>
      </trkpt>
      <trkpt lat="44.3526" lon="4.84906">
        <ele>133</ele>
        <time>2018-10-12T09:35:30 02:00</time>
      </trkpt>
      <trkpt lat="44.3526" lon="4.84903">
        <ele>133</ele>
        <time>2018-10-12T09:35:31 02:00</time>
      </trkpt>
      <trkpt lat="44.35261" lon="4.84899">
        <ele>133</ele>
        <time>2018-10-12T09:35:32 02:00</time>
      </trkpt>
      <trkpt lat="44.35261" lon="4.84895">
        <ele>133</ele>
        <time>2018-10-12T09:35:33 02:00</time>
      </trkpt>
      <trkpt lat="44.35261" lon="4.84892">
        <ele>133</ele>
        <time>2018-10-12T09:35:34 02:00</time>
      </trkpt>
      <trkpt lat="44.35261" lon="4.84888">
        <ele>133</ele>
        <time>2018-10-12T09:35:35 02:00</time>
      </trkpt>
      <trkpt lat="44.35262" lon="4.84884">
        <ele>133</ele>
        <time>2018-10-12T09:35:36 02:00</time>
      </trkpt>
      <trkpt lat="44.35262" lon="4.8488">
        <ele>132</ele>
        <time>2018-10-12T09:35:37 02:00</time>
      </trkpt>
      <trkpt lat="44.35262" lon="4.84876">
        <ele>132</ele>
        <time>2018-10-12T09:35:38 02:00</time>
      </trkpt>
      <trkpt lat="44.35262" lon="4.84872">
        <ele>132</ele>
        <time>2018-10-12T09:35:39 02:00</time>
      </trkpt>
      <trkpt lat="44.35262" lon="4.84868">
        <ele>132</ele>
        <time>2018-10-12T09:35:40 02:00</time>
      </trkpt>
      <trkpt lat="44.35263" lon="4.84864">
        <ele>132</ele>
        <time>2018-10-12T09:35:41 02:00</time>
      </trkpt>
      <trkpt lat="44.35263" lon="4.8486">
        <ele>132</ele>
        <time>2018-10-12T09:35:42 02:00</time>
      </trkpt>
      <trkpt lat="44.35263" lon="4.84856">
        <ele>132</ele>
        <time>2018-10-12T09:35:43 02:00</time>
      </trkpt>
      <trkpt lat="44.35263" lon="4.84852">
        <ele>132</ele>
        <time>2018-10-12T09:35:44 02:00</time>
      </trkpt>
      <trkpt lat="44.35264" lon="4.84848">
        <ele>132</ele>
        <time>2018-10-12T09:35:45 02:00</time>
      </trkpt>
      <trkpt lat="44.35264" lon="4.84844">
        <ele>132</ele>
        <time>2018-10-12T09:35:46 02:00</time>
      </trkpt>
      <trkpt lat="44.35264" lon="4.8484">
        <ele>132</ele>
        <time>2018-10-12T09:35:47 02:00</time>
      </trkpt>
      <trkpt lat="44.35264" lon="4.84836">
        <ele>132</ele>
        <time>2018-10-12T09:35:48 02:00</time>
      </trkpt>
      <trkpt lat="44.35264" lon="4.84832">
        <ele>132</ele>
        <time>2018-10-12T09:35:49 02:00</time>
      </trkpt>
      <trkpt lat="44.35264" lon="4.84828">
        <ele>132</ele>
        <time>2018-10-12T09:35:50 02:00</time>
      </trkpt>
      <trkpt lat="44.35264" lon="4.84825">
        <ele>132</ele>
        <time>2018-10-12T09:35:51 02:00</time>
      </trkpt>
      <trkpt lat="44.35264" lon="4.84821">
        <ele>132</ele>
        <time>2018-10-12T09:35:52 02:00</time>
      </trkpt>
      <trkpt lat="44.35265" lon="4.84818">
        <ele>132</ele>
        <time>2018-10-12T09:35:53 02:00</time>
      </trkpt>
      <trkpt lat="44.35266" lon="4.84816">
        <ele>132</ele>
        <time>2018-10-12T09:35:54 02:00</time>
      </trkpt>
      <trkpt lat="44.35268" lon="4.84814">
        <ele>132</ele>
        <time>2018-10-12T09:35:55 02:00</time>
      </trkpt>
      <trkpt lat="44.35271" lon="4.84814">
        <ele>132</ele>
        <time>2018-10-12T09:35:56 02:00</time>
      </trkpt>
      <trkpt lat="44.35273" lon="4.84815">
        <ele>131</ele>
        <time>2018-10-12T09:35:57 02:00</time>
      </trkpt>
      <trkpt lat="44.35275" lon="4.84816">
        <ele>131</ele>
        <time>2018-10-12T09:35:58 02:00</time>
      </trkpt>
      <trkpt lat="44.35277" lon="4.84817">
        <ele>131</ele>
        <time>2018-10-12T09:35:59 02:00</time>
      </trkpt>
      <trkpt lat="44.35279" lon="4.84818">
        <ele>131</ele>
        <time>2018-10-12T09:36:00 02:00</time>
      </trkpt>
      <trkpt lat="44.35281" lon="4.8482">
        <ele>131</ele>
        <time>2018-10-12T09:36:01 02:00</time>
      </trkpt>
      <trkpt lat="44.35283" lon="4.84821">
        <ele>131</ele>
        <time>2018-10-12T09:36:02 02:00</time>
      </trkpt>
      <trkpt lat="44.35285" lon="4.84823">
        <ele>131</ele>
        <time>2018-10-12T09:36:03 02:00</time>
      </trkpt>
      <trkpt lat="44.35287" lon="4.84825">
        <ele>131</ele>
        <time>2018-10-12T09:36:04 02:00</time>
      </trkpt>
      <trkpt lat="44.3529" lon="4.84826">
        <ele>131</ele>
        <time>2018-10-12T09:36:05 02:00</time>
      </trkpt>
      <trkpt lat="44.35292" lon="4.84828">
        <ele>131</ele>
        <time>2018-10-12T09:36:06 02:00</time>
      </trkpt>
      <trkpt lat="44.35294" lon="4.84829">
        <ele>131</ele>
        <time>2018-10-12T09:36:07 02:00</time>
      </trkpt>
      <trkpt lat="44.35296" lon="4.84831">
        <ele>131</ele>
        <time>2018-10-12T09:36:08 02:00</time>
      </trkpt>
      <trkpt lat="44.35299" lon="4.84833">
        <ele>131</ele>
        <time>2018-10-12T09:36:09 02:00</time>
      </trkpt>
      <trkpt lat="44.35301" lon="4.84834">
        <ele>131</ele>
        <time>2018-10-12T09:36:10 02:00</time>
      </trkpt>
      <trkpt lat="44.35303" lon="4.84836">
        <ele>131</ele>
        <time>2018-10-12T09:36:11 02:00</time>
      </trkpt>
      <trkpt lat="44.35306" lon="4.84838">
        <ele>131</ele>
        <time>2018-10-12T09:36:12 02:00</time>
      </trkpt>
      <trkpt lat="44.35308" lon="4.84839">
        <ele>131</ele>
        <time>2018-10-12T09:36:13 02:00</time>
      </trkpt>
      <trkpt lat="44.35311" lon="4.84841">
        <ele>131</ele>
        <time>2018-10-12T09:36:14 02:00</time>
      </trkpt>
      <trkpt lat="44.35313" lon="4.84843">
        <ele>131</ele>
        <time>2018-10-12T09:36:15 02:00</time>
      </trkpt>
      <trkpt lat="44.35316" lon="4.84844">
        <ele>131</ele>
        <time>2018-10-12T09:36:16 02:00</time>
      </trkpt>
      <trkpt lat="44.35318" lon="4.84846">
        <ele>131</ele>
        <time>2018-10-12T09:36:17 02:00</time>
      </trkpt>
      <trkpt lat="44.35321" lon="4.84848">
        <ele>131</ele>
        <time>2018-10-12T09:36:18 02:00</time>
      </trkpt>
      <trkpt lat="44.35324" lon="4.84849">
        <ele>131</ele>
        <time>2018-10-12T09:36:19 02:00</time>
      </trkpt>
      <trkpt lat="44.35326" lon="4.84851">
        <ele>131</ele>
        <time>2018-10-12T09:36:20 02:00</time>
      </trkpt>
      <trkpt lat="44.35329" lon="4.84852">
        <ele>132</ele>
        <time>2018-10-12T09:36:21 02:00</time>
      </trkpt>
      <trkpt lat="44.35331" lon="4.84854">
        <ele>132</ele>
        <time>2018-10-12T09:36:22 02:00</time>
      </trkpt>
      <trkpt lat="44.35334" lon="4.84856">
        <ele>132</ele>
        <time>2018-10-12T09:36:23 02:00</time>
      </trkpt>
      <trkpt lat="44.35336" lon="4.84857">
        <ele>131</ele>
        <time>2018-10-12T09:36:24 02:00</time>
      </trkpt>
      <trkpt lat="44.35339" lon="4.84859">
        <ele>131</ele>
        <time>2018-10-12T09:36:25 02:00</time>
      </trkpt>
      <trkpt lat="44.35342" lon="4.84861">
        <ele>131</ele>
        <time>2018-10-12T09:36:26 02:00</time>
      </trkpt>
      <trkpt lat="44.35344" lon="4.84862">
        <ele>131</ele>
        <time>2018-10-12T09:36:27 02:00</time>
      </trkpt>
      <trkpt lat="44.35347" lon="4.84864">
        <ele>131</ele>
        <time>2018-10-12T09:36:28 02:00</time>
      </trkpt>
      <trkpt lat="44.3535" lon="4.84866">
        <ele>131</ele>
        <time>2018-10-12T09:36:29 02:00</time>
      </trkpt>
      <trkpt lat="44.35352" lon="4.84867">
        <ele>131</ele>
        <time>2018-10-12T09:36:30 02:00</time>
      </trkpt>
      <trkpt lat="44.35355" lon="4.84869">
        <ele>131</ele>
        <time>2018-10-12T09:36:31 02:00</time>
      </trkpt>
      <trkpt lat="44.35357" lon="4.84871">
        <ele>131</ele>
        <time>2018-10-12T09:36:32 02:00</time>
      </trkpt>
      <trkpt lat="44.3536" lon="4.84872">
        <ele>131</ele>
        <time>2018-10-12T09:36:33 02:00</time>
      </trkpt>
      <trkpt lat="44.35363" lon="4.84874">
        <ele>131</ele>
        <time>2018-10-12T09:36:34 02:00</time>
      </trkpt>
      <trkpt lat="44.35365" lon="4.84876">
        <ele>131</ele>
        <time>2018-10-12T09:36:35 02:00</time>
      </trkpt>
      <trkpt lat="44.35368" lon="4.84877">
        <ele>131</ele>
        <time>2018-10-12T09:36:36 02:00</time>
      </trkpt>
      <trkpt lat="44.35371" lon="4.84879">
        <ele>131</ele>
        <time>2018-10-12T09:36:37 02:00</time>
      </trkpt>
      <trkpt lat="44.35373" lon="4.84881">
        <ele>132</ele>
        <time>2018-10-12T09:36:38 02:00</time>
      </trkpt>
      <trkpt lat="44.35376" lon="4.84882">
        <ele>132</ele>
        <time>2018-10-12T09:36:39 02:00</time>
      </trkpt>
      <trkpt lat="44.35379" lon="4.84884">
        <ele>132</ele>
        <time>2018-10-12T09:36:40 02:00</time>
      </trkpt>
      <trkpt lat="44.35381" lon="4.84886">
        <ele>132</ele>
        <time>2018-10-12T09:36:41 02:00</time>
      </trkpt>
      <trkpt lat="44.35384" lon="4.84887">
        <ele>132</ele>
        <time>2018-10-12T09:36:42 02:00</time>
      </trkpt>
      <trkpt lat="44.35387" lon="4.84889">
        <ele>132</ele>
        <time>2018-10-12T09:36:43 02:00</time>
      </trkpt>
      <trkpt lat="44.35389" lon="4.8489">
        <ele>132</ele>
        <time>2018-10-12T09:36:44 02:00</time>
      </trkpt>
      <trkpt lat="44.35392" lon="4.84892">
        <ele>132</ele>
        <time>2018-10-12T09:36:45 02:00</time>
      </trkpt>
      <trkpt lat="44.35395" lon="4.84894">
        <ele>132</ele>
        <time>2018-10-12T09:36:46 02:00</time>
      </trkpt>
      <trkpt lat="44.35397" lon="4.84895">
        <ele>132</ele>
        <time>2018-10-12T09:36:47 02:00</time>
      </trkpt>
      <trkpt lat="44.354" lon="4.84897">
        <ele>132</ele>
        <time>2018-10-12T09:36:48 02:00</time>
      </trkpt>
      <trkpt lat="44.35403" lon="4.84898">
        <ele>132</ele>
        <time>2018-10-12T09:36:49 02:00</time>
      </trkpt>
      <trkpt lat="44.35405" lon="4.84899">
        <ele>132</ele>
        <time>2018-10-12T09:36:50 02:00</time>
      </trkpt>
      <trkpt lat="44.35408" lon="4.84901">
        <ele>132</ele>
        <time>2018-10-12T09:36:51 02:00</time>
      </trkpt>
      <trkpt lat="44.35411" lon="4.84902">
        <ele>132</ele>
        <time>2018-10-12T09:36:52 02:00</time>
      </trkpt>
      <trkpt lat="44.35414" lon="4.84904">
        <ele>132</ele>
        <time>2018-10-12T09:36:53 02:00</time>
      </trkpt>
      <trkpt lat="44.35416" lon="4.84905">
        <ele>132</ele>
        <time>2018-10-12T09:36:54 02:00</time>
      </trkpt>
      <trkpt lat="44.35419" lon="4.84906">
        <ele>132</ele>
        <time>2018-10-12T09:36:55 02:00</time>
      </trkpt>
      <trkpt lat="44.35422" lon="4.84908">
        <ele>132</ele>
        <time>2018-10-12T09:36:56 02:00</time>
      </trkpt>
      <trkpt lat="44.35425" lon="4.84909">
        <ele>132</ele>
        <time>2018-10-12T09:36:57 02:00</time>
      </trkpt>
      <trkpt lat="44.35428" lon="4.8491">
        <ele>133</ele>
        <time>2018-10-12T09:36:58 02:00</time>
      </trkpt>
      <trkpt lat="44.35431" lon="4.84912">
        <ele>133</ele>
        <time>2018-10-12T09:36:59 02:00</time>
      </trkpt>
      <trkpt lat="44.35434" lon="4.84913">
        <ele>133</ele>
        <time>2018-10-12T09:37:00 02:00</time>
      </trkpt>
      <trkpt lat="44.35437" lon="4.84915">
        <ele>133</ele>
        <time>2018-10-12T09:37:01 02:00</time>
      </trkpt>
      <trkpt lat="44.3544" lon="4.84916">
        <ele>133</ele>
        <time>2018-10-12T09:37:02 02:00</time>
      </trkpt>
      <trkpt lat="44.35443" lon="4.84917">
        <ele>133</ele>
        <time>2018-10-12T09:37:03 02:00</time>
      </trkpt>
      <trkpt lat="44.35446" lon="4.84919">
        <ele>133</ele>
        <time>2018-10-12T09:37:04 02:00</time>
      </trkpt>
      <trkpt lat="44.35449" lon="4.8492">
        <ele>133</ele>
        <time>2018-10-12T09:37:05 02:00</time>
      </trkpt>
      <trkpt lat="44.35451" lon="4.84922">
        <ele>133</ele>
        <time>2018-10-12T09:37:06 02:00</time>
      </trkpt>
      <trkpt lat="44.35454" lon="4.84923">
        <ele>133</ele>
        <time>2018-10-12T09:37:07 02:00</time>
      </trkpt>
      <trkpt lat="44.35457" lon="4.84925">
        <ele>133</ele>
        <time>2018-10-12T09:37:08 02:00</time>
      </trkpt>
      <trkpt lat="44.3546" lon="4.84926">
        <ele>133</ele>
        <time>2018-10-12T09:37:09 02:00</time>
      </trkpt>
      <trkpt lat="44.35463" lon="4.84927">
        <ele>133</ele>
        <time>2018-10-12T09:37:10 02:00</time>
      </trkpt>
      <trkpt lat="44.35466" lon="4.84929">
        <ele>133</ele>
        <time>2018-10-12T09:37:11 02:00</time>
      </trkpt>
      <trkpt lat="44.35469" lon="4.8493">
        <ele>133</ele>
        <time>2018-10-12T09:37:12 02:00</time>
      </trkpt>
      <trkpt lat="44.35472" lon="4.84931">
        <ele>133</ele>
        <time>2018-10-12T09:37:13 02:00</time>
      </trkpt>
      <trkpt lat="44.35475" lon="4.84932">
        <ele>133</ele>
        <time>2018-10-12T09:37:14 02:00</time>
      </trkpt>
      <trkpt lat="44.35478" lon="4.84933">
        <ele>133</ele>
        <time>2018-10-12T09:37:15 02:00</time>
      </trkpt>
      <trkpt lat="44.35481" lon="4.84934">
        <ele>133</ele>
        <time>2018-10-12T09:37:16 02:00</time>
      </trkpt>
      <trkpt lat="44.35483" lon="4.84935">
        <ele>133</ele>
        <time>2018-10-12T09:37:17 02:00</time>
      </trkpt>
      <trkpt lat="44.35486" lon="4.84935">
        <ele>133</ele>
        <time>2018-10-12T09:37:18 02:00</time>
      </trkpt>
      <trkpt lat="44.35489" lon="4.84936">
        <ele>133</ele>
        <time>2018-10-12T09:37:19 02:00</time>
      </trkpt>
      <trkpt lat="44.35492" lon="4.84937">
        <ele>133</ele>
        <time>2018-10-12T09:37:20 02:00</time>
      </trkpt>
      <trkpt lat="44.35495" lon="4.84938">
        <ele>133</ele>
        <time>2018-10-12T09:37:21 02:00</time>
      </trkpt>
      <trkpt lat="44.35498" lon="4.8494">
        <ele>133</ele>
        <time>2018-10-12T09:37:22 02:00</time>
      </trkpt>
      <trkpt lat="44.35501" lon="4.84941">
        <ele>133</ele>
        <time>2018-10-12T09:37:23 02:00</time>
      </trkpt>
      <trkpt lat="44.35503" lon="4.84942">
        <ele>133</ele>
        <time>2018-10-12T09:37:24 02:00</time>
      </trkpt>
      <trkpt lat="44.35506" lon="4.84944">
        <ele>133</ele>
        <time>2018-10-12T09:37:25 02:00</time>
      </trkpt>
      <trkpt lat="44.35509" lon="4.84945">
        <ele>133</ele>
        <time>2018-10-12T09:37:26 02:00</time>
      </trkpt>
      <trkpt lat="44.35512" lon="4.84946">
        <ele>133</ele>
        <time>2018-10-12T09:37:27 02:00</time>
      </trkpt>
      <trkpt lat="44.35515" lon="4.84948">
        <ele>133</ele>
        <time>2018-10-12T09:37:28 02:00</time>
      </trkpt>
      <trkpt lat="44.35517" lon="4.8495">
        <ele>133</ele>
        <time>2018-10-12T09:37:29 02:00</time>
      </trkpt>
      <trkpt lat="44.3552" lon="4.84951">
        <ele>133</ele>
        <time>2018-10-12T09:37:30 02:00</time>
      </trkpt>
      <trkpt lat="44.35523" lon="4.84953">
        <ele>133</ele>
        <time>2018-10-12T09:37:31 02:00</time>
      </trkpt>
      <trkpt lat="44.35525" lon="4.84954">
        <ele>133</ele>
        <time>2018-10-12T09:37:32 02:00</time>
      </trkpt>
      <trkpt lat="44.35528" lon="4.84956">
        <ele>133</ele>
        <time>2018-10-12T09:37:33 02:00</time>
      </trkpt>
      <trkpt lat="44.3553" lon="4.84957">
        <ele>133</ele>
        <time>2018-10-12T09:37:34 02:00</time>
      </trkpt>
      <trkpt lat="44.35533" lon="4.84958">
        <ele>133</ele>
        <time>2018-10-12T09:37:35 02:00</time>
      </trkpt>
      <trkpt lat="44.35535" lon="4.8496">
        <ele>133</ele>
        <time>2018-10-12T09:37:36 02:00</time>
      </trkpt>
      <trkpt lat="44.35538" lon="4.84961">
        <ele>133</ele>
        <time>2018-10-12T09:37:37 02:00</time>
      </trkpt>
      <trkpt lat="44.3554" lon="4.84962">
        <ele>133</ele>
        <time>2018-10-12T09:37:38 02:00</time>
      </trkpt>
      <trkpt lat="44.35543" lon="4.84964">
        <ele>133</ele>
        <time>2018-10-12T09:37:39 02:00</time>
      </trkpt>
      <trkpt lat="44.35546" lon="4.84965">
        <ele>133</ele>
        <time>2018-10-12T09:37:40 02:00</time>
      </trkpt>
      <trkpt lat="44.35548" lon="4.84966">
        <ele>133</ele>
        <time>2018-10-12T09:37:41 02:00</time>
      </trkpt>
      <trkpt lat="44.35551" lon="4.84968">
        <ele>133</ele>
        <time>2018-10-12T09:37:42 02:00</time>
      </trkpt>
      <trkpt lat="44.35554" lon="4.84969">
        <ele>133</ele>
        <time>2018-10-12T09:37:43 02:00</time>
      </trkpt>
      <trkpt lat="44.35557" lon="4.8497">
        <ele>133</ele>
        <time>2018-10-12T09:37:44 02:00</time>
      </trkpt>
      <trkpt lat="44.3556" lon="4.84972">
        <ele>133</ele>
        <time>2018-10-12T09:37:45 02:00</time>
      </trkpt>
      <trkpt lat="44.35563" lon="4.84974">
        <ele>133</ele>
        <time>2018-10-12T09:37:46 02:00</time>
      </trkpt>
      <trkpt lat="44.35566" lon="4.84975">
        <ele>133</ele>
        <time>2018-10-12T09:37:47 02:00</time>
      </trkpt>
      <trkpt lat="44.35569" lon="4.84977">
        <ele>133</ele>
        <time>2018-10-12T09:37:48 02:00</time>
      </trkpt>
      <trkpt lat="44.35572" lon="4.84978">
        <ele>132</ele>
        <time>2018-10-12T09:37:49 02:00</time>
      </trkpt>
      <trkpt lat="44.35575" lon="4.8498">
        <ele>132</ele>
        <time>2018-10-12T09:37:50 02:00</time>
      </trkpt>
      <trkpt lat="44.35578" lon="4.84982">
        <ele>132</ele>
        <time>2018-10-12T09:37:51 02:00</time>
      </trkpt>
      <trkpt lat="44.35581" lon="4.84983">
        <ele>132</ele>
        <time>2018-10-12T09:37:52 02:00</time>
      </trkpt>
      <trkpt lat="44.35584" lon="4.84985">
        <ele>132</ele>
        <time>2018-10-12T09:37:53 02:00</time>
      </trkpt>
      <trkpt lat="44.35587" lon="4.84986">
        <ele>133</ele>
        <time>2018-10-12T09:37:54 02:00</time>
      </trkpt>
      <trkpt lat="44.3559" lon="4.84988">
        <ele>133</ele>
        <time>2018-10-12T09:37:55 02:00</time>
      </trkpt>
      <trkpt lat="44.35593" lon="4.84989">
        <ele>133</ele>
        <time>2018-10-12T09:37:56 02:00</time>
      </trkpt>
      <trkpt lat="44.35596" lon="4.84991">
        <ele>133</ele>
        <time>2018-10-12T09:37:57 02:00</time>
      </trkpt>
      <trkpt lat="44.35598" lon="4.84992">
        <ele>133</ele>
        <time>2018-10-12T09:37:58 02:00</time>
      </trkpt>
      <trkpt lat="44.35601" lon="4.84994">
        <ele>133</ele>
        <time>2018-10-12T09:37:59 02:00</time>
      </trkpt>
      <trkpt lat="44.35604" lon="4.84995">
        <ele>133</ele>
        <time>2018-10-12T09:38:00 02:00</time>
      </trkpt>
      <trkpt lat="44.35607" lon="4.84996">
        <ele>133</ele>
        <time>2018-10-12T09:38:01 02:00</time>
      </trkpt>
      <trkpt lat="44.35609" lon="4.84998">
        <ele>133</ele>
        <time>2018-10-12T09:38:02 02:00</time>
      </trkpt>
      <trkpt lat="44.35612" lon="4.84999">
        <ele>133</ele>
        <time>2018-10-12T09:38:03 02:00</time>
      </trkpt>
      <trkpt lat="44.35615" lon="4.85001">
        <ele>133</ele>
        <time>2018-10-12T09:38:04 02:00</time>
      </trkpt>
      <trkpt lat="44.35618" lon="4.85002">
        <ele>133</ele>
        <time>2018-10-12T09:38:05 02:00</time>
      </trkpt>
      <trkpt lat="44.35621" lon="4.85004">
        <ele>134</ele>
        <time>2018-10-12T09:38:06 02:00</time>
      </trkpt>
      <trkpt lat="44.35624" lon="4.85005">
        <ele>134</ele>
        <time>2018-10-12T09:38:07 02:00</time>
      </trkpt>
      <trkpt lat="44.35627" lon="4.85007">
        <ele>134</ele>
        <time>2018-10-12T09:38:08 02:00</time>
      </trkpt>
      <trkpt lat="44.35629" lon="4.85008">
        <ele>134</ele>
        <time>2018-10-12T09:38:09 02:00</time>
      </trkpt>
      <trkpt lat="44.35632" lon="4.8501">
        <ele>134</ele>
        <time>2018-10-12T09:38:10 02:00</time>
      </trkpt>
      <trkpt lat="44.35635" lon="4.85011">
        <ele>134</ele>
        <time>2018-10-12T09:38:11 02:00</time>
      </trkpt>
      <trkpt lat="44.35638" lon="4.85013">
        <ele>134</ele>
        <time>2018-10-12T09:38:12 02:00</time>
      </trkpt>
      <trkpt lat="44.35641" lon="4.85015">
        <ele>134</ele>
        <time>2018-10-12T09:38:13 02:00</time>
      </trkpt>
      <trkpt lat="44.35643" lon="4.85016">
        <ele>134</ele>
        <time>2018-10-12T09:38:14 02:00</time>
      </trkpt>
      <trkpt lat="44.35646" lon="4.85018">
        <ele>134</ele>
        <time>2018-10-12T09:38:15 02:00</time>
      </trkpt>
      <trkpt lat="44.35649" lon="4.8502">
        <ele>134</ele>
        <time>2018-10-12T09:38:16 02:00</time>
      </trkpt>
      <trkpt lat="44.35651" lon="4.85022">
        <ele>135</ele>
        <time>2018-10-12T09:38:17 02:00</time>
      </trkpt>
      <trkpt lat="44.35654" lon="4.85024">
        <ele>135</ele>
        <time>2018-10-12T09:38:18 02:00</time>
      </trkpt>
      <trkpt lat="44.35657" lon="4.85026">
        <ele>135</ele>
        <time>2018-10-12T09:38:19 02:00</time>
      </trkpt>
      <trkpt lat="44.35659" lon="4.85027">
        <ele>135</ele>
        <time>2018-10-12T09:38:20 02:00</time>
      </trkpt>
      <trkpt lat="44.35662" lon="4.85029">
        <ele>135</ele>
        <time>2018-10-12T09:38:21 02:00</time>
      </trkpt>
      <trkpt lat="44.35664" lon="4.85031">
        <ele>135</ele>
        <time>2018-10-12T09:38:22 02:00</time>
      </trkpt>
      <trkpt lat="44.35667" lon="4.85033">
        <ele>135</ele>
        <time>2018-10-12T09:38:23 02:00</time>
      </trkpt>
      <trkpt lat="44.35669" lon="4.85035">
        <ele>135</ele>
        <time>2018-10-12T09:38:24 02:00</time>
      </trkpt>
      <trkpt lat="44.35672" lon="4.85037">
        <ele>135</ele>
        <time>2018-10-12T09:38:25 02:00</time>
      </trkpt>
      <trkpt lat="44.35675" lon="4.85039">
        <ele>135</ele>
        <time>2018-10-12T09:38:26 02:00</time>
      </trkpt>
      <trkpt lat="44.35677" lon="4.8504">
        <ele>135</ele>
        <time>2018-10-12T09:38:27 02:00</time>
      </trkpt>
      <trkpt lat="44.3568" lon="4.85041">
        <ele>135</ele>
        <time>2018-10-12T09:38:28 02:00</time>
      </trkpt>
      <trkpt lat="44.35682" lon="4.85042">
        <ele>135</ele>
        <time>2018-10-12T09:38:29 02:00</time>
      </trkpt>
      <trkpt lat="44.35684" lon="4.85044">
        <ele>135</ele>
        <time>2018-10-12T09:38:30 02:00</time>
      </trkpt>
      <trkpt lat="44.35686" lon="4.85045">
        <ele>135</ele>
        <time>2018-10-12T09:38:31 02:00</time>
      </trkpt>
      <trkpt lat="44.35688" lon="4.85046">
        <ele>135</ele>
        <time>2018-10-12T09:38:32 02:00</time>
      </trkpt>
      <trkpt lat="44.35691" lon="4.85048">
        <ele>135</ele>
        <time>2018-10-12T09:38:33 02:00</time>
      </trkpt>
      <trkpt lat="44.35693" lon="4.85049">
        <ele>135</ele>
        <time>2018-10-12T09:38:34 02:00</time>
      </trkpt>
      <trkpt lat="44.35695" lon="4.85051">
        <ele>135</ele>
        <time>2018-10-12T09:38:35 02:00</time>
      </trkpt>
      <trkpt lat="44.35698" lon="4.85053">
        <ele>135</ele>
        <time>2018-10-12T09:38:36 02:00</time>
      </trkpt>
      <trkpt lat="44.357" lon="4.85054">
        <ele>135</ele>
        <time>2018-10-12T09:38:37 02:00</time>
      </trkpt>
      <trkpt lat="44.35703" lon="4.85056">
        <ele>135</ele>
        <time>2018-10-12T09:38:38 02:00</time>
      </trkpt>
      <trkpt lat="44.35705" lon="4.85058">
        <ele>135</ele>
        <time>2018-10-12T09:38:39 02:00</time>
      </trkpt>
      <trkpt lat="44.35708" lon="4.85059">
        <ele>135</ele>
        <time>2018-10-12T09:38:40 02:00</time>
      </trkpt>
      <trkpt lat="44.3571" lon="4.8506">
        <ele>135</ele>
        <time>2018-10-12T09:38:41 02:00</time>
      </trkpt>
      <trkpt lat="44.35713" lon="4.85062">
        <ele>135</ele>
        <time>2018-10-12T09:38:42 02:00</time>
      </trkpt>
      <trkpt lat="44.35715" lon="4.85063">
        <ele>135</ele>
        <time>2018-10-12T09:38:43 02:00</time>
      </trkpt>
      <trkpt lat="44.35717" lon="4.85064">
        <ele>135</ele>
        <time>2018-10-12T09:38:44 02:00</time>
      </trkpt>
      <trkpt lat="44.35719" lon="4.85066">
        <ele>135</ele>
        <time>2018-10-12T09:38:45 02:00</time>
      </trkpt>
      <trkpt lat="44.35721" lon="4.85067">
        <ele>135</ele>
        <time>2018-10-12T09:38:46 02:00</time>
      </trkpt>
      <trkpt lat="44.35724" lon="4.85069">
        <ele>135</ele>
        <time>2018-10-12T09:38:47 02:00</time>
      </trkpt>
      <trkpt lat="44.35726" lon="4.85071">
        <ele>135</ele>
        <time>2018-10-12T09:38:48 02:00</time>
      </trkpt>
      <trkpt lat="44.35729" lon="4.85074">
        <ele>135</ele>
        <time>2018-10-12T09:38:49 02:00</time>
      </trkpt>
      <trkpt lat="44.35732" lon="4.85076">
        <ele>135</ele>
        <time>2018-10-12T09:38:50 02:00</time>
      </trkpt>
      <trkpt lat="44.35734" lon="4.85079">
        <ele>135</ele>
        <time>2018-10-12T09:38:51 02:00</time>
      </trkpt>
      <trkpt lat="44.35737" lon="4.85082">
        <ele>135</ele>
        <time>2018-10-12T09:38:52 02:00</time>
      </trkpt>
      <trkpt lat="44.35739" lon="4.85084">
        <ele>135</ele>
        <time>2018-10-12T09:38:53 02:00</time>
      </trkpt>
      <trkpt lat="44.35742" lon="4.85087">
        <ele>135</ele>
        <time>2018-10-12T09:38:54 02:00</time>
      </trkpt>
      <trkpt lat="44.35744" lon="4.8509">
        <ele>135</ele>
        <time>2018-10-12T09:38:55 02:00</time>
      </trkpt>
      <trkpt lat="44.35747" lon="4.85093">
        <ele>135</ele>
        <time>2018-10-12T09:38:56 02:00</time>
      </trkpt>
      <trkpt lat="44.35749" lon="4.85096">
        <ele>135</ele>
        <time>2018-10-12T09:38:57 02:00</time>
      </trkpt>
      <trkpt lat="44.35751" lon="4.85099">
        <ele>135</ele>
        <time>2018-10-12T09:38:58 02:00</time>
      </trkpt>
      <trkpt lat="44.35753" lon="4.85102">
        <ele>135</ele>
        <time>2018-10-12T09:38:59 02:00</time>
      </trkpt>
      <trkpt lat="44.35755" lon="4.85106">
        <ele>136</ele>
        <time>2018-10-12T09:39:00 02:00</time>
      </trkpt>
      <trkpt lat="44.35757" lon="4.85109">
        <ele>136</ele>
        <time>2018-10-12T09:39:01 02:00</time>
      </trkpt>
      <trkpt lat="44.35759" lon="4.85112">
        <ele>136</ele>
        <time>2018-10-12T09:39:02 02:00</time>
      </trkpt>
      <trkpt lat="44.35761" lon="4.85116">
        <ele>136</ele>
        <time>2018-10-12T09:39:03 02:00</time>
      </trkpt>
      <trkpt lat="44.35763" lon="4.85119">
        <ele>136</ele>
        <time>2018-10-12T09:39:04 02:00</time>
      </trkpt>
      <trkpt lat="44.35765" lon="4.85122">
        <ele>136</ele>
        <time>2018-10-12T09:39:05 02:00</time>
      </trkpt>
      <trkpt lat="44.35767" lon="4.85126">
        <ele>136</ele>
        <time>2018-10-12T09:39:06 02:00</time>
      </trkpt>
      <trkpt lat="44.35768" lon="4.85129">
        <ele>136</ele>
        <time>2018-10-12T09:39:07 02:00</time>
      </trkpt>
      <trkpt lat="44.3577" lon="4.85133">
        <ele>136</ele>
        <time>2018-10-12T09:39:08 02:00</time>
      </trkpt>
      <trkpt lat="44.35772" lon="4.85136">
        <ele>136</ele>
        <time>2018-10-12T09:39:09 02:00</time>
      </trkpt>
      <trkpt lat="44.35774" lon="4.8514">
        <ele>136</ele>
        <time>2018-10-12T09:39:10 02:00</time>
      </trkpt>
      <trkpt lat="44.35776" lon="4.85143">
        <ele>137</ele>
        <time>2018-10-12T09:39:11 02:00</time>
      </trkpt>
      <trkpt lat="44.35777" lon="4.85147">
        <ele>137</ele>
        <time>2018-10-12T09:39:12 02:00</time>
      </trkpt>
      <trkpt lat="44.35779" lon="4.85151">
        <ele>137</ele>
        <time>2018-10-12T09:39:13 02:00</time>
      </trkpt>
      <trkpt lat="44.35781" lon="4.85154">
        <ele>137</ele>
        <time>2018-10-12T09:39:14 02:00</time>
      </trkpt>
      <trkpt lat="44.35783" lon="4.85157">
        <ele>137</ele>
        <time>2018-10-12T09:39:15 02:00</time>
      </trkpt>
      <trkpt lat="44.35784" lon="4.85161">
        <ele>137</ele>
        <time>2018-10-12T09:39:16 02:00</time>
      </trkpt>
      <trkpt lat="44.35786" lon="4.85164">
        <ele>137</ele>
        <time>2018-10-12T09:39:17 02:00</time>
      </trkpt>
      <trkpt lat="44.35788" lon="4.85167">
        <ele>137</ele>
        <time>2018-10-12T09:39:18 02:00</time>
      </trkpt>
      <trkpt lat="44.35789" lon="4.85171">
        <ele>137</ele>
        <time>2018-10-12T09:39:19 02:00</time>
      </trkpt>
      <trkpt lat="44.35791" lon="4.85174">
        <ele>137</ele>
        <time>2018-10-12T09:39:20 02:00</time>
      </trkpt>
      <trkpt lat="44.35792" lon="4.85177">
        <ele>137</ele>
        <time>2018-10-12T09:39:21 02:00</time>
      </trkpt>
      <trkpt lat="44.35794" lon="4.8518">
        <ele>137</ele>
        <time>2018-10-12T09:39:22 02:00</time>
      </trkpt>
      <trkpt lat="44.35795" lon="4.85182">
        <ele>138</ele>
        <time>2018-10-12T09:39:23 02:00</time>
      </trkpt>
      <trkpt lat="44.35796" lon="4.85185">
        <ele>138</ele>
        <time>2018-10-12T09:39:24 02:00</time>
      </trkpt>
      <trkpt lat="44.35797" lon="4.85188">
        <ele>138</ele>
        <time>2018-10-12T09:39:25 02:00</time>
      </trkpt>
      <trkpt lat="44.35799" lon="4.8519">
        <ele>138</ele>
        <time>2018-10-12T09:39:26 02:00</time>
      </trkpt>
      <trkpt lat="44.358" lon="4.85193">
        <ele>138</ele>
        <time>2018-10-12T09:39:27 02:00</time>
      </trkpt>
      <trkpt lat="44.35801" lon="4.85196">
        <ele>138</ele>
        <time>2018-10-12T09:39:28 02:00</time>
      </trkpt>
      <trkpt lat="44.35803" lon="4.85198">
        <ele>138</ele>
        <time>2018-10-12T09:39:29 02:00</time>
      </trkpt>
      <trkpt lat="44.35804" lon="4.85201">
        <ele>138</ele>
        <time>2018-10-12T09:39:30 02:00</time>
      </trkpt>
      <trkpt lat="44.35806" lon="4.85204">
        <ele>138</ele>
        <time>2018-10-12T09:39:31 02:00</time>
      </trkpt>
      <trkpt lat="44.35808" lon="4.85206">
        <ele>138</ele>
        <time>2018-10-12T09:39:32 02:00</time>
      </trkpt>
      <trkpt lat="44.35809" lon="4.85209">
        <ele>139</ele>
        <time>2018-10-12T09:39:33 02:00</time>
      </trkpt>
      <trkpt lat="44.35811" lon="4.85212">
        <ele>139</ele>
        <time>2018-10-12T09:39:34 02:00</time>
      </trkpt>
      <trkpt lat="44.35813" lon="4.85215">
        <ele>139</ele>
        <time>2018-10-12T09:39:35 02:00</time>
      </trkpt>
      <trkpt lat="44.35814" lon="4.85218">
        <ele>139</ele>
        <time>2018-10-12T09:39:36 02:00</time>
      </trkpt>
      <trkpt lat="44.35814" lon="4.85221">
        <ele>139</ele>
        <time>2018-10-12T09:39:37 02:00</time>
      </trkpt>
      <trkpt lat="44.35814" lon="4.85225">
        <ele>139</ele>
        <time>2018-10-12T09:39:38 02:00</time>
      </trkpt>
      <trkpt lat="44.35814" lon="4.85229">
        <ele>139</ele>
        <time>2018-10-12T09:39:39 02:00</time>
      </trkpt>
      <trkpt lat="44.35814" lon="4.85232">
        <ele>139</ele>
        <time>2018-10-12T09:39:40 02:00</time>
      </trkpt>
      <trkpt lat="44.35813" lon="4.85236">
        <ele>139</ele>
        <time>2018-10-12T09:39:41 02:00</time>
      </trkpt>
      <trkpt lat="44.35812" lon="4.8524">
        <ele>140</ele>
        <time>2018-10-12T09:39:42 02:00</time>
      </trkpt>
      <trkpt lat="44.35812" lon="4.85243">
        <ele>140</ele>
        <time>2018-10-12T09:39:43 02:00</time>
      </trkpt>
      <trkpt lat="44.35811" lon="4.85246">
        <ele>140</ele>
        <time>2018-10-12T09:39:44 02:00</time>
      </trkpt>
      <trkpt lat="44.35811" lon="4.8525">
        <ele>140</ele>
        <time>2018-10-12T09:39:45 02:00</time>
      </trkpt>
      <trkpt lat="44.3581" lon="4.85253">
        <ele>140</ele>
        <time>2018-10-12T09:39:46 02:00</time>
      </trkpt>
      <trkpt lat="44.3581" lon="4.85257">
        <ele>140</ele>
        <time>2018-10-12T09:39:47 02:00</time>
      </trkpt>
      <trkpt lat="44.35809" lon="4.85261">
        <ele>140</ele>
        <time>2018-10-12T09:39:48 02:00</time>
      </trkpt>
      <trkpt lat="44.35809" lon="4.85264">
        <ele>140</ele>
        <time>2018-10-12T09:39:49 02:00</time>
      </trkpt>
      <trkpt lat="44.35808" lon="4.85268">
        <ele>140</ele>
        <time>2018-10-12T09:39:50 02:00</time>
      </trkpt>
      <trkpt lat="44.35808" lon="4.85272">
        <ele>140</ele>
        <time>2018-10-12T09:39:51 02:00</time>
      </trkpt>
      <trkpt lat="44.35807" lon="4.85276">
        <ele>140</ele>
        <time>2018-10-12T09:39:52 02:00</time>
      </trkpt>
      <trkpt lat="44.35807" lon="4.8528">
        <ele>140</ele>
        <time>2018-10-12T09:39:53 02:00</time>
      </trkpt>
      <trkpt lat="44.35806" lon="4.85284">
        <ele>140</ele>
        <time>2018-10-12T09:39:54 02:00</time>
      </trkpt>
      <trkpt lat="44.35806" lon="4.85288">
        <ele>140</ele>
        <time>2018-10-12T09:39:55 02:00</time>
      </trkpt>
      <trkpt lat="44.35805" lon="4.85292">
        <ele>140</ele>
        <time>2018-10-12T09:39:56 02:00</time>
      </trkpt>
      <trkpt lat="44.35804" lon="4.85296">
        <ele>140</ele>
        <time>2018-10-12T09:39:57 02:00</time>
      </trkpt>
      <trkpt lat="44.35804" lon="4.853">
        <ele>140</ele>
        <time>2018-10-12T09:39:58 02:00</time>
      </trkpt>
      <trkpt lat="44.35803" lon="4.85304">
        <ele>140</ele>
        <time>2018-10-12T09:39:59 02:00</time>
      </trkpt>
      <trkpt lat="44.35802" lon="4.85308">
        <ele>140</ele>
        <time>2018-10-12T09:40:00 02:00</time>
      </trkpt>
      <trkpt lat="44.35802" lon="4.85312">
        <ele>140</ele>
        <time>2018-10-12T09:40:01 02:00</time>
      </trkpt>
      <trkpt lat="44.35802" lon="4.85316">
        <ele>140</ele>
        <time>2018-10-12T09:40:02 02:00</time>
      </trkpt>
      <trkpt lat="44.35802" lon="4.8532">
        <ele>140</ele>
        <time>2018-10-12T09:40:03 02:00</time>
      </trkpt>
      <trkpt lat="44.35802" lon="4.85323">
        <ele>140</ele>
        <time>2018-10-12T09:40:04 02:00</time>
      </trkpt>
      <trkpt lat="44.35803" lon="4.85327">
        <ele>140</ele>
        <time>2018-10-12T09:40:05 02:00</time>
      </trkpt>
      <trkpt lat="44.35806" lon="4.85329">
        <ele>140</ele>
        <time>2018-10-12T09:40:06 02:00</time>
      </trkpt>
      <trkpt lat="44.35808" lon="4.85331">
        <ele>140</ele>
        <time>2018-10-12T09:40:07 02:00</time>
      </trkpt>
      <trkpt lat="44.35811" lon="4.85332">
        <ele>140</ele>
        <time>2018-10-12T09:40:08 02:00</time>
      </trkpt>
      <trkpt lat="44.35814" lon="4.85334">
        <ele>140</ele>
        <time>2018-10-12T09:40:09 02:00</time>
      </trkpt>
      <trkpt lat="44.35817" lon="4.85335">
        <ele>140</ele>
        <time>2018-10-12T09:40:10 02:00</time>
      </trkpt>
      <trkpt lat="44.3582" lon="4.85337">
        <ele>140</ele>
        <time>2018-10-12T09:40:11 02:00</time>
      </trkpt>
      <trkpt lat="44.35823" lon="4.85338">
        <ele>140</ele>
        <time>2018-10-12T09:40:12 02:00</time>
      </trkpt>
      <trkpt lat="44.35826" lon="4.8534">
        <ele>140</ele>
        <time>2018-10-12T09:40:13 02:00</time>
      </trkpt>
      <trkpt lat="44.35828" lon="4.85341">
        <ele>140</ele>
        <time>2018-10-12T09:40:14 02:00</time>
      </trkpt>
      <trkpt lat="44.35831" lon="4.85343">
        <ele>140</ele>
        <time>2018-10-12T09:40:15 02:00</time>
      </trkpt>
      <trkpt lat="44.35834" lon="4.85344">
        <ele>140</ele>
        <time>2018-10-12T09:40:16 02:00</time>
      </trkpt>
      <trkpt lat="44.35837" lon="4.85346">
        <ele>140</ele>
        <time>2018-10-12T09:40:17 02:00</time>
      </trkpt>
      <trkpt lat="44.3584" lon="4.85347">
        <ele>140</ele>
        <time>2018-10-12T09:40:18 02:00</time>
      </trkpt>
      <trkpt lat="44.35843" lon="4.85348">
        <ele>140</ele>
        <time>2018-10-12T09:40:19 02:00</time>
      </trkpt>
      <trkpt lat="44.35846" lon="4.8535">
        <ele>140</ele>
        <time>2018-10-12T09:40:20 02:00</time>
      </trkpt>
      <trkpt lat="44.35849" lon="4.85351">
        <ele>140</ele>
        <time>2018-10-12T09:40:21 02:00</time>
      </trkpt>
      <trkpt lat="44.35852" lon="4.85352">
        <ele>140</ele>
        <time>2018-10-12T09:40:22 02:00</time>
      </trkpt>
      <trkpt lat="44.35855" lon="4.85354">
        <ele>140</ele>
        <time>2018-10-12T09:40:23 02:00</time>
      </trkpt>
      <trkpt lat="44.35858" lon="4.85355">
        <ele>140</ele>
        <time>2018-10-12T09:40:24 02:00</time>
      </trkpt>
      <trkpt lat="44.3586" lon="4.85356">
        <ele>140</ele>
        <time>2018-10-12T09:40:25 02:00</time>
      </trkpt>
      <trkpt lat="44.35863" lon="4.85358">
        <ele>140</ele>
        <time>2018-10-12T09:40:26 02:00</time>
      </trkpt>
      <trkpt lat="44.35866" lon="4.85359">
        <ele>140</ele>
        <time>2018-10-12T09:40:27 02:00</time>
      </trkpt>
      <trkpt lat="44.35868" lon="4.8536">
        <ele>140</ele>
        <time>2018-10-12T09:40:28 02:00</time>
      </trkpt>
      <trkpt lat="44.35871" lon="4.85361">
        <ele>140</ele>
        <time>2018-10-12T09:40:29 02:00</time>
      </trkpt>
      <trkpt lat="44.35873" lon="4.85362">
        <ele>140</ele>
        <time>2018-10-12T09:40:30 02:00</time>
      </trkpt>
      <trkpt lat="44.35876" lon="4.85363">
        <ele>140</ele>
        <time>2018-10-12T09:40:31 02:00</time>
      </trkpt>
      <trkpt lat="44.35878" lon="4.85364">
        <ele>140</ele>
        <time>2018-10-12T09:40:32 02:00</time>
      </trkpt>
      <trkpt lat="44.35881" lon="4.85364">
        <ele>140</ele>
        <time>2018-10-12T09:40:33 02:00</time>
      </trkpt>
      <trkpt lat="44.35883" lon="4.85366">
        <ele>140</ele>
        <time>2018-10-12T09:40:34 02:00</time>
      </trkpt>
      <trkpt lat="44.35886" lon="4.85367">
        <ele>140</ele>
        <time>2018-10-12T09:40:35 02:00</time>
      </trkpt>
      <trkpt lat="44.35889" lon="4.85369">
        <ele>140</ele>
        <time>2018-10-12T09:40:36 02:00</time>
      </trkpt>
      <trkpt lat="44.35891" lon="4.85371">
        <ele>140</ele>
        <time>2018-10-12T09:40:37 02:00</time>
      </trkpt>
      <trkpt lat="44.35893" lon="4.85374">
        <ele>140</ele>
        <time>2018-10-12T09:40:38 02:00</time>
      </trkpt>
      <trkpt lat="44.35895" lon="4.85377">
        <ele>140</ele>
        <time>2018-10-12T09:40:39 02:00</time>
      </trkpt>
      <trkpt lat="44.35897" lon="4.8538">
        <ele>140</ele>
        <time>2018-10-12T09:40:40 02:00</time>
      </trkpt>
      <trkpt lat="44.35898" lon="4.85384">
        <ele>140</ele>
        <time>2018-10-12T09:40:41 02:00</time>
      </trkpt>
      <trkpt lat="44.359" lon="4.85387">
        <ele>141</ele>
        <time>2018-10-12T09:40:42 02:00</time>
      </trkpt>
      <trkpt lat="44.35901" lon="4.85391">
        <ele>141</ele>
        <time>2018-10-12T09:40:43 02:00</time>
      </trkpt>
      <trkpt lat="44.35902" lon="4.85395">
        <ele>141</ele>
        <time>2018-10-12T09:40:44 02:00</time>
      </trkpt>
      <trkpt lat="44.35903" lon="4.85399">
        <ele>141</ele>
        <time>2018-10-12T09:40:45 02:00</time>
      </trkpt>
      <trkpt lat="44.35904" lon="4.85403">
        <ele>141</ele>
        <time>2018-10-12T09:40:46 02:00</time>
      </trkpt>
      <trkpt lat="44.35906" lon="4.85407">
        <ele>141</ele>
        <time>2018-10-12T09:40:47 02:00</time>
      </trkpt>
      <trkpt lat="44.35907" lon="4.85412">
        <ele>141</ele>
        <time>2018-10-12T09:40:48 02:00</time>
      </trkpt>
      <trkpt lat="44.35908" lon="4.85416">
        <ele>141</ele>
        <time>2018-10-12T09:40:49 02:00</time>
      </trkpt>
      <trkpt lat="44.35909" lon="4.8542">
        <ele>141</ele>
        <time>2018-10-12T09:40:50 02:00</time>
      </trkpt>
      <trkpt lat="44.3591" lon="4.85424">
        <ele>141</ele>
        <time>2018-10-12T09:40:51 02:00</time>
      </trkpt>
      <trkpt lat="44.35911" lon="4.85428">
        <ele>141</ele>
        <time>2018-10-12T09:40:52 02:00</time>
      </trkpt>
      <trkpt lat="44.35912" lon="4.85432">
        <ele>141</ele>
        <time>2018-10-12T09:40:53 02:00</time>
      </trkpt>
      <trkpt lat="44.35914" lon="4.85435">
        <ele>141</ele>
        <time>2018-10-12T09:40:54 02:00</time>
      </trkpt>
      <trkpt lat="44.35915" lon="4.85439">
        <ele>141</ele>
        <time>2018-10-12T09:40:55 02:00</time>
      </trkpt>
      <trkpt lat="44.35916" lon="4.85442">
        <ele>141</ele>
        <time>2018-10-12T09:40:56 02:00</time>
      </trkpt>
      <trkpt lat="44.35918" lon="4.85446">
        <ele>141</ele>
        <time>2018-10-12T09:40:57 02:00</time>
      </trkpt>
      <trkpt lat="44.35919" lon="4.85449">
        <ele>141</ele>
        <time>2018-10-12T09:40:58 02:00</time>
      </trkpt>
      <trkpt lat="44.35921" lon="4.85452">
        <ele>141</ele>
        <time>2018-10-12T09:40:59 02:00</time>
      </trkpt>
      <trkpt lat="44.35923" lon="4.85455">
        <ele>142</ele>
        <time>2018-10-12T09:41:00 02:00</time>
      </trkpt>
      <trkpt lat="44.35925" lon="4.85459">
        <ele>142</ele>
        <time>2018-10-12T09:41:01 02:00</time>
      </trkpt>
      <trkpt lat="44.35926" lon="4.85462">
        <ele>142</ele>
        <time>2018-10-12T09:41:02 02:00</time>
      </trkpt>
      <trkpt lat="44.35928" lon="4.85465">
        <ele>142</ele>
        <time>2018-10-12T09:41:03 02:00</time>
      </trkpt>
      <trkpt lat="44.3593" lon="4.85468">
        <ele>142</ele>
        <time>2018-10-12T09:41:04 02:00</time>
      </trkpt>
      <trkpt lat="44.35932" lon="4.85472">
        <ele>142</ele>
        <time>2018-10-12T09:41:05 02:00</time>
      </trkpt>
      <trkpt lat="44.35934" lon="4.85475">
        <ele>142</ele>
        <time>2018-10-12T09:41:06 02:00</time>
      </trkpt>
      <trkpt lat="44.35935" lon="4.85478">
        <ele>142</ele>
        <time>2018-10-12T09:41:07 02:00</time>
      </trkpt>
      <trkpt lat="44.35937" lon="4.85481">
        <ele>142</ele>
        <time>2018-10-12T09:41:08 02:00</time>
      </trkpt>
      <trkpt lat="44.35938" lon="4.85484">
        <ele>142</ele>
        <time>2018-10-12T09:41:09 02:00</time>
      </trkpt>
      <trkpt lat="44.3594" lon="4.85487">
        <ele>142</ele>
        <time>2018-10-12T09:41:10 02:00</time>
      </trkpt>
      <trkpt lat="44.35941" lon="4.8549">
        <ele>142</ele>
        <time>2018-10-12T09:41:11 02:00</time>
      </trkpt>
      <trkpt lat="44.35943" lon="4.85494">
        <ele>142</ele>
        <time>2018-10-12T09:41:12 02:00</time>
      </trkpt>
      <trkpt lat="44.35944" lon="4.85497">
        <ele>142</ele>
        <time>2018-10-12T09:41:13 02:00</time>
      </trkpt>
      <trkpt lat="44.35946" lon="4.85501">
        <ele>142</ele>
        <time>2018-10-12T09:41:14 02:00</time>
      </trkpt>
      <trkpt lat="44.35948" lon="4.85504">
        <ele>142</ele>
        <time>2018-10-12T09:41:15 02:00</time>
      </trkpt>
      <trkpt lat="44.35949" lon="4.85508">
        <ele>142</ele>
        <time>2018-10-12T09:41:16 02:00</time>
      </trkpt>
      <trkpt lat="44.35951" lon="4.85512">
        <ele>142</ele>
        <time>2018-10-12T09:41:17 02:00</time>
      </trkpt>
      <trkpt lat="44.35953" lon="4.85516">
        <ele>142</ele>
        <time>2018-10-12T09:41:18 02:00</time>
      </trkpt>
      <trkpt lat="44.35955" lon="4.8552">
        <ele>142</ele>
        <time>2018-10-12T09:41:19 02:00</time>
      </trkpt>
      <trkpt lat="44.35957" lon="4.85523">
        <ele>143</ele>
        <time>2018-10-12T09:41:20 02:00</time>
      </trkpt>
      <trkpt lat="44.3596" lon="4.85526">
        <ele>143</ele>
        <time>2018-10-12T09:41:21 02:00</time>
      </trkpt>
      <trkpt lat="44.35963" lon="4.85527">
        <ele>143</ele>
        <time>2018-10-12T09:41:22 02:00</time>
      </trkpt>
      <trkpt lat="44.35966" lon="4.85527">
        <ele>143</ele>
        <time>2018-10-12T09:41:23 02:00</time>
      </trkpt>
      <trkpt lat="44.35968" lon="4.85524">
        <ele>143</ele>
        <time>2018-10-12T09:41:24 02:00</time>
      </trkpt>
      <trkpt lat="44.3597" lon="4.85521">
        <ele>143</ele>
        <time>2018-10-12T09:41:25 02:00</time>
      </trkpt>
      <trkpt lat="44.35971" lon="4.85517">
        <ele>142</ele>
        <time>2018-10-12T09:41:26 02:00</time>
      </trkpt>
      <trkpt lat="44.35972" lon="4.85513">
        <ele>142</ele>
        <time>2018-10-12T09:41:27 02:00</time>
      </trkpt>
      <trkpt lat="44.35973" lon="4.85509">
        <ele>142</ele>
        <time>2018-10-12T09:41:28 02:00</time>
      </trkpt>
      <trkpt lat="44.35974" lon="4.85505">
        <ele>142</ele>
        <time>2018-10-12T09:41:29 02:00</time>
      </trkpt>
      <trkpt lat="44.35975" lon="4.85501">
        <ele>142</ele>
        <time>2018-10-12T09:41:30 02:00</time>
      </trkpt>
      <trkpt lat="44.35975" lon="4.85497">
        <ele>142</ele>
        <time>2018-10-12T09:41:31 02:00</time>
      </trkpt>
      <trkpt lat="44.35976" lon="4.85493">
        <ele>142</ele>
        <time>2018-10-12T09:41:32 02:00</time>
      </trkpt>
      <trkpt lat="44.35977" lon="4.85489">
        <ele>142</ele>
        <time>2018-10-12T09:41:33 02:00</time>
      </trkpt>
      <trkpt lat="44.35977" lon="4.85485">
        <ele>142</ele>
        <time>2018-10-12T09:41:34 02:00</time>
      </trkpt>
      <trkpt lat="44.35978" lon="4.8548">
        <ele>142</ele>
        <time>2018-10-12T09:41:35 02:00</time>
      </trkpt>
      <trkpt lat="44.35979" lon="4.85476">
        <ele>142</ele>
        <time>2018-10-12T09:41:36 02:00</time>
      </trkpt>
      <trkpt lat="44.35979" lon="4.85472">
        <ele>142</ele>
        <time>2018-10-12T09:41:37 02:00</time>
      </trkpt>
      <trkpt lat="44.3598" lon="4.85468">
        <ele>142</ele>
        <time>2018-10-12T09:41:38 02:00</time>
      </trkpt>
      <trkpt lat="44.35981" lon="4.85463">
        <ele>142</ele>
        <time>2018-10-12T09:41:39 02:00</time>
      </trkpt>
      <trkpt lat="44.35981" lon="4.85459">
        <ele>142</ele>
        <time>2018-10-12T09:41:40 02:00</time>
      </trkpt>
      <trkpt lat="44.35982" lon="4.85455">
        <ele>142</ele>
        <time>2018-10-12T09:41:41 02:00</time>
      </trkpt>
      <trkpt lat="44.35983" lon="4.8545">
        <ele>142</ele>
        <time>2018-10-12T09:41:42 02:00</time>
      </trkpt>
      <trkpt lat="44.35984" lon="4.85446">
        <ele>142</ele>
        <time>2018-10-12T09:41:43 02:00</time>
      </trkpt>
      <trkpt lat="44.35984" lon="4.85441">
        <ele>142</ele>
        <time>2018-10-12T09:41:44 02:00</time>
      </trkpt>
      <trkpt lat="44.35985" lon="4.85437">
        <ele>142</ele>
        <time>2018-10-12T09:41:45 02:00</time>
      </trkpt>
      <trkpt lat="44.35986" lon="4.85432">
        <ele>142</ele>
        <time>2018-10-12T09:41:46 02:00</time>
      </trkpt>
      <trkpt lat="44.35987" lon="4.85428">
        <ele>142</ele>
        <time>2018-10-12T09:41:47 02:00</time>
      </trkpt>
      <trkpt lat="44.35988" lon="4.85423">
        <ele>142</ele>
        <time>2018-10-12T09:41:48 02:00</time>
      </trkpt>
      <trkpt lat="44.35989" lon="4.85419">
        <ele>142</ele>
        <time>2018-10-12T09:41:49 02:00</time>
      </trkpt>
      <trkpt lat="44.35989" lon="4.85414">
        <ele>142</ele>
        <time>2018-10-12T09:41:50 02:00</time>
      </trkpt>
      <trkpt lat="44.3599" lon="4.8541">
        <ele>142</ele>
        <time>2018-10-12T09:41:51 02:00</time>
      </trkpt>
      <trkpt lat="44.35991" lon="4.85405">
        <ele>142</ele>
        <time>2018-10-12T09:41:52 02:00</time>
      </trkpt>
      <trkpt lat="44.35992" lon="4.854">
        <ele>142</ele>
        <time>2018-10-12T09:41:53 02:00</time>
      </trkpt>
      <trkpt lat="44.35993" lon="4.85396">
        <ele>142</ele>
        <time>2018-10-12T09:41:54 02:00</time>
      </trkpt>
      <trkpt lat="44.35994" lon="4.85391">
        <ele>142</ele>
        <time>2018-10-12T09:41:55 02:00</time>
      </trkpt>
      <trkpt lat="44.35995" lon="4.85386">
        <ele>142</ele>
        <time>2018-10-12T09:41:56 02:00</time>
      </trkpt>
      <trkpt lat="44.35996" lon="4.85381">
        <ele>142</ele>
        <time>2018-10-12T09:41:57 02:00</time>
      </trkpt>
      <trkpt lat="44.35997" lon="4.85376">
        <ele>141</ele>
        <time>2018-10-12T09:41:58 02:00</time>
      </trkpt>
      <trkpt lat="44.35998" lon="4.85371">
        <ele>141</ele>
        <time>2018-10-12T09:41:59 02:00</time>
      </trkpt>
      <trkpt lat="44.35999" lon="4.85365">
        <ele>141</ele>
        <time>2018-10-12T09:42:00 02:00</time>
      </trkpt>
      <trkpt lat="44.36" lon="4.8536">
        <ele>141</ele>
        <time>2018-10-12T09:42:01 02:00</time>
      </trkpt>
      <trkpt lat="44.36001" lon="4.85354">
        <ele>141</ele>
        <time>2018-10-12T09:42:02 02:00</time>
      </trkpt>
      <trkpt lat="44.36003" lon="4.85348">
        <ele>141</ele>
        <time>2018-10-12T09:42:03 02:00</time>
      </trkpt>
      <trkpt lat="44.36004" lon="4.85342">
        <ele>141</ele>
        <time>2018-10-12T09:42:04 02:00</time>
      </trkpt>
      <trkpt lat="44.36005" lon="4.85336">
        <ele>141</ele>
        <time>2018-10-12T09:42:05 02:00</time>
      </trkpt>
      <trkpt lat="44.36006" lon="4.8533">
        <ele>141</ele>
        <time>2018-10-12T09:42:06 02:00</time>
      </trkpt>
      <trkpt lat="44.36008" lon="4.85323">
        <ele>140</ele>
        <time>2018-10-12T09:42:07 02:00</time>
      </trkpt>
      <trkpt lat="44.36009" lon="4.85315">
        <ele>140</ele>
        <time>2018-10-12T09:42:08 02:00</time>
      </trkpt>
      <trkpt lat="44.3601" lon="4.85307">
        <ele>140</ele>
        <time>2018-10-12T09:42:09 02:00</time>
      </trkpt>
      <trkpt lat="44.36012" lon="4.853">
        <ele>140</ele>
        <time>2018-10-12T09:42:10 02:00</time>
      </trkpt>
      <trkpt lat="44.36013" lon="4.85292">
        <ele>139</ele>
        <time>2018-10-12T09:42:11 02:00</time>
      </trkpt>
      <trkpt lat="44.36015" lon="4.85285">
        <ele>139</ele>
        <time>2018-10-12T09:42:12 02:00</time>
      </trkpt>
      <trkpt lat="44.36016" lon="4.85278">
        <ele>139</ele>
        <time>2018-10-12T09:42:13 02:00</time>
      </trkpt>
      <trkpt lat="44.36017" lon="4.85271">
        <ele>139</ele>
        <time>2018-10-12T09:42:14 02:00</time>
      </trkpt>
      <trkpt lat="44.36018" lon="4.85265">
        <ele>139</ele>
        <time>2018-10-12T09:42:15 02:00</time>
      </trkpt>
      <trkpt lat="44.3602" lon="4.8526">
        <ele>139</ele>
        <time>2018-10-12T09:42:16 02:00</time>
      </trkpt>
      <trkpt lat="44.36021" lon="4.85256">
        <ele>138</ele>
        <time>2018-10-12T09:42:17 02:00</time>
      </trkpt>
      <trkpt lat="44.36022" lon="4.85253">
        <ele>138</ele>
        <time>2018-10-12T09:42:18 02:00</time>
      </trkpt>
      <trkpt lat="44.36023" lon="4.85251">
        <ele>138</ele>
        <time>2018-10-12T09:42:19 02:00</time>
      </trkpt>
      <trkpt lat="44.36024" lon="4.8525">
        <ele>138</ele>
        <time>2018-10-12T09:42:20 02:00</time>
      </trkpt>
      <trkpt lat="44.36025" lon="4.8525">
        <ele>138</ele>
        <time>2018-10-12T09:42:21 02:00</time>
      </trkpt>
      <trkpt lat="44.36025" lon="4.8525">
        <ele>138</ele>
        <time>2018-10-12T09:42:22 02:00</time>
      </trkpt>
      <trkpt lat="44.36025" lon="4.8525">
        <ele>138</ele>
        <time>2018-10-12T09:42:23 02:00</time>
      </trkpt>
      <trkpt lat="44.36025" lon="4.8525">
        <ele>138</ele>
        <time>2018-10-12T09:42:24 02:00</time>
      </trkpt>
      <trkpt lat="44.36026" lon="4.85249">
        <ele>138</ele>
        <time>2018-10-12T09:42:25 02:00</time>
      </trkpt>
      <trkpt lat="44.36027" lon="4.85249">
        <ele>138</ele>
        <time>2018-10-12T09:42:26 02:00</time>
      </trkpt>
      <trkpt lat="44.36027" lon="4.85248">
        <ele>138</ele>
        <time>2018-10-12T09:42:27 02:00</time>
      </trkpt>
      <trkpt lat="44.36028" lon="4.85248">
        <ele>138</ele>
        <time>2018-10-12T09:42:28 02:00</time>
      </trkpt>
      <trkpt lat="44.36028" lon="4.85248">
        <ele>138</ele>
        <time>2018-10-12T09:42:29 02:00</time>
      </trkpt>
      <trkpt lat="44.36029" lon="4.85248">
        <ele>138</ele>
        <time>2018-10-12T09:42:30 02:00</time>
      </trkpt>
      <trkpt lat="44.36029" lon="4.85248">
        <ele>138</ele>
        <time>2018-10-12T09:42:31 02:00</time>
      </trkpt>
      <trkpt lat="44.3603" lon="4.85248">
        <ele>138</ele>
        <time>2018-10-12T09:42:32 02:00</time>
      </trkpt>
      <trkpt lat="44.3603" lon="4.85248">
        <ele>138</ele>
        <time>2018-10-12T09:42:33 02:00</time>
      </trkpt>
      <trkpt lat="44.36031" lon="4.85248">
        <ele>138</ele>
        <time>2018-10-12T09:42:34 02:00</time>
      </trkpt>
      <trkpt lat="44.36032" lon="4.85249">
        <ele>138</ele>
        <time>2018-10-12T09:42:35 02:00</time>
      </trkpt>
      <trkpt lat="44.36033" lon="4.85249">
        <ele>138</ele>
        <time>2018-10-12T09:42:36 02:00</time>
      </trkpt>
      <trkpt lat="44.36035" lon="4.85249">
        <ele>138</ele>
        <time>2018-10-12T09:42:37 02:00</time>
      </trkpt>
      <trkpt lat="44.36036" lon="4.8525">
        <ele>138</ele>
        <time>2018-10-12T09:42:38 02:00</time>
      </trkpt>
      <trkpt lat="44.36038" lon="4.85252">
        <ele>138</ele>
        <time>2018-10-12T09:42:39 02:00</time>
      </trkpt>
      <trkpt lat="44.36039" lon="4.85253">
        <ele>139</ele>
        <time>2018-10-12T09:42:40 02:00</time>
      </trkpt>
      <trkpt lat="44.36041" lon="4.85255">
        <ele>139</ele>
        <time>2018-10-12T09:42:41 02:00</time>
      </trkpt>
      <trkpt lat="44.36043" lon="4.85256">
        <ele>139</ele>
        <time>2018-10-12T09:42:42 02:00</time>
      </trkpt>
      <trkpt lat="44.36044" lon="4.85257">
        <ele>139</ele>
        <time>2018-10-12T09:42:43 02:00</time>
      </trkpt>
      <trkpt lat="44.36045" lon="4.85257">
        <ele>139</ele>
        <time>2018-10-12T09:42:44 02:00</time>
      </trkpt>
      <trkpt lat="44.36047" lon="4.85257">
        <ele>139</ele>
        <time>2018-10-12T09:42:45 02:00</time>
      </trkpt>
      <trkpt lat="44.36048" lon="4.85258">
        <ele>139</ele>
        <time>2018-10-12T09:42:46 02:00</time>
      </trkpt>
      <trkpt lat="44.3605" lon="4.8526">
        <ele>139</ele>
        <time>2018-10-12T09:42:47 02:00</time>
      </trkpt>
      <trkpt lat="44.36053" lon="4.85261">
        <ele>139</ele>
        <time>2018-10-12T09:42:48 02:00</time>
      </trkpt>
      <trkpt lat="44.36056" lon="4.85262">
        <ele>139</ele>
        <time>2018-10-12T09:42:49 02:00</time>
      </trkpt>
      <trkpt lat="44.36059" lon="4.85262">
        <ele>139</ele>
        <time>2018-10-12T09:42:50 02:00</time>
      </trkpt>
      <trkpt lat="44.36062" lon="4.85262">
        <ele>139</ele>
        <time>2018-10-12T09:42:51 02:00</time>
      </trkpt>
      <trkpt lat="44.36064" lon="4.85262">
        <ele>139</ele>
        <time>2018-10-12T09:42:52 02:00</time>
      </trkpt>
      <trkpt lat="44.36065" lon="4.85262">
        <ele>139</ele>
        <time>2018-10-12T09:42:53 02:00</time>
      </trkpt>
      <trkpt lat="44.36066" lon="4.85262">
        <ele>139</ele>
        <time>2018-10-12T09:42:54 02:00</time>
      </trkpt>
      <trkpt lat="44.36067" lon="4.85262">
        <ele>139</ele>
        <time>2018-10-12T09:42:55 02:00</time>
      </trkpt>
      <trkpt lat="44.36067" lon="4.85262">
        <ele>139</ele>
        <time>2018-10-12T09:42:56 02:00</time>
      </trkpt>
      <trkpt lat="44.36068" lon="4.85262">
        <ele>139</ele>
        <time>2018-10-12T09:42:57 02:00</time>
      </trkpt>
      <trkpt lat="44.36068" lon="4.85261">
        <ele>139</ele>
        <time>2018-10-12T09:42:58 02:00</time>
      </trkpt>
      <trkpt lat="44.36069" lon="4.85261">
        <ele>139</ele>
        <time>2018-10-12T09:42:59 02:00</time>
      </trkpt>
      <trkpt lat="44.3607" lon="4.8526">
        <ele>139</ele>
        <time>2018-10-12T09:43:00 02:00</time>
      </trkpt>
      <trkpt lat="44.36071" lon="4.85259">
        <ele>139</ele>
        <time>2018-10-12T09:43:01 02:00</time>
      </trkpt>
      <trkpt lat="44.36072" lon="4.85259">
        <ele>139</ele>
        <time>2018-10-12T09:43:02 02:00</time>
      </trkpt>
      <trkpt lat="44.36073" lon="4.85258">
        <ele>139</ele>
        <time>2018-10-12T09:43:03 02:00</time>
      </trkpt>
      <trkpt lat="44.36074" lon="4.85258">
        <ele>139</ele>
        <time>2018-10-12T09:43:04 02:00</time>
      </trkpt>
      <trkpt lat="44.36075" lon="4.85257">
        <ele>139</ele>
        <time>2018-10-12T09:43:05 02:00</time>
      </trkpt>
      <trkpt lat="44.36076" lon="4.85257">
        <ele>139</ele>
        <time>2018-10-12T09:43:06 02:00</time>
      </trkpt>
      <trkpt lat="44.36078" lon="4.85256">
        <ele>139</ele>
        <time>2018-10-12T09:43:07 02:00</time>
      </trkpt>
      <trkpt lat="44.36079" lon="4.85255">
        <ele>139</ele>
        <time>2018-10-12T09:43:08 02:00</time>
      </trkpt>
      <trkpt lat="44.3608" lon="4.85253">
        <ele>139</ele>
        <time>2018-10-12T09:43:09 02:00</time>
      </trkpt>
      <trkpt lat="44.36082" lon="4.85251">
        <ele>139</ele>
        <time>2018-10-12T09:43:10 02:00</time>
      </trkpt>
      <trkpt lat="44.36083" lon="4.85249">
        <ele>139</ele>
        <time>2018-10-12T09:43:11 02:00</time>
      </trkpt>
      <trkpt lat="44.36085" lon="4.85248">
        <ele>139</ele>
        <time>2018-10-12T09:43:12 02:00</time>
      </trkpt>
      <trkpt lat="44.36086" lon="4.85249">
        <ele>139</ele>
        <time>2018-10-12T09:43:13 02:00</time>
      </trkpt>
      <trkpt lat="44.36087" lon="4.85249">
        <ele>139</ele>
        <time>2018-10-12T09:43:14 02:00</time>
      </trkpt>
      <trkpt lat="44.36087" lon="4.85249">
        <ele>139</ele>
        <time>2018-10-12T09:43:15 02:00</time>
      </trkpt>
      <trkpt lat="44.36087" lon="4.85249">
        <ele>139</ele>
        <time>2018-10-12T09:43:16 02:00</time>
      </trkpt>
      <trkpt lat="44.36087" lon="4.85249">
        <ele>139</ele>
        <time>2018-10-12T09:43:17 02:00</time>
      </trkpt>
      <trkpt lat="44.36087" lon="4.85249">
        <ele>139</ele>
        <time>2018-10-12T09:43:18 02:00</time>
      </trkpt>
      <trkpt lat="44.36087" lon="4.85249">
        <ele>139</ele>
        <time>2018-10-12T09:43:19 02:00</time>
      </trkpt>
      <trkpt lat="44.36087" lon="4.85249">
        <ele>139</ele>
        <time>2018-10-12T09:43:20 02:00</time>
      </trkpt>
      <trkpt lat="44.36087" lon="4.85249">
        <ele>139</ele>
        <time>2018-10-12T09:43:21 02:00</time>
      </trkpt>
      <trkpt lat="44.36087" lon="4.85249">
        <ele>139</ele>
        <time>2018-10-12T09:43:22 02:00</time>
      </trkpt>
      <trkpt lat="44.36087" lon="4.85249">
        <ele>139</ele>
        <time>2018-10-12T09:43:23 02:00</time>
      </trkpt>
      <trkpt lat="44.36087" lon="4.85249">
        <ele>139</ele>
        <time>2018-10-12T09:43:24 02:00</time>
      </trkpt>
      <trkpt lat="44.36087" lon="4.85249">
        <ele>139</ele>
        <time>2018-10-12T09:43:25 02:00</time>
      </trkpt>
      <trkpt lat="44.36087" lon="4.85248">
        <ele>139</ele>
        <time>2018-10-12T09:43:26 02:00</time>
      </trkpt>
      <trkpt lat="44.36087" lon="4.85249">
        <ele>139</ele>
        <time>2018-10-12T09:43:27 02:00</time>
      </trkpt>
      <trkpt lat="44.36087" lon="4.85249">
        <ele>139</ele>
        <time>2018-10-12T09:43:28 02:00</time>
      </trkpt>
      <trkpt lat="44.36088" lon="4.85249">
        <ele>139</ele>
        <time>2018-10-12T09:43:29 02:00</time>
      </trkpt>
      <trkpt lat="44.36088" lon="4.85249">
        <ele>139</ele>
        <time>2018-10-12T09:43:30 02:00</time>
      </trkpt>
      <trkpt lat="44.36089" lon="4.8525">
        <ele>139</ele>
        <time>2018-10-12T09:43:31 02:00</time>
      </trkpt>
      <trkpt lat="44.36091" lon="4.8525">
        <ele>139</ele>
        <time>2018-10-12T09:43:32 02:00</time>
      </trkpt>
      <trkpt lat="44.36093" lon="4.85251">
        <ele>139</ele>
        <time>2018-10-12T09:43:33 02:00</time>
      </trkpt>
      <trkpt lat="44.36095" lon="4.85252">
        <ele>139</ele>
        <time>2018-10-12T09:43:34 02:00</time>
      </trkpt>
      <trkpt lat="44.36097" lon="4.85253">
        <ele>139</ele>
        <time>2018-10-12T09:43:35 02:00</time>
      </trkpt>
      <trkpt lat="44.361" lon="4.85254">
        <ele>139</ele>
        <time>2018-10-12T09:43:36 02:00</time>
      </trkpt>
      <trkpt lat="44.36102" lon="4.85255">
        <ele>139</ele>
        <time>2018-10-12T09:43:37 02:00</time>
      </trkpt>
      <trkpt lat="44.36105" lon="4.85256">
        <ele>139</ele>
        <time>2018-10-12T09:43:38 02:00</time>
      </trkpt>
      <trkpt lat="44.36107" lon="4.85258">
        <ele>140</ele>
        <time>2018-10-12T09:43:39 02:00</time>
      </trkpt>
      <trkpt lat="44.36109" lon="4.85259">
        <ele>140</ele>
        <time>2018-10-12T09:43:40 02:00</time>
      </trkpt>
      <trkpt lat="44.36112" lon="4.8526">
        <ele>140</ele>
        <time>2018-10-12T09:43:41 02:00</time>
      </trkpt>
      <trkpt lat="44.36114" lon="4.85261">
        <ele>140</ele>
        <time>2018-10-12T09:43:42 02:00</time>
      </trkpt>
      <trkpt lat="44.36116" lon="4.85262">
        <ele>140</ele>
        <time>2018-10-12T09:43:43 02:00</time>
      </trkpt>
      <trkpt lat="44.36118" lon="4.85263">
        <ele>140</ele>
        <time>2018-10-12T09:43:44 02:00</time>
      </trkpt>
      <trkpt lat="44.3612" lon="4.85264">
        <ele>140</ele>
        <time>2018-10-12T09:43:45 02:00</time>
      </trkpt>
      <trkpt lat="44.36123" lon="4.85265">
        <ele>140</ele>
        <time>2018-10-12T09:43:46 02:00</time>
      </trkpt>
      <trkpt lat="44.36125" lon="4.85266">
        <ele>140</ele>
        <time>2018-10-12T09:43:47 02:00</time>
      </trkpt>
      <trkpt lat="44.36127" lon="4.85267">
        <ele>140</ele>
        <time>2018-10-12T09:43:48 02:00</time>
      </trkpt>
      <trkpt lat="44.3613" lon="4.85267">
        <ele>140</ele>
        <time>2018-10-12T09:43:49 02:00</time>
      </trkpt>
      <trkpt lat="44.36132" lon="4.85267">
        <ele>140</ele>
        <time>2018-10-12T09:43:50 02:00</time>
      </trkpt>
      <trkpt lat="44.36134" lon="4.85268">
        <ele>140</ele>
        <time>2018-10-12T09:43:51 02:00</time>
      </trkpt>
      <trkpt lat="44.36137" lon="4.85267">
        <ele>140</ele>
        <time>2018-10-12T09:43:52 02:00</time>
      </trkpt>
      <trkpt lat="44.36139" lon="4.85267">
        <ele>140</ele>
        <time>2018-10-12T09:43:53 02:00</time>
      </trkpt>
      <trkpt lat="44.36141" lon="4.85266">
        <ele>140</ele>
        <time>2018-10-12T09:43:54 02:00</time>
      </trkpt>
      <trkpt lat="44.36143" lon="4.85265">
        <ele>140</ele>
        <time>2018-10-12T09:43:55 02:00</time>
      </trkpt>
      <trkpt lat="44.36145" lon="4.85264">
        <ele>140</ele>
        <time>2018-10-12T09:43:56 02:00</time>
      </trkpt>
      <trkpt lat="44.36147" lon="4.85263">
        <ele>140</ele>
        <time>2018-10-12T09:43:57 02:00</time>
      </trkpt>
      <trkpt lat="44.36148" lon="4.85261">
        <ele>140</ele>
        <time>2018-10-12T09:43:58 02:00</time>
      </trkpt>
      <trkpt lat="44.3615" lon="4.85259">
        <ele>141</ele>
        <time>2018-10-12T09:43:59 02:00</time>
      </trkpt>
      <trkpt lat="44.36151" lon="4.85256">
        <ele>141</ele>
        <time>2018-10-12T09:44:00 02:00</time>
      </trkpt>
      <trkpt lat="44.36153" lon="4.85254">
        <ele>141</ele>
        <time>2018-10-12T09:44:01 02:00</time>
      </trkpt>
      <trkpt lat="44.36154" lon="4.85251">
        <ele>141</ele>
        <time>2018-10-12T09:44:02 02:00</time>
      </trkpt>
      <trkpt lat="44.36156" lon="4.85249">
        <ele>141</ele>
        <time>2018-10-12T09:44:03 02:00</time>
      </trkpt>
      <trkpt lat="44.36157" lon="4.85248">
        <ele>141</ele>
        <time>2018-10-12T09:44:04 02:00</time>
      </trkpt>
      <trkpt lat="44.36159" lon="4.85247">
        <ele>141</ele>
        <time>2018-10-12T09:44:05 02:00</time>
      </trkpt>
      <trkpt lat="44.36161" lon="4.85247">
        <ele>141</ele>
        <time>2018-10-12T09:44:06 02:00</time>
      </trkpt>
      <trkpt lat="44.36162" lon="4.85248">
        <ele>141</ele>
        <time>2018-10-12T09:44:07 02:00</time>
      </trkpt>
      <trkpt lat="44.36164" lon="4.85249">
        <ele>141</ele>
        <time>2018-10-12T09:44:08 02:00</time>
      </trkpt>
      <trkpt lat="44.36165" lon="4.85251">
        <ele>141</ele>
        <time>2018-10-12T09:44:09 02:00</time>
      </trkpt>
      <trkpt lat="44.36167" lon="4.85252">
        <ele>141</ele>
        <time>2018-10-12T09:44:10 02:00</time>
      </trkpt>
      <trkpt lat="44.36169" lon="4.85254">
        <ele>141</ele>
        <time>2018-10-12T09:44:11 02:00</time>
      </trkpt>
      <trkpt lat="44.3617" lon="4.85255">
        <ele>141</ele>
        <time>2018-10-12T09:44:12 02:00</time>
      </trkpt>
      <trkpt lat="44.36172" lon="4.85256">
        <ele>141</ele>
        <time>2018-10-12T09:44:13 02:00</time>
      </trkpt>
      <trkpt lat="44.36174" lon="4.85258">
        <ele>141</ele>
        <time>2018-10-12T09:44:14 02:00</time>
      </trkpt>
      <trkpt lat="44.36176" lon="4.85259">
        <ele>141</ele>
        <time>2018-10-12T09:44:15 02:00</time>
      </trkpt>
      <trkpt lat="44.36178" lon="4.85261">
        <ele>141</ele>
        <time>2018-10-12T09:44:16 02:00</time>
      </trkpt>
      <trkpt lat="44.3618" lon="4.85262">
        <ele>141</ele>
        <time>2018-10-12T09:44:17 02:00</time>
      </trkpt>
      <trkpt lat="44.36182" lon="4.85264">
        <ele>141</ele>
        <time>2018-10-12T09:44:18 02:00</time>
      </trkpt>
      <trkpt lat="44.36184" lon="4.85266">
        <ele>141</ele>
        <time>2018-10-12T09:44:19 02:00</time>
      </trkpt>
      <trkpt lat="44.36187" lon="4.85267">
        <ele>141</ele>
        <time>2018-10-12T09:44:20 02:00</time>
      </trkpt>
      <trkpt lat="44.36189" lon="4.85269">
        <ele>141</ele>
        <time>2018-10-12T09:44:21 02:00</time>
      </trkpt>
      <trkpt lat="44.36191" lon="4.85271">
        <ele>142</ele>
        <time>2018-10-12T09:44:22 02:00</time>
      </trkpt>
      <trkpt lat="44.36193" lon="4.85272">
        <ele>142</ele>
        <time>2018-10-12T09:44:23 02:00</time>
      </trkpt>
      <trkpt lat="44.36195" lon="4.85274">
        <ele>142</ele>
        <time>2018-10-12T09:44:24 02:00</time>
      </trkpt>
      <trkpt lat="44.36196" lon="4.85275">
        <ele>142</ele>
        <time>2018-10-12T09:44:25 02:00</time>
      </trkpt>
      <trkpt lat="44.36198" lon="4.85277">
        <ele>142</ele>
        <time>2018-10-12T09:44:26 02:00</time>
      </trkpt>
      <trkpt lat="44.362" lon="4.85278">
        <ele>142</ele>
        <time>2018-10-12T09:44:27 02:00</time>
      </trkpt>
      <trkpt lat="44.36202" lon="4.85279">
        <ele>142</ele>
        <time>2018-10-12T09:44:28 02:00</time>
      </trkpt>
      <trkpt lat="44.36204" lon="4.8528">
        <ele>142</ele>
        <time>2018-10-12T09:44:29 02:00</time>
      </trkpt>
      <trkpt lat="44.36206" lon="4.85281">
        <ele>142</ele>
        <time>2018-10-12T09:44:30 02:00</time>
      </trkpt>
      <trkpt lat="44.36208" lon="4.85282">
        <ele>142</ele>
        <time>2018-10-12T09:44:31 02:00</time>
      </trkpt>
      <trkpt lat="44.36211" lon="4.85283">
        <ele>142</ele>
        <time>2018-10-12T09:44:32 02:00</time>
      </trkpt>
      <trkpt lat="44.36213" lon="4.85284">
        <ele>142</ele>
        <time>2018-10-12T09:44:33 02:00</time>
      </trkpt>
      <trkpt lat="44.36215" lon="4.85285">
        <ele>142</ele>
        <time>2018-10-12T09:44:34 02:00</time>
      </trkpt>
      <trkpt lat="44.36217" lon="4.85286">
        <ele>142</ele>
        <time>2018-10-12T09:44:35 02:00</time>
      </trkpt>
      <trkpt lat="44.36219" lon="4.85287">
        <ele>142</ele>
        <time>2018-10-12T09:44:36 02:00</time>
      </trkpt>
      <trkpt lat="44.36221" lon="4.85288">
        <ele>142</ele>
        <time>2018-10-12T09:44:37 02:00</time>
      </trkpt>
      <trkpt lat="44.36223" lon="4.85289">
        <ele>142</ele>
        <time>2018-10-12T09:44:38 02:00</time>
      </trkpt>
      <trkpt lat="44.36225" lon="4.85289">
        <ele>142</ele>
        <time>2018-10-12T09:44:39 02:00</time>
      </trkpt>
      <trkpt lat="44.36227" lon="4.85289">
        <ele>142</ele>
        <time>2018-10-12T09:44:40 02:00</time>
      </trkpt>
      <trkpt lat="44.36228" lon="4.85287">
        <ele>142</ele>
        <time>2018-10-12T09:44:41 02:00</time>
      </trkpt>
      <trkpt lat="44.3623" lon="4.85285">
        <ele>143</ele>
        <time>2018-10-12T09:44:42 02:00</time>
      </trkpt>
      <trkpt lat="44.36231" lon="4.85282">
        <ele>143</ele>
        <time>2018-10-12T09:44:43 02:00</time>
      </trkpt>
      <trkpt lat="44.36232" lon="4.8528">
        <ele>143</ele>
        <time>2018-10-12T09:44:44 02:00</time>
      </trkpt>
      <trkpt lat="44.36233" lon="4.85278">
        <ele>143</ele>
        <time>2018-10-12T09:44:45 02:00</time>
      </trkpt>
      <trkpt lat="44.36235" lon="4.85276">
        <ele>143</ele>
        <time>2018-10-12T09:44:46 02:00</time>
      </trkpt>
      <trkpt lat="44.36236" lon="4.85275">
        <ele>143</ele>
        <time>2018-10-12T09:44:47 02:00</time>
      </trkpt>
      <trkpt lat="44.36238" lon="4.85276">
        <ele>143</ele>
        <time>2018-10-12T09:44:48 02:00</time>
      </trkpt>
      <trkpt lat="44.36239" lon="4.85276">
        <ele>143</ele>
        <time>2018-10-12T09:44:49 02:00</time>
      </trkpt>
      <trkpt lat="44.36241" lon="4.85278">
        <ele>143</ele>
        <time>2018-10-12T09:44:50 02:00</time>
      </trkpt>
      <trkpt lat="44.36242" lon="4.85279">
        <ele>143</ele>
        <time>2018-10-12T09:44:51 02:00</time>
      </trkpt>
      <trkpt lat="44.36243" lon="4.85281">
        <ele>143</ele>
        <time>2018-10-12T09:44:52 02:00</time>
      </trkpt>
      <trkpt lat="44.36244" lon="4.85283">
        <ele>143</ele>
        <time>2018-10-12T09:44:53 02:00</time>
      </trkpt>
      <trkpt lat="44.36246" lon="4.85284">
        <ele>143</ele>
        <time>2018-10-12T09:44:54 02:00</time>
      </trkpt>
      <trkpt lat="44.36247" lon="4.85286">
        <ele>143</ele>
        <time>2018-10-12T09:44:55 02:00</time>
      </trkpt>
      <trkpt lat="44.36249" lon="4.85288">
        <ele>143</ele>
        <time>2018-10-12T09:44:56 02:00</time>
      </trkpt>
      <trkpt lat="44.36251" lon="4.85289">
        <ele>143</ele>
        <time>2018-10-12T09:44:57 02:00</time>
      </trkpt>
      <trkpt lat="44.36252" lon="4.85291">
        <ele>143</ele>
        <time>2018-10-12T09:44:58 02:00</time>
      </trkpt>
      <trkpt lat="44.36254" lon="4.85293">
        <ele>143</ele>
        <time>2018-10-12T09:44:59 02:00</time>
      </trkpt>
      <trkpt lat="44.36256" lon="4.85295">
        <ele>143</ele>
        <time>2018-10-12T09:45:00 02:00</time>
      </trkpt>
      <trkpt lat="44.36258" lon="4.85297">
        <ele>143</ele>
        <time>2018-10-12T09:45:01 02:00</time>
      </trkpt>
      <trkpt lat="44.3626" lon="4.85299">
        <ele>143</ele>
        <time>2018-10-12T09:45:02 02:00</time>
      </trkpt>
      <trkpt lat="44.36263" lon="4.85301">
        <ele>143</ele>
        <time>2018-10-12T09:45:03 02:00</time>
      </trkpt>
      <trkpt lat="44.36265" lon="4.85304">
        <ele>143</ele>
        <time>2018-10-12T09:45:04 02:00</time>
      </trkpt>
      <trkpt lat="44.36267" lon="4.85306">
        <ele>143</ele>
        <time>2018-10-12T09:45:05 02:00</time>
      </trkpt>
      <trkpt lat="44.3627" lon="4.85308">
        <ele>143</ele>
        <time>2018-10-12T09:45:06 02:00</time>
      </trkpt>
      <trkpt lat="44.36272" lon="4.85311">
        <ele>143</ele>
        <time>2018-10-12T09:45:07 02:00</time>
      </trkpt>
      <trkpt lat="44.36275" lon="4.85313">
        <ele>143</ele>
        <time>2018-10-12T09:45:08 02:00</time>
      </trkpt>
      <trkpt lat="44.36277" lon="4.85316">
        <ele>143</ele>
        <time>2018-10-12T09:45:09 02:00</time>
      </trkpt>
      <trkpt lat="44.3628" lon="4.85318">
        <ele>143</ele>
        <time>2018-10-12T09:45:10 02:00</time>
      </trkpt>
      <trkpt lat="44.36282" lon="4.85321">
        <ele>143</ele>
        <time>2018-10-12T09:45:11 02:00</time>
      </trkpt>
      <trkpt lat="44.36285" lon="4.85323">
        <ele>143</ele>
        <time>2018-10-12T09:45:12 02:00</time>
      </trkpt>
      <trkpt lat="44.36287" lon="4.85326">
        <ele>143</ele>
        <time>2018-10-12T09:45:13 02:00</time>
      </trkpt>
      <trkpt lat="44.3629" lon="4.85329">
        <ele>143</ele>
        <time>2018-10-12T09:45:14 02:00</time>
      </trkpt>
      <trkpt lat="44.36292" lon="4.85331">
        <ele>143</ele>
        <time>2018-10-12T09:45:15 02:00</time>
      </trkpt>
      <trkpt lat="44.36295" lon="4.85334">
        <ele>143</ele>
        <time>2018-10-12T09:45:16 02:00</time>
      </trkpt>
      <trkpt lat="44.36297" lon="4.85336">
        <ele>143</ele>
        <time>2018-10-12T09:45:17 02:00</time>
      </trkpt>
      <trkpt lat="44.363" lon="4.85339">
        <ele>143</ele>
        <time>2018-10-12T09:45:18 02:00</time>
      </trkpt>
      <trkpt lat="44.36302" lon="4.85341">
        <ele>143</ele>
        <time>2018-10-12T09:45:19 02:00</time>
      </trkpt>
      <trkpt lat="44.36305" lon="4.85344">
        <ele>143</ele>
        <time>2018-10-12T09:45:20 02:00</time>
      </trkpt>
      <trkpt lat="44.36307" lon="4.85346">
        <ele>143</ele>
        <time>2018-10-12T09:45:21 02:00</time>
      </trkpt>
      <trkpt lat="44.3631" lon="4.85349">
        <ele>143</ele>
        <time>2018-10-12T09:45:22 02:00</time>
      </trkpt>
      <trkpt lat="44.36312" lon="4.85351">
        <ele>144</ele>
        <time>2018-10-12T09:45:23 02:00</time>
      </trkpt>
      <trkpt lat="44.36314" lon="4.85354">
        <ele>144</ele>
        <time>2018-10-12T09:45:24 02:00</time>
      </trkpt>
      <trkpt lat="44.36317" lon="4.85356">
        <ele>144</ele>
        <time>2018-10-12T09:45:25 02:00</time>
      </trkpt>
      <trkpt lat="44.36319" lon="4.85358">
        <ele>144</ele>
        <time>2018-10-12T09:45:26 02:00</time>
      </trkpt>
      <trkpt lat="44.36321" lon="4.85361">
        <ele>144</ele>
        <time>2018-10-12T09:45:27 02:00</time>
      </trkpt>
      <trkpt lat="44.36324" lon="4.85363">
        <ele>144</ele>
        <time>2018-10-12T09:45:28 02:00</time>
      </trkpt>
      <trkpt lat="44.36326" lon="4.85365">
        <ele>144</ele>
        <time>2018-10-12T09:45:29 02:00</time>
      </trkpt>
      <trkpt lat="44.36328" lon="4.85368">
        <ele>144</ele>
        <time>2018-10-12T09:45:30 02:00</time>
      </trkpt>
      <trkpt lat="44.3633" lon="4.8537">
        <ele>144</ele>
        <time>2018-10-12T09:45:31 02:00</time>
      </trkpt>
      <trkpt lat="44.36332" lon="4.85372">
        <ele>144</ele>
        <time>2018-10-12T09:45:32 02:00</time>
      </trkpt>
      <trkpt lat="44.36334" lon="4.85374">
        <ele>144</ele>
        <time>2018-10-12T09:45:33 02:00</time>
      </trkpt>
      <trkpt lat="44.36336" lon="4.85376">
        <ele>144</ele>
        <time>2018-10-12T09:45:34 02:00</time>
      </trkpt>
      <trkpt lat="44.36338" lon="4.85378">
        <ele>144</ele>
        <time>2018-10-12T09:45:35 02:00</time>
      </trkpt>
      <trkpt lat="44.3634" lon="4.85381">
        <ele>144</ele>
        <time>2018-10-12T09:45:36 02:00</time>
      </trkpt>
      <trkpt lat="44.36342" lon="4.85383">
        <ele>144</ele>
        <time>2018-10-12T09:45:37 02:00</time>
      </trkpt>
      <trkpt lat="44.36344" lon="4.85385">
        <ele>144</ele>
        <time>2018-10-12T09:45:38 02:00</time>
      </trkpt>
      <trkpt lat="44.36345" lon="4.85387">
        <ele>144</ele>
        <time>2018-10-12T09:45:39 02:00</time>
      </trkpt>
      <trkpt lat="44.36345" lon="4.8539">
        <ele>144</ele>
        <time>2018-10-12T09:45:40 02:00</time>
      </trkpt>
      <trkpt lat="44.36344" lon="4.85392">
        <ele>144</ele>
        <time>2018-10-12T09:45:41 02:00</time>
      </trkpt>
      <trkpt lat="44.36342" lon="4.85394">
        <ele>144</ele>
        <time>2018-10-12T09:45:42 02:00</time>
      </trkpt>
      <trkpt lat="44.36341" lon="4.85397">
        <ele>144</ele>
        <time>2018-10-12T09:45:43 02:00</time>
      </trkpt>
      <trkpt lat="44.36339" lon="4.85399">
        <ele>144</ele>
        <time>2018-10-12T09:45:44 02:00</time>
      </trkpt>
      <trkpt lat="44.36336" lon="4.85402">
        <ele>144</ele>
        <time>2018-10-12T09:45:45 02:00</time>
      </trkpt>
      <trkpt lat="44.36334" lon="4.85404">
        <ele>144</ele>
        <time>2018-10-12T09:45:46 02:00</time>
      </trkpt>
      <trkpt lat="44.36332" lon="4.85407">
        <ele>144</ele>
        <time>2018-10-12T09:45:47 02:00</time>
      </trkpt>
      <trkpt lat="44.3633" lon="4.85409">
        <ele>144</ele>
        <time>2018-10-12T09:45:48 02:00</time>
      </trkpt>
      <trkpt lat="44.36328" lon="4.85412">
        <ele>144</ele>
        <time>2018-10-12T09:45:49 02:00</time>
      </trkpt>
      <trkpt lat="44.36326" lon="4.85414">
        <ele>144</ele>
        <time>2018-10-12T09:45:50 02:00</time>
      </trkpt>
      <trkpt lat="44.36324" lon="4.85417">
        <ele>144</ele>
        <time>2018-10-12T09:45:51 02:00</time>
      </trkpt>
      <trkpt lat="44.36322" lon="4.8542">
        <ele>144</ele>
        <time>2018-10-12T09:45:52 02:00</time>
      </trkpt>
      <trkpt lat="44.3632" lon="4.85422">
        <ele>144</ele>
        <time>2018-10-12T09:45:53 02:00</time>
      </trkpt>
      <trkpt lat="44.36318" lon="4.85425">
        <ele>144</ele>
        <time>2018-10-12T09:45:54 02:00</time>
      </trkpt>
      <trkpt lat="44.36316" lon="4.85428">
        <ele>144</ele>
        <time>2018-10-12T09:45:55 02:00</time>
      </trkpt>
      <trkpt lat="44.36315" lon="4.85432">
        <ele>144</ele>
        <time>2018-10-12T09:45:56 02:00</time>
      </trkpt>
      <trkpt lat="44.36313" lon="4.85435">
        <ele>144</ele>
        <time>2018-10-12T09:45:57 02:00</time>
      </trkpt>
      <trkpt lat="44.36311" lon="4.85438">
        <ele>144</ele>
        <time>2018-10-12T09:45:58 02:00</time>
      </trkpt>
      <trkpt lat="44.36309" lon="4.85442">
        <ele>144</ele>
        <time>2018-10-12T09:45:59 02:00</time>
      </trkpt>
      <trkpt lat="44.36307" lon="4.85446">
        <ele>144</ele>
        <time>2018-10-12T09:46:00 02:00</time>
      </trkpt>
      <trkpt lat="44.36304" lon="4.8545">
        <ele>144</ele>
        <time>2018-10-12T09:46:01 02:00</time>
      </trkpt>
      <trkpt lat="44.36302" lon="4.85453">
        <ele>144</ele>
        <time>2018-10-12T09:46:02 02:00</time>
      </trkpt>
      <trkpt lat="44.363" lon="4.85457">
        <ele>144</ele>
        <time>2018-10-12T09:46:03 02:00</time>
      </trkpt>
      <trkpt lat="44.36298" lon="4.8546">
        <ele>144</ele>
        <time>2018-10-12T09:46:04 02:00</time>
      </trkpt>
      <trkpt lat="44.36295" lon="4.85463">
        <ele>144</ele>
        <time>2018-10-12T09:46:05 02:00</time>
      </trkpt>
      <trkpt lat="44.36293" lon="4.85466">
        <ele>144</ele>
        <time>2018-10-12T09:46:06 02:00</time>
      </trkpt>
      <trkpt lat="44.3629" lon="4.85467">
        <ele>144</ele>
        <time>2018-10-12T09:46:07 02:00</time>
      </trkpt>
      <trkpt lat="44.36287" lon="4.85468">
        <ele>144</ele>
        <time>2018-10-12T09:46:08 02:00</time>
      </trkpt>
      <trkpt lat="44.36284" lon="4.85469">
        <ele>144</ele>
        <time>2018-10-12T09:46:09 02:00</time>
      </trkpt>
      <trkpt lat="44.36282" lon="4.85469">
        <ele>144</ele>
        <time>2018-10-12T09:46:10 02:00</time>
      </trkpt>
      <trkpt lat="44.36279" lon="4.8547">
        <ele>144</ele>
        <time>2018-10-12T09:46:11 02:00</time>
      </trkpt>
      <trkpt lat="44.36276" lon="4.8547">
        <ele>144</ele>
        <time>2018-10-12T09:46:12 02:00</time>
      </trkpt>
      <trkpt lat="44.36274" lon="4.8547">
        <ele>144</ele>
        <time>2018-10-12T09:46:13 02:00</time>
      </trkpt>
      <trkpt lat="44.36271" lon="4.8547">
        <ele>144</ele>
        <time>2018-10-12T09:46:14 02:00</time>
      </trkpt>
      <trkpt lat="44.36269" lon="4.8547">
        <ele>144</ele>
        <time>2018-10-12T09:46:15 02:00</time>
      </trkpt>
      <trkpt lat="44.36266" lon="4.8547">
        <ele>144</ele>
        <time>2018-10-12T09:46:16 02:00</time>
      </trkpt>
      <trkpt lat="44.36264" lon="4.8547">
        <ele>144</ele>
        <time>2018-10-12T09:46:17 02:00</time>
      </trkpt>
      <trkpt lat="44.36261" lon="4.8547">
        <ele>144</ele>
        <time>2018-10-12T09:46:18 02:00</time>
      </trkpt>
      <trkpt lat="44.36259" lon="4.8547">
        <ele>144</ele>
        <time>2018-10-12T09:46:19 02:00</time>
      </trkpt>
      <trkpt lat="44.36256" lon="4.8547">
        <ele>144</ele>
        <time>2018-10-12T09:46:20 02:00</time>
      </trkpt>
      <trkpt lat="44.36254" lon="4.8547">
        <ele>144</ele>
        <time>2018-10-12T09:46:21 02:00</time>
      </trkpt>
      <trkpt lat="44.36251" lon="4.8547">
        <ele>144</ele>
        <time>2018-10-12T09:46:22 02:00</time>
      </trkpt>
      <trkpt lat="44.36249" lon="4.8547">
        <ele>144</ele>
        <time>2018-10-12T09:46:23 02:00</time>
      </trkpt>
      <trkpt lat="44.36246" lon="4.85471">
        <ele>144</ele>
        <time>2018-10-12T09:46:24 02:00</time>
      </trkpt>
      <trkpt lat="44.36244" lon="4.85471">
        <ele>144</ele>
        <time>2018-10-12T09:46:25 02:00</time>
      </trkpt>
      <trkpt lat="44.36241" lon="4.85471">
        <ele>144</ele>
        <time>2018-10-12T09:46:26 02:00</time>
      </trkpt>
      <trkpt lat="44.36238" lon="4.85471">
        <ele>144</ele>
        <time>2018-10-12T09:46:27 02:00</time>
      </trkpt>
      <trkpt lat="44.36236" lon="4.85472">
        <ele>144</ele>
        <time>2018-10-12T09:46:28 02:00</time>
      </trkpt>
      <trkpt lat="44.36233" lon="4.85473">
        <ele>144</ele>
        <time>2018-10-12T09:46:29 02:00</time>
      </trkpt>
      <trkpt lat="44.36231" lon="4.85473">
        <ele>144</ele>
        <time>2018-10-12T09:46:30 02:00</time>
      </trkpt>
      <trkpt lat="44.36228" lon="4.85474">
        <ele>144</ele>
        <time>2018-10-12T09:46:31 02:00</time>
      </trkpt>
      <trkpt lat="44.36225" lon="4.85475">
        <ele>144</ele>
        <time>2018-10-12T09:46:32 02:00</time>
      </trkpt>
      <trkpt lat="44.36223" lon="4.85476">
        <ele>144</ele>
        <time>2018-10-12T09:46:33 02:00</time>
      </trkpt>
      <trkpt lat="44.36221" lon="4.85477">
        <ele>144</ele>
        <time>2018-10-12T09:46:34 02:00</time>
      </trkpt>
      <trkpt lat="44.36218" lon="4.85479">
        <ele>144</ele>
        <time>2018-10-12T09:46:35 02:00</time>
      </trkpt>
      <trkpt lat="44.36216" lon="4.85481">
        <ele>144</ele>
        <time>2018-10-12T09:46:36 02:00</time>
      </trkpt>
      <trkpt lat="44.36214" lon="4.85483">
        <ele>144</ele>
        <time>2018-10-12T09:46:37 02:00</time>
      </trkpt>
      <trkpt lat="44.36212" lon="4.85486">
        <ele>144</ele>
        <time>2018-10-12T09:46:38 02:00</time>
      </trkpt>
      <trkpt lat="44.36211" lon="4.85489">
        <ele>144</ele>
        <time>2018-10-12T09:46:39 02:00</time>
      </trkpt>
      <trkpt lat="44.36209" lon="4.85492">
        <ele>144</ele>
        <time>2018-10-12T09:46:40 02:00</time>
      </trkpt>
      <trkpt lat="44.36207" lon="4.85495">
        <ele>144</ele>
        <time>2018-10-12T09:46:41 02:00</time>
      </trkpt>
      <trkpt lat="44.36206" lon="4.85499">
        <ele>144</ele>
        <time>2018-10-12T09:46:42 02:00</time>
      </trkpt>
      <trkpt lat="44.36204" lon="4.85502">
        <ele>144</ele>
        <time>2018-10-12T09:46:43 02:00</time>
      </trkpt>
      <trkpt lat="44.36202" lon="4.85505">
        <ele>144</ele>
        <time>2018-10-12T09:46:44 02:00</time>
      </trkpt>
      <trkpt lat="44.362" lon="4.85508">
        <ele>144</ele>
        <time>2018-10-12T09:46:45 02:00</time>
      </trkpt>
      <trkpt lat="44.36198" lon="4.8551">
        <ele>144</ele>
        <time>2018-10-12T09:46:46 02:00</time>
      </trkpt>
      <trkpt lat="44.36196" lon="4.85513">
        <ele>144</ele>
        <time>2018-10-12T09:46:47 02:00</time>
      </trkpt>
      <trkpt lat="44.36194" lon="4.85516">
        <ele>144</ele>
        <time>2018-10-12T09:46:48 02:00</time>
      </trkpt>
      <trkpt lat="44.36192" lon="4.85519">
        <ele>144</ele>
        <time>2018-10-12T09:46:49 02:00</time>
      </trkpt>
      <trkpt lat="44.3619" lon="4.85522">
        <ele>144</ele>
        <time>2018-10-12T09:46:50 02:00</time>
      </trkpt>
      <trkpt lat="44.36189" lon="4.85525">
        <ele>144</ele>
        <time>2018-10-12T09:46:51 02:00</time>
      </trkpt>
      <trkpt lat="44.36187" lon="4.85528">
        <ele>144</ele>
        <time>2018-10-12T09:46:52 02:00</time>
      </trkpt>
      <trkpt lat="44.36185" lon="4.85532">
        <ele>144</ele>
        <time>2018-10-12T09:46:53 02:00</time>
      </trkpt>
      <trkpt lat="44.36184" lon="4.85535">
        <ele>144</ele>
        <time>2018-10-12T09:46:54 02:00</time>
      </trkpt>
      <trkpt lat="44.36182" lon="4.85539">
        <ele>144</ele>
        <time>2018-10-12T09:46:55 02:00</time>
      </trkpt>
      <trkpt lat="44.36181" lon="4.85542">
        <ele>145</ele>
        <time>2018-10-12T09:46:56 02:00</time>
      </trkpt>
      <trkpt lat="44.36179" lon="4.85546">
        <ele>145</ele>
        <time>2018-10-12T09:46:57 02:00</time>
      </trkpt>
      <trkpt lat="44.36178" lon="4.85549">
        <ele>145</ele>
        <time>2018-10-12T09:46:58 02:00</time>
      </trkpt>
      <trkpt lat="44.36176" lon="4.85552">
        <ele>145</ele>
        <time>2018-10-12T09:46:59 02:00</time>
      </trkpt>
      <trkpt lat="44.36175" lon="4.85556">
        <ele>145</ele>
        <time>2018-10-12T09:47:00 02:00</time>
      </trkpt>
      <trkpt lat="44.36174" lon="4.85559">
        <ele>145</ele>
        <time>2018-10-12T09:47:01 02:00</time>
      </trkpt>
      <trkpt lat="44.36172" lon="4.85563">
        <ele>145</ele>
        <time>2018-10-12T09:47:02 02:00</time>
      </trkpt>
      <trkpt lat="44.36171" lon="4.85566">
        <ele>145</ele>
        <time>2018-10-12T09:47:03 02:00</time>
      </trkpt>
      <trkpt lat="44.36169" lon="4.85569">
        <ele>145</ele>
        <time>2018-10-12T09:47:04 02:00</time>
      </trkpt>
      <trkpt lat="44.36168" lon="4.85573">
        <ele>145</ele>
        <time>2018-10-12T09:47:05 02:00</time>
      </trkpt>
      <trkpt lat="44.36167" lon="4.85576">
        <ele>145</ele>
        <time>2018-10-12T09:47:06 02:00</time>
      </trkpt>
      <trkpt lat="44.36165" lon="4.85579">
        <ele>145</ele>
        <time>2018-10-12T09:47:07 02:00</time>
      </trkpt>
      <trkpt lat="44.36164" lon="4.85583">
        <ele>145</ele>
        <time>2018-10-12T09:47:08 02:00</time>
      </trkpt>
      <trkpt lat="44.36162" lon="4.85586">
        <ele>145</ele>
        <time>2018-10-12T09:47:09 02:00</time>
      </trkpt>
      <trkpt lat="44.36161" lon="4.8559">
        <ele>145</ele>
        <time>2018-10-12T09:47:10 02:00</time>
      </trkpt>
      <trkpt lat="44.3616" lon="4.85593">
        <ele>145</ele>
        <time>2018-10-12T09:47:11 02:00</time>
      </trkpt>
      <trkpt lat="44.36158" lon="4.85597">
        <ele>145</ele>
        <time>2018-10-12T09:47:12 02:00</time>
      </trkpt>
      <trkpt lat="44.36157" lon="4.856">
        <ele>145</ele>
        <time>2018-10-12T09:47:13 02:00</time>
      </trkpt>
      <trkpt lat="44.36156" lon="4.85604">
        <ele>145</ele>
        <time>2018-10-12T09:47:14 02:00</time>
      </trkpt>
      <trkpt lat="44.36154" lon="4.85607">
        <ele>145</ele>
        <time>2018-10-12T09:47:15 02:00</time>
      </trkpt>
      <trkpt lat="44.36153" lon="4.85611">
        <ele>145</ele>
        <time>2018-10-12T09:47:16 02:00</time>
      </trkpt>
      <trkpt lat="44.36151" lon="4.85614">
        <ele>145</ele>
        <time>2018-10-12T09:47:17 02:00</time>
      </trkpt>
      <trkpt lat="44.3615" lon="4.85618">
        <ele>145</ele>
        <time>2018-10-12T09:47:18 02:00</time>
      </trkpt>
      <trkpt lat="44.36149" lon="4.85621">
        <ele>145</ele>
        <time>2018-10-12T09:47:19 02:00</time>
      </trkpt>
      <trkpt lat="44.36147" lon="4.85625">
        <ele>145</ele>
        <time>2018-10-12T09:47:20 02:00</time>
      </trkpt>
      <trkpt lat="44.36146" lon="4.85629">
        <ele>145</ele>
        <time>2018-10-12T09:47:21 02:00</time>
      </trkpt>
      <trkpt lat="44.36146" lon="4.85634">
        <ele>145</ele>
        <time>2018-10-12T09:47:22 02:00</time>
      </trkpt>
      <trkpt lat="44.36145" lon="4.85638">
        <ele>145</ele>
        <time>2018-10-12T09:47:23 02:00</time>
      </trkpt>
      <trkpt lat="44.36145" lon="4.85643">
        <ele>145</ele>
        <time>2018-10-12T09:47:24 02:00</time>
      </trkpt>
      <trkpt lat="44.36144" lon="4.85647">
        <ele>145</ele>
        <time>2018-10-12T09:47:25 02:00</time>
      </trkpt>
      <trkpt lat="44.36143" lon="4.85651">
        <ele>146</ele>
        <time>2018-10-12T09:47:26 02:00</time>
      </trkpt>
      <trkpt lat="44.36141" lon="4.85655">
        <ele>146</ele>
        <time>2018-10-12T09:47:27 02:00</time>
      </trkpt>
      <trkpt lat="44.3614" lon="4.85659">
        <ele>146</ele>
        <time>2018-10-12T09:47:28 02:00</time>
      </trkpt>
      <trkpt lat="44.36138" lon="4.85663">
        <ele>146</ele>
        <time>2018-10-12T09:47:29 02:00</time>
      </trkpt>
      <trkpt lat="44.36137" lon="4.85667">
        <ele>146</ele>
        <time>2018-10-12T09:47:30 02:00</time>
      </trkpt>
      <trkpt lat="44.36135" lon="4.8567">
        <ele>146</ele>
        <time>2018-10-12T09:47:31 02:00</time>
      </trkpt>
      <trkpt lat="44.36134" lon="4.85674">
        <ele>146</ele>
        <time>2018-10-12T09:47:32 02:00</time>
      </trkpt>
      <trkpt lat="44.36132" lon="4.85677">
        <ele>146</ele>
        <time>2018-10-12T09:47:33 02:00</time>
      </trkpt>
      <trkpt lat="44.36131" lon="4.85681">
        <ele>146</ele>
        <time>2018-10-12T09:47:34 02:00</time>
      </trkpt>
      <trkpt lat="44.36129" lon="4.85684">
        <ele>146</ele>
        <time>2018-10-12T09:47:35 02:00</time>
      </trkpt>
      <trkpt lat="44.36128" lon="4.85688">
        <ele>146</ele>
        <time>2018-10-12T09:47:36 02:00</time>
      </trkpt>
      <trkpt lat="44.36127" lon="4.85691">
        <ele>146</ele>
        <time>2018-10-12T09:47:37 02:00</time>
      </trkpt>
      <trkpt lat="44.36126" lon="4.85695">
        <ele>146</ele>
        <time>2018-10-12T09:47:38 02:00</time>
      </trkpt>
      <trkpt lat="44.36124" lon="4.85698">
        <ele>145</ele>
        <time>2018-10-12T09:47:39 02:00</time>
      </trkpt>
      <trkpt lat="44.36123" lon="4.85702">
        <ele>145</ele>
        <time>2018-10-12T09:47:40 02:00</time>
      </trkpt>
      <trkpt lat="44.36122" lon="4.85705">
        <ele>145</ele>
        <time>2018-10-12T09:47:41 02:00</time>
      </trkpt>
      <trkpt lat="44.36122" lon="4.85709">
        <ele>146</ele>
        <time>2018-10-12T09:47:42 02:00</time>
      </trkpt>
      <trkpt lat="44.36121" lon="4.85713">
        <ele>146</ele>
        <time>2018-10-12T09:47:43 02:00</time>
      </trkpt>
      <trkpt lat="44.3612" lon="4.85716">
        <ele>146</ele>
        <time>2018-10-12T09:47:44 02:00</time>
      </trkpt>
      <trkpt lat="44.36118" lon="4.8572">
        <ele>146</ele>
        <time>2018-10-12T09:47:45 02:00</time>
      </trkpt>
      <trkpt lat="44.36117" lon="4.85723">
        <ele>146</ele>
        <time>2018-10-12T09:47:46 02:00</time>
      </trkpt>
      <trkpt lat="44.36116" lon="4.85727">
        <ele>146</ele>
        <time>2018-10-12T09:47:47 02:00</time>
      </trkpt>
      <trkpt lat="44.36115" lon="4.8573">
        <ele>146</ele>
        <time>2018-10-12T09:47:48 02:00</time>
      </trkpt>
      <trkpt lat="44.36114" lon="4.85734">
        <ele>146</ele>
        <time>2018-10-12T09:47:49 02:00</time>
      </trkpt>
      <trkpt lat="44.36114" lon="4.85738">
        <ele>146</ele>
        <time>2018-10-12T09:47:50 02:00</time>
      </trkpt>
      <trkpt lat="44.36114" lon="4.85741">
        <ele>146</ele>
        <time>2018-10-12T09:47:51 02:00</time>
      </trkpt>
      <trkpt lat="44.36115" lon="4.85745">
        <ele>146</ele>
        <time>2018-10-12T09:47:52 02:00</time>
      </trkpt>
      <trkpt lat="44.36116" lon="4.85748">
        <ele>146</ele>
        <time>2018-10-12T09:47:53 02:00</time>
      </trkpt>
      <trkpt lat="44.36117" lon="4.85751">
        <ele>146</ele>
        <time>2018-10-12T09:47:54 02:00</time>
      </trkpt>
      <trkpt lat="44.36119" lon="4.85754">
        <ele>146</ele>
        <time>2018-10-12T09:47:55 02:00</time>
      </trkpt>
      <trkpt lat="44.36121" lon="4.85757">
        <ele>146</ele>
        <time>2018-10-12T09:47:56 02:00</time>
      </trkpt>
      <trkpt lat="44.36123" lon="4.85759">
        <ele>146</ele>
        <time>2018-10-12T09:47:57 02:00</time>
      </trkpt>
      <trkpt lat="44.36125" lon="4.85762">
        <ele>146</ele>
        <time>2018-10-12T09:47:58 02:00</time>
      </trkpt>
      <trkpt lat="44.36128" lon="4.85764">
        <ele>146</ele>
        <time>2018-10-12T09:47:59 02:00</time>
      </trkpt>
      <trkpt lat="44.3613" lon="4.85766">
        <ele>146</ele>
        <time>2018-10-12T09:48:00 02:00</time>
      </trkpt>
      <trkpt lat="44.36132" lon="4.85768">
        <ele>146</ele>
        <time>2018-10-12T09:48:01 02:00</time>
      </trkpt>
      <trkpt lat="44.36134" lon="4.8577">
        <ele>146</ele>
        <time>2018-10-12T09:48:02 02:00</time>
      </trkpt>
      <trkpt lat="44.36136" lon="4.85772">
        <ele>146</ele>
        <time>2018-10-12T09:48:03 02:00</time>
      </trkpt>
      <trkpt lat="44.36138" lon="4.85774">
        <ele>146</ele>
        <time>2018-10-12T09:48:04 02:00</time>
      </trkpt>
      <trkpt lat="44.3614" lon="4.85777">
        <ele>146</ele>
        <time>2018-10-12T09:48:05 02:00</time>
      </trkpt>
      <trkpt lat="44.36142" lon="4.8578">
        <ele>146</ele>
        <time>2018-10-12T09:48:06 02:00</time>
      </trkpt>
      <trkpt lat="44.36142" lon="4.85783">
        <ele>146</ele>
        <time>2018-10-12T09:48:07 02:00</time>
      </trkpt>
      <trkpt lat="44.36142" lon="4.85787">
        <ele>146</ele>
        <time>2018-10-12T09:48:08 02:00</time>
      </trkpt>
      <trkpt lat="44.36141" lon="4.8579">
        <ele>146</ele>
        <time>2018-10-12T09:48:09 02:00</time>
      </trkpt>
      <trkpt lat="44.3614" lon="4.85794">
        <ele>146</ele>
        <time>2018-10-12T09:48:10 02:00</time>
      </trkpt>
      <trkpt lat="44.36139" lon="4.85797">
        <ele>146</ele>
        <time>2018-10-12T09:48:11 02:00</time>
      </trkpt>
      <trkpt lat="44.36138" lon="4.85801">
        <ele>147</ele>
        <time>2018-10-12T09:48:12 02:00</time>
      </trkpt>
      <trkpt lat="44.36137" lon="4.85804">
        <ele>147</ele>
        <time>2018-10-12T09:48:13 02:00</time>
      </trkpt>
      <trkpt lat="44.36136" lon="4.85807">
        <ele>147</ele>
        <time>2018-10-12T09:48:14 02:00</time>
      </trkpt>
      <trkpt lat="44.36135" lon="4.85811">
        <ele>147</ele>
        <time>2018-10-12T09:48:15 02:00</time>
      </trkpt>
      <trkpt lat="44.36134" lon="4.85814">
        <ele>147</ele>
        <time>2018-10-12T09:48:16 02:00</time>
      </trkpt>
      <trkpt lat="44.36133" lon="4.85818">
        <ele>147</ele>
        <time>2018-10-12T09:48:17 02:00</time>
      </trkpt>
      <trkpt lat="44.36132" lon="4.85822">
        <ele>147</ele>
        <time>2018-10-12T09:48:18 02:00</time>
      </trkpt>
      <trkpt lat="44.36131" lon="4.85826">
        <ele>147</ele>
        <time>2018-10-12T09:48:19 02:00</time>
      </trkpt>
      <trkpt lat="44.3613" lon="4.85829">
        <ele>147</ele>
        <time>2018-10-12T09:48:20 02:00</time>
      </trkpt>
      <trkpt lat="44.3613" lon="4.85833">
        <ele>147</ele>
        <time>2018-10-12T09:48:21 02:00</time>
      </trkpt>
      <trkpt lat="44.36129" lon="4.85835">
        <ele>147</ele>
        <time>2018-10-12T09:48:22 02:00</time>
      </trkpt>
      <trkpt lat="44.36129" lon="4.85837">
        <ele>148</ele>
        <time>2018-10-12T09:48:23 02:00</time>
      </trkpt>
      <trkpt lat="44.36128" lon="4.85838">
        <ele>148</ele>
        <time>2018-10-12T09:48:24 02:00</time>
      </trkpt>
      <trkpt lat="44.36128" lon="4.85838">
        <ele>148</ele>
        <time>2018-10-12T09:48:25 02:00</time>
      </trkpt>
      <trkpt lat="44.36128" lon="4.85838">
        <ele>148</ele>
        <time>2018-10-12T09:48:26 02:00</time>
      </trkpt>
      <trkpt lat="44.36128" lon="4.85838">
        <ele>148</ele>
        <time>2018-10-12T09:48:27 02:00</time>
      </trkpt>
    </trkseg>
  </trk>
</gpx>